<?xml version="1.0" encoding="UTF-8"?>
<gpx version="1.1" creator=" " xmlns="http://www.topografix.com/GPX/1/1" xmlns:xsi="http://www.w3.org/2001/XMLSchema-instance" xsi:schemaLocation="http://www.topografix.com/GPX/1/1 http://www.topografix.com/GPX/1/1/gpx.xsd">
<metadata>
<name>Bernd1</name>
<desc></desc>
<link href="">
<text>  </text>
</link>
<time>2020-09-10T08:11:50Z</time>
</metadata>
<trk>
<trkseg>
<trkpt lat="48.754147" lon="9.986828">
<ele>648</ele>
</trkpt>
<trkpt lat="48.754147" lon="9.986828">
<ele>648</ele>
<time>2020-09-10T08:11:50Z</time>
</trkpt>
<trkpt lat="48.75415" lon="9.98682">
<ele>648</ele>
<time>2020-09-10T08:11:56Z</time>
</trkpt>
<trkpt lat="48.754153" lon="9.986757">
<ele>648</ele>
<time>2020-09-10T08:12:01Z</time>
</trkpt>
<trkpt lat="48.754145" lon="9.986728">
<ele>649</ele>
<time>2020-09-10T08:12:06Z</time>
</trkpt>
<trkpt lat="48.754088" lon="9.986755">
<ele>648</ele>
<time>2020-09-10T08:12:07Z</time>
</trkpt>
<trkpt lat="48.754032" lon="9.986837">
<ele>648</ele>
<time>2020-09-10T08:12:12Z</time>
</trkpt>
<trkpt lat="48.753977" lon="9.986985">
<ele>648</ele>
<time>2020-09-10T08:12:17Z</time>
</trkpt>
<trkpt lat="48.75392" lon="9.987202">
<ele>648</ele>
<time>2020-09-10T08:12:22Z</time>
</trkpt>
<trkpt lat="48.753855" lon="9.98733">
<ele>647</ele>
<time>2020-09-10T08:12:27Z</time>
</trkpt>
<trkpt lat="48.753652" lon="9.98734">
<ele>647</ele>
<time>2020-09-10T08:12:32Z</time>
</trkpt>
<trkpt lat="48.753382" lon="9.987378">
<ele>646</ele>
<time>2020-09-10T08:12:37Z</time>
</trkpt>
<trkpt lat="48.753057" lon="9.987422">
<ele>644</ele>
<time>2020-09-10T08:12:42Z</time>
</trkpt>
<trkpt lat="48.752682" lon="9.987427">
<ele>643</ele>
<time>2020-09-10T08:12:47Z</time>
</trkpt>
<trkpt lat="48.752367" lon="9.98734">
<ele>641</ele>
<time>2020-09-10T08:12:52Z</time>
</trkpt>
<trkpt lat="48.75215" lon="9.987357">
<ele>638</ele>
<time>2020-09-10T08:12:58Z</time>
</trkpt>
<trkpt lat="48.75215" lon="9.987373">
<ele>638</ele>
<time>2020-09-10T08:13:03Z</time>
</trkpt>
<trkpt lat="48.752187" lon="9.987553">
<ele>637</ele>
<time>2020-09-10T08:13:08Z</time>
</trkpt>
<trkpt lat="48.752308" lon="9.987828">
<ele>637</ele>
<time>2020-09-10T08:13:13Z</time>
</trkpt>
<trkpt lat="48.752455" lon="9.988177">
<ele>637</ele>
<time>2020-09-10T08:13:18Z</time>
</trkpt>
<trkpt lat="48.752587" lon="9.988572">
<ele>637</ele>
<time>2020-09-10T08:13:23Z</time>
</trkpt>
<trkpt lat="48.752717" lon="9.988995">
<ele>637</ele>
<time>2020-09-10T08:13:28Z</time>
</trkpt>
<trkpt lat="48.752837" lon="9.989407">
<ele>637</ele>
<time>2020-09-10T08:13:33Z</time>
</trkpt>
<trkpt lat="48.752963" lon="9.98983">
<ele>637</ele>
<time>2020-09-10T08:13:38Z</time>
</trkpt>
<trkpt lat="48.753065" lon="9.990247">
<ele>637</ele>
<time>2020-09-10T08:13:43Z</time>
</trkpt>
<trkpt lat="48.753165" lon="9.990702">
<ele>637</ele>
<time>2020-09-10T08:13:48Z</time>
</trkpt>
<trkpt lat="48.753253" lon="9.991177">
<ele>637</ele>
<time>2020-09-10T08:13:53Z</time>
</trkpt>
<trkpt lat="48.753328" lon="9.991767">
<ele>636</ele>
<time>2020-09-10T08:13:59Z</time>
</trkpt>
<trkpt lat="48.753395" lon="9.99227">
<ele>636</ele>
<time>2020-09-10T08:14:04Z</time>
</trkpt>
<trkpt lat="48.753457" lon="9.992752">
<ele>636</ele>
<time>2020-09-10T08:14:09Z</time>
</trkpt>
<trkpt lat="48.753487" lon="9.993252">
<ele>636</ele>
<time>2020-09-10T08:14:14Z</time>
</trkpt>
<trkpt lat="48.753415" lon="9.993722">
<ele>636</ele>
<time>2020-09-10T08:14:19Z</time>
</trkpt>
<trkpt lat="48.753245" lon="9.99411">
<ele>636</ele>
<time>2020-09-10T08:14:24Z</time>
</trkpt>
<trkpt lat="48.75302" lon="9.994395">
<ele>637</ele>
<time>2020-09-10T08:14:29Z</time>
</trkpt>
<trkpt lat="48.752788" lon="9.994675">
<ele>638</ele>
<time>2020-09-10T08:14:34Z</time>
</trkpt>
<trkpt lat="48.752518" lon="9.994995">
<ele>638</ele>
<time>2020-09-10T08:14:40Z</time>
</trkpt>
<trkpt lat="48.752297" lon="9.99526">
<ele>639</ele>
<time>2020-09-10T08:14:45Z</time>
</trkpt>
<trkpt lat="48.752073" lon="9.995527">
<ele>639</ele>
<time>2020-09-10T08:14:50Z</time>
</trkpt>
<trkpt lat="48.751857" lon="9.995793">
<ele>640</ele>
<time>2020-09-10T08:14:55Z</time>
</trkpt>
<trkpt lat="48.751623" lon="9.99607">
<ele>640</ele>
<time>2020-09-10T08:15:00Z</time>
</trkpt>
<trkpt lat="48.75139" lon="9.996347">
<ele>641</ele>
<time>2020-09-10T08:15:05Z</time>
</trkpt>
<trkpt lat="48.751148" lon="9.99663">
<ele>642</ele>
<time>2020-09-10T08:15:10Z</time>
</trkpt>
<trkpt lat="48.750908" lon="9.996905">
<ele>643</ele>
<time>2020-09-10T08:15:15Z</time>
</trkpt>
<trkpt lat="48.750623" lon="9.997242">
<ele>643</ele>
<time>2020-09-10T08:15:21Z</time>
</trkpt>
<trkpt lat="48.75039" lon="9.997532">
<ele>644</ele>
<time>2020-09-10T08:15:26Z</time>
</trkpt>
<trkpt lat="48.750147" lon="9.997803">
<ele>645</ele>
<time>2020-09-10T08:15:31Z</time>
</trkpt>
<trkpt lat="48.74986" lon="9.998">
<ele>645</ele>
<time>2020-09-10T08:15:36Z</time>
</trkpt>
<trkpt lat="48.749548" lon="9.99812">
<ele>645</ele>
<time>2020-09-10T08:15:41Z</time>
</trkpt>
<trkpt lat="48.749228" lon="9.99823">
<ele>645</ele>
<time>2020-09-10T08:15:46Z</time>
</trkpt>
<trkpt lat="48.748902" lon="9.998353">
<ele>645</ele>
<time>2020-09-10T08:15:51Z</time>
</trkpt>
<trkpt lat="48.748578" lon="9.99849">
<ele>645</ele>
<time>2020-09-10T08:15:56Z</time>
</trkpt>
<trkpt lat="48.748192" lon="9.998658">
<ele>645</ele>
<time>2020-09-10T08:16:02Z</time>
</trkpt>
<trkpt lat="48.747865" lon="9.998807">
<ele>645</ele>
<time>2020-09-10T08:16:07Z</time>
</trkpt>
<trkpt lat="48.747537" lon="9.998965">
<ele>645</ele>
<time>2020-09-10T08:16:12Z</time>
</trkpt>
<trkpt lat="48.747198" lon="9.999122">
<ele>645</ele>
<time>2020-09-10T08:16:17Z</time>
</trkpt>
<trkpt lat="48.74686" lon="9.999277">
<ele>644</ele>
<time>2020-09-10T08:16:22Z</time>
</trkpt>
<trkpt lat="48.746518" lon="9.99942">
<ele>644</ele>
<time>2020-09-10T08:16:27Z</time>
</trkpt>
<trkpt lat="48.746177" lon="9.999568">
<ele>644</ele>
<time>2020-09-10T08:16:32Z</time>
</trkpt>
<trkpt lat="48.745833" lon="9.999732">
<ele>644</ele>
<time>2020-09-10T08:16:37Z</time>
</trkpt>
<trkpt lat="48.745433" lon="10.000027">
<ele>644</ele>
<time>2020-09-10T08:16:43Z</time>
</trkpt>
<trkpt lat="48.745105" lon="10.000322">
<ele>644</ele>
<time>2020-09-10T08:16:48Z</time>
</trkpt>
<trkpt lat="48.744772" lon="10.000605">
<ele>643</ele>
<time>2020-09-10T08:16:53Z</time>
</trkpt>
<trkpt lat="48.744442" lon="10.000898">
<ele>643</ele>
<time>2020-09-10T08:16:58Z</time>
</trkpt>
<trkpt lat="48.744108" lon="10.001193">
<ele>643</ele>
<time>2020-09-10T08:17:03Z</time>
</trkpt>
<trkpt lat="48.74377" lon="10.001492">
<ele>643</ele>
<time>2020-09-10T08:17:08Z</time>
</trkpt>
<trkpt lat="48.74343" lon="10.001792">
<ele>642</ele>
<time>2020-09-10T08:17:13Z</time>
</trkpt>
<trkpt lat="48.743087" lon="10.00209">
<ele>642</ele>
<time>2020-09-10T08:17:18Z</time>
</trkpt>
<trkpt lat="48.742688" lon="10.002478">
<ele>642</ele>
<time>2020-09-10T08:17:24Z</time>
</trkpt>
<trkpt lat="48.74237" lon="10.002833">
<ele>642</ele>
<time>2020-09-10T08:17:29Z</time>
</trkpt>
<trkpt lat="48.742055" lon="10.003187">
<ele>641</ele>
<time>2020-09-10T08:17:34Z</time>
</trkpt>
<trkpt lat="48.74174" lon="10.003545">
<ele>640</ele>
<time>2020-09-10T08:17:39Z</time>
</trkpt>
<trkpt lat="48.74143" lon="10.003903">
<ele>640</ele>
<time>2020-09-10T08:17:44Z</time>
</trkpt>
<trkpt lat="48.741117" lon="10.00426">
<ele>640</ele>
<time>2020-09-10T08:17:49Z</time>
</trkpt>
<trkpt lat="48.740802" lon="10.004613">
<ele>640</ele>
<time>2020-09-10T08:17:54Z</time>
</trkpt>
<trkpt lat="48.740488" lon="10.004972">
<ele>639</ele>
<time>2020-09-10T08:17:59Z</time>
</trkpt>
<trkpt lat="48.740117" lon="10.005402">
<ele>639</ele>
<time>2020-09-10T08:18:05Z</time>
</trkpt>
<trkpt lat="48.739805" lon="10.00576">
<ele>639</ele>
<time>2020-09-10T08:18:10Z</time>
</trkpt>
<trkpt lat="48.739492" lon="10.006112">
<ele>638</ele>
<time>2020-09-10T08:18:15Z</time>
</trkpt>
<trkpt lat="48.739185" lon="10.006465">
<ele>638</ele>
<time>2020-09-10T08:18:20Z</time>
</trkpt>
<trkpt lat="48.738883" lon="10.006808">
<ele>637</ele>
<time>2020-09-10T08:18:25Z</time>
</trkpt>
<trkpt lat="48.738587" lon="10.00715">
<ele>637</ele>
<time>2020-09-10T08:18:30Z</time>
</trkpt>
<trkpt lat="48.738288" lon="10.007487">
<ele>637</ele>
<time>2020-09-10T08:18:35Z</time>
</trkpt>
<trkpt lat="48.737995" lon="10.007825">
<ele>637</ele>
<time>2020-09-10T08:18:40Z</time>
</trkpt>
<trkpt lat="48.737653" lon="10.008228">
<ele>637</ele>
<time>2020-09-10T08:18:46Z</time>
</trkpt>
<trkpt lat="48.737388" lon="10.008618">
<ele>637</ele>
<time>2020-09-10T08:18:51Z</time>
</trkpt>
<trkpt lat="48.73713" lon="10.00909">
<ele>635</ele>
<time>2020-09-10T08:18:56Z</time>
</trkpt>
<trkpt lat="48.73685" lon="10.0096">
<ele>634</ele>
<time>2020-09-10T08:19:01Z</time>
</trkpt>
<trkpt lat="48.736553" lon="10.010135">
<ele>632</ele>
<time>2020-09-10T08:19:06Z</time>
</trkpt>
<trkpt lat="48.736243" lon="10.010692">
<ele>630</ele>
<time>2020-09-10T08:19:11Z</time>
</trkpt>
<trkpt lat="48.735938" lon="10.011238">
<ele>628</ele>
<time>2020-09-10T08:19:16Z</time>
</trkpt>
<trkpt lat="48.735633" lon="10.011772">
<ele>626</ele>
<time>2020-09-10T08:19:21Z</time>
</trkpt>
<trkpt lat="48.735272" lon="10.012423">
<ele>624</ele>
<time>2020-09-10T08:19:27Z</time>
</trkpt>
<trkpt lat="48.734968" lon="10.012967">
<ele>622</ele>
<time>2020-09-10T08:19:32Z</time>
</trkpt>
<trkpt lat="48.734668" lon="10.013513">
<ele>622</ele>
<time>2020-09-10T08:19:37Z</time>
</trkpt>
<trkpt lat="48.734355" lon="10.01405">
<ele>619</ele>
<time>2020-09-10T08:19:42Z</time>
</trkpt>
<trkpt lat="48.734003" lon="10.01451">
<ele>619</ele>
<time>2020-09-10T08:19:47Z</time>
</trkpt>
<trkpt lat="48.733643" lon="10.014928">
<ele>619</ele>
<time>2020-09-10T08:19:52Z</time>
</trkpt>
<trkpt lat="48.73329" lon="10.015333">
<ele>618</ele>
<time>2020-09-10T08:19:57Z</time>
</trkpt>
<trkpt lat="48.732975" lon="10.015735">
<ele>617</ele>
<time>2020-09-10T08:20:02Z</time>
</trkpt>
<trkpt lat="48.73271" lon="10.01621">
<ele>618</ele>
<time>2020-09-10T08:20:08Z</time>
</trkpt>
<trkpt lat="48.732578" lon="10.016533">
<ele>618</ele>
<time>2020-09-10T08:20:13Z</time>
</trkpt>
<trkpt lat="48.732475" lon="10.016815">
<ele>620</ele>
<time>2020-09-10T08:20:18Z</time>
</trkpt>
<trkpt lat="48.732367" lon="10.017088">
<ele>622</ele>
<time>2020-09-10T08:20:23Z</time>
</trkpt>
<trkpt lat="48.732263" lon="10.017345">
<ele>624</ele>
<time>2020-09-10T08:20:28Z</time>
</trkpt>
<trkpt lat="48.732167" lon="10.017605">
<ele>625</ele>
<time>2020-09-10T08:20:33Z</time>
</trkpt>
<trkpt lat="48.732105" lon="10.017845">
<ele>626</ele>
<time>2020-09-10T08:20:38Z</time>
</trkpt>
<trkpt lat="48.731988" lon="10.018088">
<ele>627</ele>
<time>2020-09-10T08:20:43Z</time>
</trkpt>
<trkpt lat="48.731842" lon="10.018378">
<ele>629</ele>
<time>2020-09-10T08:20:49Z</time>
</trkpt>
<trkpt lat="48.731732" lon="10.018603">
<ele>631</ele>
<time>2020-09-10T08:20:54Z</time>
</trkpt>
<trkpt lat="48.731615" lon="10.018823">
<ele>632</ele>
<time>2020-09-10T08:20:59Z</time>
</trkpt>
<trkpt lat="48.731472" lon="10.01904">
<ele>633</ele>
<time>2020-09-10T08:21:04Z</time>
</trkpt>
<trkpt lat="48.731292" lon="10.019297">
<ele>634</ele>
<time>2020-09-10T08:21:09Z</time>
</trkpt>
<trkpt lat="48.73114" lon="10.019577">
<ele>634</ele>
<time>2020-09-10T08:21:14Z</time>
</trkpt>
<trkpt lat="48.730952" lon="10.019875">
<ele>635</ele>
<time>2020-09-10T08:21:19Z</time>
</trkpt>
<trkpt lat="48.730747" lon="10.020152">
<ele>635</ele>
<time>2020-09-10T08:21:24Z</time>
</trkpt>
<trkpt lat="48.730482" lon="10.020558">
<ele>635</ele>
<time>2020-09-10T08:21:30Z</time>
</trkpt>
<trkpt lat="48.730252" lon="10.020917">
<ele>635</ele>
<time>2020-09-10T08:21:35Z</time>
</trkpt>
<trkpt lat="48.729945" lon="10.021243">
<ele>635</ele>
<time>2020-09-10T08:21:40Z</time>
</trkpt>
<trkpt lat="48.729578" lon="10.021427">
<ele>634</ele>
<time>2020-09-10T08:21:45Z</time>
</trkpt>
<trkpt lat="48.72919" lon="10.021547">
<ele>632</ele>
<time>2020-09-10T08:21:50Z</time>
</trkpt>
<trkpt lat="48.72883" lon="10.021655">
<ele>632</ele>
<time>2020-09-10T08:21:55Z</time>
</trkpt>
<trkpt lat="48.72849" lon="10.021752">
<ele>632</ele>
<time>2020-09-10T08:22:00Z</time>
</trkpt>
<trkpt lat="48.728167" lon="10.02186">
<ele>633</ele>
<time>2020-09-10T08:22:05Z</time>
</trkpt>
<trkpt lat="48.727785" lon="10.022042">
<ele>633</ele>
<time>2020-09-10T08:22:11Z</time>
</trkpt>
<trkpt lat="48.727453" lon="10.022248">
<ele>633</ele>
<time>2020-09-10T08:22:16Z</time>
</trkpt>
<trkpt lat="48.727128" lon="10.022502">
<ele>633</ele>
<time>2020-09-10T08:22:21Z</time>
</trkpt>
<trkpt lat="48.726835" lon="10.022785">
<ele>633</ele>
<time>2020-09-10T08:22:26Z</time>
</trkpt>
<trkpt lat="48.726568" lon="10.023108">
<ele>633</ele>
<time>2020-09-10T08:22:31Z</time>
</trkpt>
<trkpt lat="48.726325" lon="10.023427">
<ele>633</ele>
<time>2020-09-10T08:22:36Z</time>
</trkpt>
<trkpt lat="48.726083" lon="10.023748">
<ele>633</ele>
<time>2020-09-10T08:22:41Z</time>
</trkpt>
<trkpt lat="48.725847" lon="10.024052">
<ele>635</ele>
<time>2020-09-10T08:22:46Z</time>
</trkpt>
<trkpt lat="48.725573" lon="10.024388">
<ele>635</ele>
<time>2020-09-10T08:22:52Z</time>
</trkpt>
<trkpt lat="48.725337" lon="10.02468">
<ele>636</ele>
<time>2020-09-10T08:22:57Z</time>
</trkpt>
<trkpt lat="48.7251" lon="10.024982">
<ele>637</ele>
<time>2020-09-10T08:23:02Z</time>
</trkpt>
<trkpt lat="48.724862" lon="10.025298">
<ele>637</ele>
<time>2020-09-10T08:23:07Z</time>
</trkpt>
<trkpt lat="48.724625" lon="10.02562">
<ele>638</ele>
<time>2020-09-10T08:23:12Z</time>
</trkpt>
<trkpt lat="48.724393" lon="10.025923">
<ele>638</ele>
<time>2020-09-10T08:23:17Z</time>
</trkpt>
<trkpt lat="48.72417" lon="10.026243">
<ele>638</ele>
<time>2020-09-10T08:23:22Z</time>
</trkpt>
<trkpt lat="48.723897" lon="10.026618">
<ele>638</ele>
<time>2020-09-10T08:23:27Z</time>
</trkpt>
<trkpt lat="48.723578" lon="10.027093">
<ele>638</ele>
<time>2020-09-10T08:23:33Z</time>
</trkpt>
<trkpt lat="48.723315" lon="10.027487">
<ele>638</ele>
<time>2020-09-10T08:23:38Z</time>
</trkpt>
<trkpt lat="48.723057" lon="10.027867">
<ele>637</ele>
<time>2020-09-10T08:23:43Z</time>
</trkpt>
<trkpt lat="48.722798" lon="10.028263">
<ele>637</ele>
<time>2020-09-10T08:23:48Z</time>
</trkpt>
<trkpt lat="48.722537" lon="10.02863">
<ele>637</ele>
<time>2020-09-10T08:23:53Z</time>
</trkpt>
<trkpt lat="48.722285" lon="10.02898">
<ele>637</ele>
<time>2020-09-10T08:23:58Z</time>
</trkpt>
<trkpt lat="48.722033" lon="10.029323">
<ele>637</ele>
<time>2020-09-10T08:24:03Z</time>
</trkpt>
<trkpt lat="48.721802" lon="10.029667">
<ele>638</ele>
<time>2020-09-10T08:24:08Z</time>
</trkpt>
<trkpt lat="48.7215" lon="10.030142">
<ele>638</ele>
<time>2020-09-10T08:24:14Z</time>
</trkpt>
<trkpt lat="48.72125" lon="10.030533">
<ele>638</ele>
<time>2020-09-10T08:24:19Z</time>
</trkpt>
<trkpt lat="48.721" lon="10.030942">
<ele>638</ele>
<time>2020-09-10T08:24:24Z</time>
</trkpt>
<trkpt lat="48.720738" lon="10.031362">
<ele>638</ele>
<time>2020-09-10T08:24:29Z</time>
</trkpt>
<trkpt lat="48.720482" lon="10.031775">
<ele>638</ele>
<time>2020-09-10T08:24:34Z</time>
</trkpt>
<trkpt lat="48.720243" lon="10.032165">
<ele>638</ele>
<time>2020-09-10T08:24:39Z</time>
</trkpt>
<trkpt lat="48.720013" lon="10.032513">
<ele>638</ele>
<time>2020-09-10T08:24:44Z</time>
</trkpt>
<trkpt lat="48.719763" lon="10.03283">
<ele>638</ele>
<time>2020-09-10T08:24:49Z</time>
</trkpt>
<trkpt lat="48.71941" lon="10.0332">
<ele>638</ele>
<time>2020-09-10T08:24:55Z</time>
</trkpt>
<trkpt lat="48.719112" lon="10.033503">
<ele>638</ele>
<time>2020-09-10T08:25:00Z</time>
</trkpt>
<trkpt lat="48.718818" lon="10.033803">
<ele>638</ele>
<time>2020-09-10T08:25:05Z</time>
</trkpt>
<trkpt lat="48.718535" lon="10.034092">
<ele>638</ele>
<time>2020-09-10T08:25:10Z</time>
</trkpt>
<trkpt lat="48.71827" lon="10.034368">
<ele>638</ele>
<time>2020-09-10T08:25:15Z</time>
</trkpt>
<trkpt lat="48.718015" lon="10.034633">
<ele>639</ele>
<time>2020-09-10T08:25:20Z</time>
</trkpt>
<trkpt lat="48.717763" lon="10.034872">
<ele>640</ele>
<time>2020-09-10T08:25:25Z</time>
</trkpt>
<trkpt lat="48.717495" lon="10.035105">
<ele>642</ele>
<time>2020-09-10T08:25:30Z</time>
</trkpt>
<trkpt lat="48.717118" lon="10.035367">
<ele>642</ele>
<time>2020-09-10T08:25:36Z</time>
</trkpt>
<trkpt lat="48.716792" lon="10.035577">
<ele>642</ele>
<time>2020-09-10T08:25:41Z</time>
</trkpt>
<trkpt lat="48.716438" lon="10.035797">
<ele>642</ele>
<time>2020-09-10T08:25:46Z</time>
</trkpt>
<trkpt lat="48.716078" lon="10.036017">
<ele>641</ele>
<time>2020-09-10T08:25:51Z</time>
</trkpt>
<trkpt lat="48.71571" lon="10.036263">
<ele>641</ele>
<time>2020-09-10T08:25:56Z</time>
</trkpt>
<trkpt lat="48.71534" lon="10.036522">
<ele>640</ele>
<time>2020-09-10T08:26:01Z</time>
</trkpt>
<trkpt lat="48.714965" lon="10.036845">
<ele>638</ele>
<time>2020-09-10T08:26:06Z</time>
</trkpt>
<trkpt lat="48.71461" lon="10.037232">
<ele>637</ele>
<time>2020-09-10T08:26:11Z</time>
</trkpt>
<trkpt lat="48.71421" lon="10.037822">
<ele>635</ele>
<time>2020-09-10T08:26:17Z</time>
</trkpt>
<trkpt lat="48.713905" lon="10.03839">
<ele>633</ele>
<time>2020-09-10T08:26:22Z</time>
</trkpt>
<trkpt lat="48.713617" lon="10.038963">
<ele>632</ele>
<time>2020-09-10T08:26:27Z</time>
</trkpt>
<trkpt lat="48.71333" lon="10.03955">
<ele>630</ele>
<time>2020-09-10T08:26:32Z</time>
</trkpt>
<trkpt lat="48.713075" lon="10.04008">
<ele>630</ele>
<time>2020-09-10T08:26:37Z</time>
</trkpt>
<trkpt lat="48.71284" lon="10.040555">
<ele>630</ele>
<time>2020-09-10T08:26:42Z</time>
</trkpt>
<trkpt lat="48.712623" lon="10.04102">
<ele>630</ele>
<time>2020-09-10T08:26:47Z</time>
</trkpt>
<trkpt lat="48.712417" lon="10.041462">
<ele>630</ele>
<time>2020-09-10T08:26:52Z</time>
</trkpt>
<trkpt lat="48.712147" lon="10.041997">
<ele>630</ele>
<time>2020-09-10T08:26:58Z</time>
</trkpt>
<trkpt lat="48.711922" lon="10.042463">
<ele>630</ele>
<time>2020-09-10T08:27:03Z</time>
</trkpt>
<trkpt lat="48.711692" lon="10.042925">
<ele>630</ele>
<time>2020-09-10T08:27:08Z</time>
</trkpt>
<trkpt lat="48.711475" lon="10.043375">
<ele>630</ele>
<time>2020-09-10T08:27:13Z</time>
</trkpt>
<trkpt lat="48.71125" lon="10.043833">
<ele>630</ele>
<time>2020-09-10T08:27:18Z</time>
</trkpt>
<trkpt lat="48.711027" lon="10.044302">
<ele>629</ele>
<time>2020-09-10T08:27:23Z</time>
</trkpt>
<trkpt lat="48.710802" lon="10.044788">
<ele>629</ele>
<time>2020-09-10T08:27:28Z</time>
</trkpt>
<trkpt lat="48.710552" lon="10.04528">
<ele>628</ele>
<time>2020-09-10T08:27:33Z</time>
</trkpt>
<trkpt lat="48.71025" lon="10.045858">
<ele>627</ele>
<time>2020-09-10T08:27:39Z</time>
</trkpt>
<trkpt lat="48.709965" lon="10.046317">
<ele>627</ele>
<time>2020-09-10T08:27:44Z</time>
</trkpt>
<trkpt lat="48.709693" lon="10.046723">
<ele>627</ele>
<time>2020-09-10T08:27:49Z</time>
</trkpt>
<trkpt lat="48.709445" lon="10.04709">
<ele>627</ele>
<time>2020-09-10T08:27:54Z</time>
</trkpt>
<trkpt lat="48.709207" lon="10.047442">
<ele>629</ele>
<time>2020-09-10T08:27:59Z</time>
</trkpt>
<trkpt lat="48.708973" lon="10.047778">
<ele>629</ele>
<time>2020-09-10T08:28:04Z</time>
</trkpt>
<trkpt lat="48.708752" lon="10.048117">
<ele>630</ele>
<time>2020-09-10T08:28:09Z</time>
</trkpt>
<trkpt lat="48.708533" lon="10.048432">
<ele>631</ele>
<time>2020-09-10T08:28:14Z</time>
</trkpt>
<trkpt lat="48.708288" lon="10.048808">
<ele>632</ele>
<time>2020-09-10T08:28:20Z</time>
</trkpt>
<trkpt lat="48.708082" lon="10.049112">
<ele>632</ele>
<time>2020-09-10T08:28:25Z</time>
</trkpt>
<trkpt lat="48.707878" lon="10.049418">
<ele>633</ele>
<time>2020-09-10T08:28:30Z</time>
</trkpt>
<trkpt lat="48.707675" lon="10.049727">
<ele>634</ele>
<time>2020-09-10T08:28:35Z</time>
</trkpt>
<trkpt lat="48.707467" lon="10.05003">
<ele>635</ele>
<time>2020-09-10T08:28:40Z</time>
</trkpt>
<trkpt lat="48.707252" lon="10.050345">
<ele>635</ele>
<time>2020-09-10T08:28:45Z</time>
</trkpt>
<trkpt lat="48.70702" lon="10.050653">
<ele>636</ele>
<time>2020-09-10T08:28:50Z</time>
</trkpt>
<trkpt lat="48.706752" lon="10.0509">
<ele>636</ele>
<time>2020-09-10T08:28:55Z</time>
</trkpt>
<trkpt lat="48.706405" lon="10.051157">
<ele>636</ele>
<time>2020-09-10T08:29:01Z</time>
</trkpt>
<trkpt lat="48.706095" lon="10.051387">
<ele>636</ele>
<time>2020-09-10T08:29:06Z</time>
</trkpt>
<trkpt lat="48.705753" lon="10.051643">
<ele>635</ele>
<time>2020-09-10T08:29:11Z</time>
</trkpt>
<trkpt lat="48.70539" lon="10.051917">
<ele>634</ele>
<time>2020-09-10T08:29:16Z</time>
</trkpt>
<trkpt lat="48.705005" lon="10.052202">
<ele>632</ele>
<time>2020-09-10T08:29:21Z</time>
</trkpt>
<trkpt lat="48.704607" lon="10.052495">
<ele>631</ele>
<time>2020-09-10T08:29:26Z</time>
</trkpt>
<trkpt lat="48.704207" lon="10.052793">
<ele>630</ele>
<time>2020-09-10T08:29:31Z</time>
</trkpt>
<trkpt lat="48.703788" lon="10.053102">
<ele>628</ele>
<time>2020-09-10T08:29:36Z</time>
</trkpt>
<trkpt lat="48.70328" lon="10.053483">
<ele>624</ele>
<time>2020-09-10T08:29:42Z</time>
</trkpt>
<trkpt lat="48.702828" lon="10.053822">
<ele>622</ele>
<time>2020-09-10T08:29:47Z</time>
</trkpt>
<trkpt lat="48.702322" lon="10.054205">
<ele>618</ele>
<time>2020-09-10T08:29:52Z</time>
</trkpt>
<trkpt lat="48.701767" lon="10.05462">
<ele>614</ele>
<time>2020-09-10T08:29:57Z</time>
</trkpt>
<trkpt lat="48.701162" lon="10.054907">
<ele>608</ele>
<time>2020-09-10T08:30:02Z</time>
</trkpt>
<trkpt lat="48.700515" lon="10.054695">
<ele>603</ele>
<time>2020-09-10T08:30:07Z</time>
</trkpt>
<trkpt lat="48.699892" lon="10.054297">
<ele>597</ele>
<time>2020-09-10T08:30:12Z</time>
</trkpt>
<trkpt lat="48.699263" lon="10.053927">
<ele>591</ele>
<time>2020-09-10T08:30:17Z</time>
</trkpt>
<trkpt lat="48.69842" lon="10.053865">
<ele>584</ele>
<time>2020-09-10T08:30:23Z</time>
</trkpt>
<trkpt lat="48.697687" lon="10.053892">
<ele>578</ele>
<time>2020-09-10T08:30:28Z</time>
</trkpt>
<trkpt lat="48.69697" lon="10.054163">
<ele>572</ele>
<time>2020-09-10T08:30:33Z</time>
</trkpt>
<trkpt lat="48.69628" lon="10.054633">
<ele>564</ele>
<time>2020-09-10T08:30:38Z</time>
</trkpt>
<trkpt lat="48.695603" lon="10.055148">
<ele>559</ele>
<time>2020-09-10T08:30:43Z</time>
</trkpt>
<trkpt lat="48.694913" lon="10.055677">
<ele>553</ele>
<time>2020-09-10T08:30:48Z</time>
</trkpt>
<trkpt lat="48.694255" lon="10.056233">
<ele>547</ele>
<time>2020-09-10T08:30:53Z</time>
</trkpt>
<trkpt lat="48.693647" lon="10.056763">
<ele>543</ele>
<time>2020-09-10T08:30:58Z</time>
</trkpt>
<trkpt lat="48.692988" lon="10.057377">
<ele>540</ele>
<time>2020-09-10T08:31:04Z</time>
</trkpt>
<trkpt lat="48.692528" lon="10.057885">
<ele>539</ele>
<time>2020-09-10T08:31:09Z</time>
</trkpt>
<trkpt lat="48.69213" lon="10.058343">
<ele>537</ele>
<time>2020-09-10T08:31:14Z</time>
</trkpt>
<trkpt lat="48.6918" lon="10.058755">
<ele>536</ele>
<time>2020-09-10T08:31:19Z</time>
</trkpt>
<trkpt lat="48.691718" lon="10.059335">
<ele>536</ele>
<time>2020-09-10T08:31:24Z</time>
</trkpt>
<trkpt lat="48.691737" lon="10.059898">
<ele>535</ele>
<time>2020-09-10T08:31:29Z</time>
</trkpt>
<trkpt lat="48.691803" lon="10.060443">
<ele>535</ele>
<time>2020-09-10T08:31:34Z</time>
</trkpt>
<trkpt lat="48.691898" lon="10.06098">
<ele>535</ele>
<time>2020-09-10T08:31:39Z</time>
</trkpt>
<trkpt lat="48.69201" lon="10.061622">
<ele>534</ele>
<time>2020-09-10T08:31:45Z</time>
</trkpt>
<trkpt lat="48.692083" lon="10.06218">
<ele>534</ele>
<time>2020-09-10T08:31:50Z</time>
</trkpt>
<trkpt lat="48.69213" lon="10.062743">
<ele>534</ele>
<time>2020-09-10T08:31:55Z</time>
</trkpt>
<trkpt lat="48.69216" lon="10.063312">
<ele>534</ele>
<time>2020-09-10T08:32:00Z</time>
</trkpt>
<trkpt lat="48.69223" lon="10.063888">
<ele>534</ele>
<time>2020-09-10T08:32:05Z</time>
</trkpt>
<trkpt lat="48.692287" lon="10.064465">
<ele>533</ele>
<time>2020-09-10T08:32:10Z</time>
</trkpt>
<trkpt lat="48.692347" lon="10.065055">
<ele>533</ele>
<time>2020-09-10T08:32:15Z</time>
</trkpt>
<trkpt lat="48.692438" lon="10.065642">
<ele>532</ele>
<time>2020-09-10T08:32:20Z</time>
</trkpt>
<trkpt lat="48.692647" lon="10.066293">
<ele>532</ele>
<time>2020-09-10T08:32:26Z</time>
</trkpt>
<trkpt lat="48.692842" lon="10.066805">
<ele>531</ele>
<time>2020-09-10T08:32:31Z</time>
</trkpt>
<trkpt lat="48.693045" lon="10.06731">
<ele>531</ele>
<time>2020-09-10T08:32:36Z</time>
</trkpt>
<trkpt lat="48.693245" lon="10.067832">
<ele>530</ele>
<time>2020-09-10T08:32:41Z</time>
</trkpt>
<trkpt lat="48.693435" lon="10.068328">
<ele>530</ele>
<time>2020-09-10T08:32:46Z</time>
</trkpt>
<trkpt lat="48.693618" lon="10.0688">
<ele>530</ele>
<time>2020-09-10T08:32:51Z</time>
</trkpt>
<trkpt lat="48.693587" lon="10.06918">
<ele>530</ele>
<time>2020-09-10T08:32:56Z</time>
</trkpt>
<trkpt lat="48.693567" lon="10.069652">
<ele>530</ele>
<time>2020-09-10T08:33:01Z</time>
</trkpt>
<trkpt lat="48.693562" lon="10.070237">
<ele>529</ele>
<time>2020-09-10T08:33:07Z</time>
</trkpt>
<trkpt lat="48.693558" lon="10.070742">
<ele>529</ele>
<time>2020-09-10T08:33:12Z</time>
</trkpt>
<trkpt lat="48.693543" lon="10.071233">
<ele>529</ele>
<time>2020-09-10T08:33:17Z</time>
</trkpt>
<trkpt lat="48.69347" lon="10.071718">
<ele>529</ele>
<time>2020-09-10T08:33:22Z</time>
</trkpt>
<trkpt lat="48.693378" lon="10.07217">
<ele>529</ele>
<time>2020-09-10T08:33:27Z</time>
</trkpt>
<trkpt lat="48.693327" lon="10.072628">
<ele>529</ele>
<time>2020-09-10T08:33:32Z</time>
</trkpt>
<trkpt lat="48.693312" lon="10.073103">
<ele>528</ele>
<time>2020-09-10T08:33:37Z</time>
</trkpt>
<trkpt lat="48.69334" lon="10.073603">
<ele>528</ele>
<time>2020-09-10T08:33:42Z</time>
</trkpt>
<trkpt lat="48.6934" lon="10.07419">
<ele>528</ele>
<time>2020-09-10T08:33:48Z</time>
</trkpt>
<trkpt lat="48.693408" lon="10.074633">
<ele>528</ele>
<time>2020-09-10T08:33:53Z</time>
</trkpt>
<trkpt lat="48.693423" lon="10.075072">
<ele>528</ele>
<time>2020-09-10T08:33:58Z</time>
</trkpt>
<trkpt lat="48.69343" lon="10.075453">
<ele>528</ele>
<time>2020-09-10T08:34:03Z</time>
</trkpt>
<trkpt lat="48.693412" lon="10.07585">
<ele>528</ele>
<time>2020-09-10T08:34:08Z</time>
</trkpt>
<trkpt lat="48.693332" lon="10.076253">
<ele>528</ele>
<time>2020-09-10T08:34:13Z</time>
</trkpt>
<trkpt lat="48.693092" lon="10.07651">
<ele>528</ele>
<time>2020-09-10T08:34:18Z</time>
</trkpt>
<trkpt lat="48.692978" lon="10.07687">
<ele>528</ele>
<time>2020-09-10T08:34:23Z</time>
</trkpt>
<trkpt lat="48.693137" lon="10.077268">
<ele>527</ele>
<time>2020-09-10T08:34:29Z</time>
</trkpt>
<trkpt lat="48.693128" lon="10.077737">
<ele>527</ele>
<time>2020-09-10T08:34:34Z</time>
</trkpt>
<trkpt lat="48.693005" lon="10.078175">
<ele>526</ele>
<time>2020-09-10T08:34:39Z</time>
</trkpt>
<trkpt lat="48.692817" lon="10.078558">
<ele>526</ele>
<time>2020-09-10T08:34:44Z</time>
</trkpt>
<trkpt lat="48.692745" lon="10.078902">
<ele>526</ele>
<time>2020-09-10T08:34:49Z</time>
</trkpt>
<trkpt lat="48.692542" lon="10.079312">
<ele>524</ele>
<time>2020-09-10T08:34:54Z</time>
</trkpt>
<trkpt lat="48.69252" lon="10.079792">
<ele>524</ele>
<time>2020-09-10T08:34:59Z</time>
</trkpt>
<trkpt lat="48.692402" lon="10.080143">
<ele>524</ele>
<time>2020-09-10T08:35:04Z</time>
</trkpt>
<trkpt lat="48.692265" lon="10.080522">
<ele>524</ele>
<time>2020-09-10T08:35:10Z</time>
</trkpt>
<trkpt lat="48.69204" lon="10.080837">
<ele>524</ele>
<time>2020-09-10T08:35:15Z</time>
</trkpt>
<trkpt lat="48.691788" lon="10.081188">
<ele>524</ele>
<time>2020-09-10T08:35:20Z</time>
</trkpt>
<trkpt lat="48.691558" lon="10.081598">
<ele>524</ele>
<time>2020-09-10T08:35:25Z</time>
</trkpt>
<trkpt lat="48.69138" lon="10.081993">
<ele>524</ele>
<time>2020-09-10T08:35:30Z</time>
</trkpt>
<trkpt lat="48.691235" lon="10.08242">
<ele>524</ele>
<time>2020-09-10T08:35:35Z</time>
</trkpt>
<trkpt lat="48.691122" lon="10.082898">
<ele>524</ele>
<time>2020-09-10T08:35:40Z</time>
</trkpt>
<trkpt lat="48.691047" lon="10.08339">
<ele>524</ele>
<time>2020-09-10T08:35:45Z</time>
</trkpt>
<trkpt lat="48.690963" lon="10.083998">
<ele>524</ele>
<time>2020-09-10T08:35:51Z</time>
</trkpt>
<trkpt lat="48.690828" lon="10.084483">
<ele>524</ele>
<time>2020-09-10T08:35:56Z</time>
</trkpt>
<trkpt lat="48.690648" lon="10.084928">
<ele>524</ele>
<time>2020-09-10T08:36:01Z</time>
</trkpt>
<trkpt lat="48.690455" lon="10.085372">
<ele>524</ele>
<time>2020-09-10T08:36:06Z</time>
</trkpt>
<trkpt lat="48.690255" lon="10.085803">
<ele>524</ele>
<time>2020-09-10T08:36:11Z</time>
</trkpt>
<trkpt lat="48.68997" lon="10.086273">
<ele>524</ele>
<time>2020-09-10T08:36:17Z</time>
</trkpt>
<trkpt lat="48.68964" lon="10.086753">
<ele>524</ele>
<time>2020-09-10T08:36:22Z</time>
</trkpt>
<trkpt lat="48.68938" lon="10.087183">
<ele>523</ele>
<time>2020-09-10T08:36:28Z</time>
</trkpt>
<trkpt lat="48.68915" lon="10.08763">
<ele>523</ele>
<time>2020-09-10T08:36:33Z</time>
</trkpt>
<trkpt lat="48.688945" lon="10.088052">
<ele>523</ele>
<time>2020-09-10T08:36:38Z</time>
</trkpt>
<trkpt lat="48.688718" lon="10.088472">
<ele>523</ele>
<time>2020-09-10T08:36:44Z</time>
</trkpt>
<trkpt lat="48.688543" lon="10.088775">
<ele>525</ele>
<time>2020-09-10T08:36:49Z</time>
</trkpt>
<trkpt lat="48.688357" lon="10.089047">
<ele>526</ele>
<time>2020-09-10T08:36:54Z</time>
</trkpt>
<trkpt lat="48.688163" lon="10.0893">
<ele>527</ele>
<time>2020-09-10T08:36:59Z</time>
</trkpt>
<trkpt lat="48.68796" lon="10.089552">
<ele>527</ele>
<time>2020-09-10T08:37:04Z</time>
</trkpt>
<trkpt lat="48.687743" lon="10.089822">
<ele>528</ele>
<time>2020-09-10T08:37:09Z</time>
</trkpt>
<trkpt lat="48.68748" lon="10.090178">
<ele>528</ele>
<time>2020-09-10T08:37:15Z</time>
</trkpt>
<trkpt lat="48.68725" lon="10.090465">
<ele>528</ele>
<time>2020-09-10T08:37:20Z</time>
</trkpt>
<trkpt lat="48.68696" lon="10.090775">
<ele>528</ele>
<time>2020-09-10T08:37:26Z</time>
</trkpt>
<trkpt lat="48.686722" lon="10.09102">
<ele>529</ele>
<time>2020-09-10T08:37:31Z</time>
</trkpt>
<trkpt lat="48.686493" lon="10.091273">
<ele>530</ele>
<time>2020-09-10T08:37:36Z</time>
</trkpt>
<trkpt lat="48.68627" lon="10.091528">
<ele>531</ele>
<time>2020-09-10T08:37:41Z</time>
</trkpt>
<trkpt lat="48.685987" lon="10.091835">
<ele>532</ele>
<time>2020-09-10T08:37:47Z</time>
</trkpt>
<trkpt lat="48.68574" lon="10.092103">
<ele>532</ele>
<time>2020-09-10T08:37:52Z</time>
</trkpt>
<trkpt lat="48.685497" lon="10.092375">
<ele>532</ele>
<time>2020-09-10T08:37:57Z</time>
</trkpt>
<trkpt lat="48.685265" lon="10.092678">
<ele>532</ele>
<time>2020-09-10T08:38:02Z</time>
</trkpt>
<trkpt lat="48.685018" lon="10.093087">
<ele>532</ele>
<time>2020-09-10T08:38:08Z</time>
</trkpt>
<trkpt lat="48.684833" lon="10.093463">
<ele>532</ele>
<time>2020-09-10T08:38:13Z</time>
</trkpt>
<trkpt lat="48.68463" lon="10.093868">
<ele>532</ele>
<time>2020-09-10T08:38:18Z</time>
</trkpt>
<trkpt lat="48.684418" lon="10.094267">
<ele>532</ele>
<time>2020-09-10T08:38:23Z</time>
</trkpt>
<trkpt lat="48.684202" lon="10.094657">
<ele>531</ele>
<time>2020-09-10T08:38:28Z</time>
</trkpt>
<trkpt lat="48.683977" lon="10.095088">
<ele>530</ele>
<time>2020-09-10T08:38:33Z</time>
</trkpt>
<trkpt lat="48.683737" lon="10.095562">
<ele>529</ele>
<time>2020-09-10T08:38:38Z</time>
</trkpt>
<trkpt lat="48.683487" lon="10.096025">
<ele>528</ele>
<time>2020-09-10T08:38:43Z</time>
</trkpt>
<trkpt lat="48.683258" lon="10.096465">
<ele>527</ele>
<time>2020-09-10T08:38:48Z</time>
</trkpt>
<trkpt lat="48.683025" lon="10.096898">
<ele>527</ele>
<time>2020-09-10T08:38:53Z</time>
</trkpt>
<trkpt lat="48.682795" lon="10.097347">
<ele>527</ele>
<time>2020-09-10T08:38:58Z</time>
</trkpt>
<trkpt lat="48.682527" lon="10.09792">
<ele>527</ele>
<time>2020-09-10T08:39:04Z</time>
</trkpt>
<trkpt lat="48.682298" lon="10.098408">
<ele>524</ele>
<time>2020-09-10T08:39:09Z</time>
</trkpt>
<trkpt lat="48.682058" lon="10.09886">
<ele>522</ele>
<time>2020-09-10T08:39:14Z</time>
</trkpt>
<trkpt lat="48.681738" lon="10.099178">
<ele>520</ele>
<time>2020-09-10T08:39:19Z</time>
</trkpt>
<trkpt lat="48.681423" lon="10.099423">
<ele>518</ele>
<time>2020-09-10T08:39:24Z</time>
</trkpt>
<trkpt lat="48.68131" lon="10.099922">
<ele>516</ele>
<time>2020-09-10T08:39:29Z</time>
</trkpt>
<trkpt lat="48.681237" lon="10.100503">
<ele>514</ele>
<time>2020-09-10T08:39:34Z</time>
</trkpt>
<trkpt lat="48.681167" lon="10.101087">
<ele>513</ele>
<time>2020-09-10T08:39:39Z</time>
</trkpt>
<trkpt lat="48.6811" lon="10.101657">
<ele>513</ele>
<time>2020-09-10T08:39:44Z</time>
</trkpt>
<trkpt lat="48.681035" lon="10.102197">
<ele>512</ele>
<time>2020-09-10T08:39:49Z</time>
</trkpt>
<trkpt lat="48.680975" lon="10.10266">
<ele>512</ele>
<time>2020-09-10T08:39:54Z</time>
</trkpt>
<trkpt lat="48.680853" lon="10.103013">
<ele>512</ele>
<time>2020-09-10T08:39:59Z</time>
</trkpt>
<trkpt lat="48.68069" lon="10.103417">
<ele>511</ele>
<time>2020-09-10T08:40:04Z</time>
</trkpt>
<trkpt lat="48.680453" lon="10.103775">
<ele>511</ele>
<time>2020-09-10T08:40:09Z</time>
</trkpt>
<trkpt lat="48.680213" lon="10.103965">
<ele>510</ele>
<time>2020-09-10T08:40:14Z</time>
</trkpt>
<trkpt lat="48.680008" lon="10.104067">
<ele>509</ele>
<time>2020-09-10T08:40:19Z</time>
</trkpt>
<trkpt lat="48.679768" lon="10.104303">
<ele>509</ele>
<time>2020-09-10T08:40:24Z</time>
</trkpt>
<trkpt lat="48.67957" lon="10.1046">
<ele>509</ele>
<time>2020-09-10T08:40:29Z</time>
</trkpt>
<trkpt lat="48.67942" lon="10.104963">
<ele>509</ele>
<time>2020-09-10T08:40:34Z</time>
</trkpt>
<trkpt lat="48.67939" lon="10.105423">
<ele>509</ele>
<time>2020-09-10T08:40:39Z</time>
</trkpt>
<trkpt lat="48.679488" lon="10.105907">
<ele>509</ele>
<time>2020-09-10T08:40:44Z</time>
</trkpt>
<trkpt lat="48.679618" lon="10.106383">
<ele>509</ele>
<time>2020-09-10T08:40:49Z</time>
</trkpt>
<trkpt lat="48.679717" lon="10.106885">
<ele>508</ele>
<time>2020-09-10T08:40:54Z</time>
</trkpt>
<trkpt lat="48.67977" lon="10.107417">
<ele>508</ele>
<time>2020-09-10T08:40:59Z</time>
</trkpt>
<trkpt lat="48.67978" lon="10.107957">
<ele>508</ele>
<time>2020-09-10T08:41:04Z</time>
</trkpt>
<trkpt lat="48.679762" lon="10.108483">
<ele>508</ele>
<time>2020-09-10T08:41:09Z</time>
</trkpt>
<trkpt lat="48.67975" lon="10.108993">
<ele>508</ele>
<time>2020-09-10T08:41:14Z</time>
</trkpt>
<trkpt lat="48.679737" lon="10.109502">
<ele>507</ele>
<time>2020-09-10T08:41:19Z</time>
</trkpt>
<trkpt lat="48.679722" lon="10.11003">
<ele>507</ele>
<time>2020-09-10T08:41:24Z</time>
</trkpt>
<trkpt lat="48.679703" lon="10.11054">
<ele>507</ele>
<time>2020-09-10T08:41:29Z</time>
</trkpt>
<trkpt lat="48.67968" lon="10.111068">
<ele>507</ele>
<time>2020-09-10T08:41:34Z</time>
</trkpt>
<trkpt lat="48.679667" lon="10.111608">
<ele>506</ele>
<time>2020-09-10T08:41:39Z</time>
</trkpt>
<trkpt lat="48.679668" lon="10.11215">
<ele>506</ele>
<time>2020-09-10T08:41:44Z</time>
</trkpt>
<trkpt lat="48.67965" lon="10.112687">
<ele>506</ele>
<time>2020-09-10T08:41:49Z</time>
</trkpt>
<trkpt lat="48.679637" lon="10.113242">
<ele>506</ele>
<time>2020-09-10T08:41:54Z</time>
</trkpt>
<trkpt lat="48.679628" lon="10.113903">
<ele>505</ele>
<time>2020-09-10T08:42:00Z</time>
</trkpt>
<trkpt lat="48.679613" lon="10.11446">
<ele>505</ele>
<time>2020-09-10T08:42:05Z</time>
</trkpt>
<trkpt lat="48.679595" lon="10.11503">
<ele>505</ele>
<time>2020-09-10T08:42:10Z</time>
</trkpt>
<trkpt lat="48.67959" lon="10.1156">
<ele>505</ele>
<time>2020-09-10T08:42:15Z</time>
</trkpt>
<trkpt lat="48.679565" lon="10.116182">
<ele>505</ele>
<time>2020-09-10T08:42:20Z</time>
</trkpt>
<trkpt lat="48.679572" lon="10.11676">
<ele>504</ele>
<time>2020-09-10T08:42:25Z</time>
</trkpt>
<trkpt lat="48.679588" lon="10.11734">
<ele>504</ele>
<time>2020-09-10T08:42:30Z</time>
</trkpt>
<trkpt lat="48.679613" lon="10.118052">
<ele>504</ele>
<time>2020-09-10T08:42:36Z</time>
</trkpt>
<trkpt lat="48.679618" lon="10.118748">
<ele>504</ele>
<time>2020-09-10T08:42:41Z</time>
</trkpt>
<trkpt lat="48.679608" lon="10.11929">
<ele>504</ele>
<time>2020-09-10T08:42:46Z</time>
</trkpt>
<trkpt lat="48.679597" lon="10.119708">
<ele>503</ele>
<time>2020-09-10T08:42:52Z</time>
</trkpt>
<trkpt lat="48.679562" lon="10.120002">
<ele>503</ele>
<time>2020-09-10T08:42:57Z</time>
</trkpt>
<trkpt lat="48.67952" lon="10.120092">
<ele>503</ele>
<time>2020-09-10T08:43:02Z</time>
</trkpt>
<trkpt lat="48.679527" lon="10.120097">
<ele>503</ele>
<time>2020-09-10T08:43:05Z</time>
</trkpt>
<trkpt lat="48.679548" lon="10.12001">
<ele>503</ele>
<time>2020-09-10T08:43:07Z</time>
</trkpt>
<trkpt lat="48.679468" lon="10.120062">
<ele>503</ele>
<time>2020-09-10T08:43:12Z</time>
</trkpt>
<trkpt lat="48.679448" lon="10.120108">
<ele>503</ele>
<time>2020-09-10T08:43:17Z</time>
</trkpt>
<trkpt lat="48.679448" lon="10.120113">
<ele>503</ele>
<time>2020-09-10T08:43:18Z</time>
</trkpt>
<trkpt lat="48.679492" lon="10.120132">
<ele>503</ele>
<time>2020-09-10T08:43:23Z</time>
</trkpt>
<trkpt lat="48.679517" lon="10.120062">
<ele>503</ele>
<time>2020-09-10T08:43:28Z</time>
</trkpt>
<trkpt lat="48.679547" lon="10.120093">
<ele>503</ele>
<time>2020-09-10T08:43:34Z</time>
</trkpt>
<trkpt lat="48.679563" lon="10.120305">
<ele>503</ele>
<time>2020-09-10T08:43:39Z</time>
</trkpt>
<trkpt lat="48.679562" lon="10.120627">
<ele>503</ele>
<time>2020-09-10T08:43:44Z</time>
</trkpt>
<trkpt lat="48.679565" lon="10.121033">
<ele>503</ele>
<time>2020-09-10T08:43:49Z</time>
</trkpt>
<trkpt lat="48.67956" lon="10.121458">
<ele>503</ele>
<time>2020-09-10T08:43:55Z</time>
</trkpt>
<trkpt lat="48.679548" lon="10.121995">
<ele>503</ele>
<time>2020-09-10T08:44:00Z</time>
</trkpt>
<trkpt lat="48.679532" lon="10.122453">
<ele>503</ele>
<time>2020-09-10T08:44:05Z</time>
</trkpt>
<trkpt lat="48.679513" lon="10.122918">
<ele>503</ele>
<time>2020-09-10T08:44:10Z</time>
</trkpt>
<trkpt lat="48.679505" lon="10.123397">
<ele>503</ele>
<time>2020-09-10T08:44:15Z</time>
</trkpt>
<trkpt lat="48.679503" lon="10.123893">
<ele>502</ele>
<time>2020-09-10T08:44:20Z</time>
</trkpt>
<trkpt lat="48.679497" lon="10.12437">
<ele>502</ele>
<time>2020-09-10T08:44:25Z</time>
</trkpt>
<trkpt lat="48.679497" lon="10.124862">
<ele>502</ele>
<time>2020-09-10T08:44:30Z</time>
</trkpt>
<trkpt lat="48.679507" lon="10.125365">
<ele>502</ele>
<time>2020-09-10T08:44:36Z</time>
</trkpt>
<trkpt lat="48.679522" lon="10.125863">
<ele>502</ele>
<time>2020-09-10T08:44:41Z</time>
</trkpt>
<trkpt lat="48.679542" lon="10.126463">
<ele>502</ele>
<time>2020-09-10T08:44:46Z</time>
</trkpt>
<trkpt lat="48.679562" lon="10.126985">
<ele>501</ele>
<time>2020-09-10T08:44:51Z</time>
</trkpt>
<trkpt lat="48.679515" lon="10.127428">
<ele>501</ele>
<time>2020-09-10T08:44:56Z</time>
</trkpt>
<trkpt lat="48.679608" lon="10.127857">
<ele>501</ele>
<time>2020-09-10T08:45:01Z</time>
</trkpt>
<trkpt lat="48.679643" lon="10.128323">
<ele>501</ele>
<time>2020-09-10T08:45:06Z</time>
</trkpt>
<trkpt lat="48.67966" lon="10.1288">
<ele>501</ele>
<time>2020-09-10T08:45:11Z</time>
</trkpt>
<trkpt lat="48.67969" lon="10.129277">
<ele>501</ele>
<time>2020-09-10T08:45:16Z</time>
</trkpt>
<trkpt lat="48.679607" lon="10.129727">
<ele>501</ele>
<time>2020-09-10T08:45:21Z</time>
</trkpt>
<trkpt lat="48.67942" lon="10.130102">
<ele>501</ele>
<time>2020-09-10T08:45:26Z</time>
</trkpt>
<trkpt lat="48.679363" lon="10.1306">
<ele>501</ele>
<time>2020-09-10T08:45:32Z</time>
</trkpt>
<trkpt lat="48.679287" lon="10.13118">
<ele>501</ele>
<time>2020-09-10T08:45:37Z</time>
</trkpt>
<trkpt lat="48.679175" lon="10.13161">
<ele>501</ele>
<time>2020-09-10T08:45:43Z</time>
</trkpt>
<trkpt lat="48.67909" lon="10.132143">
<ele>501</ele>
<time>2020-09-10T08:45:48Z</time>
</trkpt>
<trkpt lat="48.67914" lon="10.132645">
<ele>501</ele>
<time>2020-09-10T08:45:53Z</time>
</trkpt>
<trkpt lat="48.679135" lon="10.133198">
<ele>500</ele>
<time>2020-09-10T08:45:58Z</time>
</trkpt>
<trkpt lat="48.679153" lon="10.133697">
<ele>500</ele>
<time>2020-09-10T08:46:03Z</time>
</trkpt>
<trkpt lat="48.679192" lon="10.134182">
<ele>499</ele>
<time>2020-09-10T08:46:08Z</time>
</trkpt>
<trkpt lat="48.679267" lon="10.134593">
<ele>499</ele>
<time>2020-09-10T08:46:14Z</time>
</trkpt>
<trkpt lat="48.679245" lon="10.135102">
<ele>499</ele>
<time>2020-09-10T08:46:19Z</time>
</trkpt>
<trkpt lat="48.67926" lon="10.135568">
<ele>499</ele>
<time>2020-09-10T08:46:24Z</time>
</trkpt>
<trkpt lat="48.679268" lon="10.136043">
<ele>499</ele>
<time>2020-09-10T08:46:29Z</time>
</trkpt>
<trkpt lat="48.679267" lon="10.136518">
<ele>499</ele>
<time>2020-09-10T08:46:34Z</time>
</trkpt>
<trkpt lat="48.679265" lon="10.136983">
<ele>499</ele>
<time>2020-09-10T08:46:39Z</time>
</trkpt>
<trkpt lat="48.67932" lon="10.137398">
<ele>499</ele>
<time>2020-09-10T08:46:44Z</time>
</trkpt>
<trkpt lat="48.679443" lon="10.137647">
<ele>498</ele>
<time>2020-09-10T08:46:49Z</time>
</trkpt>
<trkpt lat="48.67941" lon="10.138003">
<ele>498</ele>
<time>2020-09-10T08:46:54Z</time>
</trkpt>
<trkpt lat="48.679367" lon="10.13836">
<ele>498</ele>
<time>2020-09-10T08:46:59Z</time>
</trkpt>
<trkpt lat="48.67934" lon="10.13859">
<ele>498</ele>
<time>2020-09-10T08:47:04Z</time>
</trkpt>
<trkpt lat="48.679333" lon="10.138643">
<ele>498</ele>
<time>2020-09-10T08:47:09Z</time>
</trkpt>
<trkpt lat="48.679333" lon="10.138642">
<ele>498</ele>
<time>2020-09-10T08:47:10Z</time>
</trkpt>
<trkpt lat="48.679298" lon="10.138972">
<ele>498</ele>
<time>2020-09-10T08:47:15Z</time>
</trkpt>
<trkpt lat="48.679273" lon="10.139363">
<ele>498</ele>
<time>2020-09-10T08:47:20Z</time>
</trkpt>
<trkpt lat="48.679253" lon="10.13981">
<ele>498</ele>
<time>2020-09-10T08:47:25Z</time>
</trkpt>
<trkpt lat="48.679232" lon="10.140297">
<ele>498</ele>
<time>2020-09-10T08:47:30Z</time>
</trkpt>
<trkpt lat="48.679203" lon="10.140812">
<ele>498</ele>
<time>2020-09-10T08:47:35Z</time>
</trkpt>
<trkpt lat="48.679167" lon="10.141347">
<ele>498</ele>
<time>2020-09-10T08:47:40Z</time>
</trkpt>
<trkpt lat="48.679118" lon="10.141918">
<ele>497</ele>
<time>2020-09-10T08:47:45Z</time>
</trkpt>
<trkpt lat="48.679072" lon="10.142495">
<ele>497</ele>
<time>2020-09-10T08:47:50Z</time>
</trkpt>
<trkpt lat="48.679025" lon="10.143087">
<ele>497</ele>
<time>2020-09-10T08:47:55Z</time>
</trkpt>
<trkpt lat="48.678988" lon="10.14368">
<ele>497</ele>
<time>2020-09-10T08:48:00Z</time>
</trkpt>
<trkpt lat="48.678965" lon="10.144285">
<ele>497</ele>
<time>2020-09-10T08:48:05Z</time>
</trkpt>
<trkpt lat="48.678943" lon="10.144898">
<ele>497</ele>
<time>2020-09-10T08:48:11Z</time>
</trkpt>
<trkpt lat="48.678918" lon="10.145618">
<ele>496</ele>
<time>2020-09-10T08:48:16Z</time>
</trkpt>
<trkpt lat="48.6789" lon="10.146212">
<ele>496</ele>
<time>2020-09-10T08:48:21Z</time>
</trkpt>
<trkpt lat="48.678873" lon="10.146807">
<ele>496</ele>
<time>2020-09-10T08:48:26Z</time>
</trkpt>
<trkpt lat="48.678828" lon="10.147398">
<ele>496</ele>
<time>2020-09-10T08:48:31Z</time>
</trkpt>
<trkpt lat="48.678778" lon="10.147997">
<ele>496</ele>
<time>2020-09-10T08:48:36Z</time>
</trkpt>
<trkpt lat="48.67874" lon="10.148595">
<ele>496</ele>
<time>2020-09-10T08:48:42Z</time>
</trkpt>
<trkpt lat="48.678695" lon="10.149292">
<ele>495</ele>
<time>2020-09-10T08:48:48Z</time>
</trkpt>
<trkpt lat="48.678653" lon="10.149858">
<ele>495</ele>
<time>2020-09-10T08:48:53Z</time>
</trkpt>
<trkpt lat="48.67862" lon="10.15038">
<ele>495</ele>
<time>2020-09-10T08:48:59Z</time>
</trkpt>
<trkpt lat="48.678528" lon="10.150992">
<ele>495</ele>
<time>2020-09-10T08:49:04Z</time>
</trkpt>
<trkpt lat="48.678428" lon="10.151393">
<ele>495</ele>
<time>2020-09-10T08:49:09Z</time>
</trkpt>
<trkpt lat="48.678323" lon="10.151718">
<ele>493</ele>
<time>2020-09-10T08:49:14Z</time>
</trkpt>
<trkpt lat="48.678222" lon="10.152115">
<ele>493</ele>
<time>2020-09-10T08:49:20Z</time>
</trkpt>
<trkpt lat="48.678142" lon="10.1525">
<ele>493</ele>
<time>2020-09-10T08:49:25Z</time>
</trkpt>
<trkpt lat="48.678133" lon="10.152613">
<ele>493</ele>
<time>2020-09-10T08:49:30Z</time>
</trkpt>
<trkpt lat="48.678125" lon="10.15279">
<ele>493</ele>
<time>2020-09-10T08:49:35Z</time>
</trkpt>
<trkpt lat="48.677978" lon="10.152815">
<ele>493</ele>
<time>2020-09-10T08:49:40Z</time>
</trkpt>
<trkpt lat="48.677755" lon="10.152778">
<ele>493</ele>
<time>2020-09-10T08:49:45Z</time>
</trkpt>
<trkpt lat="48.677493" lon="10.152753">
<ele>493</ele>
<time>2020-09-10T08:49:50Z</time>
</trkpt>
<trkpt lat="48.677217" lon="10.152677">
<ele>493</ele>
<time>2020-09-10T08:49:56Z</time>
</trkpt>
<trkpt lat="48.676878" lon="10.152607">
<ele>493</ele>
<time>2020-09-10T08:50:01Z</time>
</trkpt>
<trkpt lat="48.676587" lon="10.15255">
<ele>493</ele>
<time>2020-09-10T08:50:06Z</time>
</trkpt>
<trkpt lat="48.676288" lon="10.152487">
<ele>493</ele>
<time>2020-09-10T08:50:12Z</time>
</trkpt>
<trkpt lat="48.675907" lon="10.152398">
<ele>493</ele>
<time>2020-09-10T08:50:17Z</time>
</trkpt>
<trkpt lat="48.675617" lon="10.15233">
<ele>493</ele>
<time>2020-09-10T08:50:22Z</time>
</trkpt>
<trkpt lat="48.675308" lon="10.15224">
<ele>492</ele>
<time>2020-09-10T08:50:28Z</time>
</trkpt>
<trkpt lat="48.674947" lon="10.152122">
<ele>492</ele>
<time>2020-09-10T08:50:33Z</time>
</trkpt>
<trkpt lat="48.674678" lon="10.152055">
<ele>492</ele>
<time>2020-09-10T08:50:38Z</time>
</trkpt>
<trkpt lat="48.674612" lon="10.151837">
<ele>492</ele>
<time>2020-09-10T08:50:43Z</time>
</trkpt>
<trkpt lat="48.67467" lon="10.151472">
<ele>492</ele>
<time>2020-09-10T08:50:48Z</time>
</trkpt>
<trkpt lat="48.674582" lon="10.151158">
<ele>492</ele>
<time>2020-09-10T08:50:53Z</time>
</trkpt>
<trkpt lat="48.674315" lon="10.151107">
<ele>492</ele>
<time>2020-09-10T08:50:58Z</time>
</trkpt>
<trkpt lat="48.673995" lon="10.151073">
<ele>492</ele>
<time>2020-09-10T08:51:03Z</time>
</trkpt>
<trkpt lat="48.673667" lon="10.151008">
<ele>492</ele>
<time>2020-09-10T08:51:08Z</time>
</trkpt>
<trkpt lat="48.673345" lon="10.150943">
<ele>492</ele>
<time>2020-09-10T08:51:13Z</time>
</trkpt>
<trkpt lat="48.673012" lon="10.150868">
<ele>492</ele>
<time>2020-09-10T08:51:18Z</time>
</trkpt>
<trkpt lat="48.672677" lon="10.150792">
<ele>492</ele>
<time>2020-09-10T08:51:23Z</time>
</trkpt>
<trkpt lat="48.672342" lon="10.150713">
<ele>492</ele>
<time>2020-09-10T08:51:28Z</time>
</trkpt>
<trkpt lat="48.671992" lon="10.150632">
<ele>492</ele>
<time>2020-09-10T08:51:33Z</time>
</trkpt>
<trkpt lat="48.671647" lon="10.150542">
<ele>491</ele>
<time>2020-09-10T08:51:38Z</time>
</trkpt>
<trkpt lat="48.671287" lon="10.150428">
<ele>491</ele>
<time>2020-09-10T08:51:43Z</time>
</trkpt>
<trkpt lat="48.670937" lon="10.15034">
<ele>491</ele>
<time>2020-09-10T08:51:49Z</time>
</trkpt>
<trkpt lat="48.670523" lon="10.150203">
<ele>491</ele>
<time>2020-09-10T08:51:54Z</time>
</trkpt>
<trkpt lat="48.670182" lon="10.150122">
<ele>491</ele>
<time>2020-09-10T08:51:59Z</time>
</trkpt>
<trkpt lat="48.669828" lon="10.15004">
<ele>491</ele>
<time>2020-09-10T08:52:04Z</time>
</trkpt>
<trkpt lat="48.669475" lon="10.14996">
<ele>491</ele>
<time>2020-09-10T08:52:10Z</time>
</trkpt>
<trkpt lat="48.66904" lon="10.14987">
<ele>491</ele>
<time>2020-09-10T08:52:15Z</time>
</trkpt>
<trkpt lat="48.66868" lon="10.149807">
<ele>491</ele>
<time>2020-09-10T08:52:20Z</time>
</trkpt>
<trkpt lat="48.668327" lon="10.149738">
<ele>491</ele>
<time>2020-09-10T08:52:25Z</time>
</trkpt>
<trkpt lat="48.667982" lon="10.149658">
<ele>491</ele>
<time>2020-09-10T08:52:30Z</time>
</trkpt>
<trkpt lat="48.667648" lon="10.149608">
<ele>491</ele>
<time>2020-09-10T08:52:35Z</time>
</trkpt>
<trkpt lat="48.667312" lon="10.149678">
<ele>491</ele>
<time>2020-09-10T08:52:40Z</time>
</trkpt>
<trkpt lat="48.667003" lon="10.14993">
<ele>491</ele>
<time>2020-09-10T08:52:46Z</time>
</trkpt>
<trkpt lat="48.666738" lon="10.150313">
<ele>491</ele>
<time>2020-09-10T08:52:51Z</time>
</trkpt>
<trkpt lat="48.66644" lon="10.15082">
<ele>491</ele>
<time>2020-09-10T08:52:56Z</time>
</trkpt>
<trkpt lat="48.66619" lon="10.151245">
<ele>490</ele>
<time>2020-09-10T08:53:01Z</time>
</trkpt>
<trkpt lat="48.665922" lon="10.151658">
<ele>490</ele>
<time>2020-09-10T08:53:06Z</time>
</trkpt>
<trkpt lat="48.665635" lon="10.152055">
<ele>489</ele>
<time>2020-09-10T08:53:12Z</time>
</trkpt>
<trkpt lat="48.665277" lon="10.152493">
<ele>488</ele>
<time>2020-09-10T08:53:17Z</time>
</trkpt>
<trkpt lat="48.664963" lon="10.15282">
<ele>488</ele>
<time>2020-09-10T08:53:22Z</time>
</trkpt>
<trkpt lat="48.664647" lon="10.153123">
<ele>488</ele>
<time>2020-09-10T08:53:27Z</time>
</trkpt>
<trkpt lat="48.664318" lon="10.153407">
<ele>487</ele>
<time>2020-09-10T08:53:32Z</time>
</trkpt>
<trkpt lat="48.663998" lon="10.153692">
<ele>487</ele>
<time>2020-09-10T08:53:37Z</time>
</trkpt>
<trkpt lat="48.663685" lon="10.153978">
<ele>487</ele>
<time>2020-09-10T08:53:42Z</time>
</trkpt>
<trkpt lat="48.663372" lon="10.154238">
<ele>487</ele>
<time>2020-09-10T08:53:47Z</time>
</trkpt>
<trkpt lat="48.663058" lon="10.154527">
<ele>487</ele>
<time>2020-09-10T08:53:52Z</time>
</trkpt>
<trkpt lat="48.662748" lon="10.154833">
<ele>487</ele>
<time>2020-09-10T08:53:57Z</time>
</trkpt>
<trkpt lat="48.662442" lon="10.155118">
<ele>487</ele>
<time>2020-09-10T08:54:02Z</time>
</trkpt>
<trkpt lat="48.662133" lon="10.155413">
<ele>487</ele>
<time>2020-09-10T08:54:07Z</time>
</trkpt>
<trkpt lat="48.661812" lon="10.155703">
<ele>487</ele>
<time>2020-09-10T08:54:12Z</time>
</trkpt>
<trkpt lat="48.661473" lon="10.155922">
<ele>487</ele>
<time>2020-09-10T08:54:17Z</time>
</trkpt>
<trkpt lat="48.661138" lon="10.15616">
<ele>487</ele>
<time>2020-09-10T08:54:22Z</time>
</trkpt>
<trkpt lat="48.66079" lon="10.156368">
<ele>487</ele>
<time>2020-09-10T08:54:27Z</time>
</trkpt>
<trkpt lat="48.660437" lon="10.156572">
<ele>487</ele>
<time>2020-09-10T08:54:32Z</time>
</trkpt>
<trkpt lat="48.660097" lon="10.156807">
<ele>486</ele>
<time>2020-09-10T08:54:37Z</time>
</trkpt>
<trkpt lat="48.659778" lon="10.157107">
<ele>486</ele>
<time>2020-09-10T08:54:42Z</time>
</trkpt>
<trkpt lat="48.659482" lon="10.157452">
<ele>486</ele>
<time>2020-09-10T08:54:47Z</time>
</trkpt>
<trkpt lat="48.659167" lon="10.157722">
<ele>486</ele>
<time>2020-09-10T08:54:52Z</time>
</trkpt>
<trkpt lat="48.658823" lon="10.157833">
<ele>486</ele>
<time>2020-09-10T08:54:57Z</time>
</trkpt>
<trkpt lat="48.658455" lon="10.157872">
<ele>486</ele>
<time>2020-09-10T08:55:03Z</time>
</trkpt>
<trkpt lat="48.658008" lon="10.157923">
<ele>486</ele>
<time>2020-09-10T08:55:08Z</time>
</trkpt>
<trkpt lat="48.657628" lon="10.157957">
<ele>486</ele>
<time>2020-09-10T08:55:13Z</time>
</trkpt>
<trkpt lat="48.657248" lon="10.157993">
<ele>486</ele>
<time>2020-09-10T08:55:18Z</time>
</trkpt>
<trkpt lat="48.656873" lon="10.158063">
<ele>486</ele>
<time>2020-09-10T08:55:23Z</time>
</trkpt>
<trkpt lat="48.656515" lon="10.1582">
<ele>486</ele>
<time>2020-09-10T08:55:28Z</time>
</trkpt>
<trkpt lat="48.656147" lon="10.158343">
<ele>486</ele>
<time>2020-09-10T08:55:33Z</time>
</trkpt>
<trkpt lat="48.655775" lon="10.15849">
<ele>486</ele>
<time>2020-09-10T08:55:38Z</time>
</trkpt>
<trkpt lat="48.6554" lon="10.158613">
<ele>486</ele>
<time>2020-09-10T08:55:44Z</time>
</trkpt>
<trkpt lat="48.654938" lon="10.158613">
<ele>485</ele>
<time>2020-09-10T08:55:49Z</time>
</trkpt>
<trkpt lat="48.654555" lon="10.158558">
<ele>485</ele>
<time>2020-09-10T08:55:54Z</time>
</trkpt>
<trkpt lat="48.654173" lon="10.158495">
<ele>485</ele>
<time>2020-09-10T08:55:59Z</time>
</trkpt>
<trkpt lat="48.653788" lon="10.15842">
<ele>485</ele>
<time>2020-09-10T08:56:04Z</time>
</trkpt>
<trkpt lat="48.653402" lon="10.158388">
<ele>485</ele>
<time>2020-09-10T08:56:09Z</time>
</trkpt>
<trkpt lat="48.653005" lon="10.158405">
<ele>485</ele>
<time>2020-09-10T08:56:14Z</time>
</trkpt>
<trkpt lat="48.65262" lon="10.15844">
<ele>485</ele>
<time>2020-09-10T08:56:19Z</time>
</trkpt>
<trkpt lat="48.652242" lon="10.15852">
<ele>485</ele>
<time>2020-09-10T08:56:24Z</time>
</trkpt>
<trkpt lat="48.651873" lon="10.158633">
<ele>485</ele>
<time>2020-09-10T08:56:29Z</time>
</trkpt>
<trkpt lat="48.651503" lon="10.158768">
<ele>485</ele>
<time>2020-09-10T08:56:34Z</time>
</trkpt>
<trkpt lat="48.65114" lon="10.158933">
<ele>485</ele>
<time>2020-09-10T08:56:39Z</time>
</trkpt>
<trkpt lat="48.650818" lon="10.15917">
<ele>485</ele>
<time>2020-09-10T08:56:44Z</time>
</trkpt>
<trkpt lat="48.650517" lon="10.159323">
<ele>485</ele>
<time>2020-09-10T08:56:49Z</time>
</trkpt>
<trkpt lat="48.650193" lon="10.159443">
<ele>485</ele>
<time>2020-09-10T08:56:54Z</time>
</trkpt>
<trkpt lat="48.64989" lon="10.159527">
<ele>485</ele>
<time>2020-09-10T08:56:59Z</time>
</trkpt>
<trkpt lat="48.649557" lon="10.159635">
<ele>485</ele>
<time>2020-09-10T08:57:04Z</time>
</trkpt>
<trkpt lat="48.649222" lon="10.159755">
<ele>485</ele>
<time>2020-09-10T08:57:09Z</time>
</trkpt>
<trkpt lat="48.648902" lon="10.159885">
<ele>485</ele>
<time>2020-09-10T08:57:14Z</time>
</trkpt>
<trkpt lat="48.648553" lon="10.16008">
<ele>485</ele>
<time>2020-09-10T08:57:19Z</time>
</trkpt>
<trkpt lat="48.648205" lon="10.160207">
<ele>485</ele>
<time>2020-09-10T08:57:24Z</time>
</trkpt>
<trkpt lat="48.647853" lon="10.160298">
<ele>484</ele>
<time>2020-09-10T08:57:29Z</time>
</trkpt>
<trkpt lat="48.647488" lon="10.160385">
<ele>484</ele>
<time>2020-09-10T08:57:34Z</time>
</trkpt>
<trkpt lat="48.647087" lon="10.160452">
<ele>483</ele>
<time>2020-09-10T08:57:39Z</time>
</trkpt>
<trkpt lat="48.646695" lon="10.160517">
<ele>482</ele>
<time>2020-09-10T08:57:44Z</time>
</trkpt>
<trkpt lat="48.646305" lon="10.160572">
<ele>482</ele>
<time>2020-09-10T08:57:49Z</time>
</trkpt>
<trkpt lat="48.645918" lon="10.160627">
<ele>482</ele>
<time>2020-09-10T08:57:54Z</time>
</trkpt>
<trkpt lat="48.645522" lon="10.160625">
<ele>482</ele>
<time>2020-09-10T08:58:00Z</time>
</trkpt>
<trkpt lat="48.645128" lon="10.160508">
<ele>482</ele>
<time>2020-09-10T08:58:05Z</time>
</trkpt>
<trkpt lat="48.64469" lon="10.16021">
<ele>482</ele>
<time>2020-09-10T08:58:10Z</time>
</trkpt>
<trkpt lat="48.644378" lon="10.159842">
<ele>482</ele>
<time>2020-09-10T08:58:15Z</time>
</trkpt>
<trkpt lat="48.644132" lon="10.159398">
<ele>482</ele>
<time>2020-09-10T08:58:21Z</time>
</trkpt>
<trkpt lat="48.643948" lon="10.1589">
<ele>482</ele>
<time>2020-09-10T08:58:26Z</time>
</trkpt>
<trkpt lat="48.643783" lon="10.158288">
<ele>482</ele>
<time>2020-09-10T08:58:31Z</time>
</trkpt>
<trkpt lat="48.643547" lon="10.158047">
<ele>482</ele>
<time>2020-09-10T08:58:37Z</time>
</trkpt>
<trkpt lat="48.643203" lon="10.158035">
<ele>481</ele>
<time>2020-09-10T08:58:42Z</time>
</trkpt>
<trkpt lat="48.6428" lon="10.157873">
<ele>481</ele>
<time>2020-09-10T08:58:48Z</time>
</trkpt>
<trkpt lat="48.642463" lon="10.157742">
<ele>481</ele>
<time>2020-09-10T08:58:53Z</time>
</trkpt>
<trkpt lat="48.642127" lon="10.157638">
<ele>481</ele>
<time>2020-09-10T08:58:58Z</time>
</trkpt>
<trkpt lat="48.641805" lon="10.157598">
<ele>481</ele>
<time>2020-09-10T08:59:03Z</time>
</trkpt>
<trkpt lat="48.641647" lon="10.157993">
<ele>481</ele>
<time>2020-09-10T08:59:08Z</time>
</trkpt>
<trkpt lat="48.641638" lon="10.158515">
<ele>481</ele>
<time>2020-09-10T08:59:13Z</time>
</trkpt>
<trkpt lat="48.641673" lon="10.159032">
<ele>481</ele>
<time>2020-09-10T08:59:18Z</time>
</trkpt>
<trkpt lat="48.641708" lon="10.159553">
<ele>481</ele>
<time>2020-09-10T08:59:23Z</time>
</trkpt>
<trkpt lat="48.641752" lon="10.160177">
<ele>481</ele>
<time>2020-09-10T08:59:29Z</time>
</trkpt>
<trkpt lat="48.641803" lon="10.160795">
<ele>481</ele>
<time>2020-09-10T08:59:35Z</time>
</trkpt>
<trkpt lat="48.64185" lon="10.161317">
<ele>481</ele>
<time>2020-09-10T08:59:40Z</time>
</trkpt>
<trkpt lat="48.641897" lon="10.161933">
<ele>481</ele>
<time>2020-09-10T08:59:45Z</time>
</trkpt>
<trkpt lat="48.641918" lon="10.16245">
<ele>481</ele>
<time>2020-09-10T08:59:50Z</time>
</trkpt>
<trkpt lat="48.64166" lon="10.162662">
<ele>481</ele>
<time>2020-09-10T08:59:56Z</time>
</trkpt>
<trkpt lat="48.641305" lon="10.162638">
<ele>481</ele>
<time>2020-09-10T09:00:01Z</time>
</trkpt>
<trkpt lat="48.640943" lon="10.162603">
<ele>481</ele>
<time>2020-09-10T09:00:06Z</time>
</trkpt>
<trkpt lat="48.64057" lon="10.162558">
<ele>481</ele>
<time>2020-09-10T09:00:11Z</time>
</trkpt>
<trkpt lat="48.640205" lon="10.162533">
<ele>481</ele>
<time>2020-09-10T09:00:16Z</time>
</trkpt>
<trkpt lat="48.63984" lon="10.162502">
<ele>481</ele>
<time>2020-09-10T09:00:21Z</time>
</trkpt>
<trkpt lat="48.639485" lon="10.162463">
<ele>481</ele>
<time>2020-09-10T09:00:26Z</time>
</trkpt>
<trkpt lat="48.63913" lon="10.162425">
<ele>481</ele>
<time>2020-09-10T09:00:31Z</time>
</trkpt>
<trkpt lat="48.63877" lon="10.162382">
<ele>481</ele>
<time>2020-09-10T09:00:36Z</time>
</trkpt>
<trkpt lat="48.638413" lon="10.162338">
<ele>481</ele>
<time>2020-09-10T09:00:41Z</time>
</trkpt>
<trkpt lat="48.638053" lon="10.162288">
<ele>481</ele>
<time>2020-09-10T09:00:46Z</time>
</trkpt>
<trkpt lat="48.637687" lon="10.162232">
<ele>481</ele>
<time>2020-09-10T09:00:51Z</time>
</trkpt>
<trkpt lat="48.637303" lon="10.162163">
<ele>481</ele>
<time>2020-09-10T09:00:56Z</time>
</trkpt>
<trkpt lat="48.636933" lon="10.162128">
<ele>481</ele>
<time>2020-09-10T09:01:01Z</time>
</trkpt>
<trkpt lat="48.636588" lon="10.162083">
<ele>480</ele>
<time>2020-09-10T09:01:06Z</time>
</trkpt>
<trkpt lat="48.636232" lon="10.162037">
<ele>480</ele>
<time>2020-09-10T09:01:11Z</time>
</trkpt>
<trkpt lat="48.635875" lon="10.161992">
<ele>480</ele>
<time>2020-09-10T09:01:16Z</time>
</trkpt>
<trkpt lat="48.635517" lon="10.161942">
<ele>480</ele>
<time>2020-09-10T09:01:21Z</time>
</trkpt>
<trkpt lat="48.635158" lon="10.161875">
<ele>480</ele>
<time>2020-09-10T09:01:26Z</time>
</trkpt>
<trkpt lat="48.6348" lon="10.161795">
<ele>480</ele>
<time>2020-09-10T09:01:31Z</time>
</trkpt>
<trkpt lat="48.634442" lon="10.161698">
<ele>480</ele>
<time>2020-09-10T09:01:36Z</time>
</trkpt>
<trkpt lat="48.634097" lon="10.161572">
<ele>480</ele>
<time>2020-09-10T09:01:41Z</time>
</trkpt>
<trkpt lat="48.633808" lon="10.161372">
<ele>479</ele>
<time>2020-09-10T09:01:46Z</time>
</trkpt>
<trkpt lat="48.63364" lon="10.161347">
<ele>479</ele>
<time>2020-09-10T09:01:51Z</time>
</trkpt>
<trkpt lat="48.633448" lon="10.161433">
<ele>479</ele>
<time>2020-09-10T09:01:56Z</time>
</trkpt>
<trkpt lat="48.633197" lon="10.161482">
<ele>479</ele>
<time>2020-09-10T09:02:01Z</time>
</trkpt>
<trkpt lat="48.632928" lon="10.161515">
<ele>479</ele>
<time>2020-09-10T09:02:06Z</time>
</trkpt>
<trkpt lat="48.632657" lon="10.161562">
<ele>479</ele>
<time>2020-09-10T09:02:11Z</time>
</trkpt>
<trkpt lat="48.632375" lon="10.16162">
<ele>479</ele>
<time>2020-09-10T09:02:16Z</time>
</trkpt>
<trkpt lat="48.63207" lon="10.161687">
<ele>479</ele>
<time>2020-09-10T09:02:21Z</time>
</trkpt>
<trkpt lat="48.63175" lon="10.161793">
<ele>479</ele>
<time>2020-09-10T09:02:26Z</time>
</trkpt>
<trkpt lat="48.631362" lon="10.16188">
<ele>479</ele>
<time>2020-09-10T09:02:32Z</time>
</trkpt>
<trkpt lat="48.631085" lon="10.161868">
<ele>479</ele>
<time>2020-09-10T09:02:37Z</time>
</trkpt>
<trkpt lat="48.630872" lon="10.16181">
<ele>479</ele>
<time>2020-09-10T09:02:42Z</time>
</trkpt>
<trkpt lat="48.630838" lon="10.161803">
<ele>479</ele>
<time>2020-09-10T09:02:47Z</time>
</trkpt>
<trkpt lat="48.630837" lon="10.161803">
<ele>479</ele>
<time>2020-09-10T09:02:48Z</time>
</trkpt>
<trkpt lat="48.630665" lon="10.161835">
<ele>479</ele>
<time>2020-09-10T09:02:53Z</time>
</trkpt>
<trkpt lat="48.630437" lon="10.161865">
<ele>479</ele>
<time>2020-09-10T09:02:58Z</time>
</trkpt>
<trkpt lat="48.630172" lon="10.161898">
<ele>479</ele>
<time>2020-09-10T09:03:03Z</time>
</trkpt>
<trkpt lat="48.62987" lon="10.16191">
<ele>479</ele>
<time>2020-09-10T09:03:08Z</time>
</trkpt>
<trkpt lat="48.629587" lon="10.161827">
<ele>479</ele>
<time>2020-09-10T09:03:13Z</time>
</trkpt>
<trkpt lat="48.629382" lon="10.161917">
<ele>478</ele>
<time>2020-09-10T09:03:18Z</time>
</trkpt>
<trkpt lat="48.629117" lon="10.162008">
<ele>478</ele>
<time>2020-09-10T09:03:23Z</time>
</trkpt>
<trkpt lat="48.6288" lon="10.162027">
<ele>478</ele>
<time>2020-09-10T09:03:28Z</time>
</trkpt>
<trkpt lat="48.628482" lon="10.162048">
<ele>478</ele>
<time>2020-09-10T09:03:33Z</time>
</trkpt>
<trkpt lat="48.62816" lon="10.162078">
<ele>478</ele>
<time>2020-09-10T09:03:38Z</time>
</trkpt>
<trkpt lat="48.627767" lon="10.162107">
<ele>478</ele>
<time>2020-09-10T09:03:44Z</time>
</trkpt>
<trkpt lat="48.627425" lon="10.162138">
<ele>478</ele>
<time>2020-09-10T09:03:49Z</time>
</trkpt>
<trkpt lat="48.627087" lon="10.16216">
<ele>478</ele>
<time>2020-09-10T09:03:54Z</time>
</trkpt>
<trkpt lat="48.626705" lon="10.162192">
<ele>478</ele>
<time>2020-09-10T09:03:59Z</time>
</trkpt>
<trkpt lat="48.62639" lon="10.162217">
<ele>478</ele>
<time>2020-09-10T09:04:04Z</time>
</trkpt>
<trkpt lat="48.626075" lon="10.162233">
<ele>477</ele>
<time>2020-09-10T09:04:10Z</time>
</trkpt>
<trkpt lat="48.625815" lon="10.162233">
<ele>477</ele>
<time>2020-09-10T09:04:15Z</time>
</trkpt>
<trkpt lat="48.625527" lon="10.162268">
<ele>477</ele>
<time>2020-09-10T09:04:20Z</time>
</trkpt>
<trkpt lat="48.625235" lon="10.162305">
<ele>477</ele>
<time>2020-09-10T09:04:26Z</time>
</trkpt>
<trkpt lat="48.62494" lon="10.162315">
<ele>477</ele>
<time>2020-09-10T09:04:31Z</time>
</trkpt>
<trkpt lat="48.624647" lon="10.16233">
<ele>477</ele>
<time>2020-09-10T09:04:36Z</time>
</trkpt>
<trkpt lat="48.624373" lon="10.16233">
<ele>477</ele>
<time>2020-09-10T09:04:41Z</time>
</trkpt>
<trkpt lat="48.624028" lon="10.162343">
<ele>477</ele>
<time>2020-09-10T09:04:46Z</time>
</trkpt>
<trkpt lat="48.623727" lon="10.16237">
<ele>477</ele>
<time>2020-09-10T09:04:52Z</time>
</trkpt>
<trkpt lat="48.623423" lon="10.162393">
<ele>477</ele>
<time>2020-09-10T09:04:57Z</time>
</trkpt>
<trkpt lat="48.623117" lon="10.162412">
<ele>477</ele>
<time>2020-09-10T09:05:02Z</time>
</trkpt>
<trkpt lat="48.622825" lon="10.162435">
<ele>477</ele>
<time>2020-09-10T09:05:07Z</time>
</trkpt>
<trkpt lat="48.62264" lon="10.162553">
<ele>477</ele>
<time>2020-09-10T09:05:13Z</time>
</trkpt>
<trkpt lat="48.622758" lon="10.162807">
<ele>477</ele>
<time>2020-09-10T09:05:18Z</time>
</trkpt>
<trkpt lat="48.622913" lon="10.163115">
<ele>478</ele>
<time>2020-09-10T09:05:23Z</time>
</trkpt>
<trkpt lat="48.623083" lon="10.163413">
<ele>478</ele>
<time>2020-09-10T09:05:28Z</time>
</trkpt>
<trkpt lat="48.623297" lon="10.163807">
<ele>479</ele>
<time>2020-09-10T09:05:34Z</time>
</trkpt>
<trkpt lat="48.623475" lon="10.164123">
<ele>480</ele>
<time>2020-09-10T09:05:39Z</time>
</trkpt>
<trkpt lat="48.623697" lon="10.164353">
<ele>480</ele>
<time>2020-09-10T09:05:44Z</time>
</trkpt>
<trkpt lat="48.624073" lon="10.16441">
<ele>480</ele>
<time>2020-09-10T09:05:50Z</time>
</trkpt>
<trkpt lat="48.624398" lon="10.164458">
<ele>480</ele>
<time>2020-09-10T09:05:55Z</time>
</trkpt>
<trkpt lat="48.624577" lon="10.164797">
<ele>478</ele>
<time>2020-09-10T09:06:00Z</time>
</trkpt>
<trkpt lat="48.624625" lon="10.165245">
<ele>478</ele>
<time>2020-09-10T09:06:05Z</time>
</trkpt>
<trkpt lat="48.62463" lon="10.165707">
<ele>478</ele>
<time>2020-09-10T09:06:10Z</time>
</trkpt>
<trkpt lat="48.624628" lon="10.166168">
<ele>479</ele>
<time>2020-09-10T09:06:15Z</time>
</trkpt>
<trkpt lat="48.62462" lon="10.166595">
<ele>480</ele>
<time>2020-09-10T09:06:20Z</time>
</trkpt>
<trkpt lat="48.624565" lon="10.166883">
<ele>481</ele>
<time>2020-09-10T09:06:25Z</time>
</trkpt>
<trkpt lat="48.624508" lon="10.167102">
<ele>482</ele>
<time>2020-09-10T09:06:30Z</time>
</trkpt>
<trkpt lat="48.624733" lon="10.167413">
<ele>482</ele>
<time>2020-09-10T09:06:35Z</time>
</trkpt>
<trkpt lat="48.624927" lon="10.167807">
<ele>480</ele>
<time>2020-09-10T09:06:40Z</time>
</trkpt>
<trkpt lat="48.625043" lon="10.168142">
<ele>480</ele>
<time>2020-09-10T09:06:45Z</time>
</trkpt>
<trkpt lat="48.624812" lon="10.168402">
<ele>479</ele>
<time>2020-09-10T09:06:51Z</time>
</trkpt>
<trkpt lat="48.624497" lon="10.168767">
<ele>479</ele>
<time>2020-09-10T09:06:56Z</time>
</trkpt>
<trkpt lat="48.624267" lon="10.169197">
<ele>478</ele>
<time>2020-09-10T09:07:01Z</time>
</trkpt>
<trkpt lat="48.624083" lon="10.169675">
<ele>476</ele>
<time>2020-09-10T09:07:06Z</time>
</trkpt>
<trkpt lat="48.623755" lon="10.16976">
<ele>476</ele>
<time>2020-09-10T09:07:12Z</time>
</trkpt>
<trkpt lat="48.623307" lon="10.1698">
<ele>475</ele>
<time>2020-09-10T09:07:17Z</time>
</trkpt>
<trkpt lat="48.622908" lon="10.169937">
<ele>474</ele>
<time>2020-09-10T09:07:22Z</time>
</trkpt>
<trkpt lat="48.622498" lon="10.170065">
<ele>472</ele>
<time>2020-09-10T09:07:27Z</time>
</trkpt>
<trkpt lat="48.6221" lon="10.170193">
<ele>472</ele>
<time>2020-09-10T09:07:32Z</time>
</trkpt>
<trkpt lat="48.62171" lon="10.170323">
<ele>472</ele>
<time>2020-09-10T09:07:37Z</time>
</trkpt>
<trkpt lat="48.621327" lon="10.170445">
<ele>472</ele>
<time>2020-09-10T09:07:42Z</time>
</trkpt>
<trkpt lat="48.620948" lon="10.170568">
<ele>472</ele>
<time>2020-09-10T09:07:47Z</time>
</trkpt>
<trkpt lat="48.620585" lon="10.170718">
<ele>472</ele>
<time>2020-09-10T09:07:52Z</time>
</trkpt>
<trkpt lat="48.620242" lon="10.170887">
<ele>472</ele>
<time>2020-09-10T09:07:58Z</time>
</trkpt>
<trkpt lat="48.61987" lon="10.171">
<ele>472</ele>
<time>2020-09-10T09:08:03Z</time>
</trkpt>
<trkpt lat="48.619555" lon="10.171013">
<ele>472</ele>
<time>2020-09-10T09:08:09Z</time>
</trkpt>
<trkpt lat="48.619167" lon="10.171145">
<ele>472</ele>
<time>2020-09-10T09:08:15Z</time>
</trkpt>
<trkpt lat="48.618905" lon="10.171478">
<ele>472</ele>
<time>2020-09-10T09:08:20Z</time>
</trkpt>
<trkpt lat="48.618708" lon="10.171953">
<ele>472</ele>
<time>2020-09-10T09:08:25Z</time>
</trkpt>
<trkpt lat="48.618475" lon="10.172403">
<ele>472</ele>
<time>2020-09-10T09:08:30Z</time>
</trkpt>
<trkpt lat="48.618207" lon="10.172768">
<ele>471</ele>
<time>2020-09-10T09:08:35Z</time>
</trkpt>
<trkpt lat="48.618043" lon="10.17324">
<ele>471</ele>
<time>2020-09-10T09:08:40Z</time>
</trkpt>
<trkpt lat="48.617935" lon="10.173898">
<ele>471</ele>
<time>2020-09-10T09:08:46Z</time>
</trkpt>
<trkpt lat="48.617845" lon="10.174428">
<ele>471</ele>
<time>2020-09-10T09:08:51Z</time>
</trkpt>
<trkpt lat="48.61777" lon="10.175052">
<ele>471</ele>
<time>2020-09-10T09:08:56Z</time>
</trkpt>
<trkpt lat="48.61772" lon="10.175552">
<ele>471</ele>
<time>2020-09-10T09:09:02Z</time>
</trkpt>
<trkpt lat="48.617695" lon="10.176063">
<ele>471</ele>
<time>2020-09-10T09:09:07Z</time>
</trkpt>
<trkpt lat="48.617675" lon="10.17665">
<ele>471</ele>
<time>2020-09-10T09:09:12Z</time>
</trkpt>
<trkpt lat="48.617638" lon="10.177052">
<ele>471</ele>
<time>2020-09-10T09:09:18Z</time>
</trkpt>
<trkpt lat="48.617505" lon="10.177198">
<ele>471</ele>
<time>2020-09-10T09:09:23Z</time>
</trkpt>
<trkpt lat="48.617275" lon="10.176993">
<ele>471</ele>
<time>2020-09-10T09:09:28Z</time>
</trkpt>
<trkpt lat="48.61693" lon="10.176747">
<ele>471</ele>
<time>2020-09-10T09:09:33Z</time>
</trkpt>
<trkpt lat="48.616623" lon="10.176623">
<ele>471</ele>
<time>2020-09-10T09:09:38Z</time>
</trkpt>
<trkpt lat="48.61631" lon="10.176558">
<ele>471</ele>
<time>2020-09-10T09:09:44Z</time>
</trkpt>
<trkpt lat="48.615928" lon="10.176488">
<ele>471</ele>
<time>2020-09-10T09:09:49Z</time>
</trkpt>
<trkpt lat="48.615602" lon="10.176438">
<ele>471</ele>
<time>2020-09-10T09:09:54Z</time>
</trkpt>
<trkpt lat="48.615283" lon="10.17648">
<ele>471</ele>
<time>2020-09-10T09:09:59Z</time>
</trkpt>
<trkpt lat="48.614997" lon="10.176713">
<ele>471</ele>
<time>2020-09-10T09:10:05Z</time>
</trkpt>
<trkpt lat="48.61461" lon="10.176903">
<ele>471</ele>
<time>2020-09-10T09:10:10Z</time>
</trkpt>
<trkpt lat="48.614277" lon="10.177015">
<ele>471</ele>
<time>2020-09-10T09:10:15Z</time>
</trkpt>
<trkpt lat="48.613967" lon="10.177193">
<ele>471</ele>
<time>2020-09-10T09:10:20Z</time>
</trkpt>
<trkpt lat="48.613683" lon="10.177427">
<ele>471</ele>
<time>2020-09-10T09:10:25Z</time>
</trkpt>
<trkpt lat="48.613385" lon="10.177622">
<ele>472</ele>
<time>2020-09-10T09:10:30Z</time>
</trkpt>
<trkpt lat="48.6131" lon="10.177802">
<ele>472</ele>
<time>2020-09-10T09:10:35Z</time>
</trkpt>
<trkpt lat="48.612793" lon="10.177965">
<ele>473</ele>
<time>2020-09-10T09:10:40Z</time>
</trkpt>
<trkpt lat="48.612463" lon="10.177998">
<ele>473</ele>
<time>2020-09-10T09:10:45Z</time>
</trkpt>
<trkpt lat="48.612133" lon="10.177927">
<ele>473</ele>
<time>2020-09-10T09:10:50Z</time>
</trkpt>
<trkpt lat="48.611785" lon="10.177822">
<ele>473</ele>
<time>2020-09-10T09:10:55Z</time>
</trkpt>
<trkpt lat="48.611422" lon="10.177915">
<ele>473</ele>
<time>2020-09-10T09:11:00Z</time>
</trkpt>
<trkpt lat="48.611047" lon="10.17804">
<ele>472</ele>
<time>2020-09-10T09:11:05Z</time>
</trkpt>
<trkpt lat="48.610688" lon="10.178177">
<ele>472</ele>
<time>2020-09-10T09:11:10Z</time>
</trkpt>
<trkpt lat="48.610365" lon="10.178375">
<ele>472</ele>
<time>2020-09-10T09:11:15Z</time>
</trkpt>
<trkpt lat="48.610017" lon="10.178417">
<ele>472</ele>
<time>2020-09-10T09:11:20Z</time>
</trkpt>
<trkpt lat="48.609665" lon="10.178393">
<ele>472</ele>
<time>2020-09-10T09:11:25Z</time>
</trkpt>
<trkpt lat="48.609318" lon="10.178342">
<ele>472</ele>
<time>2020-09-10T09:11:30Z</time>
</trkpt>
<trkpt lat="48.608957" lon="10.178275">
<ele>472</ele>
<time>2020-09-10T09:11:35Z</time>
</trkpt>
<trkpt lat="48.608593" lon="10.17814">
<ele>472</ele>
<time>2020-09-10T09:11:40Z</time>
</trkpt>
<trkpt lat="48.608247" lon="10.177933">
<ele>472</ele>
<time>2020-09-10T09:11:45Z</time>
</trkpt>
<trkpt lat="48.607898" lon="10.17785">
<ele>472</ele>
<time>2020-09-10T09:11:50Z</time>
</trkpt>
<trkpt lat="48.607577" lon="10.177658">
<ele>472</ele>
<time>2020-09-10T09:11:55Z</time>
</trkpt>
<trkpt lat="48.607267" lon="10.17742">
<ele>472</ele>
<time>2020-09-10T09:12:00Z</time>
</trkpt>
<trkpt lat="48.606968" lon="10.177135">
<ele>472</ele>
<time>2020-09-10T09:12:05Z</time>
</trkpt>
<trkpt lat="48.60669" lon="10.176795">
<ele>472</ele>
<time>2020-09-10T09:12:10Z</time>
</trkpt>
<trkpt lat="48.606408" lon="10.17649">
<ele>472</ele>
<time>2020-09-10T09:12:15Z</time>
</trkpt>
<trkpt lat="48.606082" lon="10.17626">
<ele>472</ele>
<time>2020-09-10T09:12:20Z</time>
</trkpt>
<trkpt lat="48.605747" lon="10.176145">
<ele>472</ele>
<time>2020-09-10T09:12:25Z</time>
</trkpt>
<trkpt lat="48.605523" lon="10.17575">
<ele>472</ele>
<time>2020-09-10T09:12:30Z</time>
</trkpt>
<trkpt lat="48.605432" lon="10.17523">
<ele>472</ele>
<time>2020-09-10T09:12:35Z</time>
</trkpt>
<trkpt lat="48.605272" lon="10.174775">
<ele>472</ele>
<time>2020-09-10T09:12:40Z</time>
</trkpt>
<trkpt lat="48.604998" lon="10.174465">
<ele>472</ele>
<time>2020-09-10T09:12:45Z</time>
</trkpt>
<trkpt lat="48.604658" lon="10.174352">
<ele>472</ele>
<time>2020-09-10T09:12:50Z</time>
</trkpt>
<trkpt lat="48.604307" lon="10.174413">
<ele>472</ele>
<time>2020-09-10T09:12:55Z</time>
</trkpt>
<trkpt lat="48.60397" lon="10.174603">
<ele>472</ele>
<time>2020-09-10T09:13:00Z</time>
</trkpt>
<trkpt lat="48.603658" lon="10.174845">
<ele>472</ele>
<time>2020-09-10T09:13:05Z</time>
</trkpt>
<trkpt lat="48.603345" lon="10.175097">
<ele>472</ele>
<time>2020-09-10T09:13:10Z</time>
</trkpt>
<trkpt lat="48.603013" lon="10.175397">
<ele>472</ele>
<time>2020-09-10T09:13:15Z</time>
</trkpt>
<trkpt lat="48.602652" lon="10.175562">
<ele>472</ele>
<time>2020-09-10T09:13:20Z</time>
</trkpt>
<trkpt lat="48.602367" lon="10.1759">
<ele>471</ele>
<time>2020-09-10T09:13:25Z</time>
</trkpt>
<trkpt lat="48.60215" lon="10.176345">
<ele>471</ele>
<time>2020-09-10T09:13:30Z</time>
</trkpt>
<trkpt lat="48.60197" lon="10.176837">
<ele>471</ele>
<time>2020-09-10T09:13:35Z</time>
</trkpt>
<trkpt lat="48.601792" lon="10.177315">
<ele>471</ele>
<time>2020-09-10T09:13:40Z</time>
</trkpt>
<trkpt lat="48.601608" lon="10.177792">
<ele>471</ele>
<time>2020-09-10T09:13:45Z</time>
</trkpt>
<trkpt lat="48.601415" lon="10.178242">
<ele>471</ele>
<time>2020-09-10T09:13:50Z</time>
</trkpt>
<trkpt lat="48.60118" lon="10.178615">
<ele>471</ele>
<time>2020-09-10T09:13:55Z</time>
</trkpt>
<trkpt lat="48.600908" lon="10.178895">
<ele>471</ele>
<time>2020-09-10T09:14:00Z</time>
</trkpt>
<trkpt lat="48.600708" lon="10.179253">
<ele>471</ele>
<time>2020-09-10T09:14:05Z</time>
</trkpt>
<trkpt lat="48.600563" lon="10.179612">
<ele>471</ele>
<time>2020-09-10T09:14:10Z</time>
</trkpt>
<trkpt lat="48.60045" lon="10.179968">
<ele>471</ele>
<time>2020-09-10T09:14:15Z</time>
</trkpt>
<trkpt lat="48.600368" lon="10.18035">
<ele>471</ele>
<time>2020-09-10T09:14:20Z</time>
</trkpt>
<trkpt lat="48.600313" lon="10.180765">
<ele>471</ele>
<time>2020-09-10T09:14:25Z</time>
</trkpt>
<trkpt lat="48.60026" lon="10.181155">
<ele>471</ele>
<time>2020-09-10T09:14:30Z</time>
</trkpt>
<trkpt lat="48.600132" lon="10.18151">
<ele>472</ele>
<time>2020-09-10T09:14:35Z</time>
</trkpt>
<trkpt lat="48.599975" lon="10.181797">
<ele>473</ele>
<time>2020-09-10T09:14:40Z</time>
</trkpt>
<trkpt lat="48.599847" lon="10.182023">
<ele>474</ele>
<time>2020-09-10T09:14:45Z</time>
</trkpt>
<trkpt lat="48.59976" lon="10.182225">
<ele>475</ele>
<time>2020-09-10T09:14:50Z</time>
</trkpt>
<trkpt lat="48.59975" lon="10.182448">
<ele>478</ele>
<time>2020-09-10T09:14:55Z</time>
</trkpt>
<trkpt lat="48.599745" lon="10.182683">
<ele>479</ele>
<time>2020-09-10T09:15:00Z</time>
</trkpt>
<trkpt lat="48.599723" lon="10.182887">
<ele>481</ele>
<time>2020-09-10T09:15:05Z</time>
</trkpt>
<trkpt lat="48.599702" lon="10.183087">
<ele>483</ele>
<time>2020-09-10T09:15:10Z</time>
</trkpt>
<trkpt lat="48.599672" lon="10.183267">
<ele>485</ele>
<time>2020-09-10T09:15:15Z</time>
</trkpt>
<trkpt lat="48.599665" lon="10.183468">
<ele>486</ele>
<time>2020-09-10T09:15:20Z</time>
</trkpt>
<trkpt lat="48.59964" lon="10.183655">
<ele>488</ele>
<time>2020-09-10T09:15:25Z</time>
</trkpt>
<trkpt lat="48.599655" lon="10.183875">
<ele>490</ele>
<time>2020-09-10T09:15:30Z</time>
</trkpt>
<trkpt lat="48.599682" lon="10.184048">
<ele>491</ele>
<time>2020-09-10T09:15:35Z</time>
</trkpt>
<trkpt lat="48.599673" lon="10.184235">
<ele>493</ele>
<time>2020-09-10T09:15:40Z</time>
</trkpt>
<trkpt lat="48.599677" lon="10.184418">
<ele>495</ele>
<time>2020-09-10T09:15:45Z</time>
</trkpt>
<trkpt lat="48.599623" lon="10.184575">
<ele>496</ele>
<time>2020-09-10T09:15:50Z</time>
</trkpt>
<trkpt lat="48.599558" lon="10.184753">
<ele>498</ele>
<time>2020-09-10T09:15:55Z</time>
</trkpt>
<trkpt lat="48.59953" lon="10.184922">
<ele>499</ele>
<time>2020-09-10T09:16:00Z</time>
</trkpt>
<trkpt lat="48.599528" lon="10.185132">
<ele>501</ele>
<time>2020-09-10T09:16:05Z</time>
</trkpt>
<trkpt lat="48.599532" lon="10.185338">
<ele>502</ele>
<time>2020-09-10T09:16:10Z</time>
</trkpt>
<trkpt lat="48.599548" lon="10.18551">
<ele>504</ele>
<time>2020-09-10T09:16:15Z</time>
</trkpt>
<trkpt lat="48.59956" lon="10.185687">
<ele>505</ele>
<time>2020-09-10T09:16:20Z</time>
</trkpt>
<trkpt lat="48.599572" lon="10.185862">
<ele>507</ele>
<time>2020-09-10T09:16:25Z</time>
</trkpt>
<trkpt lat="48.59959" lon="10.186045">
<ele>508</ele>
<time>2020-09-10T09:16:30Z</time>
</trkpt>
<trkpt lat="48.5996" lon="10.186233">
<ele>509</ele>
<time>2020-09-10T09:16:35Z</time>
</trkpt>
<trkpt lat="48.599608" lon="10.186435">
<ele>511</ele>
<time>2020-09-10T09:16:40Z</time>
</trkpt>
<trkpt lat="48.599598" lon="10.186613">
<ele>512</ele>
<time>2020-09-10T09:16:45Z</time>
</trkpt>
<trkpt lat="48.59953" lon="10.18675">
<ele>513</ele>
<time>2020-09-10T09:16:50Z</time>
</trkpt>
<trkpt lat="48.599413" lon="10.186838">
<ele>514</ele>
<time>2020-09-10T09:16:56Z</time>
</trkpt>
<trkpt lat="48.599333" lon="10.187038">
<ele>516</ele>
<time>2020-09-10T09:17:01Z</time>
</trkpt>
<trkpt lat="48.599338" lon="10.187223">
<ele>516</ele>
<time>2020-09-10T09:17:07Z</time>
</trkpt>
<trkpt lat="48.599308" lon="10.187447">
<ele>517</ele>
<time>2020-09-10T09:17:12Z</time>
</trkpt>
<trkpt lat="48.599307" lon="10.187657">
<ele>517</ele>
<time>2020-09-10T09:17:17Z</time>
</trkpt>
<trkpt lat="48.599302" lon="10.187897">
<ele>519</ele>
<time>2020-09-10T09:17:22Z</time>
</trkpt>
<trkpt lat="48.5993" lon="10.188093">
<ele>521</ele>
<time>2020-09-10T09:17:27Z</time>
</trkpt>
<trkpt lat="48.599253" lon="10.18828">
<ele>522</ele>
<time>2020-09-10T09:17:32Z</time>
</trkpt>
<trkpt lat="48.599203" lon="10.188428">
<ele>523</ele>
<time>2020-09-10T09:17:38Z</time>
</trkpt>
<trkpt lat="48.599142" lon="10.188577">
<ele>523</ele>
<time>2020-09-10T09:17:43Z</time>
</trkpt>
<trkpt lat="48.599078" lon="10.18874">
<ele>523</ele>
<time>2020-09-10T09:17:48Z</time>
</trkpt>
<trkpt lat="48.59901" lon="10.188892">
<ele>523</ele>
<time>2020-09-10T09:17:53Z</time>
</trkpt>
<trkpt lat="48.598925" lon="10.189052">
<ele>523</ele>
<time>2020-09-10T09:17:58Z</time>
</trkpt>
<trkpt lat="48.598825" lon="10.189202">
<ele>524</ele>
<time>2020-09-10T09:18:03Z</time>
</trkpt>
<trkpt lat="48.598717" lon="10.189352">
<ele>524</ele>
<time>2020-09-10T09:18:08Z</time>
</trkpt>
<trkpt lat="48.598598" lon="10.189458">
<ele>525</ele>
<time>2020-09-10T09:18:13Z</time>
</trkpt>
<trkpt lat="48.598485" lon="10.189575">
<ele>526</ele>
<time>2020-09-10T09:18:18Z</time>
</trkpt>
<trkpt lat="48.598365" lon="10.1897">
<ele>526</ele>
<time>2020-09-10T09:18:23Z</time>
</trkpt>
<trkpt lat="48.598255" lon="10.189858">
<ele>527</ele>
<time>2020-09-10T09:18:28Z</time>
</trkpt>
<trkpt lat="48.59815" lon="10.19004">
<ele>528</ele>
<time>2020-09-10T09:18:33Z</time>
</trkpt>
<trkpt lat="48.598053" lon="10.190227">
<ele>528</ele>
<time>2020-09-10T09:18:39Z</time>
</trkpt>
<trkpt lat="48.597942" lon="10.190453">
<ele>529</ele>
<time>2020-09-10T09:18:44Z</time>
</trkpt>
<trkpt lat="48.597793" lon="10.190763">
<ele>530</ele>
<time>2020-09-10T09:18:49Z</time>
</trkpt>
<trkpt lat="48.597675" lon="10.191027">
<ele>531</ele>
<time>2020-09-10T09:18:54Z</time>
</trkpt>
<trkpt lat="48.59757" lon="10.191268">
<ele>531</ele>
<time>2020-09-10T09:18:59Z</time>
</trkpt>
<trkpt lat="48.597457" lon="10.19151">
<ele>531</ele>
<time>2020-09-10T09:19:05Z</time>
</trkpt>
<trkpt lat="48.597295" lon="10.191857">
<ele>531</ele>
<time>2020-09-10T09:19:10Z</time>
</trkpt>
<trkpt lat="48.597095" lon="10.192095">
<ele>531</ele>
<time>2020-09-10T09:19:15Z</time>
</trkpt>
<trkpt lat="48.596797" lon="10.192317">
<ele>529</ele>
<time>2020-09-10T09:19:20Z</time>
</trkpt>
<trkpt lat="48.596458" lon="10.192532">
<ele>528</ele>
<time>2020-09-10T09:19:25Z</time>
</trkpt>
<trkpt lat="48.596135" lon="10.192725">
<ele>528</ele>
<time>2020-09-10T09:19:30Z</time>
</trkpt>
<trkpt lat="48.59585" lon="10.19293">
<ele>527</ele>
<time>2020-09-10T09:19:35Z</time>
</trkpt>
<trkpt lat="48.595598" lon="10.19319">
<ele>527</ele>
<time>2020-09-10T09:19:40Z</time>
</trkpt>
<trkpt lat="48.59527" lon="10.193303">
<ele>526</ele>
<time>2020-09-10T09:19:45Z</time>
</trkpt>
<trkpt lat="48.594883" lon="10.193378">
<ele>525</ele>
<time>2020-09-10T09:19:50Z</time>
</trkpt>
<trkpt lat="48.594502" lon="10.193425">
<ele>523</ele>
<time>2020-09-10T09:19:56Z</time>
</trkpt>
<trkpt lat="48.59406" lon="10.193487">
<ele>521</ele>
<time>2020-09-10T09:20:01Z</time>
</trkpt>
<trkpt lat="48.593723" lon="10.193643">
<ele>521</ele>
<time>2020-09-10T09:20:07Z</time>
</trkpt>
<trkpt lat="48.593667" lon="10.194202">
<ele>520</ele>
<time>2020-09-10T09:20:12Z</time>
</trkpt>
<trkpt lat="48.593647" lon="10.194848">
<ele>519</ele>
<time>2020-09-10T09:20:17Z</time>
</trkpt>
<trkpt lat="48.59359" lon="10.19566">
<ele>516</ele>
<time>2020-09-10T09:20:22Z</time>
</trkpt>
<trkpt lat="48.593508" lon="10.196153">
<ele>513</ele>
<time>2020-09-10T09:20:28Z</time>
</trkpt>
<trkpt lat="48.593573" lon="10.196687">
<ele>512</ele>
<time>2020-09-10T09:20:33Z</time>
</trkpt>
<trkpt lat="48.593647" lon="10.197263">
<ele>511</ele>
<time>2020-09-10T09:20:39Z</time>
</trkpt>
<trkpt lat="48.593702" lon="10.197988">
<ele>507</ele>
<time>2020-09-10T09:20:44Z</time>
</trkpt>
<trkpt lat="48.593718" lon="10.19898">
<ele>500</ele>
<time>2020-09-10T09:20:50Z</time>
</trkpt>
<trkpt lat="48.593568" lon="10.200018">
<ele>494</ele>
<time>2020-09-10T09:20:55Z</time>
</trkpt>
<trkpt lat="48.593198" lon="10.20072">
<ele>488</ele>
<time>2020-09-10T09:21:00Z</time>
</trkpt>
<trkpt lat="48.592807" lon="10.201337">
<ele>483</ele>
<time>2020-09-10T09:21:05Z</time>
</trkpt>
<trkpt lat="48.592563" lon="10.202055">
<ele>479</ele>
<time>2020-09-10T09:21:10Z</time>
</trkpt>
<trkpt lat="48.59225" lon="10.20269">
<ele>475</ele>
<time>2020-09-10T09:21:15Z</time>
</trkpt>
<trkpt lat="48.591955" lon="10.203373">
<ele>472</ele>
<time>2020-09-10T09:21:20Z</time>
</trkpt>
<trkpt lat="48.591892" lon="10.204048">
<ele>467</ele>
<time>2020-09-10T09:21:25Z</time>
</trkpt>
<trkpt lat="48.591968" lon="10.204473">
<ele>463</ele>
<time>2020-09-10T09:21:30Z</time>
</trkpt>
<trkpt lat="48.592058" lon="10.20488">
<ele>462</ele>
<time>2020-09-10T09:21:35Z</time>
</trkpt>
<trkpt lat="48.592173" lon="10.205217">
<ele>461</ele>
<time>2020-09-10T09:21:40Z</time>
</trkpt>
<trkpt lat="48.591952" lon="10.205382">
<ele>460</ele>
<time>2020-09-10T09:21:45Z</time>
</trkpt>
<trkpt lat="48.591638" lon="10.20552">
<ele>459</ele>
<time>2020-09-10T09:21:50Z</time>
</trkpt>
<trkpt lat="48.591308" lon="10.20561">
<ele>459</ele>
<time>2020-09-10T09:21:55Z</time>
</trkpt>
<trkpt lat="48.590978" lon="10.205582">
<ele>458</ele>
<time>2020-09-10T09:22:00Z</time>
</trkpt>
<trkpt lat="48.590648" lon="10.205537">
<ele>458</ele>
<time>2020-09-10T09:22:05Z</time>
</trkpt>
<trkpt lat="48.590312" lon="10.205603">
<ele>458</ele>
<time>2020-09-10T09:22:10Z</time>
</trkpt>
<trkpt lat="48.589965" lon="10.205675">
<ele>458</ele>
<time>2020-09-10T09:22:15Z</time>
</trkpt>
<trkpt lat="48.589622" lon="10.205715">
<ele>458</ele>
<time>2020-09-10T09:22:20Z</time>
</trkpt>
<trkpt lat="48.589285" lon="10.205747">
<ele>458</ele>
<time>2020-09-10T09:22:25Z</time>
</trkpt>
<trkpt lat="48.588953" lon="10.205782">
<ele>458</ele>
<time>2020-09-10T09:22:30Z</time>
</trkpt>
<trkpt lat="48.588628" lon="10.205823">
<ele>458</ele>
<time>2020-09-10T09:22:35Z</time>
</trkpt>
<trkpt lat="48.588308" lon="10.205873">
<ele>458</ele>
<time>2020-09-10T09:22:40Z</time>
</trkpt>
<trkpt lat="48.58799" lon="10.20593">
<ele>458</ele>
<time>2020-09-10T09:22:45Z</time>
</trkpt>
<trkpt lat="48.587675" lon="10.20599">
<ele>458</ele>
<time>2020-09-10T09:22:50Z</time>
</trkpt>
<trkpt lat="48.587362" lon="10.206063">
<ele>458</ele>
<time>2020-09-10T09:22:55Z</time>
</trkpt>
<trkpt lat="48.587042" lon="10.206175">
<ele>458</ele>
<time>2020-09-10T09:23:00Z</time>
</trkpt>
<trkpt lat="48.586725" lon="10.206335">
<ele>458</ele>
<time>2020-09-10T09:23:05Z</time>
</trkpt>
<trkpt lat="48.586413" lon="10.206507">
<ele>458</ele>
<time>2020-09-10T09:23:10Z</time>
</trkpt>
<trkpt lat="48.586095" lon="10.206705">
<ele>458</ele>
<time>2020-09-10T09:23:15Z</time>
</trkpt>
<trkpt lat="48.585767" lon="10.206918">
<ele>458</ele>
<time>2020-09-10T09:23:20Z</time>
</trkpt>
<trkpt lat="48.585438" lon="10.20714">
<ele>458</ele>
<time>2020-09-10T09:23:25Z</time>
</trkpt>
<trkpt lat="48.585113" lon="10.207373">
<ele>458</ele>
<time>2020-09-10T09:23:30Z</time>
</trkpt>
<trkpt lat="48.584805" lon="10.207643">
<ele>458</ele>
<time>2020-09-10T09:23:35Z</time>
</trkpt>
<trkpt lat="48.584505" lon="10.207918">
<ele>458</ele>
<time>2020-09-10T09:23:40Z</time>
</trkpt>
<trkpt lat="48.584215" lon="10.208213">
<ele>458</ele>
<time>2020-09-10T09:23:45Z</time>
</trkpt>
<trkpt lat="48.58393" lon="10.208515">
<ele>458</ele>
<time>2020-09-10T09:23:50Z</time>
</trkpt>
<trkpt lat="48.583653" lon="10.208845">
<ele>458</ele>
<time>2020-09-10T09:23:55Z</time>
</trkpt>
<trkpt lat="48.583392" lon="10.20921">
<ele>458</ele>
<time>2020-09-10T09:24:00Z</time>
</trkpt>
<trkpt lat="48.583155" lon="10.20963">
<ele>458</ele>
<time>2020-09-10T09:24:05Z</time>
</trkpt>
<trkpt lat="48.582952" lon="10.210087">
<ele>458</ele>
<time>2020-09-10T09:24:10Z</time>
</trkpt>
<trkpt lat="48.582785" lon="10.21059">
<ele>458</ele>
<time>2020-09-10T09:24:15Z</time>
</trkpt>
<trkpt lat="48.58264" lon="10.211125">
<ele>458</ele>
<time>2020-09-10T09:24:20Z</time>
</trkpt>
<trkpt lat="48.582488" lon="10.211652">
<ele>458</ele>
<time>2020-09-10T09:24:25Z</time>
</trkpt>
<trkpt lat="48.582305" lon="10.212155">
<ele>457</ele>
<time>2020-09-10T09:24:30Z</time>
</trkpt>
<trkpt lat="48.58208" lon="10.212602">
<ele>457</ele>
<time>2020-09-10T09:24:35Z</time>
</trkpt>
<trkpt lat="48.58184" lon="10.21301">
<ele>457</ele>
<time>2020-09-10T09:24:40Z</time>
</trkpt>
<trkpt lat="48.58156" lon="10.213237">
<ele>457</ele>
<time>2020-09-10T09:24:45Z</time>
</trkpt>
<trkpt lat="48.581285" lon="10.21294">
<ele>457</ele>
<time>2020-09-10T09:24:50Z</time>
</trkpt>
<trkpt lat="48.58103" lon="10.21263">
<ele>457</ele>
<time>2020-09-10T09:24:55Z</time>
</trkpt>
<trkpt lat="48.580752" lon="10.212362">
<ele>457</ele>
<time>2020-09-10T09:25:00Z</time>
</trkpt>
<trkpt lat="48.580448" lon="10.212143">
<ele>457</ele>
<time>2020-09-10T09:25:05Z</time>
</trkpt>
<trkpt lat="48.58014" lon="10.211957">
<ele>457</ele>
<time>2020-09-10T09:25:10Z</time>
</trkpt>
<trkpt lat="48.579827" lon="10.211798">
<ele>457</ele>
<time>2020-09-10T09:25:15Z</time>
</trkpt>
<trkpt lat="48.579507" lon="10.211673">
<ele>457</ele>
<time>2020-09-10T09:25:20Z</time>
</trkpt>
<trkpt lat="48.579178" lon="10.211567">
<ele>457</ele>
<time>2020-09-10T09:25:25Z</time>
</trkpt>
<trkpt lat="48.578842" lon="10.211487">
<ele>457</ele>
<time>2020-09-10T09:25:30Z</time>
</trkpt>
<trkpt lat="48.578503" lon="10.211403">
<ele>457</ele>
<time>2020-09-10T09:25:35Z</time>
</trkpt>
<trkpt lat="48.578165" lon="10.211277">
<ele>457</ele>
<time>2020-09-10T09:25:40Z</time>
</trkpt>
<trkpt lat="48.577858" lon="10.211012">
<ele>457</ele>
<time>2020-09-10T09:25:45Z</time>
</trkpt>
<trkpt lat="48.577632" lon="10.210603">
<ele>457</ele>
<time>2020-09-10T09:25:50Z</time>
</trkpt>
<trkpt lat="48.577478" lon="10.21013">
<ele>458</ele>
<time>2020-09-10T09:25:55Z</time>
</trkpt>
<trkpt lat="48.577308" lon="10.209673">
<ele>458</ele>
<time>2020-09-10T09:26:00Z</time>
</trkpt>
<trkpt lat="48.577108" lon="10.209243">
<ele>458</ele>
<time>2020-09-10T09:26:05Z</time>
</trkpt>
<trkpt lat="48.576863" lon="10.20885">
<ele>458</ele>
<time>2020-09-10T09:26:10Z</time>
</trkpt>
<trkpt lat="48.57659" lon="10.208475">
<ele>458</ele>
<time>2020-09-10T09:26:15Z</time>
</trkpt>
<trkpt lat="48.576303" lon="10.208112">
<ele>458</ele>
<time>2020-09-10T09:26:20Z</time>
</trkpt>
<trkpt lat="48.576013" lon="10.207772">
<ele>458</ele>
<time>2020-09-10T09:26:25Z</time>
</trkpt>
<trkpt lat="48.575737" lon="10.207445">
<ele>458</ele>
<time>2020-09-10T09:26:30Z</time>
</trkpt>
<trkpt lat="48.57545" lon="10.207132">
<ele>458</ele>
<time>2020-09-10T09:26:35Z</time>
</trkpt>
<trkpt lat="48.575148" lon="10.206865">
<ele>459</ele>
<time>2020-09-10T09:26:40Z</time>
</trkpt>
<trkpt lat="48.574812" lon="10.206713">
<ele>459</ele>
<time>2020-09-10T09:26:45Z</time>
</trkpt>
<trkpt lat="48.574473" lon="10.206552">
<ele>459</ele>
<time>2020-09-10T09:26:50Z</time>
</trkpt>
<trkpt lat="48.574147" lon="10.206357">
<ele>460</ele>
<time>2020-09-10T09:26:55Z</time>
</trkpt>
<trkpt lat="48.57381" lon="10.206197">
<ele>460</ele>
<time>2020-09-10T09:27:00Z</time>
</trkpt>
<trkpt lat="48.573453" lon="10.206148">
<ele>460</ele>
<time>2020-09-10T09:27:05Z</time>
</trkpt>
<trkpt lat="48.573078" lon="10.2061">
<ele>460</ele>
<time>2020-09-10T09:27:10Z</time>
</trkpt>
<trkpt lat="48.572697" lon="10.20605">
<ele>460</ele>
<time>2020-09-10T09:27:15Z</time>
</trkpt>
<trkpt lat="48.57231" lon="10.206028">
<ele>460</ele>
<time>2020-09-10T09:27:20Z</time>
</trkpt>
<trkpt lat="48.571925" lon="10.206013">
<ele>460</ele>
<time>2020-09-10T09:27:25Z</time>
</trkpt>
<trkpt lat="48.571548" lon="10.20589">
<ele>459</ele>
<time>2020-09-10T09:27:30Z</time>
</trkpt>
<trkpt lat="48.571188" lon="10.205728">
<ele>459</ele>
<time>2020-09-10T09:27:35Z</time>
</trkpt>
<trkpt lat="48.57084" lon="10.20552">
<ele>458</ele>
<time>2020-09-10T09:27:40Z</time>
</trkpt>
<trkpt lat="48.570508" lon="10.205583">
<ele>458</ele>
<time>2020-09-10T09:27:45Z</time>
</trkpt>
<trkpt lat="48.570253" lon="10.205893">
<ele>458</ele>
<time>2020-09-10T09:27:50Z</time>
</trkpt>
<trkpt lat="48.570005" lon="10.206252">
<ele>458</ele>
<time>2020-09-10T09:27:55Z</time>
</trkpt>
<trkpt lat="48.569815" lon="10.206698">
<ele>458</ele>
<time>2020-09-10T09:28:00Z</time>
</trkpt>
<trkpt lat="48.569617" lon="10.207188">
<ele>458</ele>
<time>2020-09-10T09:28:05Z</time>
</trkpt>
<trkpt lat="48.569395" lon="10.2076">
<ele>458</ele>
<time>2020-09-10T09:28:10Z</time>
</trkpt>
<trkpt lat="48.569168" lon="10.208015">
<ele>459</ele>
<time>2020-09-10T09:28:15Z</time>
</trkpt>
<trkpt lat="48.56898" lon="10.208458">
<ele>459</ele>
<time>2020-09-10T09:28:20Z</time>
</trkpt>
<trkpt lat="48.568807" lon="10.208928">
<ele>459</ele>
<time>2020-09-10T09:28:25Z</time>
</trkpt>
<trkpt lat="48.568658" lon="10.209417">
<ele>459</ele>
<time>2020-09-10T09:28:30Z</time>
</trkpt>
<trkpt lat="48.568562" lon="10.20992">
<ele>459</ele>
<time>2020-09-10T09:28:35Z</time>
</trkpt>
<trkpt lat="48.568458" lon="10.210422">
<ele>459</ele>
<time>2020-09-10T09:28:40Z</time>
</trkpt>
<trkpt lat="48.568313" lon="10.210917">
<ele>459</ele>
<time>2020-09-10T09:28:45Z</time>
</trkpt>
<trkpt lat="48.568078" lon="10.211292">
<ele>459</ele>
<time>2020-09-10T09:28:50Z</time>
</trkpt>
<trkpt lat="48.567762" lon="10.211313">
<ele>460</ele>
<time>2020-09-10T09:28:55Z</time>
</trkpt>
<trkpt lat="48.567487" lon="10.211202">
<ele>461</ele>
<time>2020-09-10T09:29:00Z</time>
</trkpt>
<trkpt lat="48.567285" lon="10.2108">
<ele>461</ele>
<time>2020-09-10T09:29:05Z</time>
</trkpt>
<trkpt lat="48.567295" lon="10.210245">
<ele>461</ele>
<time>2020-09-10T09:29:10Z</time>
</trkpt>
<trkpt lat="48.5673" lon="10.209688">
<ele>461</ele>
<time>2020-09-10T09:29:15Z</time>
</trkpt>
<trkpt lat="48.56731" lon="10.209145">
<ele>461</ele>
<time>2020-09-10T09:29:20Z</time>
</trkpt>
<trkpt lat="48.567353" lon="10.20861">
<ele>461</ele>
<time>2020-09-10T09:29:25Z</time>
</trkpt>
<trkpt lat="48.56736" lon="10.208088">
<ele>461</ele>
<time>2020-09-10T09:29:30Z</time>
</trkpt>
<trkpt lat="48.567153" lon="10.20771">
<ele>461</ele>
<time>2020-09-10T09:29:35Z</time>
</trkpt>
<trkpt lat="48.566795" lon="10.207713">
<ele>461</ele>
<time>2020-09-10T09:29:40Z</time>
</trkpt>
<trkpt lat="48.566433" lon="10.207882">
<ele>461</ele>
<time>2020-09-10T09:29:45Z</time>
</trkpt>
<trkpt lat="48.566095" lon="10.208078">
<ele>461</ele>
<time>2020-09-10T09:29:50Z</time>
</trkpt>
<trkpt lat="48.56577" lon="10.208275">
<ele>461</ele>
<time>2020-09-10T09:29:55Z</time>
</trkpt>
<trkpt lat="48.565462" lon="10.208507">
<ele>461</ele>
<time>2020-09-10T09:30:00Z</time>
</trkpt>
<trkpt lat="48.565158" lon="10.208778">
<ele>461</ele>
<time>2020-09-10T09:30:05Z</time>
</trkpt>
<trkpt lat="48.564848" lon="10.209032">
<ele>461</ele>
<time>2020-09-10T09:30:10Z</time>
</trkpt>
<trkpt lat="48.564517" lon="10.208853">
<ele>461</ele>
<time>2020-09-10T09:30:15Z</time>
</trkpt>
<trkpt lat="48.564303" lon="10.208407">
<ele>461</ele>
<time>2020-09-10T09:30:20Z</time>
</trkpt>
<trkpt lat="48.564092" lon="10.207965">
<ele>461</ele>
<time>2020-09-10T09:30:25Z</time>
</trkpt>
<trkpt lat="48.563885" lon="10.207517">
<ele>461</ele>
<time>2020-09-10T09:30:30Z</time>
</trkpt>
<trkpt lat="48.563728" lon="10.20702">
<ele>461</ele>
<time>2020-09-10T09:30:36Z</time>
</trkpt>
<trkpt lat="48.56367" lon="10.206367">
<ele>461</ele>
<time>2020-09-10T09:30:41Z</time>
</trkpt>
<trkpt lat="48.563712" lon="10.205827">
<ele>461</ele>
<time>2020-09-10T09:30:46Z</time>
</trkpt>
<trkpt lat="48.563763" lon="10.205295">
<ele>461</ele>
<time>2020-09-10T09:30:51Z</time>
</trkpt>
<trkpt lat="48.563825" lon="10.204763">
<ele>461</ele>
<time>2020-09-10T09:30:56Z</time>
</trkpt>
<trkpt lat="48.563865" lon="10.204228">
<ele>461</ele>
<time>2020-09-10T09:31:02Z</time>
</trkpt>
<trkpt lat="48.563863" lon="10.203582">
<ele>461</ele>
<time>2020-09-10T09:31:08Z</time>
</trkpt>
<trkpt lat="48.56382" lon="10.202947">
<ele>461</ele>
<time>2020-09-10T09:31:13Z</time>
</trkpt>
<trkpt lat="48.563782" lon="10.202415">
<ele>462</ele>
<time>2020-09-10T09:31:18Z</time>
</trkpt>
<trkpt lat="48.563747" lon="10.201872">
<ele>462</ele>
<time>2020-09-10T09:31:23Z</time>
</trkpt>
<trkpt lat="48.56376" lon="10.201333">
<ele>462</ele>
<time>2020-09-10T09:31:28Z</time>
</trkpt>
<trkpt lat="48.56378" lon="10.20078">
<ele>462</ele>
<time>2020-09-10T09:31:33Z</time>
</trkpt>
<trkpt lat="48.563802" lon="10.200223">
<ele>462</ele>
<time>2020-09-10T09:31:38Z</time>
</trkpt>
<trkpt lat="48.563818" lon="10.199668">
<ele>462</ele>
<time>2020-09-10T09:31:43Z</time>
</trkpt>
<trkpt lat="48.563863" lon="10.199127">
<ele>462</ele>
<time>2020-09-10T09:31:48Z</time>
</trkpt>
<trkpt lat="48.563973" lon="10.198597">
<ele>462</ele>
<time>2020-09-10T09:31:53Z</time>
</trkpt>
<trkpt lat="48.56409" lon="10.198073">
<ele>462</ele>
<time>2020-09-10T09:31:58Z</time>
</trkpt>
<trkpt lat="48.564193" lon="10.197547">
<ele>462</ele>
<time>2020-09-10T09:32:03Z</time>
</trkpt>
<trkpt lat="48.56426" lon="10.19701">
<ele>462</ele>
<time>2020-09-10T09:32:08Z</time>
</trkpt>
<trkpt lat="48.564243" lon="10.196463">
<ele>462</ele>
<time>2020-09-10T09:32:13Z</time>
</trkpt>
<trkpt lat="48.564168" lon="10.195932">
<ele>462</ele>
<time>2020-09-10T09:32:18Z</time>
</trkpt>
<trkpt lat="48.56403" lon="10.19544">
<ele>462</ele>
<time>2020-09-10T09:32:23Z</time>
</trkpt>
<trkpt lat="48.563815" lon="10.195007">
<ele>463</ele>
<time>2020-09-10T09:32:28Z</time>
</trkpt>
<trkpt lat="48.563513" lon="10.194708">
<ele>463</ele>
<time>2020-09-10T09:32:33Z</time>
</trkpt>
<trkpt lat="48.563157" lon="10.194637">
<ele>463</ele>
<time>2020-09-10T09:32:38Z</time>
</trkpt>
<trkpt lat="48.562798" lon="10.19473">
<ele>463</ele>
<time>2020-09-10T09:32:43Z</time>
</trkpt>
<trkpt lat="48.562457" lon="10.1949">
<ele>463</ele>
<time>2020-09-10T09:32:48Z</time>
</trkpt>
<trkpt lat="48.562098" lon="10.195023">
<ele>463</ele>
<time>2020-09-10T09:32:53Z</time>
</trkpt>
<trkpt lat="48.561738" lon="10.195093">
<ele>463</ele>
<time>2020-09-10T09:32:58Z</time>
</trkpt>
<trkpt lat="48.561365" lon="10.195103">
<ele>463</ele>
<time>2020-09-10T09:33:03Z</time>
</trkpt>
<trkpt lat="48.561028" lon="10.194907">
<ele>463</ele>
<time>2020-09-10T09:33:08Z</time>
</trkpt>
<trkpt lat="48.560755" lon="10.19461">
<ele>464</ele>
<time>2020-09-10T09:33:13Z</time>
</trkpt>
<trkpt lat="48.560478" lon="10.194275">
<ele>464</ele>
<time>2020-09-10T09:33:18Z</time>
</trkpt>
<trkpt lat="48.560208" lon="10.193962">
<ele>464</ele>
<time>2020-09-10T09:33:23Z</time>
</trkpt>
<trkpt lat="48.560013" lon="10.19368">
<ele>464</ele>
<time>2020-09-10T09:33:28Z</time>
</trkpt>
<trkpt lat="48.559873" lon="10.19343">
<ele>464</ele>
<time>2020-09-10T09:33:33Z</time>
</trkpt>
<trkpt lat="48.559642" lon="10.193432">
<ele>464</ele>
<time>2020-09-10T09:33:38Z</time>
</trkpt>
<trkpt lat="48.559343" lon="10.193397">
<ele>464</ele>
<time>2020-09-10T09:33:43Z</time>
</trkpt>
<trkpt lat="48.559042" lon="10.193358">
<ele>464</ele>
<time>2020-09-10T09:33:48Z</time>
</trkpt>
<trkpt lat="48.55873" lon="10.19339">
<ele>464</ele>
<time>2020-09-10T09:33:53Z</time>
</trkpt>
<trkpt lat="48.558463" lon="10.193605">
<ele>464</ele>
<time>2020-09-10T09:33:58Z</time>
</trkpt>
<trkpt lat="48.558302" lon="10.193965">
<ele>465</ele>
<time>2020-09-10T09:34:03Z</time>
</trkpt>
<trkpt lat="48.558195" lon="10.19438">
<ele>465</ele>
<time>2020-09-10T09:34:08Z</time>
</trkpt>
<trkpt lat="48.558113" lon="10.19476">
<ele>466</ele>
<time>2020-09-10T09:34:13Z</time>
</trkpt>
<trkpt lat="48.558028" lon="10.195133">
<ele>467</ele>
<time>2020-09-10T09:34:18Z</time>
</trkpt>
<trkpt lat="48.557932" lon="10.195525">
<ele>468</ele>
<time>2020-09-10T09:34:23Z</time>
</trkpt>
<trkpt lat="48.557842" lon="10.195908">
<ele>469</ele>
<time>2020-09-10T09:34:28Z</time>
</trkpt>
<trkpt lat="48.557745" lon="10.1963">
<ele>469</ele>
<time>2020-09-10T09:34:33Z</time>
</trkpt>
<trkpt lat="48.557627" lon="10.19668">
<ele>470</ele>
<time>2020-09-10T09:34:38Z</time>
</trkpt>
<trkpt lat="48.557562" lon="10.19709">
<ele>470</ele>
<time>2020-09-10T09:34:43Z</time>
</trkpt>
<trkpt lat="48.557487" lon="10.197485">
<ele>470</ele>
<time>2020-09-10T09:34:48Z</time>
</trkpt>
<trkpt lat="48.557392" lon="10.19788">
<ele>471</ele>
<time>2020-09-10T09:34:53Z</time>
</trkpt>
<trkpt lat="48.557305" lon="10.198297">
<ele>472</ele>
<time>2020-09-10T09:34:58Z</time>
</trkpt>
<trkpt lat="48.557253" lon="10.198772">
<ele>472</ele>
<time>2020-09-10T09:35:03Z</time>
</trkpt>
<trkpt lat="48.557258" lon="10.199245">
<ele>472</ele>
<time>2020-09-10T09:35:08Z</time>
</trkpt>
<trkpt lat="48.557263" lon="10.199718">
<ele>472</ele>
<time>2020-09-10T09:35:13Z</time>
</trkpt>
<trkpt lat="48.557272" lon="10.200192">
<ele>472</ele>
<time>2020-09-10T09:35:18Z</time>
</trkpt>
<trkpt lat="48.557268" lon="10.200635">
<ele>472</ele>
<time>2020-09-10T09:35:23Z</time>
</trkpt>
<trkpt lat="48.557273" lon="10.20105">
<ele>473</ele>
<time>2020-09-10T09:35:28Z</time>
</trkpt>
<trkpt lat="48.557272" lon="10.201427">
<ele>473</ele>
<time>2020-09-10T09:35:33Z</time>
</trkpt>
<trkpt lat="48.55727" lon="10.20183">
<ele>474</ele>
<time>2020-09-10T09:35:38Z</time>
</trkpt>
<trkpt lat="48.557272" lon="10.202233">
<ele>475</ele>
<time>2020-09-10T09:35:43Z</time>
</trkpt>
<trkpt lat="48.55727" lon="10.202595">
<ele>475</ele>
<time>2020-09-10T09:35:49Z</time>
</trkpt>
<trkpt lat="48.557202" lon="10.20281">
<ele>475</ele>
<time>2020-09-10T09:35:54Z</time>
</trkpt>
<trkpt lat="48.556987" lon="10.202705">
<ele>475</ele>
<time>2020-09-10T09:35:59Z</time>
</trkpt>
<trkpt lat="48.556733" lon="10.202572">
<ele>475</ele>
<time>2020-09-10T09:36:04Z</time>
</trkpt>
<trkpt lat="48.55651" lon="10.202465">
<ele>477</ele>
<time>2020-09-10T09:36:09Z</time>
</trkpt>
<trkpt lat="48.5563" lon="10.202373">
<ele>479</ele>
<time>2020-09-10T09:36:14Z</time>
</trkpt>
<trkpt lat="48.556135" lon="10.202288">
<ele>480</ele>
<time>2020-09-10T09:36:19Z</time>
</trkpt>
<trkpt lat="48.556042" lon="10.202327">
<ele>481</ele>
<time>2020-09-10T09:36:25Z</time>
</trkpt>
<trkpt lat="48.556043" lon="10.20235">
<ele>481</ele>
<time>2020-09-10T09:36:29Z</time>
</trkpt>
<trkpt lat="48.556065" lon="10.202275">
<ele>482</ele>
<time>2020-09-10T09:36:34Z</time>
</trkpt>
<trkpt lat="48.556028" lon="10.202228">
<ele>482</ele>
<time>2020-09-10T09:36:39Z</time>
</trkpt>
<trkpt lat="48.555972" lon="10.202228">
<ele>482</ele>
<time>2020-09-10T09:36:44Z</time>
</trkpt>
<trkpt lat="48.555953" lon="10.202228">
<ele>482</ele>
<time>2020-09-10T09:36:49Z</time>
</trkpt>
<trkpt lat="48.55604" lon="10.202223">
<ele>482</ele>
<time>2020-09-10T09:36:54Z</time>
</trkpt>
<trkpt lat="48.556108" lon="10.202265">
<ele>482</ele>
<time>2020-09-10T09:36:59Z</time>
</trkpt>
<trkpt lat="48.556113" lon="10.202318">
<ele>482</ele>
<time>2020-09-10T09:37:04Z</time>
</trkpt>
<trkpt lat="48.55609" lon="10.202347">
<ele>482</ele>
<time>2020-09-10T09:37:09Z</time>
</trkpt>
<trkpt lat="48.556087" lon="10.202347">
<ele>482</ele>
<time>2020-09-10T09:37:11Z</time>
</trkpt>
<trkpt lat="48.556073" lon="10.202393">
<ele>482</ele>
<time>2020-09-10T09:37:16Z</time>
</trkpt>
<trkpt lat="48.556003" lon="10.202505">
<ele>482</ele>
<time>2020-09-10T09:37:21Z</time>
</trkpt>
<trkpt lat="48.555867" lon="10.20269">
<ele>482</ele>
<time>2020-09-10T09:37:26Z</time>
</trkpt>
<trkpt lat="48.555637" lon="10.202848">
<ele>480</ele>
<time>2020-09-10T09:37:31Z</time>
</trkpt>
<trkpt lat="48.555393" lon="10.202927">
<ele>479</ele>
<time>2020-09-10T09:37:36Z</time>
</trkpt>
<trkpt lat="48.555187" lon="10.203073">
<ele>479</ele>
<time>2020-09-10T09:37:41Z</time>
</trkpt>
<trkpt lat="48.554997" lon="10.203295">
<ele>479</ele>
<time>2020-09-10T09:37:46Z</time>
</trkpt>
<trkpt lat="48.55491" lon="10.203498">
<ele>479</ele>
<time>2020-09-10T09:37:51Z</time>
</trkpt>
<trkpt lat="48.554828" lon="10.20381">
<ele>479</ele>
<time>2020-09-10T09:37:56Z</time>
</trkpt>
<trkpt lat="48.554757" lon="10.204133">
<ele>479</ele>
<time>2020-09-10T09:38:01Z</time>
</trkpt>
<trkpt lat="48.554705" lon="10.20442">
<ele>479</ele>
<time>2020-09-10T09:38:06Z</time>
</trkpt>
<trkpt lat="48.554662" lon="10.204723">
<ele>479</ele>
<time>2020-09-10T09:38:11Z</time>
</trkpt>
<trkpt lat="48.554617" lon="10.205058">
<ele>480</ele>
<time>2020-09-10T09:38:16Z</time>
</trkpt>
<trkpt lat="48.55456" lon="10.205357">
<ele>481</ele>
<time>2020-09-10T09:38:21Z</time>
</trkpt>
<trkpt lat="48.554453" lon="10.205583">
<ele>483</ele>
<time>2020-09-10T09:38:26Z</time>
</trkpt>
<trkpt lat="48.554285" lon="10.205608">
<ele>484</ele>
<time>2020-09-10T09:38:31Z</time>
</trkpt>
<trkpt lat="48.554113" lon="10.20554">
<ele>486</ele>
<time>2020-09-10T09:38:36Z</time>
</trkpt>
<trkpt lat="48.553955" lon="10.205462">
<ele>487</ele>
<time>2020-09-10T09:38:41Z</time>
</trkpt>
<trkpt lat="48.553822" lon="10.20541">
<ele>489</ele>
<time>2020-09-10T09:38:46Z</time>
</trkpt>
<trkpt lat="48.553728" lon="10.205448">
<ele>491</ele>
<time>2020-09-10T09:38:51Z</time>
</trkpt>
<trkpt lat="48.553707" lon="10.205637">
<ele>492</ele>
<time>2020-09-10T09:38:56Z</time>
</trkpt>
<trkpt lat="48.55372" lon="10.20593">
<ele>492</ele>
<time>2020-09-10T09:39:01Z</time>
</trkpt>
<trkpt lat="48.553727" lon="10.206268">
<ele>492</ele>
<time>2020-09-10T09:39:06Z</time>
</trkpt>
<trkpt lat="48.553735" lon="10.20663">
<ele>493</ele>
<time>2020-09-10T09:39:11Z</time>
</trkpt>
<trkpt lat="48.55375" lon="10.206993">
<ele>494</ele>
<time>2020-09-10T09:39:16Z</time>
</trkpt>
<trkpt lat="48.55377" lon="10.207355">
<ele>494</ele>
<time>2020-09-10T09:39:21Z</time>
</trkpt>
<trkpt lat="48.55382" lon="10.207702">
<ele>495</ele>
<time>2020-09-10T09:39:26Z</time>
</trkpt>
<trkpt lat="48.553878" lon="10.208048">
<ele>496</ele>
<time>2020-09-10T09:39:31Z</time>
</trkpt>
<trkpt lat="48.553915" lon="10.208418">
<ele>496</ele>
<time>2020-09-10T09:39:36Z</time>
</trkpt>
<trkpt lat="48.553933" lon="10.20879">
<ele>496</ele>
<time>2020-09-10T09:39:41Z</time>
</trkpt>
<trkpt lat="48.553963" lon="10.209138">
<ele>497</ele>
<time>2020-09-10T09:39:46Z</time>
</trkpt>
<trkpt lat="48.553988" lon="10.209483">
<ele>498</ele>
<time>2020-09-10T09:39:51Z</time>
</trkpt>
<trkpt lat="48.553992" lon="10.20983">
<ele>499</ele>
<time>2020-09-10T09:39:56Z</time>
</trkpt>
<trkpt lat="48.554023" lon="10.210177">
<ele>500</ele>
<time>2020-09-10T09:40:01Z</time>
</trkpt>
<trkpt lat="48.554053" lon="10.210538">
<ele>501</ele>
<time>2020-09-10T09:40:06Z</time>
</trkpt>
<trkpt lat="48.554068" lon="10.210915">
<ele>501</ele>
<time>2020-09-10T09:40:11Z</time>
</trkpt>
<trkpt lat="48.55409" lon="10.211297">
<ele>502</ele>
<time>2020-09-10T09:40:16Z</time>
</trkpt>
<trkpt lat="48.554082" lon="10.2117">
<ele>502</ele>
<time>2020-09-10T09:40:21Z</time>
</trkpt>
<trkpt lat="48.55408" lon="10.212098">
<ele>503</ele>
<time>2020-09-10T09:40:26Z</time>
</trkpt>
<trkpt lat="48.554063" lon="10.212507">
<ele>503</ele>
<time>2020-09-10T09:40:31Z</time>
</trkpt>
<trkpt lat="48.554047" lon="10.212905">
<ele>504</ele>
<time>2020-09-10T09:40:36Z</time>
</trkpt>
<trkpt lat="48.554028" lon="10.213292">
<ele>505</ele>
<time>2020-09-10T09:40:41Z</time>
</trkpt>
<trkpt lat="48.553998" lon="10.213685">
<ele>505</ele>
<time>2020-09-10T09:40:46Z</time>
</trkpt>
<trkpt lat="48.553952" lon="10.21408">
<ele>506</ele>
<time>2020-09-10T09:40:51Z</time>
</trkpt>
<trkpt lat="48.553893" lon="10.214515">
<ele>507</ele>
<time>2020-09-10T09:40:56Z</time>
</trkpt>
<trkpt lat="48.553877" lon="10.21495">
<ele>507</ele>
<time>2020-09-10T09:41:01Z</time>
</trkpt>
<trkpt lat="48.553905" lon="10.215345">
<ele>507</ele>
<time>2020-09-10T09:41:06Z</time>
</trkpt>
<trkpt lat="48.553935" lon="10.21573">
<ele>508</ele>
<time>2020-09-10T09:41:11Z</time>
</trkpt>
<trkpt lat="48.553973" lon="10.216137">
<ele>508</ele>
<time>2020-09-10T09:41:16Z</time>
</trkpt>
<trkpt lat="48.553995" lon="10.216548">
<ele>509</ele>
<time>2020-09-10T09:41:21Z</time>
</trkpt>
<trkpt lat="48.554022" lon="10.216978">
<ele>509</ele>
<time>2020-09-10T09:41:26Z</time>
</trkpt>
<trkpt lat="48.554045" lon="10.217413">
<ele>510</ele>
<time>2020-09-10T09:41:31Z</time>
</trkpt>
<trkpt lat="48.554088" lon="10.217837">
<ele>511</ele>
<time>2020-09-10T09:41:36Z</time>
</trkpt>
<trkpt lat="48.554132" lon="10.21825">
<ele>511</ele>
<time>2020-09-10T09:41:41Z</time>
</trkpt>
<trkpt lat="48.554162" lon="10.218662">
<ele>512</ele>
<time>2020-09-10T09:41:46Z</time>
</trkpt>
<trkpt lat="48.554193" lon="10.219068">
<ele>513</ele>
<time>2020-09-10T09:41:51Z</time>
</trkpt>
<trkpt lat="48.554217" lon="10.219485">
<ele>513</ele>
<time>2020-09-10T09:41:56Z</time>
</trkpt>
<trkpt lat="48.554235" lon="10.219913">
<ele>514</ele>
<time>2020-09-10T09:42:01Z</time>
</trkpt>
<trkpt lat="48.554248" lon="10.22035">
<ele>514</ele>
<time>2020-09-10T09:42:06Z</time>
</trkpt>
<trkpt lat="48.554243" lon="10.220763">
<ele>514</ele>
<time>2020-09-10T09:42:11Z</time>
</trkpt>
<trkpt lat="48.554052" lon="10.221003">
<ele>515</ele>
<time>2020-09-10T09:42:16Z</time>
</trkpt>
<trkpt lat="48.553805" lon="10.221088">
<ele>515</ele>
<time>2020-09-10T09:42:21Z</time>
</trkpt>
<trkpt lat="48.553713" lon="10.221413">
<ele>517</ele>
<time>2020-09-10T09:42:26Z</time>
</trkpt>
<trkpt lat="48.553808" lon="10.221798">
<ele>517</ele>
<time>2020-09-10T09:42:31Z</time>
</trkpt>
<trkpt lat="48.553898" lon="10.222215">
<ele>518</ele>
<time>2020-09-10T09:42:36Z</time>
</trkpt>
<trkpt lat="48.553988" lon="10.222648">
<ele>518</ele>
<time>2020-09-10T09:42:41Z</time>
</trkpt>
<trkpt lat="48.554082" lon="10.223085">
<ele>519</ele>
<time>2020-09-10T09:42:46Z</time>
</trkpt>
<trkpt lat="48.554178" lon="10.223523">
<ele>519</ele>
<time>2020-09-10T09:42:51Z</time>
</trkpt>
<trkpt lat="48.554278" lon="10.22397">
<ele>519</ele>
<time>2020-09-10T09:42:56Z</time>
</trkpt>
<trkpt lat="48.554378" lon="10.224405">
<ele>519</ele>
<time>2020-09-10T09:43:01Z</time>
</trkpt>
<trkpt lat="48.554467" lon="10.224823">
<ele>519</ele>
<time>2020-09-10T09:43:06Z</time>
</trkpt>
<trkpt lat="48.554253" lon="10.224985">
<ele>519</ele>
<time>2020-09-10T09:43:11Z</time>
</trkpt>
<trkpt lat="48.553945" lon="10.22504">
<ele>519</ele>
<time>2020-09-10T09:43:16Z</time>
</trkpt>
<trkpt lat="48.553637" lon="10.225102">
<ele>519</ele>
<time>2020-09-10T09:43:21Z</time>
</trkpt>
<trkpt lat="48.55333" lon="10.225162">
<ele>520</ele>
<time>2020-09-10T09:43:26Z</time>
</trkpt>
<trkpt lat="48.553023" lon="10.225222">
<ele>520</ele>
<time>2020-09-10T09:43:31Z</time>
</trkpt>
<trkpt lat="48.552687" lon="10.225282">
<ele>520</ele>
<time>2020-09-10T09:43:36Z</time>
</trkpt>
<trkpt lat="48.552302" lon="10.225325">
<ele>520</ele>
<time>2020-09-10T09:43:42Z</time>
</trkpt>
<trkpt lat="48.551772" lon="10.225173">
<ele>516</ele>
<time>2020-09-10T09:43:47Z</time>
</trkpt>
<trkpt lat="48.551253" lon="10.224892">
<ele>513</ele>
<time>2020-09-10T09:43:52Z</time>
</trkpt>
<trkpt lat="48.550737" lon="10.224535">
<ele>508</ele>
<time>2020-09-10T09:43:57Z</time>
</trkpt>
<trkpt lat="48.550228" lon="10.22423">
<ele>503</ele>
<time>2020-09-10T09:44:03Z</time>
</trkpt>
<trkpt lat="48.549668" lon="10.224518">
<ele>499</ele>
<time>2020-09-10T09:44:08Z</time>
</trkpt>
<trkpt lat="48.549205" lon="10.22506">
<ele>495</ele>
<time>2020-09-10T09:44:13Z</time>
</trkpt>
<trkpt lat="48.548745" lon="10.225595">
<ele>492</ele>
<time>2020-09-10T09:44:19Z</time>
</trkpt>
<trkpt lat="48.548207" lon="10.226218">
<ele>489</ele>
<time>2020-09-10T09:44:25Z</time>
</trkpt>
<trkpt lat="48.547693" lon="10.226827">
<ele>487</ele>
<time>2020-09-10T09:44:30Z</time>
</trkpt>
<trkpt lat="48.547285" lon="10.227348">
<ele>486</ele>
<time>2020-09-10T09:44:35Z</time>
</trkpt>
<trkpt lat="48.546903" lon="10.22785">
<ele>484</ele>
<time>2020-09-10T09:44:40Z</time>
</trkpt>
<trkpt lat="48.546517" lon="10.228283">
<ele>484</ele>
<time>2020-09-10T09:44:45Z</time>
</trkpt>
<trkpt lat="48.546135" lon="10.228692">
<ele>483</ele>
<time>2020-09-10T09:44:50Z</time>
</trkpt>
<trkpt lat="48.54577" lon="10.229085">
<ele>483</ele>
<time>2020-09-10T09:44:55Z</time>
</trkpt>
<trkpt lat="48.545407" lon="10.229472">
<ele>482</ele>
<time>2020-09-10T09:45:00Z</time>
</trkpt>
<trkpt lat="48.54499" lon="10.229715">
<ele>481</ele>
<time>2020-09-10T09:45:05Z</time>
</trkpt>
<trkpt lat="48.544543" lon="10.229857">
<ele>479</ele>
<time>2020-09-10T09:45:10Z</time>
</trkpt>
<trkpt lat="48.544087" lon="10.22992">
<ele>477</ele>
<time>2020-09-10T09:45:15Z</time>
</trkpt>
<trkpt lat="48.543657" lon="10.229925">
<ele>477</ele>
<time>2020-09-10T09:45:20Z</time>
</trkpt>
<trkpt lat="48.543268" lon="10.230058">
<ele>477</ele>
<time>2020-09-10T09:45:25Z</time>
</trkpt>
<trkpt lat="48.542907" lon="10.230223">
<ele>477</ele>
<time>2020-09-10T09:45:30Z</time>
</trkpt>
<trkpt lat="48.542582" lon="10.230373">
<ele>477</ele>
<time>2020-09-10T09:45:35Z</time>
</trkpt>
<trkpt lat="48.542355" lon="10.230197">
<ele>477</ele>
<time>2020-09-10T09:45:40Z</time>
</trkpt>
<trkpt lat="48.542142" lon="10.230065">
<ele>478</ele>
<time>2020-09-10T09:45:45Z</time>
</trkpt>
<trkpt lat="48.541853" lon="10.230292">
<ele>478</ele>
<time>2020-09-10T09:45:50Z</time>
</trkpt>
<trkpt lat="48.54155" lon="10.230553">
<ele>478</ele>
<time>2020-09-10T09:45:55Z</time>
</trkpt>
<trkpt lat="48.541263" lon="10.23085">
<ele>476</ele>
<time>2020-09-10T09:46:00Z</time>
</trkpt>
<trkpt lat="48.540968" lon="10.231023">
<ele>474</ele>
<time>2020-09-10T09:46:05Z</time>
</trkpt>
<trkpt lat="48.540823" lon="10.231147">
<ele>472</ele>
<time>2020-09-10T09:46:10Z</time>
</trkpt>
<trkpt lat="48.540822" lon="10.231175">
<ele>470</ele>
<time>2020-09-10T09:46:15Z</time>
</trkpt>
<trkpt lat="48.540865" lon="10.231478">
<ele>470</ele>
<time>2020-09-10T09:46:20Z</time>
</trkpt>
<trkpt lat="48.540958" lon="10.231773">
<ele>470</ele>
<time>2020-09-10T09:46:25Z</time>
</trkpt>
<trkpt lat="48.541063" lon="10.232105">
<ele>470</ele>
<time>2020-09-10T09:46:30Z</time>
</trkpt>
<trkpt lat="48.54116" lon="10.23243">
<ele>470</ele>
<time>2020-09-10T09:46:35Z</time>
</trkpt>
<trkpt lat="48.541235" lon="10.232808">
<ele>470</ele>
<time>2020-09-10T09:46:40Z</time>
</trkpt>
<trkpt lat="48.541285" lon="10.233273">
<ele>470</ele>
<time>2020-09-10T09:46:45Z</time>
</trkpt>
<trkpt lat="48.541265" lon="10.233828">
<ele>469</ele>
<time>2020-09-10T09:46:50Z</time>
</trkpt>
<trkpt lat="48.541142" lon="10.234378">
<ele>467</ele>
<time>2020-09-10T09:46:55Z</time>
</trkpt>
<trkpt lat="48.541035" lon="10.234833">
<ele>466</ele>
<time>2020-09-10T09:47:00Z</time>
</trkpt>
<trkpt lat="48.540758" lon="10.23524">
<ele>464</ele>
<time>2020-09-10T09:47:05Z</time>
</trkpt>
<trkpt lat="48.540372" lon="10.235525">
<ele>462</ele>
<time>2020-09-10T09:47:10Z</time>
</trkpt>
<trkpt lat="48.539992" lon="10.235773">
<ele>462</ele>
<time>2020-09-10T09:47:15Z</time>
</trkpt>
<trkpt lat="48.539593" lon="10.235977">
<ele>461</ele>
<time>2020-09-10T09:47:20Z</time>
</trkpt>
<trkpt lat="48.539225" lon="10.236158">
<ele>460</ele>
<time>2020-09-10T09:47:25Z</time>
</trkpt>
<trkpt lat="48.538855" lon="10.236305">
<ele>459</ele>
<time>2020-09-10T09:47:30Z</time>
</trkpt>
<trkpt lat="48.538463" lon="10.236333">
<ele>458</ele>
<time>2020-09-10T09:47:35Z</time>
</trkpt>
<trkpt lat="48.538078" lon="10.236322">
<ele>457</ele>
<time>2020-09-10T09:47:40Z</time>
</trkpt>
<trkpt lat="48.53771" lon="10.236388">
<ele>456</ele>
<time>2020-09-10T09:47:45Z</time>
</trkpt>
<trkpt lat="48.537373" lon="10.236518">
<ele>456</ele>
<time>2020-09-10T09:47:50Z</time>
</trkpt>
<trkpt lat="48.537057" lon="10.236647">
<ele>456</ele>
<time>2020-09-10T09:47:55Z</time>
</trkpt>
<trkpt lat="48.536778" lon="10.236783">
<ele>456</ele>
<time>2020-09-10T09:48:00Z</time>
</trkpt>
<trkpt lat="48.536602" lon="10.236963">
<ele>456</ele>
<time>2020-09-10T09:48:05Z</time>
</trkpt>
<trkpt lat="48.536675" lon="10.23727">
<ele>456</ele>
<time>2020-09-10T09:48:10Z</time>
</trkpt>
<trkpt lat="48.536785" lon="10.237673">
<ele>455</ele>
<time>2020-09-10T09:48:15Z</time>
</trkpt>
<trkpt lat="48.536943" lon="10.238203">
<ele>455</ele>
<time>2020-09-10T09:48:20Z</time>
</trkpt>
<trkpt lat="48.537082" lon="10.238713">
<ele>455</ele>
<time>2020-09-10T09:48:25Z</time>
</trkpt>
<trkpt lat="48.537185" lon="10.23921">
<ele>455</ele>
<time>2020-09-10T09:48:30Z</time>
</trkpt>
<trkpt lat="48.537282" lon="10.2397">
<ele>455</ele>
<time>2020-09-10T09:48:35Z</time>
</trkpt>
<trkpt lat="48.537375" lon="10.240165">
<ele>455</ele>
<time>2020-09-10T09:48:40Z</time>
</trkpt>
<trkpt lat="48.537457" lon="10.24061">
<ele>455</ele>
<time>2020-09-10T09:48:45Z</time>
</trkpt>
<trkpt lat="48.53749" lon="10.240993">
<ele>455</ele>
<time>2020-09-10T09:48:50Z</time>
</trkpt>
<trkpt lat="48.537215" lon="10.24111">
<ele>455</ele>
<time>2020-09-10T09:48:55Z</time>
</trkpt>
<trkpt lat="48.536895" lon="10.241217">
<ele>454</ele>
<time>2020-09-10T09:49:00Z</time>
</trkpt>
<trkpt lat="48.536592" lon="10.241335">
<ele>454</ele>
<time>2020-09-10T09:49:05Z</time>
</trkpt>
<trkpt lat="48.53632" lon="10.241445">
<ele>454</ele>
<time>2020-09-10T09:49:10Z</time>
</trkpt>
<trkpt lat="48.536193" lon="10.241685">
<ele>454</ele>
<time>2020-09-10T09:49:15Z</time>
</trkpt>
<trkpt lat="48.536122" lon="10.241958">
<ele>454</ele>
<time>2020-09-10T09:49:20Z</time>
</trkpt>
<trkpt lat="48.53602" lon="10.24208">
<ele>454</ele>
<time>2020-09-10T09:49:26Z</time>
</trkpt>
<trkpt lat="48.536145" lon="10.242415">
<ele>454</ele>
<time>2020-09-10T09:49:31Z</time>
</trkpt>
<trkpt lat="48.536277" lon="10.242825">
<ele>453</ele>
<time>2020-09-10T09:49:36Z</time>
</trkpt>
<trkpt lat="48.536238" lon="10.243197">
<ele>453</ele>
<time>2020-09-10T09:49:41Z</time>
</trkpt>
<trkpt lat="48.536185" lon="10.243613">
<ele>453</ele>
<time>2020-09-10T09:49:46Z</time>
</trkpt>
<trkpt lat="48.53614" lon="10.243995">
<ele>452</ele>
<time>2020-09-10T09:49:51Z</time>
</trkpt>
<trkpt lat="48.536083" lon="10.24443">
<ele>452</ele>
<time>2020-09-10T09:49:56Z</time>
</trkpt>
<trkpt lat="48.536027" lon="10.244905">
<ele>452</ele>
<time>2020-09-10T09:50:01Z</time>
</trkpt>
<trkpt lat="48.53597" lon="10.245415">
<ele>452</ele>
<time>2020-09-10T09:50:06Z</time>
</trkpt>
<trkpt lat="48.535962" lon="10.245872">
<ele>452</ele>
<time>2020-09-10T09:50:11Z</time>
</trkpt>
<trkpt lat="48.536003" lon="10.246283">
<ele>452</ele>
<time>2020-09-10T09:50:17Z</time>
</trkpt>
<trkpt lat="48.53575" lon="10.246588">
<ele>452</ele>
<time>2020-09-10T09:50:22Z</time>
</trkpt>
<trkpt lat="48.535422" lon="10.24673">
<ele>452</ele>
<time>2020-09-10T09:50:27Z</time>
</trkpt>
<trkpt lat="48.535103" lon="10.24688">
<ele>452</ele>
<time>2020-09-10T09:50:32Z</time>
</trkpt>
<trkpt lat="48.53478" lon="10.247045">
<ele>451</ele>
<time>2020-09-10T09:50:37Z</time>
</trkpt>
<trkpt lat="48.534463" lon="10.247205">
<ele>451</ele>
<time>2020-09-10T09:50:42Z</time>
</trkpt>
<trkpt lat="48.534155" lon="10.247365">
<ele>451</ele>
<time>2020-09-10T09:50:47Z</time>
</trkpt>
<trkpt lat="48.533847" lon="10.247527">
<ele>451</ele>
<time>2020-09-10T09:50:52Z</time>
</trkpt>
<trkpt lat="48.533528" lon="10.247692">
<ele>451</ele>
<time>2020-09-10T09:50:57Z</time>
</trkpt>
<trkpt lat="48.53322" lon="10.24785">
<ele>451</ele>
<time>2020-09-10T09:51:02Z</time>
</trkpt>
<trkpt lat="48.532912" lon="10.248008">
<ele>451</ele>
<time>2020-09-10T09:51:07Z</time>
</trkpt>
<trkpt lat="48.532597" lon="10.248177">
<ele>451</ele>
<time>2020-09-10T09:51:12Z</time>
</trkpt>
<trkpt lat="48.532287" lon="10.248343">
<ele>451</ele>
<time>2020-09-10T09:51:17Z</time>
</trkpt>
<trkpt lat="48.531973" lon="10.248513">
<ele>451</ele>
<time>2020-09-10T09:51:23Z</time>
</trkpt>
<trkpt lat="48.531588" lon="10.248712">
<ele>451</ele>
<time>2020-09-10T09:51:28Z</time>
</trkpt>
<trkpt lat="48.531285" lon="10.248872">
<ele>451</ele>
<time>2020-09-10T09:51:33Z</time>
</trkpt>
<trkpt lat="48.531033" lon="10.249008">
<ele>451</ele>
<time>2020-09-10T09:51:39Z</time>
</trkpt>
<trkpt lat="48.530943" lon="10.249397">
<ele>451</ele>
<time>2020-09-10T09:51:44Z</time>
</trkpt>
<trkpt lat="48.530902" lon="10.249982">
<ele>451</ele>
<time>2020-09-10T09:51:49Z</time>
</trkpt>
<trkpt lat="48.530855" lon="10.25047">
<ele>451</ele>
<time>2020-09-10T09:51:55Z</time>
</trkpt>
<trkpt lat="48.530543" lon="10.250838">
<ele>451</ele>
<time>2020-09-10T09:52:00Z</time>
</trkpt>
<trkpt lat="48.530232" lon="10.251017">
<ele>451</ele>
<time>2020-09-10T09:52:05Z</time>
</trkpt>
<trkpt lat="48.529943" lon="10.251185">
<ele>451</ele>
<time>2020-09-10T09:52:10Z</time>
</trkpt>
<trkpt lat="48.529648" lon="10.251363">
<ele>451</ele>
<time>2020-09-10T09:52:15Z</time>
</trkpt>
<trkpt lat="48.529355" lon="10.251542">
<ele>451</ele>
<time>2020-09-10T09:52:20Z</time>
</trkpt>
<trkpt lat="48.529057" lon="10.251725">
<ele>451</ele>
<time>2020-09-10T09:52:25Z</time>
</trkpt>
<trkpt lat="48.52876" lon="10.251903">
<ele>451</ele>
<time>2020-09-10T09:52:30Z</time>
</trkpt>
<trkpt lat="48.528457" lon="10.252092">
<ele>451</ele>
<time>2020-09-10T09:52:35Z</time>
</trkpt>
<trkpt lat="48.52816" lon="10.252273">
<ele>451</ele>
<time>2020-09-10T09:52:40Z</time>
</trkpt>
<trkpt lat="48.527867" lon="10.25245">
<ele>451</ele>
<time>2020-09-10T09:52:45Z</time>
</trkpt>
<trkpt lat="48.527565" lon="10.252635">
<ele>451</ele>
<time>2020-09-10T09:52:50Z</time>
</trkpt>
<trkpt lat="48.527262" lon="10.252817">
<ele>451</ele>
<time>2020-09-10T09:52:55Z</time>
</trkpt>
<trkpt lat="48.526955" lon="10.253007">
<ele>451</ele>
<time>2020-09-10T09:53:00Z</time>
</trkpt>
<trkpt lat="48.526658" lon="10.253182">
<ele>451</ele>
<time>2020-09-10T09:53:05Z</time>
</trkpt>
<trkpt lat="48.52636" lon="10.253363">
<ele>451</ele>
<time>2020-09-10T09:53:11Z</time>
</trkpt>
<trkpt lat="48.525997" lon="10.253592">
<ele>451</ele>
<time>2020-09-10T09:53:17Z</time>
</trkpt>
<trkpt lat="48.525618" lon="10.253822">
<ele>451</ele>
<time>2020-09-10T09:53:22Z</time>
</trkpt>
<trkpt lat="48.525288" lon="10.254025">
<ele>451</ele>
<time>2020-09-10T09:53:27Z</time>
</trkpt>
<trkpt lat="48.524968" lon="10.254217">
<ele>451</ele>
<time>2020-09-10T09:53:32Z</time>
</trkpt>
<trkpt lat="48.524653" lon="10.254408">
<ele>450</ele>
<time>2020-09-10T09:53:37Z</time>
</trkpt>
<trkpt lat="48.524353" lon="10.254602">
<ele>450</ele>
<time>2020-09-10T09:53:42Z</time>
</trkpt>
<trkpt lat="48.524047" lon="10.25479">
<ele>450</ele>
<time>2020-09-10T09:53:47Z</time>
</trkpt>
<trkpt lat="48.523752" lon="10.25497">
<ele>451</ele>
<time>2020-09-10T09:53:53Z</time>
</trkpt>
<trkpt lat="48.52338" lon="10.255198">
<ele>451</ele>
<time>2020-09-10T09:53:59Z</time>
</trkpt>
<trkpt lat="48.522997" lon="10.255415">
<ele>451</ele>
<time>2020-09-10T09:54:04Z</time>
</trkpt>
<trkpt lat="48.52268" lon="10.255605">
<ele>451</ele>
<time>2020-09-10T09:54:09Z</time>
</trkpt>
<trkpt lat="48.522363" lon="10.255788">
<ele>451</ele>
<time>2020-09-10T09:54:14Z</time>
</trkpt>
<trkpt lat="48.52205" lon="10.25597">
<ele>451</ele>
<time>2020-09-10T09:54:20Z</time>
</trkpt>
<trkpt lat="48.521663" lon="10.256192">
<ele>451</ele>
<time>2020-09-10T09:54:25Z</time>
</trkpt>
<trkpt lat="48.521345" lon="10.25638">
<ele>451</ele>
<time>2020-09-10T09:54:31Z</time>
</trkpt>
<trkpt lat="48.521028" lon="10.25657">
<ele>451</ele>
<time>2020-09-10T09:54:36Z</time>
</trkpt>
<trkpt lat="48.52072" lon="10.256755">
<ele>451</ele>
<time>2020-09-10T09:54:41Z</time>
</trkpt>
<trkpt lat="48.520327" lon="10.256983">
<ele>451</ele>
<time>2020-09-10T09:54:47Z</time>
</trkpt>
<trkpt lat="48.520003" lon="10.257177">
<ele>451</ele>
<time>2020-09-10T09:54:52Z</time>
</trkpt>
<trkpt lat="48.519693" lon="10.257362">
<ele>451</ele>
<time>2020-09-10T09:54:57Z</time>
</trkpt>
<trkpt lat="48.519418" lon="10.257487">
<ele>451</ele>
<time>2020-09-10T09:55:02Z</time>
</trkpt>
<trkpt lat="48.519293" lon="10.257152">
<ele>451</ele>
<time>2020-09-10T09:55:07Z</time>
</trkpt>
<trkpt lat="48.518972" lon="10.257237">
<ele>451</ele>
<time>2020-09-10T09:55:13Z</time>
</trkpt>
<trkpt lat="48.518592" lon="10.257488">
<ele>451</ele>
<time>2020-09-10T09:55:18Z</time>
</trkpt>
<trkpt lat="48.518277" lon="10.25769">
<ele>451</ele>
<time>2020-09-10T09:55:23Z</time>
</trkpt>
<trkpt lat="48.517965" lon="10.257895">
<ele>451</ele>
<time>2020-09-10T09:55:29Z</time>
</trkpt>
<trkpt lat="48.517658" lon="10.258093">
<ele>451</ele>
<time>2020-09-10T09:55:34Z</time>
</trkpt>
<trkpt lat="48.517348" lon="10.2583">
<ele>451</ele>
<time>2020-09-10T09:55:39Z</time>
</trkpt>
<trkpt lat="48.517033" lon="10.258505">
<ele>451</ele>
<time>2020-09-10T09:55:44Z</time>
</trkpt>
<trkpt lat="48.516658" lon="10.258738">
<ele>451</ele>
<time>2020-09-10T09:55:49Z</time>
</trkpt>
<trkpt lat="48.516315" lon="10.258862">
<ele>451</ele>
<time>2020-09-10T09:55:55Z</time>
</trkpt>
<trkpt lat="48.515912" lon="10.258983">
<ele>451</ele>
<time>2020-09-10T09:56:00Z</time>
</trkpt>
<trkpt lat="48.515578" lon="10.259082">
<ele>451</ele>
<time>2020-09-10T09:56:05Z</time>
</trkpt>
<trkpt lat="48.515247" lon="10.25918">
<ele>451</ele>
<time>2020-09-10T09:56:10Z</time>
</trkpt>
<trkpt lat="48.514927" lon="10.259283">
<ele>451</ele>
<time>2020-09-10T09:56:15Z</time>
</trkpt>
<trkpt lat="48.5146" lon="10.259383">
<ele>451</ele>
<time>2020-09-10T09:56:20Z</time>
</trkpt>
<trkpt lat="48.514283" lon="10.25948">
<ele>451</ele>
<time>2020-09-10T09:56:25Z</time>
</trkpt>
<trkpt lat="48.51398" lon="10.259555">
<ele>451</ele>
<time>2020-09-10T09:56:30Z</time>
</trkpt>
<trkpt lat="48.513698" lon="10.259432">
<ele>451</ele>
<time>2020-09-10T09:56:35Z</time>
</trkpt>
<trkpt lat="48.51344" lon="10.259253">
<ele>451</ele>
<time>2020-09-10T09:56:41Z</time>
</trkpt>
<trkpt lat="48.513147" lon="10.259105">
<ele>451</ele>
<time>2020-09-10T09:56:46Z</time>
</trkpt>
<trkpt lat="48.512795" lon="10.258927">
<ele>450</ele>
<time>2020-09-10T09:56:51Z</time>
</trkpt>
<trkpt lat="48.512492" lon="10.258868">
<ele>450</ele>
<time>2020-09-10T09:56:56Z</time>
</trkpt>
<trkpt lat="48.512198" lon="10.258878">
<ele>450</ele>
<time>2020-09-10T09:57:01Z</time>
</trkpt>
<trkpt lat="48.5119" lon="10.258898">
<ele>450</ele>
<time>2020-09-10T09:57:06Z</time>
</trkpt>
<trkpt lat="48.511597" lon="10.258922">
<ele>450</ele>
<time>2020-09-10T09:57:11Z</time>
</trkpt>
<trkpt lat="48.5113" lon="10.258987">
<ele>450</ele>
<time>2020-09-10T09:57:16Z</time>
</trkpt>
<trkpt lat="48.511067" lon="10.258975">
<ele>450</ele>
<time>2020-09-10T09:57:21Z</time>
</trkpt>
<trkpt lat="48.510908" lon="10.258693">
<ele>449</ele>
<time>2020-09-10T09:57:26Z</time>
</trkpt>
<trkpt lat="48.510682" lon="10.258468">
<ele>449</ele>
<time>2020-09-10T09:57:31Z</time>
</trkpt>
<trkpt lat="48.510467" lon="10.258168">
<ele>449</ele>
<time>2020-09-10T09:57:36Z</time>
</trkpt>
<trkpt lat="48.510258" lon="10.257843">
<ele>449</ele>
<time>2020-09-10T09:57:41Z</time>
</trkpt>
<trkpt lat="48.51007" lon="10.257527">
<ele>449</ele>
<time>2020-09-10T09:57:46Z</time>
</trkpt>
<trkpt lat="48.509863" lon="10.257235">
<ele>450</ele>
<time>2020-09-10T09:57:51Z</time>
</trkpt>
<trkpt lat="48.509668" lon="10.256942">
<ele>450</ele>
<time>2020-09-10T09:57:56Z</time>
</trkpt>
<trkpt lat="48.509463" lon="10.256643">
<ele>450</ele>
<time>2020-09-10T09:58:01Z</time>
</trkpt>
<trkpt lat="48.509257" lon="10.256348">
<ele>450</ele>
<time>2020-09-10T09:58:06Z</time>
</trkpt>
<trkpt lat="48.509117" lon="10.256128">
<ele>451</ele>
<time>2020-09-10T09:58:12Z</time>
</trkpt>
<trkpt lat="48.508882" lon="10.256317">
<ele>451</ele>
<time>2020-09-10T09:58:17Z</time>
</trkpt>
<trkpt lat="48.508668" lon="10.256572">
<ele>451</ele>
<time>2020-09-10T09:58:22Z</time>
</trkpt>
<trkpt lat="48.508415" lon="10.256673">
<ele>451</ele>
<time>2020-09-10T09:58:27Z</time>
</trkpt>
<trkpt lat="48.508203" lon="10.256397">
<ele>451</ele>
<time>2020-09-10T09:58:32Z</time>
</trkpt>
<trkpt lat="48.508037" lon="10.256002">
<ele>451</ele>
<time>2020-09-10T09:58:37Z</time>
</trkpt>
<trkpt lat="48.507957" lon="10.255512">
<ele>450</ele>
<time>2020-09-10T09:58:42Z</time>
</trkpt>
<trkpt lat="48.507873" lon="10.255065">
<ele>450</ele>
<time>2020-09-10T09:58:47Z</time>
</trkpt>
<trkpt lat="48.507813" lon="10.254613">
<ele>450</ele>
<time>2020-09-10T09:58:52Z</time>
</trkpt>
<trkpt lat="48.507757" lon="10.25417">
<ele>450</ele>
<time>2020-09-10T09:58:57Z</time>
</trkpt>
<trkpt lat="48.50771" lon="10.253718">
<ele>450</ele>
<time>2020-09-10T09:59:02Z</time>
</trkpt>
<trkpt lat="48.507667" lon="10.253277">
<ele>450</ele>
<time>2020-09-10T09:59:07Z</time>
</trkpt>
<trkpt lat="48.507638" lon="10.252825">
<ele>450</ele>
<time>2020-09-10T09:59:12Z</time>
</trkpt>
<trkpt lat="48.507605" lon="10.252387">
<ele>450</ele>
<time>2020-09-10T09:59:17Z</time>
</trkpt>
<trkpt lat="48.507593" lon="10.251995">
<ele>450</ele>
<time>2020-09-10T09:59:23Z</time>
</trkpt>
<trkpt lat="48.50753" lon="10.251723">
<ele>450</ele>
<time>2020-09-10T09:59:29Z</time>
</trkpt>
<trkpt lat="48.507355" lon="10.251627">
<ele>450</ele>
<time>2020-09-10T09:59:34Z</time>
</trkpt>
<trkpt lat="48.507023" lon="10.251638">
<ele>450</ele>
<time>2020-09-10T09:59:39Z</time>
</trkpt>
<trkpt lat="48.506588" lon="10.251792">
<ele>449</ele>
<time>2020-09-10T09:59:44Z</time>
</trkpt>
<trkpt lat="48.506245" lon="10.251922">
<ele>449</ele>
<time>2020-09-10T09:59:49Z</time>
</trkpt>
<trkpt lat="48.50592" lon="10.252093">
<ele>449</ele>
<time>2020-09-10T09:59:54Z</time>
</trkpt>
<trkpt lat="48.505572" lon="10.252208">
<ele>448</ele>
<time>2020-09-10T10:00:00Z</time>
</trkpt>
<trkpt lat="48.505157" lon="10.252325">
<ele>448</ele>
<time>2020-09-10T10:00:05Z</time>
</trkpt>
<trkpt lat="48.504803" lon="10.252423">
<ele>448</ele>
<time>2020-09-10T10:00:11Z</time>
</trkpt>
<trkpt lat="48.504378" lon="10.252542">
<ele>448</ele>
<time>2020-09-10T10:00:17Z</time>
</trkpt>
<trkpt lat="48.503952" lon="10.252653">
<ele>448</ele>
<time>2020-09-10T10:00:22Z</time>
</trkpt>
<trkpt lat="48.503593" lon="10.252738">
<ele>448</ele>
<time>2020-09-10T10:00:27Z</time>
</trkpt>
<trkpt lat="48.503233" lon="10.252828">
<ele>448</ele>
<time>2020-09-10T10:00:32Z</time>
</trkpt>
<trkpt lat="48.502875" lon="10.252918">
<ele>447</ele>
<time>2020-09-10T10:00:37Z</time>
</trkpt>
<trkpt lat="48.502522" lon="10.253005">
<ele>447</ele>
<time>2020-09-10T10:00:42Z</time>
</trkpt>
<trkpt lat="48.502162" lon="10.25309">
<ele>447</ele>
<time>2020-09-10T10:00:47Z</time>
</trkpt>
<trkpt lat="48.501807" lon="10.253173">
<ele>447</ele>
<time>2020-09-10T10:00:53Z</time>
</trkpt>
<trkpt lat="48.501373" lon="10.253278">
<ele>447</ele>
<time>2020-09-10T10:00:59Z</time>
</trkpt>
<trkpt lat="48.501012" lon="10.253367">
<ele>447</ele>
<time>2020-09-10T10:01:04Z</time>
</trkpt>
<trkpt lat="48.500582" lon="10.253463">
<ele>447</ele>
<time>2020-09-10T10:01:09Z</time>
</trkpt>
<trkpt lat="48.500233" lon="10.253538">
<ele>447</ele>
<time>2020-09-10T10:01:14Z</time>
</trkpt>
<trkpt lat="48.499878" lon="10.253605">
<ele>447</ele>
<time>2020-09-10T10:01:19Z</time>
</trkpt>
<trkpt lat="48.499505" lon="10.253688">
<ele>447</ele>
<time>2020-09-10T10:01:24Z</time>
</trkpt>
<trkpt lat="48.499138" lon="10.253768">
<ele>447</ele>
<time>2020-09-10T10:01:29Z</time>
</trkpt>
<trkpt lat="48.498785" lon="10.253858">
<ele>447</ele>
<time>2020-09-10T10:01:35Z</time>
</trkpt>
<trkpt lat="48.498383" lon="10.253985">
<ele>447</ele>
<time>2020-09-10T10:01:40Z</time>
</trkpt>
<trkpt lat="48.498013" lon="10.254073">
<ele>447</ele>
<time>2020-09-10T10:01:45Z</time>
</trkpt>
<trkpt lat="48.497647" lon="10.254173">
<ele>447</ele>
<time>2020-09-10T10:01:50Z</time>
</trkpt>
<trkpt lat="48.497278" lon="10.254278">
<ele>447</ele>
<time>2020-09-10T10:01:55Z</time>
</trkpt>
<trkpt lat="48.496917" lon="10.254383">
<ele>447</ele>
<time>2020-09-10T10:02:00Z</time>
</trkpt>
<trkpt lat="48.496567" lon="10.25448">
<ele>447</ele>
<time>2020-09-10T10:02:05Z</time>
</trkpt>
<trkpt lat="48.496208" lon="10.25457">
<ele>447</ele>
<time>2020-09-10T10:02:10Z</time>
</trkpt>
<trkpt lat="48.495843" lon="10.254672">
<ele>447</ele>
<time>2020-09-10T10:02:15Z</time>
</trkpt>
<trkpt lat="48.495495" lon="10.254743">
<ele>447</ele>
<time>2020-09-10T10:02:20Z</time>
</trkpt>
<trkpt lat="48.495128" lon="10.254832">
<ele>447</ele>
<time>2020-09-10T10:02:25Z</time>
</trkpt>
<trkpt lat="48.494778" lon="10.254918">
<ele>447</ele>
<time>2020-09-10T10:02:30Z</time>
</trkpt>
<trkpt lat="48.494433" lon="10.255012">
<ele>447</ele>
<time>2020-09-10T10:02:35Z</time>
</trkpt>
<trkpt lat="48.494068" lon="10.255105">
<ele>447</ele>
<time>2020-09-10T10:02:40Z</time>
</trkpt>
<trkpt lat="48.493695" lon="10.255197">
<ele>447</ele>
<time>2020-09-10T10:02:45Z</time>
</trkpt>
<trkpt lat="48.493328" lon="10.255288">
<ele>447</ele>
<time>2020-09-10T10:02:50Z</time>
</trkpt>
<trkpt lat="48.492967" lon="10.255377">
<ele>447</ele>
<time>2020-09-10T10:02:55Z</time>
</trkpt>
<trkpt lat="48.492598" lon="10.255465">
<ele>447</ele>
<time>2020-09-10T10:03:00Z</time>
</trkpt>
<trkpt lat="48.492228" lon="10.255553">
<ele>447</ele>
<time>2020-09-10T10:03:05Z</time>
</trkpt>
<trkpt lat="48.491853" lon="10.255622">
<ele>447</ele>
<time>2020-09-10T10:03:10Z</time>
</trkpt>
<trkpt lat="48.491465" lon="10.2557">
<ele>447</ele>
<time>2020-09-10T10:03:15Z</time>
</trkpt>
<trkpt lat="48.491083" lon="10.25578">
<ele>447</ele>
<time>2020-09-10T10:03:20Z</time>
</trkpt>
<trkpt lat="48.490802" lon="10.255675">
<ele>446</ele>
<time>2020-09-10T10:03:25Z</time>
</trkpt>
<trkpt lat="48.490475" lon="10.255887">
<ele>446</ele>
<time>2020-09-10T10:03:30Z</time>
</trkpt>
<trkpt lat="48.490102" lon="10.255983">
<ele>445</ele>
<time>2020-09-10T10:03:35Z</time>
</trkpt>
<trkpt lat="48.489753" lon="10.256085">
<ele>445</ele>
<time>2020-09-10T10:03:40Z</time>
</trkpt>
<trkpt lat="48.4894" lon="10.25618">
<ele>445</ele>
<time>2020-09-10T10:03:45Z</time>
</trkpt>
<trkpt lat="48.489023" lon="10.256268">
<ele>445</ele>
<time>2020-09-10T10:03:50Z</time>
</trkpt>
<trkpt lat="48.488642" lon="10.256382">
<ele>445</ele>
<time>2020-09-10T10:03:55Z</time>
</trkpt>
<trkpt lat="48.488317" lon="10.256527">
<ele>445</ele>
<time>2020-09-10T10:04:00Z</time>
</trkpt>
<trkpt lat="48.487978" lon="10.256628">
<ele>446</ele>
<time>2020-09-10T10:04:05Z</time>
</trkpt>
<trkpt lat="48.487632" lon="10.256725">
<ele>446</ele>
<time>2020-09-10T10:04:10Z</time>
</trkpt>
<trkpt lat="48.487278" lon="10.256803">
<ele>446</ele>
<time>2020-09-10T10:04:15Z</time>
</trkpt>
<trkpt lat="48.486917" lon="10.256907">
<ele>446</ele>
<time>2020-09-10T10:04:20Z</time>
</trkpt>
<trkpt lat="48.486557" lon="10.257012">
<ele>446</ele>
<time>2020-09-10T10:04:25Z</time>
</trkpt>
<trkpt lat="48.486193" lon="10.25712">
<ele>446</ele>
<time>2020-09-10T10:04:30Z</time>
</trkpt>
<trkpt lat="48.485852" lon="10.257222">
<ele>446</ele>
<time>2020-09-10T10:04:35Z</time>
</trkpt>
<trkpt lat="48.485487" lon="10.257325">
<ele>446</ele>
<time>2020-09-10T10:04:40Z</time>
</trkpt>
<trkpt lat="48.485135" lon="10.257442">
<ele>446</ele>
<time>2020-09-10T10:04:45Z</time>
</trkpt>
<trkpt lat="48.484777" lon="10.257578">
<ele>446</ele>
<time>2020-09-10T10:04:50Z</time>
</trkpt>
<trkpt lat="48.484448" lon="10.257727">
<ele>446</ele>
<time>2020-09-10T10:04:55Z</time>
</trkpt>
<trkpt lat="48.4841" lon="10.257908">
<ele>446</ele>
<time>2020-09-10T10:05:00Z</time>
</trkpt>
<trkpt lat="48.483762" lon="10.258092">
<ele>446</ele>
<time>2020-09-10T10:05:05Z</time>
</trkpt>
<trkpt lat="48.483427" lon="10.258267">
<ele>446</ele>
<time>2020-09-10T10:05:10Z</time>
</trkpt>
<trkpt lat="48.483073" lon="10.258408">
<ele>446</ele>
<time>2020-09-10T10:05:15Z</time>
</trkpt>
<trkpt lat="48.482722" lon="10.258552">
<ele>447</ele>
<time>2020-09-10T10:05:20Z</time>
</trkpt>
<trkpt lat="48.48236" lon="10.258697">
<ele>447</ele>
<time>2020-09-10T10:05:25Z</time>
</trkpt>
<trkpt lat="48.482012" lon="10.258855">
<ele>447</ele>
<time>2020-09-10T10:05:30Z</time>
</trkpt>
<trkpt lat="48.481648" lon="10.259005">
<ele>447</ele>
<time>2020-09-10T10:05:35Z</time>
</trkpt>
<trkpt lat="48.48131" lon="10.259145">
<ele>447</ele>
<time>2020-09-10T10:05:40Z</time>
</trkpt>
<trkpt lat="48.480953" lon="10.259287">
<ele>447</ele>
<time>2020-09-10T10:05:45Z</time>
</trkpt>
<trkpt lat="48.480612" lon="10.25943">
<ele>447</ele>
<time>2020-09-10T10:05:50Z</time>
</trkpt>
<trkpt lat="48.480362" lon="10.259548">
<ele>447</ele>
<time>2020-09-10T10:05:55Z</time>
</trkpt>
<trkpt lat="48.480137" lon="10.25961">
<ele>447</ele>
<time>2020-09-10T10:06:00Z</time>
</trkpt>
<trkpt lat="48.479915" lon="10.259795">
<ele>447</ele>
<time>2020-09-10T10:06:05Z</time>
</trkpt>
<trkpt lat="48.479618" lon="10.259912">
<ele>447</ele>
<time>2020-09-10T10:06:10Z</time>
</trkpt>
<trkpt lat="48.479322" lon="10.260035">
<ele>447</ele>
<time>2020-09-10T10:06:15Z</time>
</trkpt>
<trkpt lat="48.479045" lon="10.260137">
<ele>447</ele>
<time>2020-09-10T10:06:20Z</time>
</trkpt>
<trkpt lat="48.478775" lon="10.260247">
<ele>447</ele>
<time>2020-09-10T10:06:25Z</time>
</trkpt>
<trkpt lat="48.478487" lon="10.260368">
<ele>447</ele>
<time>2020-09-10T10:06:30Z</time>
</trkpt>
<trkpt lat="48.478188" lon="10.26048">
<ele>447</ele>
<time>2020-09-10T10:06:35Z</time>
</trkpt>
<trkpt lat="48.477887" lon="10.260578">
<ele>447</ele>
<time>2020-09-10T10:06:40Z</time>
</trkpt>
<trkpt lat="48.47761" lon="10.260687">
<ele>447</ele>
<time>2020-09-10T10:06:45Z</time>
</trkpt>
<trkpt lat="48.477392" lon="10.260778">
<ele>447</ele>
<time>2020-09-10T10:06:50Z</time>
</trkpt>
<trkpt lat="48.477137" lon="10.26087">
<ele>447</ele>
<time>2020-09-10T10:06:55Z</time>
</trkpt>
<trkpt lat="48.47687" lon="10.260975">
<ele>447</ele>
<time>2020-09-10T10:07:00Z</time>
</trkpt>
<trkpt lat="48.476728" lon="10.261027">
<ele>447</ele>
<time>2020-09-10T10:07:05Z</time>
</trkpt>
<trkpt lat="48.476653" lon="10.261082">
<ele>447</ele>
<time>2020-09-10T10:07:10Z</time>
</trkpt>
<trkpt lat="48.476452" lon="10.261218">
<ele>447</ele>
<time>2020-09-10T10:07:15Z</time>
</trkpt>
<trkpt lat="48.47624" lon="10.261332">
<ele>447</ele>
<time>2020-09-10T10:07:20Z</time>
</trkpt>
<trkpt lat="48.476012" lon="10.261513">
<ele>447</ele>
<time>2020-09-10T10:07:25Z</time>
</trkpt>
<trkpt lat="48.475727" lon="10.261655">
<ele>447</ele>
<time>2020-09-10T10:07:30Z</time>
</trkpt>
<trkpt lat="48.475422" lon="10.26183">
<ele>447</ele>
<time>2020-09-10T10:07:35Z</time>
</trkpt>
<trkpt lat="48.475105" lon="10.262008">
<ele>447</ele>
<time>2020-09-10T10:07:40Z</time>
</trkpt>
<trkpt lat="48.474797" lon="10.262173">
<ele>447</ele>
<time>2020-09-10T10:07:45Z</time>
</trkpt>
<trkpt lat="48.474505" lon="10.262332">
<ele>447</ele>
<time>2020-09-10T10:07:50Z</time>
</trkpt>
<trkpt lat="48.474203" lon="10.262493">
<ele>447</ele>
<time>2020-09-10T10:07:55Z</time>
</trkpt>
<trkpt lat="48.473908" lon="10.262653">
<ele>447</ele>
<time>2020-09-10T10:08:00Z</time>
</trkpt>
<trkpt lat="48.473615" lon="10.262825">
<ele>447</ele>
<time>2020-09-10T10:08:05Z</time>
</trkpt>
<trkpt lat="48.473322" lon="10.262958">
<ele>447</ele>
<time>2020-09-10T10:08:10Z</time>
</trkpt>
<trkpt lat="48.472997" lon="10.263122">
<ele>447</ele>
<time>2020-09-10T10:08:15Z</time>
</trkpt>
<trkpt lat="48.472672" lon="10.263285">
<ele>447</ele>
<time>2020-09-10T10:08:20Z</time>
</trkpt>
<trkpt lat="48.472348" lon="10.26344">
<ele>447</ele>
<time>2020-09-10T10:08:25Z</time>
</trkpt>
<trkpt lat="48.472035" lon="10.263597">
<ele>447</ele>
<time>2020-09-10T10:08:30Z</time>
</trkpt>
<trkpt lat="48.471727" lon="10.263755">
<ele>447</ele>
<time>2020-09-10T10:08:35Z</time>
</trkpt>
<trkpt lat="48.4714" lon="10.263932">
<ele>447</ele>
<time>2020-09-10T10:08:40Z</time>
</trkpt>
<trkpt lat="48.471085" lon="10.264105">
<ele>447</ele>
<time>2020-09-10T10:08:45Z</time>
</trkpt>
<trkpt lat="48.470772" lon="10.26428">
<ele>447</ele>
<time>2020-09-10T10:08:50Z</time>
</trkpt>
<trkpt lat="48.470458" lon="10.264448">
<ele>447</ele>
<time>2020-09-10T10:08:55Z</time>
</trkpt>
<trkpt lat="48.470135" lon="10.264617">
<ele>447</ele>
<time>2020-09-10T10:09:00Z</time>
</trkpt>
<trkpt lat="48.469815" lon="10.264793">
<ele>447</ele>
<time>2020-09-10T10:09:05Z</time>
</trkpt>
<trkpt lat="48.469505" lon="10.26497">
<ele>447</ele>
<time>2020-09-10T10:09:10Z</time>
</trkpt>
<trkpt lat="48.469193" lon="10.26515">
<ele>447</ele>
<time>2020-09-10T10:09:15Z</time>
</trkpt>
<trkpt lat="48.468952" lon="10.265297">
<ele>447</ele>
<time>2020-09-10T10:09:20Z</time>
</trkpt>
<trkpt lat="48.468812" lon="10.26537">
<ele>447</ele>
<time>2020-09-10T10:09:25Z</time>
</trkpt>
<trkpt lat="48.468593" lon="10.265483">
<ele>447</ele>
<time>2020-09-10T10:09:30Z</time>
</trkpt>
<trkpt lat="48.468332" lon="10.265622">
<ele>447</ele>
<time>2020-09-10T10:09:35Z</time>
</trkpt>
<trkpt lat="48.468075" lon="10.265793">
<ele>447</ele>
<time>2020-09-10T10:09:40Z</time>
</trkpt>
<trkpt lat="48.467833" lon="10.265932">
<ele>447</ele>
<time>2020-09-10T10:09:45Z</time>
</trkpt>
<trkpt lat="48.467558" lon="10.266092">
<ele>447</ele>
<time>2020-09-10T10:09:50Z</time>
</trkpt>
<trkpt lat="48.467272" lon="10.266255">
<ele>447</ele>
<time>2020-09-10T10:09:55Z</time>
</trkpt>
<trkpt lat="48.466983" lon="10.266407">
<ele>447</ele>
<time>2020-09-10T10:10:00Z</time>
</trkpt>
<trkpt lat="48.466665" lon="10.26658">
<ele>447</ele>
<time>2020-09-10T10:10:05Z</time>
</trkpt>
<trkpt lat="48.466375" lon="10.266745">
<ele>447</ele>
<time>2020-09-10T10:10:10Z</time>
</trkpt>
<trkpt lat="48.46607" lon="10.266865">
<ele>447</ele>
<time>2020-09-10T10:10:15Z</time>
</trkpt>
<trkpt lat="48.465772" lon="10.267012">
<ele>447</ele>
<time>2020-09-10T10:10:20Z</time>
</trkpt>
<trkpt lat="48.465483" lon="10.267175">
<ele>447</ele>
<time>2020-09-10T10:10:25Z</time>
</trkpt>
<trkpt lat="48.465207" lon="10.267305">
<ele>447</ele>
<time>2020-09-10T10:10:30Z</time>
</trkpt>
<trkpt lat="48.464893" lon="10.267378">
<ele>447</ele>
<time>2020-09-10T10:10:35Z</time>
</trkpt>
<trkpt lat="48.464583" lon="10.267342">
<ele>447</ele>
<time>2020-09-10T10:10:40Z</time>
</trkpt>
<trkpt lat="48.464282" lon="10.267367">
<ele>447</ele>
<time>2020-09-10T10:10:45Z</time>
</trkpt>
<trkpt lat="48.463997" lon="10.26747">
<ele>447</ele>
<time>2020-09-10T10:10:50Z</time>
</trkpt>
<trkpt lat="48.46366" lon="10.267595">
<ele>447</ele>
<time>2020-09-10T10:10:56Z</time>
</trkpt>
<trkpt lat="48.46341" lon="10.267682">
<ele>447</ele>
<time>2020-09-10T10:11:01Z</time>
</trkpt>
<trkpt lat="48.463115" lon="10.26781">
<ele>447</ele>
<time>2020-09-10T10:11:06Z</time>
</trkpt>
<trkpt lat="48.462815" lon="10.267942">
<ele>447</ele>
<time>2020-09-10T10:11:11Z</time>
</trkpt>
<trkpt lat="48.462528" lon="10.26808">
<ele>447</ele>
<time>2020-09-10T10:11:16Z</time>
</trkpt>
<trkpt lat="48.462268" lon="10.268252">
<ele>447</ele>
<time>2020-09-10T10:11:21Z</time>
</trkpt>
<trkpt lat="48.461988" lon="10.268465">
<ele>446</ele>
<time>2020-09-10T10:11:26Z</time>
</trkpt>
<trkpt lat="48.461695" lon="10.268598">
<ele>446</ele>
<time>2020-09-10T10:11:31Z</time>
</trkpt>
<trkpt lat="48.461467" lon="10.268645">
<ele>446</ele>
<time>2020-09-10T10:11:36Z</time>
</trkpt>
<trkpt lat="48.461258" lon="10.268685">
<ele>446</ele>
<time>2020-09-10T10:11:41Z</time>
</trkpt>
<trkpt lat="48.461085" lon="10.268853">
<ele>446</ele>
<time>2020-09-10T10:11:46Z</time>
</trkpt>
<trkpt lat="48.46085" lon="10.268963">
<ele>446</ele>
<time>2020-09-10T10:11:51Z</time>
</trkpt>
<trkpt lat="48.460608" lon="10.268998">
<ele>446</ele>
<time>2020-09-10T10:11:56Z</time>
</trkpt>
<trkpt lat="48.460368" lon="10.26905">
<ele>447</ele>
<time>2020-09-10T10:12:01Z</time>
</trkpt>
<trkpt lat="48.460135" lon="10.269143">
<ele>447</ele>
<time>2020-09-10T10:12:06Z</time>
</trkpt>
<trkpt lat="48.459888" lon="10.269248">
<ele>449</ele>
<time>2020-09-10T10:12:11Z</time>
</trkpt>
<trkpt lat="48.459663" lon="10.269342">
<ele>450</ele>
<time>2020-09-10T10:12:16Z</time>
</trkpt>
<trkpt lat="48.459448" lon="10.269443">
<ele>450</ele>
<time>2020-09-10T10:12:21Z</time>
</trkpt>
<trkpt lat="48.459237" lon="10.269542">
<ele>452</ele>
<time>2020-09-10T10:12:26Z</time>
</trkpt>
<trkpt lat="48.459028" lon="10.269652">
<ele>453</ele>
<time>2020-09-10T10:12:31Z</time>
</trkpt>
<trkpt lat="48.45883" lon="10.269758">
<ele>453</ele>
<time>2020-09-10T10:12:36Z</time>
</trkpt>
<trkpt lat="48.458628" lon="10.269843">
<ele>454</ele>
<time>2020-09-10T10:12:41Z</time>
</trkpt>
<trkpt lat="48.4584" lon="10.269947">
<ele>455</ele>
<time>2020-09-10T10:12:46Z</time>
</trkpt>
<trkpt lat="48.458168" lon="10.270067">
<ele>455</ele>
<time>2020-09-10T10:12:51Z</time>
</trkpt>
<trkpt lat="48.457902" lon="10.270195">
<ele>455</ele>
<time>2020-09-10T10:12:56Z</time>
</trkpt>
<trkpt lat="48.457622" lon="10.270318">
<ele>455</ele>
<time>2020-09-10T10:13:01Z</time>
</trkpt>
<trkpt lat="48.457338" lon="10.27047">
<ele>455</ele>
<time>2020-09-10T10:13:06Z</time>
</trkpt>
<trkpt lat="48.457017" lon="10.27061">
<ele>454</ele>
<time>2020-09-10T10:13:11Z</time>
</trkpt>
<trkpt lat="48.456725" lon="10.270735">
<ele>452</ele>
<time>2020-09-10T10:13:16Z</time>
</trkpt>
<trkpt lat="48.456483" lon="10.270852">
<ele>450</ele>
<time>2020-09-10T10:13:21Z</time>
</trkpt>
<trkpt lat="48.456285" lon="10.270938">
<ele>450</ele>
<time>2020-09-10T10:13:26Z</time>
</trkpt>
<trkpt lat="48.456072" lon="10.270917">
<ele>449</ele>
<time>2020-09-10T10:13:31Z</time>
</trkpt>
<trkpt lat="48.455948" lon="10.270953">
<ele>449</ele>
<time>2020-09-10T10:13:36Z</time>
</trkpt>
<trkpt lat="48.455923" lon="10.270963">
<ele>448</ele>
<time>2020-09-10T10:13:41Z</time>
</trkpt>
<trkpt lat="48.455777" lon="10.270845">
<ele>448</ele>
<time>2020-09-10T10:13:46Z</time>
</trkpt>
<trkpt lat="48.455607" lon="10.270923">
<ele>448</ele>
<time>2020-09-10T10:13:51Z</time>
</trkpt>
<trkpt lat="48.455413" lon="10.27102">
<ele>447</ele>
<time>2020-09-10T10:13:57Z</time>
</trkpt>
<trkpt lat="48.455318" lon="10.271152">
<ele>447</ele>
<time>2020-09-10T10:14:02Z</time>
</trkpt>
<trkpt lat="48.45519" lon="10.2714">
<ele>447</ele>
<time>2020-09-10T10:14:07Z</time>
</trkpt>
<trkpt lat="48.455078" lon="10.27176">
<ele>447</ele>
<time>2020-09-10T10:14:12Z</time>
</trkpt>
<trkpt lat="48.455082" lon="10.272133">
<ele>448</ele>
<time>2020-09-10T10:14:18Z</time>
</trkpt>
<trkpt lat="48.454987" lon="10.272412">
<ele>448</ele>
<time>2020-09-10T10:14:23Z</time>
</trkpt>
<trkpt lat="48.45482" lon="10.272727">
<ele>448</ele>
<time>2020-09-10T10:14:28Z</time>
</trkpt>
<trkpt lat="48.454625" lon="10.273042">
<ele>448</ele>
<time>2020-09-10T10:14:34Z</time>
</trkpt>
<trkpt lat="48.454492" lon="10.273292">
<ele>448</ele>
<time>2020-09-10T10:14:39Z</time>
</trkpt>
<trkpt lat="48.454385" lon="10.273532">
<ele>448</ele>
<time>2020-09-10T10:14:44Z</time>
</trkpt>
<trkpt lat="48.454238" lon="10.273777">
<ele>448</ele>
<time>2020-09-10T10:14:50Z</time>
</trkpt>
<trkpt lat="48.454102" lon="10.273975">
<ele>449</ele>
<time>2020-09-10T10:14:55Z</time>
</trkpt>
<trkpt lat="48.454082" lon="10.274257">
<ele>452</ele>
<time>2020-09-10T10:15:01Z</time>
</trkpt>
<trkpt lat="48.454093" lon="10.274443">
<ele>452</ele>
<time>2020-09-10T10:15:06Z</time>
</trkpt>
<trkpt lat="48.454132" lon="10.274475">
<ele>453</ele>
<time>2020-09-10T10:15:11Z</time>
</trkpt>
<trkpt lat="48.454247" lon="10.27445">
<ele>453</ele>
<time>2020-09-10T10:15:16Z</time>
</trkpt>
<trkpt lat="48.454367" lon="10.274425">
<ele>454</ele>
<time>2020-09-10T10:15:21Z</time>
</trkpt>
<trkpt lat="48.454537" lon="10.274482">
<ele>456</ele>
<time>2020-09-10T10:15:26Z</time>
</trkpt>
<trkpt lat="48.454675" lon="10.274568">
<ele>458</ele>
<time>2020-09-10T10:15:31Z</time>
</trkpt>
<trkpt lat="48.454837" lon="10.274777">
<ele>460</ele>
<time>2020-09-10T10:15:37Z</time>
</trkpt>
<trkpt lat="48.454972" lon="10.274968">
<ele>462</ele>
<time>2020-09-10T10:15:42Z</time>
</trkpt>
<trkpt lat="48.455078" lon="10.275202">
<ele>463</ele>
<time>2020-09-10T10:15:47Z</time>
</trkpt>
<trkpt lat="48.455133" lon="10.275325">
<ele>464</ele>
<time>2020-09-10T10:15:52Z</time>
</trkpt>
<trkpt lat="48.455198" lon="10.275455">
<ele>464</ele>
<time>2020-09-10T10:15:58Z</time>
</trkpt>
<trkpt lat="48.455245" lon="10.27553">
<ele>464</ele>
<time>2020-09-10T10:16:03Z</time>
</trkpt>
<trkpt lat="48.45525" lon="10.27553">
<ele>464</ele>
<time>2020-09-10T10:16:06Z</time>
</trkpt>
<trkpt lat="48.455277" lon="10.275622">
<ele>465</ele>
<time>2020-09-10T10:16:11Z</time>
</trkpt>
<trkpt lat="48.455277" lon="10.275725">
<ele>465</ele>
<time>2020-09-10T10:16:16Z</time>
</trkpt>
<trkpt lat="48.455307" lon="10.27581">
<ele>465</ele>
<time>2020-09-10T10:16:21Z</time>
</trkpt>
<trkpt lat="48.45531" lon="10.275843">
<ele>465</ele>
<time>2020-09-10T10:16:26Z</time>
</trkpt>
<trkpt lat="48.455282" lon="10.275907">
<ele>465</ele>
<time>2020-09-10T10:16:31Z</time>
</trkpt>
<trkpt lat="48.455325" lon="10.276003">
<ele>465</ele>
<time>2020-09-10T10:16:37Z</time>
</trkpt>
<trkpt lat="48.455358" lon="10.276087">
<ele>466</ele>
<time>2020-09-10T10:16:42Z</time>
</trkpt>
<trkpt lat="48.455403" lon="10.276187">
<ele>466</ele>
<time>2020-09-10T10:16:48Z</time>
</trkpt>
<trkpt lat="48.455445" lon="10.276275">
<ele>466</ele>
<time>2020-09-10T10:16:53Z</time>
</trkpt>
<trkpt lat="48.455475" lon="10.276372">
<ele>466</ele>
<time>2020-09-10T10:16:58Z</time>
</trkpt>
<trkpt lat="48.455522" lon="10.276438">
<ele>466</ele>
<time>2020-09-10T10:17:03Z</time>
</trkpt>
<trkpt lat="48.455622" lon="10.276472">
<ele>466</ele>
<time>2020-09-10T10:17:08Z</time>
</trkpt>
<trkpt lat="48.45569" lon="10.276605">
<ele>466</ele>
<time>2020-09-10T10:17:13Z</time>
</trkpt>
<trkpt lat="48.455677" lon="10.276718">
<ele>466</ele>
<time>2020-09-10T10:17:18Z</time>
</trkpt>
<trkpt lat="48.455693" lon="10.276888">
<ele>467</ele>
<time>2020-09-10T10:17:24Z</time>
</trkpt>
<trkpt lat="48.45574" lon="10.277103">
<ele>467</ele>
<time>2020-09-10T10:17:30Z</time>
</trkpt>
<trkpt lat="48.455787" lon="10.277257">
<ele>467</ele>
<time>2020-09-10T10:17:35Z</time>
</trkpt>
<trkpt lat="48.455833" lon="10.277325">
<ele>467</ele>
<time>2020-09-10T10:17:40Z</time>
</trkpt>
<trkpt lat="48.455837" lon="10.277332">
<ele>467</ele>
<time>2020-09-10T10:17:44Z</time>
</trkpt>
<trkpt lat="48.455848" lon="10.277287">
<ele>467</ele>
<time>2020-09-10T10:17:46Z</time>
</trkpt>
<trkpt lat="48.455808" lon="10.277107">
<ele>467</ele>
<time>2020-09-10T10:17:51Z</time>
</trkpt>
<trkpt lat="48.4558" lon="10.277105">
<ele>467</ele>
<time>2020-09-10T10:17:56Z</time>
</trkpt>
<trkpt lat="48.4558" lon="10.277093">
<ele>467</ele>
<time>2020-09-10T10:18:01Z</time>
</trkpt>
<trkpt lat="48.45572" lon="10.277215">
<ele>469</ele>
<time>2020-09-10T10:18:03Z</time>
</trkpt>
<trkpt lat="48.455707" lon="10.277207">
<ele>469</ele>
<time>2020-09-10T10:18:06Z</time>
</trkpt>
<trkpt lat="48.45566" lon="10.27711">
<ele>469</ele>
<time>2020-09-10T10:18:11Z</time>
</trkpt>
<trkpt lat="48.455627" lon="10.27694">
<ele>469</ele>
<time>2020-09-10T10:18:16Z</time>
</trkpt>
<trkpt lat="48.455593" lon="10.276758">
<ele>469</ele>
<time>2020-09-10T10:18:21Z</time>
</trkpt>
<trkpt lat="48.45557" lon="10.27657">
<ele>469</ele>
<time>2020-09-10T10:18:26Z</time>
</trkpt>
<trkpt lat="48.455512" lon="10.276365">
<ele>469</ele>
<time>2020-09-10T10:18:31Z</time>
</trkpt>
<trkpt lat="48.455428" lon="10.276198">
<ele>469</ele>
<time>2020-09-10T10:18:36Z</time>
</trkpt>
<trkpt lat="48.45539" lon="10.276023">
<ele>469</ele>
<time>2020-09-10T10:18:41Z</time>
</trkpt>
<trkpt lat="48.455338" lon="10.275827">
<ele>469</ele>
<time>2020-09-10T10:18:46Z</time>
</trkpt>
<trkpt lat="48.45527" lon="10.275633">
<ele>469</ele>
<time>2020-09-10T10:18:51Z</time>
</trkpt>
<trkpt lat="48.455222" lon="10.275442">
<ele>469</ele>
<time>2020-09-10T10:18:56Z</time>
</trkpt>
<trkpt lat="48.455158" lon="10.275253">
<ele>468</ele>
<time>2020-09-10T10:19:01Z</time>
</trkpt>
<trkpt lat="48.45512" lon="10.27509">
<ele>467</ele>
<time>2020-09-10T10:19:06Z</time>
</trkpt>
<trkpt lat="48.455055" lon="10.274958">
<ele>465</ele>
<time>2020-09-10T10:19:11Z</time>
</trkpt>
<trkpt lat="48.454965" lon="10.274833">
<ele>465</ele>
<time>2020-09-10T10:19:16Z</time>
</trkpt>
<trkpt lat="48.454898" lon="10.274753">
<ele>463</ele>
<time>2020-09-10T10:19:21Z</time>
</trkpt>
<trkpt lat="48.454725" lon="10.27458">
<ele>461</ele>
<time>2020-09-10T10:19:26Z</time>
</trkpt>
<trkpt lat="48.454527" lon="10.27449">
<ele>461</ele>
<time>2020-09-10T10:19:31Z</time>
</trkpt>
<trkpt lat="48.4543" lon="10.274457">
<ele>457</ele>
<time>2020-09-10T10:19:36Z</time>
</trkpt>
<trkpt lat="48.45417" lon="10.274497">
<ele>456</ele>
<time>2020-09-10T10:19:41Z</time>
</trkpt>
<trkpt lat="48.45406" lon="10.2743">
<ele>455</ele>
<time>2020-09-10T10:19:46Z</time>
</trkpt>
<trkpt lat="48.454138" lon="10.274022">
<ele>453</ele>
<time>2020-09-10T10:19:51Z</time>
</trkpt>
<trkpt lat="48.454303" lon="10.273777">
<ele>453</ele>
<time>2020-09-10T10:19:56Z</time>
</trkpt>
<trkpt lat="48.454422" lon="10.27338">
<ele>451</ele>
<time>2020-09-10T10:20:01Z</time>
</trkpt>
<trkpt lat="48.454627" lon="10.272995">
<ele>451</ele>
<time>2020-09-10T10:20:06Z</time>
</trkpt>
<trkpt lat="48.454883" lon="10.272578">
<ele>450</ele>
<time>2020-09-10T10:20:11Z</time>
</trkpt>
<trkpt lat="48.455017" lon="10.272168">
<ele>450</ele>
<time>2020-09-10T10:20:16Z</time>
</trkpt>
<trkpt lat="48.45511" lon="10.271913">
<ele>450</ele>
<time>2020-09-10T10:20:21Z</time>
</trkpt>
<trkpt lat="48.45517" lon="10.271777">
<ele>450</ele>
<time>2020-09-10T10:20:26Z</time>
</trkpt>
<trkpt lat="48.455183" lon="10.271758">
<ele>450</ele>
<time>2020-09-10T10:20:31Z</time>
</trkpt>
<trkpt lat="48.455273" lon="10.271523">
<ele>450</ele>
<time>2020-09-10T10:20:36Z</time>
</trkpt>
<trkpt lat="48.45523" lon="10.271208">
<ele>449</ele>
<time>2020-09-10T10:20:41Z</time>
</trkpt>
<trkpt lat="48.455083" lon="10.270815">
<ele>449</ele>
<time>2020-09-10T10:20:46Z</time>
</trkpt>
<trkpt lat="48.454957" lon="10.270422">
<ele>449</ele>
<time>2020-09-10T10:20:51Z</time>
</trkpt>
<trkpt lat="48.454832" lon="10.269975">
<ele>449</ele>
<time>2020-09-10T10:20:56Z</time>
</trkpt>
<trkpt lat="48.454683" lon="10.269507">
<ele>449</ele>
<time>2020-09-10T10:21:01Z</time>
</trkpt>
<trkpt lat="48.454548" lon="10.269068">
<ele>449</ele>
<time>2020-09-10T10:21:06Z</time>
</trkpt>
<trkpt lat="48.454423" lon="10.268687">
<ele>449</ele>
<time>2020-09-10T10:21:11Z</time>
</trkpt>
<trkpt lat="48.454283" lon="10.268293">
<ele>450</ele>
<time>2020-09-10T10:21:16Z</time>
</trkpt>
<trkpt lat="48.454172" lon="10.267935">
<ele>450</ele>
<time>2020-09-10T10:21:21Z</time>
</trkpt>
<trkpt lat="48.454113" lon="10.267712">
<ele>450</ele>
<time>2020-09-10T10:21:26Z</time>
</trkpt>
<trkpt lat="48.454102" lon="10.267668">
<ele>450</ele>
<time>2020-09-10T10:21:31Z</time>
</trkpt>
<trkpt lat="48.454102" lon="10.267672">
<ele>450</ele>
<time>2020-09-10T10:21:33Z</time>
</trkpt>
<trkpt lat="48.454052" lon="10.267473">
<ele>450</ele>
<time>2020-09-10T10:21:38Z</time>
</trkpt>
<trkpt lat="48.453905" lon="10.267312">
<ele>450</ele>
<time>2020-09-10T10:21:43Z</time>
</trkpt>
<trkpt lat="48.45365" lon="10.267405">
<ele>450</ele>
<time>2020-09-10T10:21:48Z</time>
</trkpt>
<trkpt lat="48.453395" lon="10.267462">
<ele>450</ele>
<time>2020-09-10T10:21:53Z</time>
</trkpt>
<trkpt lat="48.453138" lon="10.267513">
<ele>450</ele>
<time>2020-09-10T10:21:58Z</time>
</trkpt>
<trkpt lat="48.452868" lon="10.267577">
<ele>450</ele>
<time>2020-09-10T10:22:03Z</time>
</trkpt>
<trkpt lat="48.452588" lon="10.267657">
<ele>450</ele>
<time>2020-09-10T10:22:08Z</time>
</trkpt>
<trkpt lat="48.452298" lon="10.267715">
<ele>451</ele>
<time>2020-09-10T10:22:13Z</time>
</trkpt>
<trkpt lat="48.452" lon="10.267733">
<ele>451</ele>
<time>2020-09-10T10:22:18Z</time>
</trkpt>
<trkpt lat="48.451703" lon="10.26773">
<ele>451</ele>
<time>2020-09-10T10:22:23Z</time>
</trkpt>
<trkpt lat="48.451447" lon="10.267655">
<ele>451</ele>
<time>2020-09-10T10:22:28Z</time>
</trkpt>
<trkpt lat="48.451263" lon="10.267287">
<ele>451</ele>
<time>2020-09-10T10:22:33Z</time>
</trkpt>
<trkpt lat="48.450965" lon="10.266953">
<ele>452</ele>
<time>2020-09-10T10:22:38Z</time>
</trkpt>
<trkpt lat="48.450703" lon="10.266657">
<ele>452</ele>
<time>2020-09-10T10:22:43Z</time>
</trkpt>
<trkpt lat="48.45046" lon="10.266387">
<ele>452</ele>
<time>2020-09-10T10:22:48Z</time>
</trkpt>
<trkpt lat="48.45022" lon="10.266125">
<ele>453</ele>
<time>2020-09-10T10:22:53Z</time>
</trkpt>
<trkpt lat="48.449985" lon="10.26588">
<ele>453</ele>
<time>2020-09-10T10:22:58Z</time>
</trkpt>
<trkpt lat="48.449727" lon="10.265597">
<ele>453</ele>
<time>2020-09-10T10:23:03Z</time>
</trkpt>
<trkpt lat="48.449438" lon="10.265227">
<ele>453</ele>
<time>2020-09-10T10:23:08Z</time>
</trkpt>
<trkpt lat="48.449165" lon="10.264918">
<ele>453</ele>
<time>2020-09-10T10:23:13Z</time>
</trkpt>
<trkpt lat="48.44889" lon="10.26461">
<ele>453</ele>
<time>2020-09-10T10:23:18Z</time>
</trkpt>
<trkpt lat="48.448618" lon="10.264307">
<ele>454</ele>
<time>2020-09-10T10:23:23Z</time>
</trkpt>
<trkpt lat="48.44835" lon="10.264008">
<ele>454</ele>
<time>2020-09-10T10:23:28Z</time>
</trkpt>
<trkpt lat="48.448108" lon="10.263732">
<ele>454</ele>
<time>2020-09-10T10:23:33Z</time>
</trkpt>
<trkpt lat="48.447867" lon="10.263463">
<ele>454</ele>
<time>2020-09-10T10:23:38Z</time>
</trkpt>
<trkpt lat="48.447637" lon="10.263167">
<ele>455</ele>
<time>2020-09-10T10:23:43Z</time>
</trkpt>
<trkpt lat="48.44738" lon="10.262885">
<ele>455</ele>
<time>2020-09-10T10:23:48Z</time>
</trkpt>
<trkpt lat="48.447103" lon="10.262637">
<ele>456</ele>
<time>2020-09-10T10:23:53Z</time>
</trkpt>
<trkpt lat="48.446827" lon="10.262402">
<ele>457</ele>
<time>2020-09-10T10:23:58Z</time>
</trkpt>
<trkpt lat="48.446578" lon="10.26222">
<ele>457</ele>
<time>2020-09-10T10:24:03Z</time>
</trkpt>
<trkpt lat="48.446338" lon="10.262068">
<ele>458</ele>
<time>2020-09-10T10:24:08Z</time>
</trkpt>
<trkpt lat="48.446093" lon="10.261947">
<ele>459</ele>
<time>2020-09-10T10:24:13Z</time>
</trkpt>
<trkpt lat="48.445888" lon="10.261843">
<ele>461</ele>
<time>2020-09-10T10:24:18Z</time>
</trkpt>
<trkpt lat="48.445703" lon="10.261763">
<ele>462</ele>
<time>2020-09-10T10:24:23Z</time>
</trkpt>
<trkpt lat="48.445522" lon="10.261688">
<ele>464</ele>
<time>2020-09-10T10:24:28Z</time>
</trkpt>
<trkpt lat="48.445342" lon="10.261623">
<ele>466</ele>
<time>2020-09-10T10:24:33Z</time>
</trkpt>
<trkpt lat="48.445178" lon="10.261587">
<ele>468</ele>
<time>2020-09-10T10:24:38Z</time>
</trkpt>
<trkpt lat="48.444987" lon="10.26157">
<ele>470</ele>
<time>2020-09-10T10:24:43Z</time>
</trkpt>
<trkpt lat="48.444768" lon="10.261533">
<ele>471</ele>
<time>2020-09-10T10:24:48Z</time>
</trkpt>
<trkpt lat="48.444552" lon="10.261468">
<ele>472</ele>
<time>2020-09-10T10:24:53Z</time>
</trkpt>
<trkpt lat="48.44439" lon="10.261413">
<ele>473</ele>
<time>2020-09-10T10:24:58Z</time>
</trkpt>
<trkpt lat="48.44423" lon="10.261448">
<ele>473</ele>
<time>2020-09-10T10:25:03Z</time>
</trkpt>
<trkpt lat="48.444" lon="10.261415">
<ele>474</ele>
<time>2020-09-10T10:25:08Z</time>
</trkpt>
<trkpt lat="48.443737" lon="10.26122">
<ele>474</ele>
<time>2020-09-10T10:25:13Z</time>
</trkpt>
<trkpt lat="48.443455" lon="10.261042">
<ele>474</ele>
<time>2020-09-10T10:25:18Z</time>
</trkpt>
<trkpt lat="48.44317" lon="10.260867">
<ele>474</ele>
<time>2020-09-10T10:25:23Z</time>
</trkpt>
<trkpt lat="48.442905" lon="10.260695">
<ele>475</ele>
<time>2020-09-10T10:25:28Z</time>
</trkpt>
<trkpt lat="48.442665" lon="10.260497">
<ele>475</ele>
<time>2020-09-10T10:25:33Z</time>
</trkpt>
<trkpt lat="48.442402" lon="10.260302">
<ele>475</ele>
<time>2020-09-10T10:25:38Z</time>
</trkpt>
<trkpt lat="48.44213" lon="10.26007">
<ele>475</ele>
<time>2020-09-10T10:25:43Z</time>
</trkpt>
<trkpt lat="48.441863" lon="10.259823">
<ele>475</ele>
<time>2020-09-10T10:25:48Z</time>
</trkpt>
<trkpt lat="48.441585" lon="10.259568">
<ele>475</ele>
<time>2020-09-10T10:25:53Z</time>
</trkpt>
<trkpt lat="48.441312" lon="10.25935">
<ele>475</ele>
<time>2020-09-10T10:25:58Z</time>
</trkpt>
<trkpt lat="48.441053" lon="10.259068">
<ele>475</ele>
<time>2020-09-10T10:26:03Z</time>
</trkpt>
<trkpt lat="48.440793" lon="10.258757">
<ele>475</ele>
<time>2020-09-10T10:26:08Z</time>
</trkpt>
<trkpt lat="48.440525" lon="10.258445">
<ele>474</ele>
<time>2020-09-10T10:26:13Z</time>
</trkpt>
<trkpt lat="48.440192" lon="10.258103">
<ele>474</ele>
<time>2020-09-10T10:26:19Z</time>
</trkpt>
<trkpt lat="48.43991" lon="10.257878">
<ele>473</ele>
<time>2020-09-10T10:26:24Z</time>
</trkpt>
<trkpt lat="48.439622" lon="10.25764">
<ele>473</ele>
<time>2020-09-10T10:26:29Z</time>
</trkpt>
<trkpt lat="48.439332" lon="10.257402">
<ele>472</ele>
<time>2020-09-10T10:26:34Z</time>
</trkpt>
<trkpt lat="48.439137" lon="10.25726">
<ele>470</ele>
<time>2020-09-10T10:26:39Z</time>
</trkpt>
<trkpt lat="48.439057" lon="10.257103">
<ele>469</ele>
<time>2020-09-10T10:26:44Z</time>
</trkpt>
<trkpt lat="48.438867" lon="10.256927">
<ele>469</ele>
<time>2020-09-10T10:26:49Z</time>
</trkpt>
<trkpt lat="48.438587" lon="10.256745">
<ele>469</ele>
<time>2020-09-10T10:26:54Z</time>
</trkpt>
<trkpt lat="48.438293" lon="10.256562">
<ele>469</ele>
<time>2020-09-10T10:26:59Z</time>
</trkpt>
<trkpt lat="48.438013" lon="10.256378">
<ele>469</ele>
<time>2020-09-10T10:27:04Z</time>
</trkpt>
<trkpt lat="48.43774" lon="10.256198">
<ele>469</ele>
<time>2020-09-10T10:27:09Z</time>
</trkpt>
<trkpt lat="48.437473" lon="10.256025">
<ele>469</ele>
<time>2020-09-10T10:27:14Z</time>
</trkpt>
<trkpt lat="48.437212" lon="10.255848">
<ele>469</ele>
<time>2020-09-10T10:27:19Z</time>
</trkpt>
<trkpt lat="48.436942" lon="10.25567">
<ele>470</ele>
<time>2020-09-10T10:27:24Z</time>
</trkpt>
<trkpt lat="48.43667" lon="10.255513">
<ele>471</ele>
<time>2020-09-10T10:27:29Z</time>
</trkpt>
<trkpt lat="48.436407" lon="10.255403">
<ele>472</ele>
<time>2020-09-10T10:27:34Z</time>
</trkpt>
<trkpt lat="48.436145" lon="10.25527">
<ele>472</ele>
<time>2020-09-10T10:27:39Z</time>
</trkpt>
<trkpt lat="48.435873" lon="10.25511">
<ele>473</ele>
<time>2020-09-10T10:27:44Z</time>
</trkpt>
<trkpt lat="48.4356" lon="10.25491">
<ele>473</ele>
<time>2020-09-10T10:27:49Z</time>
</trkpt>
<trkpt lat="48.435335" lon="10.254663">
<ele>473</ele>
<time>2020-09-10T10:27:54Z</time>
</trkpt>
<trkpt lat="48.435068" lon="10.254408">
<ele>474</ele>
<time>2020-09-10T10:27:59Z</time>
</trkpt>
<trkpt lat="48.43479" lon="10.254245">
<ele>474</ele>
<time>2020-09-10T10:28:04Z</time>
</trkpt>
<trkpt lat="48.434503" lon="10.254102">
<ele>474</ele>
<time>2020-09-10T10:28:09Z</time>
</trkpt>
<trkpt lat="48.43422" lon="10.25395">
<ele>474</ele>
<time>2020-09-10T10:28:14Z</time>
</trkpt>
<trkpt lat="48.433947" lon="10.253813">
<ele>475</ele>
<time>2020-09-10T10:28:19Z</time>
</trkpt>
<trkpt lat="48.433677" lon="10.25367">
<ele>475</ele>
<time>2020-09-10T10:28:24Z</time>
</trkpt>
<trkpt lat="48.43345" lon="10.253537">
<ele>475</ele>
<time>2020-09-10T10:28:29Z</time>
</trkpt>
<trkpt lat="48.433248" lon="10.253465">
<ele>475</ele>
<time>2020-09-10T10:28:34Z</time>
</trkpt>
<trkpt lat="48.433052" lon="10.25369">
<ele>475</ele>
<time>2020-09-10T10:28:39Z</time>
</trkpt>
<trkpt lat="48.432832" lon="10.253902">
<ele>476</ele>
<time>2020-09-10T10:28:44Z</time>
</trkpt>
<trkpt lat="48.43262" lon="10.25412">
<ele>477</ele>
<time>2020-09-10T10:28:49Z</time>
</trkpt>
<trkpt lat="48.432393" lon="10.254308">
<ele>477</ele>
<time>2020-09-10T10:28:54Z</time>
</trkpt>
<trkpt lat="48.432157" lon="10.254477">
<ele>478</ele>
<time>2020-09-10T10:28:59Z</time>
</trkpt>
<trkpt lat="48.431907" lon="10.254655">
<ele>478</ele>
<time>2020-09-10T10:29:04Z</time>
</trkpt>
<trkpt lat="48.431633" lon="10.254815">
<ele>478</ele>
<time>2020-09-10T10:29:09Z</time>
</trkpt>
<trkpt lat="48.43134" lon="10.254945">
<ele>478</ele>
<time>2020-09-10T10:29:14Z</time>
</trkpt>
<trkpt lat="48.431062" lon="10.255068">
<ele>478</ele>
<time>2020-09-10T10:29:19Z</time>
</trkpt>
<trkpt lat="48.430808" lon="10.25516">
<ele>477</ele>
<time>2020-09-10T10:29:24Z</time>
</trkpt>
<trkpt lat="48.430475" lon="10.255272">
<ele>477</ele>
<time>2020-09-10T10:29:29Z</time>
</trkpt>
<trkpt lat="48.430075" lon="10.255452">
<ele>476</ele>
<time>2020-09-10T10:29:34Z</time>
</trkpt>
<trkpt lat="48.429647" lon="10.255638">
<ele>475</ele>
<time>2020-09-10T10:29:39Z</time>
</trkpt>
<trkpt lat="48.429225" lon="10.255788">
<ele>473</ele>
<time>2020-09-10T10:29:44Z</time>
</trkpt>
<trkpt lat="48.428863" lon="10.255938">
<ele>473</ele>
<time>2020-09-10T10:29:49Z</time>
</trkpt>
<trkpt lat="48.428587" lon="10.256083">
<ele>475</ele>
<time>2020-09-10T10:29:54Z</time>
</trkpt>
<trkpt lat="48.428327" lon="10.256242">
<ele>476</ele>
<time>2020-09-10T10:29:59Z</time>
</trkpt>
<trkpt lat="48.4281" lon="10.256377">
<ele>477</ele>
<time>2020-09-10T10:30:04Z</time>
</trkpt>
<trkpt lat="48.427843" lon="10.256477">
<ele>477</ele>
<time>2020-09-10T10:30:09Z</time>
</trkpt>
<trkpt lat="48.427545" lon="10.256673">
<ele>477</ele>
<time>2020-09-10T10:30:14Z</time>
</trkpt>
<trkpt lat="48.42723" lon="10.256878">
<ele>477</ele>
<time>2020-09-10T10:30:19Z</time>
</trkpt>
<trkpt lat="48.42691" lon="10.25706">
<ele>477</ele>
<time>2020-09-10T10:30:24Z</time>
</trkpt>
<trkpt lat="48.426603" lon="10.257257">
<ele>477</ele>
<time>2020-09-10T10:30:29Z</time>
</trkpt>
<trkpt lat="48.426278" lon="10.25746">
<ele>477</ele>
<time>2020-09-10T10:30:34Z</time>
</trkpt>
<trkpt lat="48.425958" lon="10.257658">
<ele>477</ele>
<time>2020-09-10T10:30:39Z</time>
</trkpt>
<trkpt lat="48.425645" lon="10.25786">
<ele>477</ele>
<time>2020-09-10T10:30:44Z</time>
</trkpt>
<trkpt lat="48.425333" lon="10.258073">
<ele>477</ele>
<time>2020-09-10T10:30:49Z</time>
</trkpt>
<trkpt lat="48.425032" lon="10.258297">
<ele>477</ele>
<time>2020-09-10T10:30:54Z</time>
</trkpt>
<trkpt lat="48.424725" lon="10.258525">
<ele>478</ele>
<time>2020-09-10T10:30:59Z</time>
</trkpt>
<trkpt lat="48.424427" lon="10.258747">
<ele>478</ele>
<time>2020-09-10T10:31:04Z</time>
</trkpt>
<trkpt lat="48.424135" lon="10.258972">
<ele>479</ele>
<time>2020-09-10T10:31:09Z</time>
</trkpt>
<trkpt lat="48.423835" lon="10.259215">
<ele>479</ele>
<time>2020-09-10T10:31:14Z</time>
</trkpt>
<trkpt lat="48.423515" lon="10.259462">
<ele>479</ele>
<time>2020-09-10T10:31:19Z</time>
</trkpt>
<trkpt lat="48.423205" lon="10.259687">
<ele>479</ele>
<time>2020-09-10T10:31:24Z</time>
</trkpt>
<trkpt lat="48.422893" lon="10.259905">
<ele>479</ele>
<time>2020-09-10T10:31:29Z</time>
</trkpt>
<trkpt lat="48.422585" lon="10.260137">
<ele>479</ele>
<time>2020-09-10T10:31:34Z</time>
</trkpt>
<trkpt lat="48.422282" lon="10.260325">
<ele>479</ele>
<time>2020-09-10T10:31:39Z</time>
</trkpt>
<trkpt lat="48.421947" lon="10.260548">
<ele>479</ele>
<time>2020-09-10T10:31:44Z</time>
</trkpt>
<trkpt lat="48.421625" lon="10.260812">
<ele>479</ele>
<time>2020-09-10T10:31:49Z</time>
</trkpt>
<trkpt lat="48.421308" lon="10.261078">
<ele>479</ele>
<time>2020-09-10T10:31:54Z</time>
</trkpt>
<trkpt lat="48.420992" lon="10.26137">
<ele>479</ele>
<time>2020-09-10T10:31:59Z</time>
</trkpt>
<trkpt lat="48.420707" lon="10.261662">
<ele>479</ele>
<time>2020-09-10T10:32:04Z</time>
</trkpt>
<trkpt lat="48.420428" lon="10.261955">
<ele>479</ele>
<time>2020-09-10T10:32:09Z</time>
</trkpt>
<trkpt lat="48.420127" lon="10.262228">
<ele>479</ele>
<time>2020-09-10T10:32:14Z</time>
</trkpt>
<trkpt lat="48.419825" lon="10.2625">
<ele>479</ele>
<time>2020-09-10T10:32:19Z</time>
</trkpt>
<trkpt lat="48.419537" lon="10.262757">
<ele>479</ele>
<time>2020-09-10T10:32:24Z</time>
</trkpt>
<trkpt lat="48.419245" lon="10.263023">
<ele>479</ele>
<time>2020-09-10T10:32:29Z</time>
</trkpt>
<trkpt lat="48.418962" lon="10.263283">
<ele>479</ele>
<time>2020-09-10T10:32:34Z</time>
</trkpt>
<trkpt lat="48.418668" lon="10.263513">
<ele>480</ele>
<time>2020-09-10T10:32:39Z</time>
</trkpt>
<trkpt lat="48.418357" lon="10.263718">
<ele>480</ele>
<time>2020-09-10T10:32:44Z</time>
</trkpt>
<trkpt lat="48.418042" lon="10.263893">
<ele>480</ele>
<time>2020-09-10T10:32:49Z</time>
</trkpt>
<trkpt lat="48.417733" lon="10.264125">
<ele>480</ele>
<time>2020-09-10T10:32:54Z</time>
</trkpt>
<trkpt lat="48.417408" lon="10.264405">
<ele>480</ele>
<time>2020-09-10T10:32:59Z</time>
</trkpt>
<trkpt lat="48.417097" lon="10.264672">
<ele>480</ele>
<time>2020-09-10T10:33:04Z</time>
</trkpt>
<trkpt lat="48.416788" lon="10.26493">
<ele>480</ele>
<time>2020-09-10T10:33:09Z</time>
</trkpt>
<trkpt lat="48.41648" lon="10.265143">
<ele>480</ele>
<time>2020-09-10T10:33:14Z</time>
</trkpt>
<trkpt lat="48.41617" lon="10.26537">
<ele>481</ele>
<time>2020-09-10T10:33:19Z</time>
</trkpt>
<trkpt lat="48.415848" lon="10.265595">
<ele>481</ele>
<time>2020-09-10T10:33:24Z</time>
</trkpt>
<trkpt lat="48.415525" lon="10.265818">
<ele>481</ele>
<time>2020-09-10T10:33:29Z</time>
</trkpt>
<trkpt lat="48.415225" lon="10.266062">
<ele>481</ele>
<time>2020-09-10T10:33:34Z</time>
</trkpt>
<trkpt lat="48.414963" lon="10.26634">
<ele>481</ele>
<time>2020-09-10T10:33:39Z</time>
</trkpt>
<trkpt lat="48.41469" lon="10.266675">
<ele>481</ele>
<time>2020-09-10T10:33:44Z</time>
</trkpt>
<trkpt lat="48.414403" lon="10.267005">
<ele>481</ele>
<time>2020-09-10T10:33:49Z</time>
</trkpt>
<trkpt lat="48.414127" lon="10.26731">
<ele>481</ele>
<time>2020-09-10T10:33:54Z</time>
</trkpt>
<trkpt lat="48.41385" lon="10.267618">
<ele>481</ele>
<time>2020-09-10T10:33:59Z</time>
</trkpt>
<trkpt lat="48.41357" lon="10.267902">
<ele>482</ele>
<time>2020-09-10T10:34:04Z</time>
</trkpt>
<trkpt lat="48.413308" lon="10.268213">
<ele>482</ele>
<time>2020-09-10T10:34:09Z</time>
</trkpt>
<trkpt lat="48.413045" lon="10.26855">
<ele>482</ele>
<time>2020-09-10T10:34:14Z</time>
</trkpt>
<trkpt lat="48.412772" lon="10.268875">
<ele>482</ele>
<time>2020-09-10T10:34:19Z</time>
</trkpt>
<trkpt lat="48.412493" lon="10.269195">
<ele>482</ele>
<time>2020-09-10T10:34:24Z</time>
</trkpt>
<trkpt lat="48.412228" lon="10.269513">
<ele>482</ele>
<time>2020-09-10T10:34:29Z</time>
</trkpt>
<trkpt lat="48.411973" lon="10.269818">
<ele>483</ele>
<time>2020-09-10T10:34:34Z</time>
</trkpt>
<trkpt lat="48.411718" lon="10.270135">
<ele>483</ele>
<time>2020-09-10T10:34:39Z</time>
</trkpt>
<trkpt lat="48.411452" lon="10.270452">
<ele>483</ele>
<time>2020-09-10T10:34:44Z</time>
</trkpt>
<trkpt lat="48.4112" lon="10.270753">
<ele>483</ele>
<time>2020-09-10T10:34:49Z</time>
</trkpt>
<trkpt lat="48.410942" lon="10.27105">
<ele>483</ele>
<time>2020-09-10T10:34:54Z</time>
</trkpt>
<trkpt lat="48.410672" lon="10.271345">
<ele>484</ele>
<time>2020-09-10T10:34:59Z</time>
</trkpt>
<trkpt lat="48.410417" lon="10.271572">
<ele>484</ele>
<time>2020-09-10T10:35:04Z</time>
</trkpt>
<trkpt lat="48.410205" lon="10.271798">
<ele>484</ele>
<time>2020-09-10T10:35:09Z</time>
</trkpt>
<trkpt lat="48.409953" lon="10.27202">
<ele>484</ele>
<time>2020-09-10T10:35:14Z</time>
</trkpt>
<trkpt lat="48.409692" lon="10.272268">
<ele>484</ele>
<time>2020-09-10T10:35:19Z</time>
</trkpt>
<trkpt lat="48.409403" lon="10.272508">
<ele>484</ele>
<time>2020-09-10T10:35:24Z</time>
</trkpt>
<trkpt lat="48.409093" lon="10.272745">
<ele>482</ele>
<time>2020-09-10T10:35:29Z</time>
</trkpt>
<trkpt lat="48.408728" lon="10.272878">
<ele>482</ele>
<time>2020-09-10T10:35:34Z</time>
</trkpt>
<trkpt lat="48.40838" lon="10.272945">
<ele>481</ele>
<time>2020-09-10T10:35:39Z</time>
</trkpt>
<trkpt lat="48.40806" lon="10.273098">
<ele>481</ele>
<time>2020-09-10T10:35:44Z</time>
</trkpt>
<trkpt lat="48.407758" lon="10.273277">
<ele>481</ele>
<time>2020-09-10T10:35:49Z</time>
</trkpt>
<trkpt lat="48.40756" lon="10.273377">
<ele>480</ele>
<time>2020-09-10T10:35:54Z</time>
</trkpt>
<trkpt lat="48.407492" lon="10.273385">
<ele>480</ele>
<time>2020-09-10T10:35:59Z</time>
</trkpt>
<trkpt lat="48.407382" lon="10.27341">
<ele>479</ele>
<time>2020-09-10T10:36:04Z</time>
</trkpt>
<trkpt lat="48.407253" lon="10.273442">
<ele>479</ele>
<time>2020-09-10T10:36:09Z</time>
</trkpt>
<trkpt lat="48.407218" lon="10.273445">
<ele>478</ele>
<time>2020-09-10T10:36:14Z</time>
</trkpt>
<trkpt lat="48.407055" lon="10.27343">
<ele>478</ele>
<time>2020-09-10T10:36:20Z</time>
</trkpt>
<trkpt lat="48.406828" lon="10.27321">
<ele>477</ele>
<time>2020-09-10T10:36:25Z</time>
</trkpt>
<trkpt lat="48.406542" lon="10.27325">
<ele>474</ele>
<time>2020-09-10T10:36:30Z</time>
</trkpt>
<trkpt lat="48.40624" lon="10.273462">
<ele>472</ele>
<time>2020-09-10T10:36:35Z</time>
</trkpt>
<trkpt lat="48.405962" lon="10.273852">
<ele>471</ele>
<time>2020-09-10T10:36:40Z</time>
</trkpt>
<trkpt lat="48.405592" lon="10.274117">
<ele>469</ele>
<time>2020-09-10T10:36:45Z</time>
</trkpt>
<trkpt lat="48.405147" lon="10.274038">
<ele>468</ele>
<time>2020-09-10T10:36:50Z</time>
</trkpt>
<trkpt lat="48.404682" lon="10.27403">
<ele>468</ele>
<time>2020-09-10T10:36:56Z</time>
</trkpt>
<trkpt lat="48.40432" lon="10.274215">
<ele>468</ele>
<time>2020-09-10T10:37:02Z</time>
</trkpt>
<trkpt lat="48.403993" lon="10.274415">
<ele>469</ele>
<time>2020-09-10T10:37:08Z</time>
</trkpt>
<trkpt lat="48.403722" lon="10.274635">
<ele>472</ele>
<time>2020-09-10T10:37:14Z</time>
</trkpt>
<trkpt lat="48.403532" lon="10.274793">
<ele>474</ele>
<time>2020-09-10T10:37:19Z</time>
</trkpt>
<trkpt lat="48.403315" lon="10.274972">
<ele>476</ele>
<time>2020-09-10T10:37:25Z</time>
</trkpt>
<trkpt lat="48.403142" lon="10.275112">
<ele>477</ele>
<time>2020-09-10T10:37:30Z</time>
</trkpt>
<trkpt lat="48.402963" lon="10.275247">
<ele>479</ele>
<time>2020-09-10T10:37:35Z</time>
</trkpt>
<trkpt lat="48.402773" lon="10.275362">
<ele>480</ele>
<time>2020-09-10T10:37:40Z</time>
</trkpt>
<trkpt lat="48.40255" lon="10.275447">
<ele>481</ele>
<time>2020-09-10T10:37:45Z</time>
</trkpt>
<trkpt lat="48.402325" lon="10.275528">
<ele>482</ele>
<time>2020-09-10T10:37:50Z</time>
</trkpt>
<trkpt lat="48.402072" lon="10.275675">
<ele>483</ele>
<time>2020-09-10T10:37:56Z</time>
</trkpt>
<trkpt lat="48.401893" lon="10.275783">
<ele>484</ele>
<time>2020-09-10T10:38:01Z</time>
</trkpt>
<trkpt lat="48.401667" lon="10.275862">
<ele>485</ele>
<time>2020-09-10T10:38:06Z</time>
</trkpt>
<trkpt lat="48.401352" lon="10.275908">
<ele>485</ele>
<time>2020-09-10T10:38:12Z</time>
</trkpt>
<trkpt lat="48.401047" lon="10.27596">
<ele>486</ele>
<time>2020-09-10T10:38:18Z</time>
</trkpt>
<trkpt lat="48.400727" lon="10.275995">
<ele>486</ele>
<time>2020-09-10T10:38:24Z</time>
</trkpt>
<trkpt lat="48.400428" lon="10.276023">
<ele>487</ele>
<time>2020-09-10T10:38:30Z</time>
</trkpt>
<trkpt lat="48.400167" lon="10.276078">
<ele>487</ele>
<time>2020-09-10T10:38:35Z</time>
</trkpt>
<trkpt lat="48.399865" lon="10.276108">
<ele>488</ele>
<time>2020-09-10T10:38:40Z</time>
</trkpt>
<trkpt lat="48.399555" lon="10.276137">
<ele>488</ele>
<time>2020-09-10T10:38:45Z</time>
</trkpt>
<trkpt lat="48.399243" lon="10.276172">
<ele>488</ele>
<time>2020-09-10T10:38:50Z</time>
</trkpt>
<trkpt lat="48.39893" lon="10.276213">
<ele>488</ele>
<time>2020-09-10T10:38:55Z</time>
</trkpt>
<trkpt lat="48.398557" lon="10.276285">
<ele>488</ele>
<time>2020-09-10T10:39:01Z</time>
</trkpt>
<trkpt lat="48.398245" lon="10.2764">
<ele>488</ele>
<time>2020-09-10T10:39:06Z</time>
</trkpt>
<trkpt lat="48.397858" lon="10.276575">
<ele>488</ele>
<time>2020-09-10T10:39:12Z</time>
</trkpt>
<trkpt lat="48.397533" lon="10.276702">
<ele>488</ele>
<time>2020-09-10T10:39:17Z</time>
</trkpt>
<trkpt lat="48.397213" lon="10.276833">
<ele>488</ele>
<time>2020-09-10T10:39:22Z</time>
</trkpt>
<trkpt lat="48.396898" lon="10.276967">
<ele>488</ele>
<time>2020-09-10T10:39:27Z</time>
</trkpt>
<trkpt lat="48.396573" lon="10.277082">
<ele>489</ele>
<time>2020-09-10T10:39:32Z</time>
</trkpt>
<trkpt lat="48.396218" lon="10.27716">
<ele>489</ele>
<time>2020-09-10T10:39:37Z</time>
</trkpt>
<trkpt lat="48.395795" lon="10.277187">
<ele>489</ele>
<time>2020-09-10T10:39:43Z</time>
</trkpt>
<trkpt lat="48.395437" lon="10.277187">
<ele>489</ele>
<time>2020-09-10T10:39:48Z</time>
</trkpt>
<trkpt lat="48.39503" lon="10.277212">
<ele>489</ele>
<time>2020-09-10T10:39:54Z</time>
</trkpt>
<trkpt lat="48.394683" lon="10.277248">
<ele>489</ele>
<time>2020-09-10T10:39:59Z</time>
</trkpt>
<trkpt lat="48.394348" lon="10.277317">
<ele>489</ele>
<time>2020-09-10T10:40:04Z</time>
</trkpt>
<trkpt lat="48.39395" lon="10.277463">
<ele>489</ele>
<time>2020-09-10T10:40:10Z</time>
</trkpt>
<trkpt lat="48.393617" lon="10.27764">
<ele>489</ele>
<time>2020-09-10T10:40:15Z</time>
</trkpt>
<trkpt lat="48.393282" lon="10.277838">
<ele>489</ele>
<time>2020-09-10T10:40:20Z</time>
</trkpt>
<trkpt lat="48.392893" lon="10.278123">
<ele>489</ele>
<time>2020-09-10T10:40:26Z</time>
</trkpt>
<trkpt lat="48.392477" lon="10.278293">
<ele>489</ele>
<time>2020-09-10T10:40:32Z</time>
</trkpt>
<trkpt lat="48.39212" lon="10.278465">
<ele>489</ele>
<time>2020-09-10T10:40:37Z</time>
</trkpt>
<trkpt lat="48.391768" lon="10.278595">
<ele>489</ele>
<time>2020-09-10T10:40:42Z</time>
</trkpt>
<trkpt lat="48.391338" lon="10.278703">
<ele>490</ele>
<time>2020-09-10T10:40:48Z</time>
</trkpt>
<trkpt lat="48.390975" lon="10.278753">
<ele>490</ele>
<time>2020-09-10T10:40:53Z</time>
</trkpt>
<trkpt lat="48.390525" lon="10.278742">
<ele>490</ele>
<time>2020-09-10T10:40:59Z</time>
</trkpt>
<trkpt lat="48.390155" lon="10.278668">
<ele>490</ele>
<time>2020-09-10T10:41:04Z</time>
</trkpt>
<trkpt lat="48.3898" lon="10.278548">
<ele>490</ele>
<time>2020-09-10T10:41:09Z</time>
</trkpt>
<trkpt lat="48.389438" lon="10.27841">
<ele>490</ele>
<time>2020-09-10T10:41:14Z</time>
</trkpt>
<trkpt lat="48.388998" lon="10.27827">
<ele>490</ele>
<time>2020-09-10T10:41:20Z</time>
</trkpt>
<trkpt lat="48.388632" lon="10.278158">
<ele>490</ele>
<time>2020-09-10T10:41:25Z</time>
</trkpt>
<trkpt lat="48.388195" lon="10.278053">
<ele>490</ele>
<time>2020-09-10T10:41:31Z</time>
</trkpt>
<trkpt lat="48.387757" lon="10.27803">
<ele>490</ele>
<time>2020-09-10T10:41:37Z</time>
</trkpt>
<trkpt lat="48.387388" lon="10.27797">
<ele>490</ele>
<time>2020-09-10T10:41:42Z</time>
</trkpt>
<trkpt lat="48.387023" lon="10.278">
<ele>490</ele>
<time>2020-09-10T10:41:47Z</time>
</trkpt>
<trkpt lat="48.38657" lon="10.278088">
<ele>491</ele>
<time>2020-09-10T10:41:53Z</time>
</trkpt>
<trkpt lat="48.38619" lon="10.278197">
<ele>491</ele>
<time>2020-09-10T10:41:58Z</time>
</trkpt>
<trkpt lat="48.385798" lon="10.278322">
<ele>491</ele>
<time>2020-09-10T10:42:03Z</time>
</trkpt>
<trkpt lat="48.385387" lon="10.278462">
<ele>491</ele>
<time>2020-09-10T10:42:08Z</time>
</trkpt>
<trkpt lat="48.385" lon="10.278613">
<ele>491</ele>
<time>2020-09-10T10:42:13Z</time>
</trkpt>
<trkpt lat="48.384657" lon="10.278788">
<ele>490</ele>
<time>2020-09-10T10:42:18Z</time>
</trkpt>
<trkpt lat="48.38429" lon="10.278915">
<ele>490</ele>
<time>2020-09-10T10:42:23Z</time>
</trkpt>
<trkpt lat="48.383908" lon="10.279085">
<ele>490</ele>
<time>2020-09-10T10:42:28Z</time>
</trkpt>
<trkpt lat="48.383433" lon="10.279243">
<ele>490</ele>
<time>2020-09-10T10:42:34Z</time>
</trkpt>
<trkpt lat="48.383032" lon="10.279345">
<ele>490</ele>
<time>2020-09-10T10:42:39Z</time>
</trkpt>
<trkpt lat="48.382608" lon="10.279432">
<ele>490</ele>
<time>2020-09-10T10:42:44Z</time>
</trkpt>
<trkpt lat="48.382227" lon="10.279487">
<ele>490</ele>
<time>2020-09-10T10:42:49Z</time>
</trkpt>
<trkpt lat="48.381803" lon="10.279537">
<ele>490</ele>
<time>2020-09-10T10:42:55Z</time>
</trkpt>
<trkpt lat="48.381452" lon="10.27958">
<ele>491</ele>
<time>2020-09-10T10:43:00Z</time>
</trkpt>
<trkpt lat="48.381102" lon="10.279628">
<ele>492</ele>
<time>2020-09-10T10:43:05Z</time>
</trkpt>
<trkpt lat="48.380747" lon="10.279672">
<ele>493</ele>
<time>2020-09-10T10:43:10Z</time>
</trkpt>
<trkpt lat="48.380303" lon="10.279708">
<ele>493</ele>
<time>2020-09-10T10:43:16Z</time>
</trkpt>
<trkpt lat="48.379933" lon="10.279728">
<ele>493</ele>
<time>2020-09-10T10:43:21Z</time>
</trkpt>
<trkpt lat="48.379568" lon="10.279742">
<ele>493</ele>
<time>2020-09-10T10:43:26Z</time>
</trkpt>
<trkpt lat="48.379195" lon="10.279757">
<ele>493</ele>
<time>2020-09-10T10:43:31Z</time>
</trkpt>
<trkpt lat="48.378838" lon="10.279765">
<ele>493</ele>
<time>2020-09-10T10:43:36Z</time>
</trkpt>
<trkpt lat="48.378482" lon="10.279773">
<ele>493</ele>
<time>2020-09-10T10:43:41Z</time>
</trkpt>
<trkpt lat="48.378028" lon="10.279848">
<ele>493</ele>
<time>2020-09-10T10:43:47Z</time>
</trkpt>
<trkpt lat="48.377672" lon="10.279948">
<ele>493</ele>
<time>2020-09-10T10:43:52Z</time>
</trkpt>
<trkpt lat="48.377375" lon="10.280062">
<ele>493</ele>
<time>2020-09-10T10:43:57Z</time>
</trkpt>
<trkpt lat="48.377182" lon="10.280133">
<ele>493</ele>
<time>2020-09-10T10:44:02Z</time>
</trkpt>
<trkpt lat="48.377072" lon="10.280122">
<ele>493</ele>
<time>2020-09-10T10:44:08Z</time>
</trkpt>
<trkpt lat="48.37704" lon="10.280025">
<ele>493</ele>
<time>2020-09-10T10:44:13Z</time>
</trkpt>
<trkpt lat="48.376835" lon="10.280005">
<ele>493</ele>
<time>2020-09-10T10:44:18Z</time>
</trkpt>
<trkpt lat="48.376588" lon="10.280067">
<ele>493</ele>
<time>2020-09-10T10:44:23Z</time>
</trkpt>
<trkpt lat="48.376348" lon="10.280352">
<ele>492</ele>
<time>2020-09-10T10:44:28Z</time>
</trkpt>
<trkpt lat="48.376037" lon="10.280578">
<ele>492</ele>
<time>2020-09-10T10:44:33Z</time>
</trkpt>
<trkpt lat="48.3757" lon="10.280723">
<ele>491</ele>
<time>2020-09-10T10:44:38Z</time>
</trkpt>
<trkpt lat="48.37548" lon="10.281108">
<ele>491</ele>
<time>2020-09-10T10:44:43Z</time>
</trkpt>
<trkpt lat="48.375212" lon="10.281615">
<ele>491</ele>
<time>2020-09-10T10:44:49Z</time>
</trkpt>
<trkpt lat="48.374915" lon="10.281923">
<ele>491</ele>
<time>2020-09-10T10:44:54Z</time>
</trkpt>
<trkpt lat="48.3745" lon="10.282163">
<ele>491</ele>
<time>2020-09-10T10:45:00Z</time>
</trkpt>
<trkpt lat="48.374175" lon="10.282332">
<ele>491</ele>
<time>2020-09-10T10:45:05Z</time>
</trkpt>
<trkpt lat="48.373853" lon="10.282495">
<ele>491</ele>
<time>2020-09-10T10:45:10Z</time>
</trkpt>
<trkpt lat="48.373525" lon="10.282647">
<ele>491</ele>
<time>2020-09-10T10:45:15Z</time>
</trkpt>
<trkpt lat="48.373213" lon="10.282825">
<ele>491</ele>
<time>2020-09-10T10:45:20Z</time>
</trkpt>
<trkpt lat="48.372928" lon="10.283043">
<ele>492</ele>
<time>2020-09-10T10:45:25Z</time>
</trkpt>
<trkpt lat="48.372662" lon="10.283273">
<ele>493</ele>
<time>2020-09-10T10:45:30Z</time>
</trkpt>
<trkpt lat="48.372423" lon="10.283583">
<ele>493</ele>
<time>2020-09-10T10:45:35Z</time>
</trkpt>
<trkpt lat="48.37223" lon="10.284015">
<ele>493</ele>
<time>2020-09-10T10:45:40Z</time>
</trkpt>
<trkpt lat="48.372065" lon="10.284473">
<ele>493</ele>
<time>2020-09-10T10:45:45Z</time>
</trkpt>
<trkpt lat="48.371858" lon="10.285045">
<ele>493</ele>
<time>2020-09-10T10:45:51Z</time>
</trkpt>
<trkpt lat="48.371642" lon="10.285533">
<ele>493</ele>
<time>2020-09-10T10:45:56Z</time>
</trkpt>
<trkpt lat="48.371407" lon="10.28606">
<ele>492</ele>
<time>2020-09-10T10:46:01Z</time>
</trkpt>
<trkpt lat="48.371155" lon="10.286677">
<ele>489</ele>
<time>2020-09-10T10:46:06Z</time>
</trkpt>
<trkpt lat="48.3709" lon="10.28738">
<ele>487</ele>
<time>2020-09-10T10:46:11Z</time>
</trkpt>
<trkpt lat="48.370673" lon="10.288132">
<ele>485</ele>
<time>2020-09-10T10:46:16Z</time>
</trkpt>
<trkpt lat="48.370477" lon="10.288948">
<ele>483</ele>
<time>2020-09-10T10:46:21Z</time>
</trkpt>
<trkpt lat="48.370328" lon="10.289728">
<ele>481</ele>
<time>2020-09-10T10:46:26Z</time>
</trkpt>
<trkpt lat="48.370223" lon="10.290468">
<ele>479</ele>
<time>2020-09-10T10:46:31Z</time>
</trkpt>
<trkpt lat="48.370162" lon="10.291183">
<ele>477</ele>
<time>2020-09-10T10:46:36Z</time>
</trkpt>
<trkpt lat="48.370135" lon="10.291885">
<ele>477</ele>
<time>2020-09-10T10:46:41Z</time>
</trkpt>
<trkpt lat="48.370142" lon="10.292558">
<ele>475</ele>
<time>2020-09-10T10:46:46Z</time>
</trkpt>
<trkpt lat="48.370172" lon="10.293238">
<ele>475</ele>
<time>2020-09-10T10:46:51Z</time>
</trkpt>
<trkpt lat="48.370227" lon="10.293873">
<ele>475</ele>
<time>2020-09-10T10:46:56Z</time>
</trkpt>
<trkpt lat="48.370315" lon="10.294458">
<ele>475</ele>
<time>2020-09-10T10:47:01Z</time>
</trkpt>
<trkpt lat="48.370403" lon="10.294988">
<ele>475</ele>
<time>2020-09-10T10:47:06Z</time>
</trkpt>
<trkpt lat="48.370497" lon="10.295495">
<ele>475</ele>
<time>2020-09-10T10:47:11Z</time>
</trkpt>
<trkpt lat="48.370595" lon="10.296003">
<ele>475</ele>
<time>2020-09-10T10:47:16Z</time>
</trkpt>
<trkpt lat="48.370715" lon="10.296523">
<ele>475</ele>
<time>2020-09-10T10:47:21Z</time>
</trkpt>
<trkpt lat="48.37082" lon="10.297052">
<ele>475</ele>
<time>2020-09-10T10:47:26Z</time>
</trkpt>
<trkpt lat="48.370897" lon="10.297615">
<ele>475</ele>
<time>2020-09-10T10:47:31Z</time>
</trkpt>
<trkpt lat="48.370928" lon="10.298188">
<ele>475</ele>
<time>2020-09-10T10:47:36Z</time>
</trkpt>
<trkpt lat="48.3709" lon="10.298755">
<ele>475</ele>
<time>2020-09-10T10:47:41Z</time>
</trkpt>
<trkpt lat="48.370807" lon="10.299313">
<ele>475</ele>
<time>2020-09-10T10:47:46Z</time>
</trkpt>
<trkpt lat="48.370695" lon="10.29977">
<ele>475</ele>
<time>2020-09-10T10:47:51Z</time>
</trkpt>
<trkpt lat="48.370603" lon="10.300125">
<ele>475</ele>
<time>2020-09-10T10:47:56Z</time>
</trkpt>
<trkpt lat="48.370438" lon="10.300455">
<ele>474</ele>
<time>2020-09-10T10:48:02Z</time>
</trkpt>
<trkpt lat="48.370103" lon="10.300483">
<ele>474</ele>
<time>2020-09-10T10:48:07Z</time>
</trkpt>
<trkpt lat="48.369748" lon="10.300485">
<ele>474</ele>
<time>2020-09-10T10:48:12Z</time>
</trkpt>
<trkpt lat="48.369403" lon="10.300515">
<ele>474</ele>
<time>2020-09-10T10:48:17Z</time>
</trkpt>
<trkpt lat="48.369047" lon="10.300572">
<ele>474</ele>
<time>2020-09-10T10:48:22Z</time>
</trkpt>
<trkpt lat="48.368685" lon="10.300658">
<ele>474</ele>
<time>2020-09-10T10:48:27Z</time>
</trkpt>
<trkpt lat="48.368322" lon="10.300798">
<ele>474</ele>
<time>2020-09-10T10:48:32Z</time>
</trkpt>
<trkpt lat="48.36797" lon="10.300947">
<ele>474</ele>
<time>2020-09-10T10:48:37Z</time>
</trkpt>
<trkpt lat="48.367608" lon="10.301078">
<ele>475</ele>
<time>2020-09-10T10:48:42Z</time>
</trkpt>
<trkpt lat="48.367247" lon="10.30123">
<ele>475</ele>
<time>2020-09-10T10:48:47Z</time>
</trkpt>
<trkpt lat="48.36689" lon="10.301387">
<ele>475</ele>
<time>2020-09-10T10:48:52Z</time>
</trkpt>
<trkpt lat="48.366518" lon="10.301515">
<ele>475</ele>
<time>2020-09-10T10:48:57Z</time>
</trkpt>
<trkpt lat="48.36616" lon="10.301657">
<ele>475</ele>
<time>2020-09-10T10:49:02Z</time>
</trkpt>
<trkpt lat="48.365807" lon="10.301805">
<ele>475</ele>
<time>2020-09-10T10:49:07Z</time>
</trkpt>
<trkpt lat="48.365447" lon="10.301983">
<ele>475</ele>
<time>2020-09-10T10:49:12Z</time>
</trkpt>
<trkpt lat="48.365098" lon="10.302167">
<ele>475</ele>
<time>2020-09-10T10:49:17Z</time>
</trkpt>
<trkpt lat="48.364745" lon="10.302345">
<ele>476</ele>
<time>2020-09-10T10:49:22Z</time>
</trkpt>
<trkpt lat="48.36439" lon="10.302522">
<ele>476</ele>
<time>2020-09-10T10:49:27Z</time>
</trkpt>
<trkpt lat="48.36404" lon="10.302717">
<ele>476</ele>
<time>2020-09-10T10:49:32Z</time>
</trkpt>
<trkpt lat="48.363693" lon="10.302898">
<ele>476</ele>
<time>2020-09-10T10:49:37Z</time>
</trkpt>
<trkpt lat="48.363342" lon="10.303098">
<ele>476</ele>
<time>2020-09-10T10:49:42Z</time>
</trkpt>
<trkpt lat="48.362987" lon="10.303287">
<ele>476</ele>
<time>2020-09-10T10:49:47Z</time>
</trkpt>
<trkpt lat="48.362632" lon="10.303468">
<ele>476</ele>
<time>2020-09-10T10:49:52Z</time>
</trkpt>
<trkpt lat="48.362272" lon="10.30365">
<ele>477</ele>
<time>2020-09-10T10:49:57Z</time>
</trkpt>
<trkpt lat="48.361917" lon="10.30383">
<ele>477</ele>
<time>2020-09-10T10:50:02Z</time>
</trkpt>
<trkpt lat="48.361565" lon="10.303997">
<ele>477</ele>
<time>2020-09-10T10:50:07Z</time>
</trkpt>
<trkpt lat="48.361213" lon="10.304145">
<ele>477</ele>
<time>2020-09-10T10:50:12Z</time>
</trkpt>
<trkpt lat="48.360865" lon="10.304292">
<ele>477</ele>
<time>2020-09-10T10:50:17Z</time>
</trkpt>
<trkpt lat="48.360523" lon="10.304435">
<ele>479</ele>
<time>2020-09-10T10:50:22Z</time>
</trkpt>
<trkpt lat="48.360237" lon="10.304653">
<ele>479</ele>
<time>2020-09-10T10:50:27Z</time>
</trkpt>
<trkpt lat="48.360047" lon="10.304967">
<ele>480</ele>
<time>2020-09-10T10:50:32Z</time>
</trkpt>
<trkpt lat="48.360013" lon="10.305268">
<ele>480</ele>
<time>2020-09-10T10:50:37Z</time>
</trkpt>
<trkpt lat="48.360212" lon="10.305453">
<ele>481</ele>
<time>2020-09-10T10:50:42Z</time>
</trkpt>
<trkpt lat="48.360445" lon="10.305693">
<ele>481</ele>
<time>2020-09-10T10:50:47Z</time>
</trkpt>
<trkpt lat="48.360588" lon="10.30599">
<ele>482</ele>
<time>2020-09-10T10:50:52Z</time>
</trkpt>
<trkpt lat="48.360495" lon="10.306177">
<ele>483</ele>
<time>2020-09-10T10:50:57Z</time>
</trkpt>
<trkpt lat="48.360312" lon="10.306273">
<ele>484</ele>
<time>2020-09-10T10:51:02Z</time>
</trkpt>
<trkpt lat="48.360098" lon="10.306358">
<ele>485</ele>
<time>2020-09-10T10:51:07Z</time>
</trkpt>
<trkpt lat="48.359892" lon="10.30648">
<ele>486</ele>
<time>2020-09-10T10:51:12Z</time>
</trkpt>
<trkpt lat="48.359695" lon="10.30663">
<ele>488</ele>
<time>2020-09-10T10:51:17Z</time>
</trkpt>
<trkpt lat="48.359507" lon="10.306783">
<ele>490</ele>
<time>2020-09-10T10:51:22Z</time>
</trkpt>
<trkpt lat="48.359313" lon="10.306952">
<ele>491</ele>
<time>2020-09-10T10:51:27Z</time>
</trkpt>
<trkpt lat="48.359132" lon="10.30713">
<ele>493</ele>
<time>2020-09-10T10:51:32Z</time>
</trkpt>
<trkpt lat="48.358932" lon="10.30732">
<ele>494</ele>
<time>2020-09-10T10:51:37Z</time>
</trkpt>
<trkpt lat="48.358722" lon="10.307492">
<ele>495</ele>
<time>2020-09-10T10:51:42Z</time>
</trkpt>
<trkpt lat="48.358515" lon="10.307667">
<ele>496</ele>
<time>2020-09-10T10:51:47Z</time>
</trkpt>
<trkpt lat="48.3583" lon="10.307857">
<ele>498</ele>
<time>2020-09-10T10:51:52Z</time>
</trkpt>
<trkpt lat="48.358087" lon="10.30803">
<ele>499</ele>
<time>2020-09-10T10:51:57Z</time>
</trkpt>
<trkpt lat="48.357868" lon="10.30822">
<ele>499</ele>
<time>2020-09-10T10:52:02Z</time>
</trkpt>
<trkpt lat="48.357633" lon="10.308427">
<ele>501</ele>
<time>2020-09-10T10:52:07Z</time>
</trkpt>
<trkpt lat="48.357363" lon="10.30853">
<ele>501</ele>
<time>2020-09-10T10:52:12Z</time>
</trkpt>
<trkpt lat="48.357063" lon="10.308585">
<ele>501</ele>
<time>2020-09-10T10:52:17Z</time>
</trkpt>
<trkpt lat="48.35672" lon="10.308683">
<ele>501</ele>
<time>2020-09-10T10:52:22Z</time>
</trkpt>
<trkpt lat="48.356375" lon="10.30883">
<ele>501</ele>
<time>2020-09-10T10:52:27Z</time>
</trkpt>
<trkpt lat="48.356042" lon="10.309072">
<ele>501</ele>
<time>2020-09-10T10:52:32Z</time>
</trkpt>
<trkpt lat="48.355728" lon="10.309382">
<ele>501</ele>
<time>2020-09-10T10:52:37Z</time>
</trkpt>
<trkpt lat="48.355433" lon="10.309747">
<ele>500</ele>
<time>2020-09-10T10:52:42Z</time>
</trkpt>
<trkpt lat="48.35515" lon="10.310185">
<ele>500</ele>
<time>2020-09-10T10:52:47Z</time>
</trkpt>
<trkpt lat="48.354905" lon="10.310682">
<ele>499</ele>
<time>2020-09-10T10:52:52Z</time>
</trkpt>
<trkpt lat="48.354625" lon="10.311103">
<ele>499</ele>
<time>2020-09-10T10:52:57Z</time>
</trkpt>
<trkpt lat="48.354307" lon="10.311423">
<ele>499</ele>
<time>2020-09-10T10:53:02Z</time>
</trkpt>
<trkpt lat="48.353955" lon="10.31163">
<ele>499</ele>
<time>2020-09-10T10:53:07Z</time>
</trkpt>
<trkpt lat="48.353625" lon="10.311758">
<ele>499</ele>
<time>2020-09-10T10:53:12Z</time>
</trkpt>
<trkpt lat="48.353275" lon="10.311917">
<ele>499</ele>
<time>2020-09-10T10:53:17Z</time>
</trkpt>
<trkpt lat="48.352937" lon="10.312097">
<ele>499</ele>
<time>2020-09-10T10:53:22Z</time>
</trkpt>
<trkpt lat="48.352595" lon="10.312293">
<ele>499</ele>
<time>2020-09-10T10:53:27Z</time>
</trkpt>
<trkpt lat="48.352275" lon="10.312525">
<ele>499</ele>
<time>2020-09-10T10:53:32Z</time>
</trkpt>
<trkpt lat="48.351972" lon="10.312795">
<ele>499</ele>
<time>2020-09-10T10:53:37Z</time>
</trkpt>
<trkpt lat="48.351673" lon="10.313075">
<ele>500</ele>
<time>2020-09-10T10:53:42Z</time>
</trkpt>
<trkpt lat="48.351378" lon="10.313318">
<ele>500</ele>
<time>2020-09-10T10:53:47Z</time>
</trkpt>
<trkpt lat="48.351065" lon="10.313608">
<ele>501</ele>
<time>2020-09-10T10:53:52Z</time>
</trkpt>
<trkpt lat="48.350778" lon="10.313888">
<ele>501</ele>
<time>2020-09-10T10:53:57Z</time>
</trkpt>
<trkpt lat="48.350483" lon="10.314157">
<ele>502</ele>
<time>2020-09-10T10:54:02Z</time>
</trkpt>
<trkpt lat="48.350183" lon="10.31442">
<ele>502</ele>
<time>2020-09-10T10:54:07Z</time>
</trkpt>
<trkpt lat="48.349883" lon="10.314688">
<ele>502</ele>
<time>2020-09-10T10:54:12Z</time>
</trkpt>
<trkpt lat="48.34959" lon="10.314943">
<ele>502</ele>
<time>2020-09-10T10:54:17Z</time>
</trkpt>
<trkpt lat="48.349295" lon="10.315235">
<ele>503</ele>
<time>2020-09-10T10:54:22Z</time>
</trkpt>
<trkpt lat="48.348997" lon="10.315518">
<ele>504</ele>
<time>2020-09-10T10:54:27Z</time>
</trkpt>
<trkpt lat="48.348667" lon="10.31579">
<ele>504</ele>
<time>2020-09-10T10:54:32Z</time>
</trkpt>
<trkpt lat="48.34834" lon="10.316052">
<ele>504</ele>
<time>2020-09-10T10:54:37Z</time>
</trkpt>
<trkpt lat="48.348018" lon="10.316315">
<ele>504</ele>
<time>2020-09-10T10:54:42Z</time>
</trkpt>
<trkpt lat="48.347675" lon="10.316595">
<ele>504</ele>
<time>2020-09-10T10:54:47Z</time>
</trkpt>
<trkpt lat="48.347345" lon="10.316883">
<ele>504</ele>
<time>2020-09-10T10:54:52Z</time>
</trkpt>
<trkpt lat="48.347013" lon="10.317172">
<ele>504</ele>
<time>2020-09-10T10:54:57Z</time>
</trkpt>
<trkpt lat="48.346693" lon="10.317447">
<ele>504</ele>
<time>2020-09-10T10:55:02Z</time>
</trkpt>
<trkpt lat="48.346362" lon="10.317715">
<ele>504</ele>
<time>2020-09-10T10:55:07Z</time>
</trkpt>
<trkpt lat="48.34601" lon="10.317985">
<ele>504</ele>
<time>2020-09-10T10:55:12Z</time>
</trkpt>
<trkpt lat="48.34566" lon="10.318248">
<ele>504</ele>
<time>2020-09-10T10:55:17Z</time>
</trkpt>
<trkpt lat="48.345317" lon="10.318495">
<ele>504</ele>
<time>2020-09-10T10:55:22Z</time>
</trkpt>
<trkpt lat="48.344998" lon="10.318728">
<ele>504</ele>
<time>2020-09-10T10:55:27Z</time>
</trkpt>
<trkpt lat="48.34466" lon="10.318967">
<ele>504</ele>
<time>2020-09-10T10:55:32Z</time>
</trkpt>
<trkpt lat="48.344322" lon="10.319218">
<ele>504</ele>
<time>2020-09-10T10:55:37Z</time>
</trkpt>
<trkpt lat="48.34397" lon="10.319473">
<ele>504</ele>
<time>2020-09-10T10:55:42Z</time>
</trkpt>
<trkpt lat="48.343635" lon="10.319715">
<ele>504</ele>
<time>2020-09-10T10:55:47Z</time>
</trkpt>
<trkpt lat="48.343288" lon="10.319958">
<ele>504</ele>
<time>2020-09-10T10:55:52Z</time>
</trkpt>
<trkpt lat="48.34295" lon="10.320213">
<ele>504</ele>
<time>2020-09-10T10:55:57Z</time>
</trkpt>
<trkpt lat="48.342628" lon="10.32049">
<ele>504</ele>
<time>2020-09-10T10:56:02Z</time>
</trkpt>
<trkpt lat="48.342298" lon="10.320805">
<ele>504</ele>
<time>2020-09-10T10:56:07Z</time>
</trkpt>
<trkpt lat="48.341983" lon="10.321157">
<ele>504</ele>
<time>2020-09-10T10:56:12Z</time>
</trkpt>
<trkpt lat="48.341683" lon="10.321473">
<ele>504</ele>
<time>2020-09-10T10:56:17Z</time>
</trkpt>
<trkpt lat="48.341388" lon="10.32179">
<ele>504</ele>
<time>2020-09-10T10:56:22Z</time>
</trkpt>
<trkpt lat="48.341117" lon="10.322063">
<ele>505</ele>
<time>2020-09-10T10:56:27Z</time>
</trkpt>
<trkpt lat="48.340875" lon="10.322187">
<ele>505</ele>
<time>2020-09-10T10:56:32Z</time>
</trkpt>
<trkpt lat="48.340593" lon="10.321993">
<ele>505</ele>
<time>2020-09-10T10:56:37Z</time>
</trkpt>
<trkpt lat="48.34027" lon="10.321793">
<ele>505</ele>
<time>2020-09-10T10:56:42Z</time>
</trkpt>
<trkpt lat="48.339955" lon="10.321592">
<ele>505</ele>
<time>2020-09-10T10:56:47Z</time>
</trkpt>
<trkpt lat="48.339655" lon="10.3214">
<ele>505</ele>
<time>2020-09-10T10:56:52Z</time>
</trkpt>
<trkpt lat="48.339285" lon="10.32131">
<ele>505</ele>
<time>2020-09-10T10:56:57Z</time>
</trkpt>
<trkpt lat="48.338902" lon="10.321143">
<ele>502</ele>
<time>2020-09-10T10:57:02Z</time>
</trkpt>
<trkpt lat="48.33852" lon="10.320692">
<ele>498</ele>
<time>2020-09-10T10:57:07Z</time>
</trkpt>
<trkpt lat="48.33815" lon="10.320165">
<ele>494</ele>
<time>2020-09-10T10:57:12Z</time>
</trkpt>
<trkpt lat="48.337913" lon="10.319872">
<ele>491</ele>
<time>2020-09-10T10:57:17Z</time>
</trkpt>
<trkpt lat="48.337783" lon="10.31944">
<ele>489</ele>
<time>2020-09-10T10:57:22Z</time>
</trkpt>
<trkpt lat="48.337668" lon="10.318967">
<ele>488</ele>
<time>2020-09-10T10:57:27Z</time>
</trkpt>
<trkpt lat="48.337513" lon="10.318697">
<ele>487</ele>
<time>2020-09-10T10:57:32Z</time>
</trkpt>
<trkpt lat="48.337155" lon="10.318887">
<ele>487</ele>
<time>2020-09-10T10:57:37Z</time>
</trkpt>
<trkpt lat="48.336763" lon="10.31913">
<ele>486</ele>
<time>2020-09-10T10:57:42Z</time>
</trkpt>
<trkpt lat="48.33645" lon="10.319465">
<ele>486</ele>
<time>2020-09-10T10:57:47Z</time>
</trkpt>
<trkpt lat="48.33616" lon="10.319803">
<ele>486</ele>
<time>2020-09-10T10:57:52Z</time>
</trkpt>
<trkpt lat="48.335835" lon="10.320088">
<ele>486</ele>
<time>2020-09-10T10:57:57Z</time>
</trkpt>
<trkpt lat="48.335508" lon="10.320352">
<ele>486</ele>
<time>2020-09-10T10:58:02Z</time>
</trkpt>
<trkpt lat="48.335165" lon="10.320592">
<ele>486</ele>
<time>2020-09-10T10:58:07Z</time>
</trkpt>
<trkpt lat="48.334793" lon="10.320762">
<ele>486</ele>
<time>2020-09-10T10:58:12Z</time>
</trkpt>
<trkpt lat="48.33444" lon="10.320885">
<ele>486</ele>
<time>2020-09-10T10:58:17Z</time>
</trkpt>
<trkpt lat="48.33409" lon="10.321028">
<ele>487</ele>
<time>2020-09-10T10:58:22Z</time>
</trkpt>
<trkpt lat="48.333722" lon="10.321253">
<ele>487</ele>
<time>2020-09-10T10:58:27Z</time>
</trkpt>
<trkpt lat="48.333362" lon="10.321525">
<ele>487</ele>
<time>2020-09-10T10:58:32Z</time>
</trkpt>
<trkpt lat="48.333027" lon="10.32177">
<ele>487</ele>
<time>2020-09-10T10:58:37Z</time>
</trkpt>
<trkpt lat="48.332693" lon="10.322045">
<ele>487</ele>
<time>2020-09-10T10:58:42Z</time>
</trkpt>
<trkpt lat="48.332352" lon="10.322305">
<ele>487</ele>
<time>2020-09-10T10:58:47Z</time>
</trkpt>
<trkpt lat="48.331998" lon="10.322548">
<ele>488</ele>
<time>2020-09-10T10:58:52Z</time>
</trkpt>
<trkpt lat="48.331647" lon="10.32277">
<ele>488</ele>
<time>2020-09-10T10:58:57Z</time>
</trkpt>
<trkpt lat="48.331298" lon="10.322972">
<ele>489</ele>
<time>2020-09-10T10:59:02Z</time>
</trkpt>
<trkpt lat="48.330947" lon="10.323178">
<ele>489</ele>
<time>2020-09-10T10:59:07Z</time>
</trkpt>
<trkpt lat="48.33059" lon="10.32338">
<ele>489</ele>
<time>2020-09-10T10:59:12Z</time>
</trkpt>
<trkpt lat="48.33022" lon="10.323542">
<ele>489</ele>
<time>2020-09-10T10:59:17Z</time>
</trkpt>
<trkpt lat="48.329852" lon="10.323612">
<ele>489</ele>
<time>2020-09-10T10:59:22Z</time>
</trkpt>
<trkpt lat="48.329473" lon="10.323583">
<ele>489</ele>
<time>2020-09-10T10:59:27Z</time>
</trkpt>
<trkpt lat="48.329138" lon="10.32347">
<ele>487</ele>
<time>2020-09-10T10:59:32Z</time>
</trkpt>
<trkpt lat="48.328925" lon="10.323748">
<ele>487</ele>
<time>2020-09-10T10:59:37Z</time>
</trkpt>
<trkpt lat="48.328745" lon="10.324173">
<ele>487</ele>
<time>2020-09-10T10:59:42Z</time>
</trkpt>
<trkpt lat="48.328568" lon="10.324572">
<ele>486</ele>
<time>2020-09-10T10:59:47Z</time>
</trkpt>
<trkpt lat="48.328413" lon="10.324847">
<ele>486</ele>
<time>2020-09-10T10:59:52Z</time>
</trkpt>
<trkpt lat="48.328258" lon="10.325008">
<ele>487</ele>
<time>2020-09-10T10:59:57Z</time>
</trkpt>
<trkpt lat="48.328127" lon="10.3251">
<ele>487</ele>
<time>2020-09-10T11:00:02Z</time>
</trkpt>
<trkpt lat="48.328047" lon="10.325137">
<ele>487</ele>
<time>2020-09-10T11:00:07Z</time>
</trkpt>
<trkpt lat="48.328033" lon="10.325137">
<ele>487</ele>
<time>2020-09-10T11:00:10Z</time>
</trkpt>
<trkpt lat="48.327945" lon="10.325182">
<ele>487</ele>
<time>2020-09-10T11:00:15Z</time>
</trkpt>
<trkpt lat="48.327803" lon="10.32527">
<ele>487</ele>
<time>2020-09-10T11:00:20Z</time>
</trkpt>
<trkpt lat="48.3276" lon="10.325395">
<ele>487</ele>
<time>2020-09-10T11:00:25Z</time>
</trkpt>
<trkpt lat="48.327373" lon="10.32554">
<ele>487</ele>
<time>2020-09-10T11:00:30Z</time>
</trkpt>
<trkpt lat="48.327125" lon="10.325707">
<ele>487</ele>
<time>2020-09-10T11:00:35Z</time>
</trkpt>
<trkpt lat="48.32686" lon="10.325867">
<ele>487</ele>
<time>2020-09-10T11:00:40Z</time>
</trkpt>
<trkpt lat="48.326577" lon="10.32604">
<ele>487</ele>
<time>2020-09-10T11:00:45Z</time>
</trkpt>
<trkpt lat="48.326278" lon="10.32621">
<ele>487</ele>
<time>2020-09-10T11:00:50Z</time>
</trkpt>
<trkpt lat="48.325965" lon="10.326377">
<ele>487</ele>
<time>2020-09-10T11:00:55Z</time>
</trkpt>
<trkpt lat="48.325643" lon="10.326537">
<ele>487</ele>
<time>2020-09-10T11:01:00Z</time>
</trkpt>
<trkpt lat="48.325318" lon="10.326692">
<ele>487</ele>
<time>2020-09-10T11:01:05Z</time>
</trkpt>
<trkpt lat="48.32499" lon="10.32683">
<ele>487</ele>
<time>2020-09-10T11:01:10Z</time>
</trkpt>
<trkpt lat="48.324663" lon="10.326963">
<ele>487</ele>
<time>2020-09-10T11:01:15Z</time>
</trkpt>
<trkpt lat="48.32432" lon="10.327103">
<ele>487</ele>
<time>2020-09-10T11:01:20Z</time>
</trkpt>
<trkpt lat="48.323977" lon="10.32725">
<ele>487</ele>
<time>2020-09-10T11:01:25Z</time>
</trkpt>
<trkpt lat="48.323633" lon="10.32739">
<ele>487</ele>
<time>2020-09-10T11:01:30Z</time>
</trkpt>
<trkpt lat="48.323292" lon="10.327527">
<ele>487</ele>
<time>2020-09-10T11:01:35Z</time>
</trkpt>
<trkpt lat="48.322948" lon="10.327673">
<ele>487</ele>
<time>2020-09-10T11:01:40Z</time>
</trkpt>
<trkpt lat="48.322607" lon="10.32782">
<ele>487</ele>
<time>2020-09-10T11:01:45Z</time>
</trkpt>
<trkpt lat="48.322265" lon="10.327957">
<ele>488</ele>
<time>2020-09-10T11:01:50Z</time>
</trkpt>
<trkpt lat="48.321933" lon="10.3281">
<ele>488</ele>
<time>2020-09-10T11:01:55Z</time>
</trkpt>
<trkpt lat="48.321595" lon="10.328243">
<ele>488</ele>
<time>2020-09-10T11:02:00Z</time>
</trkpt>
<trkpt lat="48.321253" lon="10.328387">
<ele>488</ele>
<time>2020-09-10T11:02:05Z</time>
</trkpt>
<trkpt lat="48.320923" lon="10.328525">
<ele>489</ele>
<time>2020-09-10T11:02:10Z</time>
</trkpt>
<trkpt lat="48.320585" lon="10.328665">
<ele>489</ele>
<time>2020-09-10T11:02:15Z</time>
</trkpt>
<trkpt lat="48.32025" lon="10.32884">
<ele>489</ele>
<time>2020-09-10T11:02:20Z</time>
</trkpt>
<trkpt lat="48.319927" lon="10.329067">
<ele>489</ele>
<time>2020-09-10T11:02:25Z</time>
</trkpt>
<trkpt lat="48.31961" lon="10.32931">
<ele>489</ele>
<time>2020-09-10T11:02:30Z</time>
</trkpt>
<trkpt lat="48.319298" lon="10.32954">
<ele>489</ele>
<time>2020-09-10T11:02:35Z</time>
</trkpt>
<trkpt lat="48.318997" lon="10.329775">
<ele>489</ele>
<time>2020-09-10T11:02:40Z</time>
</trkpt>
<trkpt lat="48.318692" lon="10.33001">
<ele>489</ele>
<time>2020-09-10T11:02:45Z</time>
</trkpt>
<trkpt lat="48.318388" lon="10.330225">
<ele>489</ele>
<time>2020-09-10T11:02:50Z</time>
</trkpt>
<trkpt lat="48.318087" lon="10.33046">
<ele>489</ele>
<time>2020-09-10T11:02:55Z</time>
</trkpt>
<trkpt lat="48.317815" lon="10.330735">
<ele>489</ele>
<time>2020-09-10T11:03:00Z</time>
</trkpt>
<trkpt lat="48.317592" lon="10.331037">
<ele>490</ele>
<time>2020-09-10T11:03:05Z</time>
</trkpt>
<trkpt lat="48.317318" lon="10.331198">
<ele>490</ele>
<time>2020-09-10T11:03:10Z</time>
</trkpt>
<trkpt lat="48.316978" lon="10.331322">
<ele>490</ele>
<time>2020-09-10T11:03:15Z</time>
</trkpt>
<trkpt lat="48.31668" lon="10.331568">
<ele>490</ele>
<time>2020-09-10T11:03:20Z</time>
</trkpt>
<trkpt lat="48.316477" lon="10.33199">
<ele>490</ele>
<time>2020-09-10T11:03:25Z</time>
</trkpt>
<trkpt lat="48.316495" lon="10.332477">
<ele>490</ele>
<time>2020-09-10T11:03:30Z</time>
</trkpt>
<trkpt lat="48.316598" lon="10.3329">
<ele>491</ele>
<time>2020-09-10T11:03:35Z</time>
</trkpt>
<trkpt lat="48.316658" lon="10.333253">
<ele>492</ele>
<time>2020-09-10T11:03:40Z</time>
</trkpt>
<trkpt lat="48.316587" lon="10.333353">
<ele>493</ele>
<time>2020-09-10T11:03:45Z</time>
</trkpt>
<trkpt lat="48.31634" lon="10.333365">
<ele>493</ele>
<time>2020-09-10T11:03:50Z</time>
</trkpt>
<trkpt lat="48.31604" lon="10.333498">
<ele>493</ele>
<time>2020-09-10T11:03:55Z</time>
</trkpt>
<trkpt lat="48.315717" lon="10.333718">
<ele>493</ele>
<time>2020-09-10T11:04:00Z</time>
</trkpt>
<trkpt lat="48.315378" lon="10.33394">
<ele>492</ele>
<time>2020-09-10T11:04:05Z</time>
</trkpt>
<trkpt lat="48.315043" lon="10.334162">
<ele>492</ele>
<time>2020-09-10T11:04:10Z</time>
</trkpt>
<trkpt lat="48.31475" lon="10.33444">
<ele>492</ele>
<time>2020-09-10T11:04:15Z</time>
</trkpt>
<trkpt lat="48.314492" lon="10.334775">
<ele>492</ele>
<time>2020-09-10T11:04:20Z</time>
</trkpt>
<trkpt lat="48.3142" lon="10.335057">
<ele>492</ele>
<time>2020-09-10T11:04:25Z</time>
</trkpt>
<trkpt lat="48.31389" lon="10.335227">
<ele>492</ele>
<time>2020-09-10T11:04:30Z</time>
</trkpt>
<trkpt lat="48.313598" lon="10.334988">
<ele>493</ele>
<time>2020-09-10T11:04:35Z</time>
</trkpt>
<trkpt lat="48.313302" lon="10.33474">
<ele>493</ele>
<time>2020-09-10T11:04:40Z</time>
</trkpt>
<trkpt lat="48.312945" lon="10.334678">
<ele>493</ele>
<time>2020-09-10T11:04:45Z</time>
</trkpt>
<trkpt lat="48.312593" lon="10.334617">
<ele>493</ele>
<time>2020-09-10T11:04:50Z</time>
</trkpt>
<trkpt lat="48.31224" lon="10.334557">
<ele>493</ele>
<time>2020-09-10T11:04:55Z</time>
</trkpt>
<trkpt lat="48.31188" lon="10.334503">
<ele>493</ele>
<time>2020-09-10T11:05:00Z</time>
</trkpt>
<trkpt lat="48.311513" lon="10.334515">
<ele>493</ele>
<time>2020-09-10T11:05:05Z</time>
</trkpt>
<trkpt lat="48.311153" lon="10.334623">
<ele>493</ele>
<time>2020-09-10T11:05:10Z</time>
</trkpt>
<trkpt lat="48.310812" lon="10.334773">
<ele>493</ele>
<time>2020-09-10T11:05:15Z</time>
</trkpt>
<trkpt lat="48.310477" lon="10.334928">
<ele>493</ele>
<time>2020-09-10T11:05:20Z</time>
</trkpt>
<trkpt lat="48.310148" lon="10.335128">
<ele>493</ele>
<time>2020-09-10T11:05:25Z</time>
</trkpt>
<trkpt lat="48.309833" lon="10.335345">
<ele>493</ele>
<time>2020-09-10T11:05:30Z</time>
</trkpt>
<trkpt lat="48.309517" lon="10.335565">
<ele>494</ele>
<time>2020-09-10T11:05:35Z</time>
</trkpt>
<trkpt lat="48.309207" lon="10.335817">
<ele>494</ele>
<time>2020-09-10T11:05:40Z</time>
</trkpt>
<trkpt lat="48.308895" lon="10.336063">
<ele>494</ele>
<time>2020-09-10T11:05:45Z</time>
</trkpt>
<trkpt lat="48.30856" lon="10.336242">
<ele>494</ele>
<time>2020-09-10T11:05:50Z</time>
</trkpt>
<trkpt lat="48.308222" lon="10.336363">
<ele>495</ele>
<time>2020-09-10T11:05:55Z</time>
</trkpt>
<trkpt lat="48.30787" lon="10.336395">
<ele>495</ele>
<time>2020-09-10T11:06:00Z</time>
</trkpt>
<trkpt lat="48.307523" lon="10.336322">
<ele>495</ele>
<time>2020-09-10T11:06:05Z</time>
</trkpt>
<trkpt lat="48.307215" lon="10.336293">
<ele>495</ele>
<time>2020-09-10T11:06:10Z</time>
</trkpt>
<trkpt lat="48.30692" lon="10.33605">
<ele>495</ele>
<time>2020-09-10T11:06:15Z</time>
</trkpt>
<trkpt lat="48.306633" lon="10.335688">
<ele>495</ele>
<time>2020-09-10T11:06:20Z</time>
</trkpt>
<trkpt lat="48.30638" lon="10.335257">
<ele>495</ele>
<time>2020-09-10T11:06:25Z</time>
</trkpt>
<trkpt lat="48.30612" lon="10.33484">
<ele>495</ele>
<time>2020-09-10T11:06:30Z</time>
</trkpt>
<trkpt lat="48.30583" lon="10.334503">
<ele>495</ele>
<time>2020-09-10T11:06:35Z</time>
</trkpt>
<trkpt lat="48.305512" lon="10.334225">
<ele>495</ele>
<time>2020-09-10T11:06:40Z</time>
</trkpt>
<trkpt lat="48.30517" lon="10.334045">
<ele>495</ele>
<time>2020-09-10T11:06:45Z</time>
</trkpt>
<trkpt lat="48.304807" lon="10.333973">
<ele>495</ele>
<time>2020-09-10T11:06:50Z</time>
</trkpt>
<trkpt lat="48.304435" lon="10.333942">
<ele>495</ele>
<time>2020-09-10T11:06:55Z</time>
</trkpt>
<trkpt lat="48.30406" lon="10.333908">
<ele>495</ele>
<time>2020-09-10T11:07:00Z</time>
</trkpt>
<trkpt lat="48.303693" lon="10.333875">
<ele>495</ele>
<time>2020-09-10T11:07:05Z</time>
</trkpt>
<trkpt lat="48.303327" lon="10.333873">
<ele>495</ele>
<time>2020-09-10T11:07:10Z</time>
</trkpt>
<trkpt lat="48.302965" lon="10.333985">
<ele>495</ele>
<time>2020-09-10T11:07:15Z</time>
</trkpt>
<trkpt lat="48.302607" lon="10.334142">
<ele>495</ele>
<time>2020-09-10T11:07:20Z</time>
</trkpt>
<trkpt lat="48.30226" lon="10.334317">
<ele>496</ele>
<time>2020-09-10T11:07:25Z</time>
</trkpt>
<trkpt lat="48.301908" lon="10.334448">
<ele>496</ele>
<time>2020-09-10T11:07:30Z</time>
</trkpt>
<trkpt lat="48.301552" lon="10.334515">
<ele>497</ele>
<time>2020-09-10T11:07:35Z</time>
</trkpt>
<trkpt lat="48.301233" lon="10.334465">
<ele>497</ele>
<time>2020-09-10T11:07:40Z</time>
</trkpt>
<trkpt lat="48.300927" lon="10.334408">
<ele>497</ele>
<time>2020-09-10T11:07:45Z</time>
</trkpt>
<trkpt lat="48.300638" lon="10.33435">
<ele>497</ele>
<time>2020-09-10T11:07:50Z</time>
</trkpt>
<trkpt lat="48.300393" lon="10.334375">
<ele>497</ele>
<time>2020-09-10T11:07:55Z</time>
</trkpt>
<trkpt lat="48.300195" lon="10.334508">
<ele>497</ele>
<time>2020-09-10T11:08:00Z</time>
</trkpt>
<trkpt lat="48.300013" lon="10.334747">
<ele>497</ele>
<time>2020-09-10T11:08:05Z</time>
</trkpt>
<trkpt lat="48.299785" lon="10.33478">
<ele>498</ele>
<time>2020-09-10T11:08:10Z</time>
</trkpt>
<trkpt lat="48.299538" lon="10.334725">
<ele>498</ele>
<time>2020-09-10T11:08:15Z</time>
</trkpt>
<trkpt lat="48.299317" lon="10.334603">
<ele>499</ele>
<time>2020-09-10T11:08:20Z</time>
</trkpt>
<trkpt lat="48.29915" lon="10.33445">
<ele>499</ele>
<time>2020-09-10T11:08:25Z</time>
</trkpt>
<trkpt lat="48.29891" lon="10.334298">
<ele>499</ele>
<time>2020-09-10T11:08:30Z</time>
</trkpt>
<trkpt lat="48.298603" lon="10.334102">
<ele>499</ele>
<time>2020-09-10T11:08:35Z</time>
</trkpt>
<trkpt lat="48.29824" lon="10.333868">
<ele>498</ele>
<time>2020-09-10T11:08:40Z</time>
</trkpt>
<trkpt lat="48.297883" lon="10.333665">
<ele>497</ele>
<time>2020-09-10T11:08:45Z</time>
</trkpt>
<trkpt lat="48.297573" lon="10.33348">
<ele>497</ele>
<time>2020-09-10T11:08:50Z</time>
</trkpt>
<trkpt lat="48.29727" lon="10.333262">
<ele>497</ele>
<time>2020-09-10T11:08:55Z</time>
</trkpt>
<trkpt lat="48.296963" lon="10.333013">
<ele>497</ele>
<time>2020-09-10T11:09:00Z</time>
</trkpt>
<trkpt lat="48.29666" lon="10.332753">
<ele>497</ele>
<time>2020-09-10T11:09:05Z</time>
</trkpt>
<trkpt lat="48.296363" lon="10.332487">
<ele>497</ele>
<time>2020-09-10T11:09:10Z</time>
</trkpt>
<trkpt lat="48.29607" lon="10.33224">
<ele>497</ele>
<time>2020-09-10T11:09:15Z</time>
</trkpt>
<trkpt lat="48.2958" lon="10.332017">
<ele>497</ele>
<time>2020-09-10T11:09:20Z</time>
</trkpt>
<trkpt lat="48.29548" lon="10.331813">
<ele>498</ele>
<time>2020-09-10T11:09:25Z</time>
</trkpt>
<trkpt lat="48.295123" lon="10.33167">
<ele>498</ele>
<time>2020-09-10T11:09:30Z</time>
</trkpt>
<trkpt lat="48.294757" lon="10.33162">
<ele>498</ele>
<time>2020-09-10T11:09:35Z</time>
</trkpt>
<trkpt lat="48.29438" lon="10.331607">
<ele>498</ele>
<time>2020-09-10T11:09:40Z</time>
</trkpt>
<trkpt lat="48.294003" lon="10.331575">
<ele>498</ele>
<time>2020-09-10T11:09:45Z</time>
</trkpt>
<trkpt lat="48.293603" lon="10.331545">
<ele>498</ele>
<time>2020-09-10T11:09:50Z</time>
</trkpt>
<trkpt lat="48.29318" lon="10.331503">
<ele>498</ele>
<time>2020-09-10T11:09:55Z</time>
</trkpt>
<trkpt lat="48.292777" lon="10.331475">
<ele>498</ele>
<time>2020-09-10T11:10:00Z</time>
</trkpt>
<trkpt lat="48.292407" lon="10.33146">
<ele>498</ele>
<time>2020-09-10T11:10:05Z</time>
</trkpt>
<trkpt lat="48.29208" lon="10.33144">
<ele>498</ele>
<time>2020-09-10T11:10:10Z</time>
</trkpt>
<trkpt lat="48.291727" lon="10.331407">
<ele>498</ele>
<time>2020-09-10T11:10:15Z</time>
</trkpt>
<trkpt lat="48.29135" lon="10.331363">
<ele>498</ele>
<time>2020-09-10T11:10:20Z</time>
</trkpt>
<trkpt lat="48.290975" lon="10.331342">
<ele>498</ele>
<time>2020-09-10T11:10:25Z</time>
</trkpt>
<trkpt lat="48.290595" lon="10.33135">
<ele>498</ele>
<time>2020-09-10T11:10:30Z</time>
</trkpt>
<trkpt lat="48.290213" lon="10.331397">
<ele>498</ele>
<time>2020-09-10T11:10:35Z</time>
</trkpt>
<trkpt lat="48.289825" lon="10.331483">
<ele>498</ele>
<time>2020-09-10T11:10:40Z</time>
</trkpt>
<trkpt lat="48.289455" lon="10.331623">
<ele>498</ele>
<time>2020-09-10T11:10:45Z</time>
</trkpt>
<trkpt lat="48.2891" lon="10.33178">
<ele>498</ele>
<time>2020-09-10T11:10:50Z</time>
</trkpt>
<trkpt lat="48.288772" lon="10.331945">
<ele>499</ele>
<time>2020-09-10T11:10:55Z</time>
</trkpt>
<trkpt lat="48.288448" lon="10.332098">
<ele>499</ele>
<time>2020-09-10T11:11:00Z</time>
</trkpt>
<trkpt lat="48.288135" lon="10.33225">
<ele>500</ele>
<time>2020-09-10T11:11:05Z</time>
</trkpt>
<trkpt lat="48.287847" lon="10.332393">
<ele>501</ele>
<time>2020-09-10T11:11:10Z</time>
</trkpt>
<trkpt lat="48.287588" lon="10.332537">
<ele>503</ele>
<time>2020-09-10T11:11:15Z</time>
</trkpt>
<trkpt lat="48.28733" lon="10.332642">
<ele>504</ele>
<time>2020-09-10T11:11:20Z</time>
</trkpt>
<trkpt lat="48.28708" lon="10.332743">
<ele>505</ele>
<time>2020-09-10T11:11:25Z</time>
</trkpt>
<trkpt lat="48.286833" lon="10.332832">
<ele>507</ele>
<time>2020-09-10T11:11:30Z</time>
</trkpt>
<trkpt lat="48.286597" lon="10.332923">
<ele>508</ele>
<time>2020-09-10T11:11:35Z</time>
</trkpt>
<trkpt lat="48.286373" lon="10.332998">
<ele>509</ele>
<time>2020-09-10T11:11:40Z</time>
</trkpt>
<trkpt lat="48.286158" lon="10.333072">
<ele>511</ele>
<time>2020-09-10T11:11:45Z</time>
</trkpt>
<trkpt lat="48.285945" lon="10.333143">
<ele>512</ele>
<time>2020-09-10T11:11:50Z</time>
</trkpt>
<trkpt lat="48.285755" lon="10.333198">
<ele>514</ele>
<time>2020-09-10T11:11:55Z</time>
</trkpt>
<trkpt lat="48.285548" lon="10.333267">
<ele>515</ele>
<time>2020-09-10T11:12:00Z</time>
</trkpt>
<trkpt lat="48.285345" lon="10.333325">
<ele>516</ele>
<time>2020-09-10T11:12:05Z</time>
</trkpt>
<trkpt lat="48.285137" lon="10.333377">
<ele>517</ele>
<time>2020-09-10T11:12:10Z</time>
</trkpt>
<trkpt lat="48.284915" lon="10.33342">
<ele>518</ele>
<time>2020-09-10T11:12:15Z</time>
</trkpt>
<trkpt lat="48.284663" lon="10.333525">
<ele>519</ele>
<time>2020-09-10T11:12:21Z</time>
</trkpt>
<trkpt lat="48.284402" lon="10.333575">
<ele>520</ele>
<time>2020-09-10T11:12:27Z</time>
</trkpt>
<trkpt lat="48.284167" lon="10.333628">
<ele>521</ele>
<time>2020-09-10T11:12:32Z</time>
</trkpt>
<trkpt lat="48.283922" lon="10.333683">
<ele>522</ele>
<time>2020-09-10T11:12:37Z</time>
</trkpt>
<trkpt lat="48.283678" lon="10.333758">
<ele>523</ele>
<time>2020-09-10T11:12:42Z</time>
</trkpt>
<trkpt lat="48.28344" lon="10.33381">
<ele>523</ele>
<time>2020-09-10T11:12:47Z</time>
</trkpt>
<trkpt lat="48.283265" lon="10.333777">
<ele>524</ele>
<time>2020-09-10T11:12:52Z</time>
</trkpt>
<trkpt lat="48.28304" lon="10.333957">
<ele>524</ele>
<time>2020-09-10T11:12:57Z</time>
</trkpt>
<trkpt lat="48.282803" lon="10.334155">
<ele>524</ele>
<time>2020-09-10T11:13:02Z</time>
</trkpt>
<trkpt lat="48.282522" lon="10.33443">
<ele>525</ele>
<time>2020-09-10T11:13:08Z</time>
</trkpt>
<trkpt lat="48.282255" lon="10.334693">
<ele>525</ele>
<time>2020-09-10T11:13:13Z</time>
</trkpt>
<trkpt lat="48.28197" lon="10.334987">
<ele>525</ele>
<time>2020-09-10T11:13:18Z</time>
</trkpt>
<trkpt lat="48.281692" lon="10.335282">
<ele>525</ele>
<time>2020-09-10T11:13:23Z</time>
</trkpt>
<trkpt lat="48.281422" lon="10.335562">
<ele>525</ele>
<time>2020-09-10T11:13:28Z</time>
</trkpt>
<trkpt lat="48.281143" lon="10.335838">
<ele>526</ele>
<time>2020-09-10T11:13:33Z</time>
</trkpt>
<trkpt lat="48.280767" lon="10.336123">
<ele>526</ele>
<time>2020-09-10T11:13:39Z</time>
</trkpt>
<trkpt lat="48.280452" lon="10.336325">
<ele>526</ele>
<time>2020-09-10T11:13:44Z</time>
</trkpt>
<trkpt lat="48.280148" lon="10.336478">
<ele>527</ele>
<time>2020-09-10T11:13:49Z</time>
</trkpt>
<trkpt lat="48.279855" lon="10.336593">
<ele>527</ele>
<time>2020-09-10T11:13:54Z</time>
</trkpt>
<trkpt lat="48.279538" lon="10.336728">
<ele>528</ele>
<time>2020-09-10T11:13:59Z</time>
</trkpt>
<trkpt lat="48.279227" lon="10.336888">
<ele>528</ele>
<time>2020-09-10T11:14:04Z</time>
</trkpt>
<trkpt lat="48.278832" lon="10.33702">
<ele>528</ele>
<time>2020-09-10T11:14:10Z</time>
</trkpt>
<trkpt lat="48.278493" lon="10.337143">
<ele>529</ele>
<time>2020-09-10T11:14:15Z</time>
</trkpt>
<trkpt lat="48.278077" lon="10.337288">
<ele>529</ele>
<time>2020-09-10T11:14:21Z</time>
</trkpt>
<trkpt lat="48.277723" lon="10.337418">
<ele>529</ele>
<time>2020-09-10T11:14:26Z</time>
</trkpt>
<trkpt lat="48.277382" lon="10.337552">
<ele>529</ele>
<time>2020-09-10T11:14:31Z</time>
</trkpt>
<trkpt lat="48.27705" lon="10.33773">
<ele>529</ele>
<time>2020-09-10T11:14:36Z</time>
</trkpt>
<trkpt lat="48.276667" lon="10.337935">
<ele>529</ele>
<time>2020-09-10T11:14:42Z</time>
</trkpt>
<trkpt lat="48.276352" lon="10.338123">
<ele>530</ele>
<time>2020-09-10T11:14:47Z</time>
</trkpt>
<trkpt lat="48.276053" lon="10.338303">
<ele>531</ele>
<time>2020-09-10T11:14:52Z</time>
</trkpt>
<trkpt lat="48.275775" lon="10.338467">
<ele>533</ele>
<time>2020-09-10T11:14:57Z</time>
</trkpt>
<trkpt lat="48.275457" lon="10.338663">
<ele>534</ele>
<time>2020-09-10T11:15:03Z</time>
</trkpt>
<trkpt lat="48.275197" lon="10.338853">
<ele>536</ele>
<time>2020-09-10T11:15:08Z</time>
</trkpt>
<trkpt lat="48.274932" lon="10.339053">
<ele>536</ele>
<time>2020-09-10T11:15:13Z</time>
</trkpt>
<trkpt lat="48.274662" lon="10.339252">
<ele>537</ele>
<time>2020-09-10T11:15:18Z</time>
</trkpt>
<trkpt lat="48.274347" lon="10.339563">
<ele>537</ele>
<time>2020-09-10T11:15:24Z</time>
</trkpt>
<trkpt lat="48.27408" lon="10.33978">
<ele>537</ele>
<time>2020-09-10T11:15:29Z</time>
</trkpt>
<trkpt lat="48.273825" lon="10.339973">
<ele>539</ele>
<time>2020-09-10T11:15:34Z</time>
</trkpt>
<trkpt lat="48.273545" lon="10.340197">
<ele>540</ele>
<time>2020-09-10T11:15:40Z</time>
</trkpt>
<trkpt lat="48.27327" lon="10.340413">
<ele>542</ele>
<time>2020-09-10T11:15:46Z</time>
</trkpt>
<trkpt lat="48.272997" lon="10.340627">
<ele>543</ele>
<time>2020-09-10T11:15:52Z</time>
</trkpt>
<trkpt lat="48.27273" lon="10.340838">
<ele>545</ele>
<time>2020-09-10T11:15:58Z</time>
</trkpt>
<trkpt lat="48.272462" lon="10.341052">
<ele>546</ele>
<time>2020-09-10T11:16:04Z</time>
</trkpt>
<trkpt lat="48.272247" lon="10.341217">
<ele>547</ele>
<time>2020-09-10T11:16:09Z</time>
</trkpt>
<trkpt lat="48.272032" lon="10.341388">
<ele>548</ele>
<time>2020-09-10T11:16:14Z</time>
</trkpt>
<trkpt lat="48.271817" lon="10.34156">
<ele>550</ele>
<time>2020-09-10T11:16:19Z</time>
</trkpt>
<trkpt lat="48.271562" lon="10.341763">
<ele>551</ele>
<time>2020-09-10T11:16:25Z</time>
</trkpt>
<trkpt lat="48.271347" lon="10.341938">
<ele>552</ele>
<time>2020-09-10T11:16:30Z</time>
</trkpt>
<trkpt lat="48.271127" lon="10.34211">
<ele>553</ele>
<time>2020-09-10T11:16:35Z</time>
</trkpt>
<trkpt lat="48.270905" lon="10.342287">
<ele>554</ele>
<time>2020-09-10T11:16:40Z</time>
</trkpt>
<trkpt lat="48.270637" lon="10.342508">
<ele>555</ele>
<time>2020-09-10T11:16:46Z</time>
</trkpt>
<trkpt lat="48.2704" lon="10.342683">
<ele>555</ele>
<time>2020-09-10T11:16:51Z</time>
</trkpt>
<trkpt lat="48.270153" lon="10.342862">
<ele>556</ele>
<time>2020-09-10T11:16:56Z</time>
</trkpt>
<trkpt lat="48.2699" lon="10.34304">
<ele>557</ele>
<time>2020-09-10T11:17:01Z</time>
</trkpt>
<trkpt lat="48.269602" lon="10.343227">
<ele>559</ele>
<time>2020-09-10T11:17:07Z</time>
</trkpt>
<trkpt lat="48.269355" lon="10.343388">
<ele>560</ele>
<time>2020-09-10T11:17:12Z</time>
</trkpt>
<trkpt lat="48.26909" lon="10.343548">
<ele>560</ele>
<time>2020-09-10T11:17:17Z</time>
</trkpt>
<trkpt lat="48.268798" lon="10.343715">
<ele>560</ele>
<time>2020-09-10T11:17:22Z</time>
</trkpt>
<trkpt lat="48.268417" lon="10.343898">
<ele>560</ele>
<time>2020-09-10T11:17:28Z</time>
</trkpt>
<trkpt lat="48.26808" lon="10.344005">
<ele>560</ele>
<time>2020-09-10T11:17:33Z</time>
</trkpt>
<trkpt lat="48.267728" lon="10.344085">
<ele>560</ele>
<time>2020-09-10T11:17:38Z</time>
</trkpt>
<trkpt lat="48.267368" lon="10.34415">
<ele>560</ele>
<time>2020-09-10T11:17:43Z</time>
</trkpt>
<trkpt lat="48.267013" lon="10.344217">
<ele>560</ele>
<time>2020-09-10T11:17:48Z</time>
</trkpt>
<trkpt lat="48.26666" lon="10.344315">
<ele>560</ele>
<time>2020-09-10T11:17:53Z</time>
</trkpt>
<trkpt lat="48.266305" lon="10.344398">
<ele>560</ele>
<time>2020-09-10T11:17:58Z</time>
</trkpt>
<trkpt lat="48.265942" lon="10.344502">
<ele>560</ele>
<time>2020-09-10T11:18:03Z</time>
</trkpt>
<trkpt lat="48.265497" lon="10.344668">
<ele>560</ele>
<time>2020-09-10T11:18:09Z</time>
</trkpt>
<trkpt lat="48.265118" lon="10.344887">
<ele>559</ele>
<time>2020-09-10T11:18:14Z</time>
</trkpt>
<trkpt lat="48.264743" lon="10.345158">
<ele>558</ele>
<time>2020-09-10T11:18:19Z</time>
</trkpt>
<trkpt lat="48.2644" lon="10.345435">
<ele>557</ele>
<time>2020-09-10T11:18:24Z</time>
</trkpt>
<trkpt lat="48.264063" lon="10.345513">
<ele>555</ele>
<time>2020-09-10T11:18:29Z</time>
</trkpt>
<trkpt lat="48.263833" lon="10.345793">
<ele>554</ele>
<time>2020-09-10T11:18:34Z</time>
</trkpt>
<trkpt lat="48.263665" lon="10.346332">
<ele>552</ele>
<time>2020-09-10T11:18:40Z</time>
</trkpt>
<trkpt lat="48.26348" lon="10.3468">
<ele>551</ele>
<time>2020-09-10T11:18:45Z</time>
</trkpt>
<trkpt lat="48.263207" lon="10.347298">
<ele>550</ele>
<time>2020-09-10T11:18:50Z</time>
</trkpt>
<trkpt lat="48.26291" lon="10.347835">
<ele>548</ele>
<time>2020-09-10T11:18:55Z</time>
</trkpt>
<trkpt lat="48.262532" lon="10.348355">
<ele>544</ele>
<time>2020-09-10T11:19:00Z</time>
</trkpt>
<trkpt lat="48.262097" lon="10.348845">
<ele>543</ele>
<time>2020-09-10T11:19:05Z</time>
</trkpt>
<trkpt lat="48.261635" lon="10.349285">
<ele>539</ele>
<time>2020-09-10T11:19:10Z</time>
</trkpt>
<trkpt lat="48.261055" lon="10.349757">
<ele>537</ele>
<time>2020-09-10T11:19:16Z</time>
</trkpt>
<trkpt lat="48.260448" lon="10.350197">
<ele>534</ele>
<time>2020-09-10T11:19:22Z</time>
</trkpt>
<trkpt lat="48.259837" lon="10.35064">
<ele>530</ele>
<time>2020-09-10T11:19:28Z</time>
</trkpt>
<trkpt lat="48.259327" lon="10.35102">
<ele>527</ele>
<time>2020-09-10T11:19:33Z</time>
</trkpt>
<trkpt lat="48.258813" lon="10.351393">
<ele>525</ele>
<time>2020-09-10T11:19:38Z</time>
</trkpt>
<trkpt lat="48.258318" lon="10.351765">
<ele>523</ele>
<time>2020-09-10T11:19:43Z</time>
</trkpt>
<trkpt lat="48.25785" lon="10.35214">
<ele>522</ele>
<time>2020-09-10T11:19:48Z</time>
</trkpt>
<trkpt lat="48.257375" lon="10.352483">
<ele>520</ele>
<time>2020-09-10T11:19:53Z</time>
</trkpt>
<trkpt lat="48.256913" lon="10.352832">
<ele>519</ele>
<time>2020-09-10T11:19:58Z</time>
</trkpt>
<trkpt lat="48.256482" lon="10.353183">
<ele>519</ele>
<time>2020-09-10T11:20:03Z</time>
</trkpt>
<trkpt lat="48.256085" lon="10.353563">
<ele>517</ele>
<time>2020-09-10T11:20:08Z</time>
</trkpt>
<trkpt lat="48.25574" lon="10.353967">
<ele>517</ele>
<time>2020-09-10T11:20:13Z</time>
</trkpt>
<trkpt lat="48.25544" lon="10.35435">
<ele>517</ele>
<time>2020-09-10T11:20:18Z</time>
</trkpt>
<trkpt lat="48.255185" lon="10.35466">
<ele>516</ele>
<time>2020-09-10T11:20:23Z</time>
</trkpt>
<trkpt lat="48.25494" lon="10.354912">
<ele>516</ele>
<time>2020-09-10T11:20:28Z</time>
</trkpt>
<trkpt lat="48.254727" lon="10.355163">
<ele>515</ele>
<time>2020-09-10T11:20:33Z</time>
</trkpt>
<trkpt lat="48.254463" lon="10.355388">
<ele>515</ele>
<time>2020-09-10T11:20:38Z</time>
</trkpt>
<trkpt lat="48.254173" lon="10.35558">
<ele>515</ele>
<time>2020-09-10T11:20:43Z</time>
</trkpt>
<trkpt lat="48.25391" lon="10.35569">
<ele>515</ele>
<time>2020-09-10T11:20:48Z</time>
</trkpt>
<trkpt lat="48.253668" lon="10.355802">
<ele>515</ele>
<time>2020-09-10T11:20:53Z</time>
</trkpt>
<trkpt lat="48.253385" lon="10.35585">
<ele>515</ele>
<time>2020-09-10T11:20:58Z</time>
</trkpt>
<trkpt lat="48.253113" lon="10.35591">
<ele>515</ele>
<time>2020-09-10T11:21:04Z</time>
</trkpt>
<trkpt lat="48.253228" lon="10.356405">
<ele>516</ele>
<time>2020-09-10T11:21:10Z</time>
</trkpt>
<trkpt lat="48.25331" lon="10.356977">
<ele>516</ele>
<time>2020-09-10T11:21:15Z</time>
</trkpt>
<trkpt lat="48.253417" lon="10.357562">
<ele>514</ele>
<time>2020-09-10T11:21:20Z</time>
</trkpt>
<trkpt lat="48.25358" lon="10.358118">
<ele>512</ele>
<time>2020-09-10T11:21:25Z</time>
</trkpt>
<trkpt lat="48.253768" lon="10.35863">
<ele>512</ele>
<time>2020-09-10T11:21:30Z</time>
</trkpt>
<trkpt lat="48.253893" lon="10.359182">
<ele>511</ele>
<time>2020-09-10T11:21:35Z</time>
</trkpt>
<trkpt lat="48.253972" lon="10.35969">
<ele>511</ele>
<time>2020-09-10T11:21:40Z</time>
</trkpt>
<trkpt lat="48.254028" lon="10.360272">
<ele>511</ele>
<time>2020-09-10T11:21:46Z</time>
</trkpt>
<trkpt lat="48.254083" lon="10.360715">
<ele>511</ele>
<time>2020-09-10T11:21:51Z</time>
</trkpt>
<trkpt lat="48.254138" lon="10.361115">
<ele>513</ele>
<time>2020-09-10T11:21:56Z</time>
</trkpt>
<trkpt lat="48.254188" lon="10.361443">
<ele>514</ele>
<time>2020-09-10T11:22:01Z</time>
</trkpt>
<trkpt lat="48.253955" lon="10.361575">
<ele>515</ele>
<time>2020-09-10T11:22:06Z</time>
</trkpt>
<trkpt lat="48.253695" lon="10.361708">
<ele>515</ele>
<time>2020-09-10T11:22:11Z</time>
</trkpt>
<trkpt lat="48.253447" lon="10.361863">
<ele>515</ele>
<time>2020-09-10T11:22:16Z</time>
</trkpt>
<trkpt lat="48.253215" lon="10.36203">
<ele>515</ele>
<time>2020-09-10T11:22:21Z</time>
</trkpt>
<trkpt lat="48.253003" lon="10.362273">
<ele>516</ele>
<time>2020-09-10T11:22:26Z</time>
</trkpt>
<trkpt lat="48.252813" lon="10.362603">
<ele>516</ele>
<time>2020-09-10T11:22:31Z</time>
</trkpt>
<trkpt lat="48.252645" lon="10.362908">
<ele>517</ele>
<time>2020-09-10T11:22:36Z</time>
</trkpt>
<trkpt lat="48.252468" lon="10.363242">
<ele>517</ele>
<time>2020-09-10T11:22:41Z</time>
</trkpt>
<trkpt lat="48.25232" lon="10.363618">
<ele>518</ele>
<time>2020-09-10T11:22:46Z</time>
</trkpt>
<trkpt lat="48.252162" lon="10.363973">
<ele>518</ele>
<time>2020-09-10T11:22:51Z</time>
</trkpt>
<trkpt lat="48.251963" lon="10.36427">
<ele>518</ele>
<time>2020-09-10T11:22:56Z</time>
</trkpt>
<trkpt lat="48.251718" lon="10.364545">
<ele>518</ele>
<time>2020-09-10T11:23:01Z</time>
</trkpt>
<trkpt lat="48.2514" lon="10.364635">
<ele>518</ele>
<time>2020-09-10T11:23:06Z</time>
</trkpt>
<trkpt lat="48.251092" lon="10.364773">
<ele>518</ele>
<time>2020-09-10T11:23:11Z</time>
</trkpt>
<trkpt lat="48.250807" lon="10.364978">
<ele>518</ele>
<time>2020-09-10T11:23:16Z</time>
</trkpt>
<trkpt lat="48.250527" lon="10.365143">
<ele>518</ele>
<time>2020-09-10T11:23:21Z</time>
</trkpt>
<trkpt lat="48.250228" lon="10.365287">
<ele>518</ele>
<time>2020-09-10T11:23:26Z</time>
</trkpt>
<trkpt lat="48.249917" lon="10.365448">
<ele>518</ele>
<time>2020-09-10T11:23:31Z</time>
</trkpt>
<trkpt lat="48.249613" lon="10.365625">
<ele>518</ele>
<time>2020-09-10T11:23:36Z</time>
</trkpt>
<trkpt lat="48.249328" lon="10.365753">
<ele>518</ele>
<time>2020-09-10T11:23:41Z</time>
</trkpt>
<trkpt lat="48.249093" lon="10.365865">
<ele>518</ele>
<time>2020-09-10T11:23:46Z</time>
</trkpt>
<trkpt lat="48.249027" lon="10.365877">
<ele>516</ele>
<time>2020-09-10T11:23:51Z</time>
</trkpt>
<trkpt lat="48.249028" lon="10.365875">
<ele>516</ele>
<time>2020-09-10T11:23:54Z</time>
</trkpt>
<trkpt lat="48.248897" lon="10.365687">
<ele>516</ele>
<time>2020-09-10T11:23:59Z</time>
</trkpt>
<trkpt lat="48.248858" lon="10.365233">
<ele>516</ele>
<time>2020-09-10T11:24:04Z</time>
</trkpt>
<trkpt lat="48.248805" lon="10.364738">
<ele>515</ele>
<time>2020-09-10T11:24:09Z</time>
</trkpt>
<trkpt lat="48.248755" lon="10.364242">
<ele>515</ele>
<time>2020-09-10T11:24:14Z</time>
</trkpt>
<trkpt lat="48.248698" lon="10.363767">
<ele>514</ele>
<time>2020-09-10T11:24:19Z</time>
</trkpt>
<trkpt lat="48.248625" lon="10.363288">
<ele>514</ele>
<time>2020-09-10T11:24:24Z</time>
</trkpt>
<trkpt lat="48.248557" lon="10.362827">
<ele>514</ele>
<time>2020-09-10T11:24:29Z</time>
</trkpt>
<trkpt lat="48.248482" lon="10.362415">
<ele>514</ele>
<time>2020-09-10T11:24:34Z</time>
</trkpt>
<trkpt lat="48.248408" lon="10.362092">
<ele>514</ele>
<time>2020-09-10T11:24:39Z</time>
</trkpt>
<trkpt lat="48.248323" lon="10.362005">
<ele>514</ele>
<time>2020-09-10T11:24:44Z</time>
</trkpt>
<trkpt lat="48.248173" lon="10.362075">
<ele>514</ele>
<time>2020-09-10T11:24:49Z</time>
</trkpt>
<trkpt lat="48.247927" lon="10.362195">
<ele>514</ele>
<time>2020-09-10T11:24:54Z</time>
</trkpt>
<trkpt lat="48.247695" lon="10.362283">
<ele>514</ele>
<time>2020-09-10T11:24:59Z</time>
</trkpt>
<trkpt lat="48.247498" lon="10.362317">
<ele>514</ele>
<time>2020-09-10T11:25:04Z</time>
</trkpt>
<trkpt lat="48.247292" lon="10.362252">
<ele>514</ele>
<time>2020-09-10T11:25:09Z</time>
</trkpt>
<trkpt lat="48.247095" lon="10.36217">
<ele>514</ele>
<time>2020-09-10T11:25:14Z</time>
</trkpt>
<trkpt lat="48.24684" lon="10.362135">
<ele>514</ele>
<time>2020-09-10T11:25:19Z</time>
</trkpt>
<trkpt lat="48.246548" lon="10.36219">
<ele>514</ele>
<time>2020-09-10T11:25:24Z</time>
</trkpt>
<trkpt lat="48.24625" lon="10.362263">
<ele>514</ele>
<time>2020-09-10T11:25:29Z</time>
</trkpt>
<trkpt lat="48.245993" lon="10.362262">
<ele>514</ele>
<time>2020-09-10T11:25:34Z</time>
</trkpt>
<trkpt lat="48.24583" lon="10.362198">
<ele>514</ele>
<time>2020-09-10T11:25:39Z</time>
</trkpt>
<trkpt lat="48.245617" lon="10.3621">
<ele>513</ele>
<time>2020-09-10T11:25:44Z</time>
</trkpt>
<trkpt lat="48.245453" lon="10.362012">
<ele>513</ele>
<time>2020-09-10T11:25:49Z</time>
</trkpt>
<trkpt lat="48.24533" lon="10.361873">
<ele>513</ele>
<time>2020-09-10T11:25:54Z</time>
</trkpt>
<trkpt lat="48.245135" lon="10.361752">
<ele>513</ele>
<time>2020-09-10T11:25:59Z</time>
</trkpt>
<trkpt lat="48.244907" lon="10.361745">
<ele>513</ele>
<time>2020-09-10T11:26:04Z</time>
</trkpt>
<trkpt lat="48.244702" lon="10.361762">
<ele>513</ele>
<time>2020-09-10T11:26:09Z</time>
</trkpt>
<trkpt lat="48.244585" lon="10.361772">
<ele>514</ele>
<time>2020-09-10T11:26:14Z</time>
</trkpt>
<trkpt lat="48.244448" lon="10.361962">
<ele>514</ele>
<time>2020-09-10T11:26:19Z</time>
</trkpt>
<trkpt lat="48.244348" lon="10.36224">
<ele>514</ele>
<time>2020-09-10T11:26:24Z</time>
</trkpt>
<trkpt lat="48.24426" lon="10.362512">
<ele>514</ele>
<time>2020-09-10T11:26:29Z</time>
</trkpt>
<trkpt lat="48.244182" lon="10.362697">
<ele>514</ele>
<time>2020-09-10T11:26:34Z</time>
</trkpt>
<trkpt lat="48.244008" lon="10.362765">
<ele>515</ele>
<time>2020-09-10T11:26:39Z</time>
</trkpt>
<trkpt lat="48.243835" lon="10.362783">
<ele>516</ele>
<time>2020-09-10T11:26:44Z</time>
</trkpt>
<trkpt lat="48.243665" lon="10.362807">
<ele>518</ele>
<time>2020-09-10T11:26:49Z</time>
</trkpt>
<trkpt lat="48.243478" lon="10.362813">
<ele>518</ele>
<time>2020-09-10T11:26:54Z</time>
</trkpt>
<trkpt lat="48.243322" lon="10.362852">
<ele>518</ele>
<time>2020-09-10T11:26:59Z</time>
</trkpt>
<trkpt lat="48.24317" lon="10.362875">
<ele>518</ele>
<time>2020-09-10T11:27:04Z</time>
</trkpt>
<trkpt lat="48.243125" lon="10.363087">
<ele>518</ele>
<time>2020-09-10T11:27:10Z</time>
</trkpt>
<trkpt lat="48.243155" lon="10.363303">
<ele>518</ele>
<time>2020-09-10T11:27:15Z</time>
</trkpt>
<trkpt lat="48.243153" lon="10.36347">
<ele>518</ele>
<time>2020-09-10T11:27:20Z</time>
</trkpt>
<trkpt lat="48.243248" lon="10.363517">
<ele>518</ele>
<time>2020-09-10T11:27:26Z</time>
</trkpt>
<trkpt lat="48.243277" lon="10.363498">
<ele>518</ele>
<time>2020-09-10T11:27:31Z</time>
</trkpt>
<trkpt lat="48.24329" lon="10.363503">
<ele>518</ele>
<time>2020-09-10T11:27:32Z</time>
</trkpt>
<trkpt lat="48.243407" lon="10.363465">
<ele>519</ele>
<time>2020-09-10T11:27:37Z</time>
</trkpt>
<trkpt lat="48.243513" lon="10.363442">
<ele>519</ele>
<time>2020-09-10T11:27:42Z</time>
</trkpt>
<trkpt lat="48.243553" lon="10.36352">
<ele>519</ele>
<time>2020-09-10T11:27:47Z</time>
</trkpt>
<trkpt lat="48.243568" lon="10.36354">
<ele>519</ele>
<time>2020-09-10T11:27:49Z</time>
</trkpt>
<trkpt lat="48.243595" lon="10.36355">
<ele>519</ele>
<time>2020-09-10T11:27:51Z</time>
</trkpt>
<trkpt lat="48.243635" lon="10.363637">
<ele>519</ele>
<time>2020-09-10T11:27:56Z</time>
</trkpt>
<trkpt lat="48.24369" lon="10.363745">
<ele>524</ele>
<time>2020-09-10T11:27:58Z</time>
</trkpt>
<trkpt lat="48.243698" lon="10.363707">
<ele>524</ele>
<time>2020-09-10T11:28:00Z</time>
</trkpt>
<trkpt lat="48.243718" lon="10.36368">
<ele>524</ele>
<time>2020-09-10T11:28:05Z</time>
</trkpt>
<trkpt lat="48.24371" lon="10.363673">
<ele>524</ele>
<time>2020-09-10T11:28:08Z</time>
</trkpt>
<trkpt lat="48.243643" lon="10.363577">
<ele>525</ele>
<time>2020-09-10T11:28:13Z</time>
</trkpt>
<trkpt lat="48.243575" lon="10.363608">
<ele>525</ele>
<time>2020-09-10T11:28:18Z</time>
</trkpt>
<trkpt lat="48.243452" lon="10.363532">
<ele>525</ele>
<time>2020-09-10T11:28:24Z</time>
</trkpt>
<trkpt lat="48.24335" lon="10.363477">
<ele>525</ele>
<time>2020-09-10T11:28:29Z</time>
</trkpt>
<trkpt lat="48.243252" lon="10.363453">
<ele>525</ele>
<time>2020-09-10T11:28:34Z</time>
</trkpt>
<trkpt lat="48.24319" lon="10.363407">
<ele>525</ele>
<time>2020-09-10T11:28:39Z</time>
</trkpt>
<trkpt lat="48.243152" lon="10.36335">
<ele>524</ele>
<time>2020-09-10T11:28:44Z</time>
</trkpt>
<trkpt lat="48.243153" lon="10.363117">
<ele>524</ele>
<time>2020-09-10T11:28:49Z</time>
</trkpt>
<trkpt lat="48.243138" lon="10.362918">
<ele>524</ele>
<time>2020-09-10T11:28:54Z</time>
</trkpt>
<trkpt lat="48.243127" lon="10.362745">
<ele>524</ele>
<time>2020-09-10T11:28:59Z</time>
</trkpt>
<trkpt lat="48.243035" lon="10.362778">
<ele>524</ele>
<time>2020-09-10T11:29:04Z</time>
</trkpt>
<trkpt lat="48.242913" lon="10.362835">
<ele>524</ele>
<time>2020-09-10T11:29:09Z</time>
</trkpt>
<trkpt lat="48.242753" lon="10.362933">
<ele>524</ele>
<time>2020-09-10T11:29:14Z</time>
</trkpt>
<trkpt lat="48.242598" lon="10.362965">
<ele>524</ele>
<time>2020-09-10T11:29:19Z</time>
</trkpt>
<trkpt lat="48.24243" lon="10.362938">
<ele>525</ele>
<time>2020-09-10T11:29:24Z</time>
</trkpt>
<trkpt lat="48.242288" lon="10.362967">
<ele>525</ele>
<time>2020-09-10T11:29:29Z</time>
</trkpt>
<trkpt lat="48.242117" lon="10.36297">
<ele>526</ele>
<time>2020-09-10T11:29:34Z</time>
</trkpt>
<trkpt lat="48.241927" lon="10.363022">
<ele>526</ele>
<time>2020-09-10T11:29:39Z</time>
</trkpt>
<trkpt lat="48.241713" lon="10.363038">
<ele>527</ele>
<time>2020-09-10T11:29:44Z</time>
</trkpt>
<trkpt lat="48.241488" lon="10.363097">
<ele>527</ele>
<time>2020-09-10T11:29:49Z</time>
</trkpt>
<trkpt lat="48.241263" lon="10.363152">
<ele>527</ele>
<time>2020-09-10T11:29:54Z</time>
</trkpt>
<trkpt lat="48.24103" lon="10.363217">
<ele>527</ele>
<time>2020-09-10T11:29:59Z</time>
</trkpt>
<trkpt lat="48.240795" lon="10.363278">
<ele>527</ele>
<time>2020-09-10T11:30:04Z</time>
</trkpt>
<trkpt lat="48.240573" lon="10.363305">
<ele>527</ele>
<time>2020-09-10T11:30:09Z</time>
</trkpt>
<trkpt lat="48.240428" lon="10.363305">
<ele>527</ele>
<time>2020-09-10T11:30:14Z</time>
</trkpt>
<trkpt lat="48.240323" lon="10.36327">
<ele>527</ele>
<time>2020-09-10T11:30:19Z</time>
</trkpt>
<trkpt lat="48.240145" lon="10.363272">
<ele>527</ele>
<time>2020-09-10T11:30:24Z</time>
</trkpt>
<trkpt lat="48.239935" lon="10.36327">
<ele>527</ele>
<time>2020-09-10T11:30:29Z</time>
</trkpt>
<trkpt lat="48.239708" lon="10.363275">
<ele>527</ele>
<time>2020-09-10T11:30:34Z</time>
</trkpt>
<trkpt lat="48.239465" lon="10.36329">
<ele>528</ele>
<time>2020-09-10T11:30:39Z</time>
</trkpt>
<trkpt lat="48.239217" lon="10.36332">
<ele>529</ele>
<time>2020-09-10T11:30:44Z</time>
</trkpt>
<trkpt lat="48.238952" lon="10.363383">
<ele>529</ele>
<time>2020-09-10T11:30:49Z</time>
</trkpt>
<trkpt lat="48.238693" lon="10.363478">
<ele>529</ele>
<time>2020-09-10T11:30:54Z</time>
</trkpt>
<trkpt lat="48.238427" lon="10.363605">
<ele>529</ele>
<time>2020-09-10T11:30:59Z</time>
</trkpt>
<trkpt lat="48.238162" lon="10.36379">
<ele>529</ele>
<time>2020-09-10T11:31:04Z</time>
</trkpt>
<trkpt lat="48.237895" lon="10.364023">
<ele>529</ele>
<time>2020-09-10T11:31:09Z</time>
</trkpt>
<trkpt lat="48.237627" lon="10.36425">
<ele>529</ele>
<time>2020-09-10T11:31:14Z</time>
</trkpt>
<trkpt lat="48.237342" lon="10.364493">
<ele>529</ele>
<time>2020-09-10T11:31:19Z</time>
</trkpt>
<trkpt lat="48.237047" lon="10.364662">
<ele>529</ele>
<time>2020-09-10T11:31:24Z</time>
</trkpt>
<trkpt lat="48.236742" lon="10.364768">
<ele>529</ele>
<time>2020-09-10T11:31:29Z</time>
</trkpt>
<trkpt lat="48.23645" lon="10.364877">
<ele>529</ele>
<time>2020-09-10T11:31:34Z</time>
</trkpt>
<trkpt lat="48.236162" lon="10.36499">
<ele>529</ele>
<time>2020-09-10T11:31:39Z</time>
</trkpt>
<trkpt lat="48.235872" lon="10.365117">
<ele>529</ele>
<time>2020-09-10T11:31:44Z</time>
</trkpt>
<trkpt lat="48.235577" lon="10.365225">
<ele>529</ele>
<time>2020-09-10T11:31:49Z</time>
</trkpt>
<trkpt lat="48.235268" lon="10.365328">
<ele>529</ele>
<time>2020-09-10T11:31:54Z</time>
</trkpt>
<trkpt lat="48.234965" lon="10.365468">
<ele>530</ele>
<time>2020-09-10T11:31:59Z</time>
</trkpt>
<trkpt lat="48.234655" lon="10.365678">
<ele>530</ele>
<time>2020-09-10T11:32:04Z</time>
</trkpt>
<trkpt lat="48.234323" lon="10.365903">
<ele>530</ele>
<time>2020-09-10T11:32:09Z</time>
</trkpt>
<trkpt lat="48.233982" lon="10.366122">
<ele>529</ele>
<time>2020-09-10T11:32:14Z</time>
</trkpt>
<trkpt lat="48.233652" lon="10.366317">
<ele>529</ele>
<time>2020-09-10T11:32:19Z</time>
</trkpt>
<trkpt lat="48.233335" lon="10.366513">
<ele>529</ele>
<time>2020-09-10T11:32:24Z</time>
</trkpt>
<trkpt lat="48.233035" lon="10.36673">
<ele>529</ele>
<time>2020-09-10T11:32:29Z</time>
</trkpt>
<trkpt lat="48.23275" lon="10.366955">
<ele>529</ele>
<time>2020-09-10T11:32:34Z</time>
</trkpt>
<trkpt lat="48.232473" lon="10.367167">
<ele>530</ele>
<time>2020-09-10T11:32:39Z</time>
</trkpt>
<trkpt lat="48.232208" lon="10.367387">
<ele>531</ele>
<time>2020-09-10T11:32:44Z</time>
</trkpt>
<trkpt lat="48.231967" lon="10.367615">
<ele>532</ele>
<time>2020-09-10T11:32:49Z</time>
</trkpt>
<trkpt lat="48.231718" lon="10.367873">
<ele>533</ele>
<time>2020-09-10T11:32:54Z</time>
</trkpt>
<trkpt lat="48.231462" lon="10.368172">
<ele>533</ele>
<time>2020-09-10T11:32:59Z</time>
</trkpt>
<trkpt lat="48.23121" lon="10.368502">
<ele>533</ele>
<time>2020-09-10T11:33:04Z</time>
</trkpt>
<trkpt lat="48.23097" lon="10.36884">
<ele>533</ele>
<time>2020-09-10T11:33:09Z</time>
</trkpt>
<trkpt lat="48.230688" lon="10.369157">
<ele>533</ele>
<time>2020-09-10T11:33:14Z</time>
</trkpt>
<trkpt lat="48.230363" lon="10.36942">
<ele>533</ele>
<time>2020-09-10T11:33:19Z</time>
</trkpt>
<trkpt lat="48.230038" lon="10.36966">
<ele>533</ele>
<time>2020-09-10T11:33:24Z</time>
</trkpt>
<trkpt lat="48.229718" lon="10.369893">
<ele>533</ele>
<time>2020-09-10T11:33:29Z</time>
</trkpt>
<trkpt lat="48.229385" lon="10.370135">
<ele>533</ele>
<time>2020-09-10T11:33:34Z</time>
</trkpt>
<trkpt lat="48.229053" lon="10.370387">
<ele>533</ele>
<time>2020-09-10T11:33:39Z</time>
</trkpt>
<trkpt lat="48.228732" lon="10.370648">
<ele>533</ele>
<time>2020-09-10T11:33:44Z</time>
</trkpt>
<trkpt lat="48.22842" lon="10.370948">
<ele>533</ele>
<time>2020-09-10T11:33:49Z</time>
</trkpt>
<trkpt lat="48.22812" lon="10.371277">
<ele>533</ele>
<time>2020-09-10T11:33:54Z</time>
</trkpt>
<trkpt lat="48.22781" lon="10.371573">
<ele>533</ele>
<time>2020-09-10T11:33:59Z</time>
</trkpt>
<trkpt lat="48.227488" lon="10.371837">
<ele>533</ele>
<time>2020-09-10T11:34:04Z</time>
</trkpt>
<trkpt lat="48.227142" lon="10.372093">
<ele>533</ele>
<time>2020-09-10T11:34:09Z</time>
</trkpt>
<trkpt lat="48.226782" lon="10.372323">
<ele>533</ele>
<time>2020-09-10T11:34:14Z</time>
</trkpt>
<trkpt lat="48.226413" lon="10.372508">
<ele>533</ele>
<time>2020-09-10T11:34:19Z</time>
</trkpt>
<trkpt lat="48.226048" lon="10.372658">
<ele>533</ele>
<time>2020-09-10T11:34:24Z</time>
</trkpt>
<trkpt lat="48.22569" lon="10.372797">
<ele>532</ele>
<time>2020-09-10T11:34:29Z</time>
</trkpt>
<trkpt lat="48.225248" lon="10.372937">
<ele>532</ele>
<time>2020-09-10T11:34:35Z</time>
</trkpt>
<trkpt lat="48.224878" lon="10.373058">
<ele>532</ele>
<time>2020-09-10T11:34:40Z</time>
</trkpt>
<trkpt lat="48.224537" lon="10.373293">
<ele>531</ele>
<time>2020-09-10T11:34:45Z</time>
</trkpt>
<trkpt lat="48.224275" lon="10.373682">
<ele>531</ele>
<time>2020-09-10T11:34:50Z</time>
</trkpt>
<trkpt lat="48.223995" lon="10.373887">
<ele>530</ele>
<time>2020-09-10T11:34:55Z</time>
</trkpt>
<trkpt lat="48.223728" lon="10.373798">
<ele>530</ele>
<time>2020-09-10T11:35:00Z</time>
</trkpt>
<trkpt lat="48.22363" lon="10.373743">
<ele>530</ele>
<time>2020-09-10T11:35:05Z</time>
</trkpt>
<trkpt lat="48.223452" lon="10.373837">
<ele>530</ele>
<time>2020-09-10T11:35:10Z</time>
</trkpt>
<trkpt lat="48.223238" lon="10.373952">
<ele>530</ele>
<time>2020-09-10T11:35:15Z</time>
</trkpt>
<trkpt lat="48.222948" lon="10.374213">
<ele>530</ele>
<time>2020-09-10T11:35:21Z</time>
</trkpt>
<trkpt lat="48.222648" lon="10.374375">
<ele>530</ele>
<time>2020-09-10T11:35:26Z</time>
</trkpt>
<trkpt lat="48.222335" lon="10.374527">
<ele>530</ele>
<time>2020-09-10T11:35:31Z</time>
</trkpt>
<trkpt lat="48.222028" lon="10.374678">
<ele>530</ele>
<time>2020-09-10T11:35:36Z</time>
</trkpt>
<trkpt lat="48.221663" lon="10.374845">
<ele>530</ele>
<time>2020-09-10T11:35:42Z</time>
</trkpt>
<trkpt lat="48.221348" lon="10.374915">
<ele>530</ele>
<time>2020-09-10T11:35:47Z</time>
</trkpt>
<trkpt lat="48.220992" lon="10.374993">
<ele>531</ele>
<time>2020-09-10T11:35:53Z</time>
</trkpt>
<trkpt lat="48.220725" lon="10.375237">
<ele>532</ele>
<time>2020-09-10T11:35:58Z</time>
</trkpt>
<trkpt lat="48.220455" lon="10.375532">
<ele>532</ele>
<time>2020-09-10T11:36:03Z</time>
</trkpt>
<trkpt lat="48.220198" lon="10.375803">
<ele>532</ele>
<time>2020-09-10T11:36:08Z</time>
</trkpt>
<trkpt lat="48.219965" lon="10.375882">
<ele>532</ele>
<time>2020-09-10T11:36:13Z</time>
</trkpt>
<trkpt lat="48.219805" lon="10.375593">
<ele>532</ele>
<time>2020-09-10T11:36:18Z</time>
</trkpt>
<trkpt lat="48.219707" lon="10.375282">
<ele>533</ele>
<time>2020-09-10T11:36:23Z</time>
</trkpt>
<trkpt lat="48.219548" lon="10.375295">
<ele>533</ele>
<time>2020-09-10T11:36:28Z</time>
</trkpt>
<trkpt lat="48.219345" lon="10.375435">
<ele>533</ele>
<time>2020-09-10T11:36:33Z</time>
</trkpt>
<trkpt lat="48.219112" lon="10.37558">
<ele>533</ele>
<time>2020-09-10T11:36:38Z</time>
</trkpt>
<trkpt lat="48.218847" lon="10.375748">
<ele>533</ele>
<time>2020-09-10T11:36:43Z</time>
</trkpt>
<trkpt lat="48.218587" lon="10.375903">
<ele>534</ele>
<time>2020-09-10T11:36:48Z</time>
</trkpt>
<trkpt lat="48.218305" lon="10.37608">
<ele>535</ele>
<time>2020-09-10T11:36:53Z</time>
</trkpt>
<trkpt lat="48.217998" lon="10.376268">
<ele>535</ele>
<time>2020-09-10T11:36:58Z</time>
</trkpt>
<trkpt lat="48.217687" lon="10.376467">
<ele>535</ele>
<time>2020-09-10T11:37:03Z</time>
</trkpt>
<trkpt lat="48.217383" lon="10.376648">
<ele>535</ele>
<time>2020-09-10T11:37:08Z</time>
</trkpt>
<trkpt lat="48.217092" lon="10.37683">
<ele>535</ele>
<time>2020-09-10T11:37:13Z</time>
</trkpt>
<trkpt lat="48.21679" lon="10.377017">
<ele>535</ele>
<time>2020-09-10T11:37:18Z</time>
</trkpt>
<trkpt lat="48.216477" lon="10.377193">
<ele>535</ele>
<time>2020-09-10T11:37:23Z</time>
</trkpt>
<trkpt lat="48.216147" lon="10.377393">
<ele>535</ele>
<time>2020-09-10T11:37:28Z</time>
</trkpt>
<trkpt lat="48.215813" lon="10.377597">
<ele>535</ele>
<time>2020-09-10T11:37:33Z</time>
</trkpt>
<trkpt lat="48.215505" lon="10.377787">
<ele>535</ele>
<time>2020-09-10T11:37:38Z</time>
</trkpt>
<trkpt lat="48.215198" lon="10.377977">
<ele>536</ele>
<time>2020-09-10T11:37:43Z</time>
</trkpt>
<trkpt lat="48.21488" lon="10.378173">
<ele>536</ele>
<time>2020-09-10T11:37:48Z</time>
</trkpt>
<trkpt lat="48.214567" lon="10.378367">
<ele>536</ele>
<time>2020-09-10T11:37:53Z</time>
</trkpt>
<trkpt lat="48.214258" lon="10.378563">
<ele>536</ele>
<time>2020-09-10T11:37:58Z</time>
</trkpt>
<trkpt lat="48.21395" lon="10.378762">
<ele>536</ele>
<time>2020-09-10T11:38:03Z</time>
</trkpt>
<trkpt lat="48.213638" lon="10.378948">
<ele>536</ele>
<time>2020-09-10T11:38:08Z</time>
</trkpt>
<trkpt lat="48.213328" lon="10.379132">
<ele>537</ele>
<time>2020-09-10T11:38:13Z</time>
</trkpt>
<trkpt lat="48.213013" lon="10.37932">
<ele>537</ele>
<time>2020-09-10T11:38:18Z</time>
</trkpt>
<trkpt lat="48.212693" lon="10.37952">
<ele>537</ele>
<time>2020-09-10T11:38:23Z</time>
</trkpt>
<trkpt lat="48.21237" lon="10.379712">
<ele>538</ele>
<time>2020-09-10T11:38:28Z</time>
</trkpt>
<trkpt lat="48.212065" lon="10.379892">
<ele>538</ele>
<time>2020-09-10T11:38:33Z</time>
</trkpt>
<trkpt lat="48.211757" lon="10.38008">
<ele>538</ele>
<time>2020-09-10T11:38:38Z</time>
</trkpt>
<trkpt lat="48.211445" lon="10.380268">
<ele>538</ele>
<time>2020-09-10T11:38:43Z</time>
</trkpt>
<trkpt lat="48.211123" lon="10.380447">
<ele>539</ele>
<time>2020-09-10T11:38:48Z</time>
</trkpt>
<trkpt lat="48.210815" lon="10.380647">
<ele>539</ele>
<time>2020-09-10T11:38:53Z</time>
</trkpt>
<trkpt lat="48.21051" lon="10.380842">
<ele>539</ele>
<time>2020-09-10T11:38:58Z</time>
</trkpt>
<trkpt lat="48.210193" lon="10.381037">
<ele>540</ele>
<time>2020-09-10T11:39:03Z</time>
</trkpt>
<trkpt lat="48.209883" lon="10.38123">
<ele>540</ele>
<time>2020-09-10T11:39:08Z</time>
</trkpt>
<trkpt lat="48.209572" lon="10.381425">
<ele>540</ele>
<time>2020-09-10T11:39:13Z</time>
</trkpt>
<trkpt lat="48.20926" lon="10.381623">
<ele>540</ele>
<time>2020-09-10T11:39:18Z</time>
</trkpt>
<trkpt lat="48.208942" lon="10.381818">
<ele>540</ele>
<time>2020-09-10T11:39:23Z</time>
</trkpt>
<trkpt lat="48.20861" lon="10.38201">
<ele>541</ele>
<time>2020-09-10T11:39:28Z</time>
</trkpt>
<trkpt lat="48.208272" lon="10.382178">
<ele>541</ele>
<time>2020-09-10T11:39:33Z</time>
</trkpt>
<trkpt lat="48.207935" lon="10.38236">
<ele>541</ele>
<time>2020-09-10T11:39:38Z</time>
</trkpt>
<trkpt lat="48.207588" lon="10.382527">
<ele>541</ele>
<time>2020-09-10T11:39:43Z</time>
</trkpt>
<trkpt lat="48.207245" lon="10.38267">
<ele>541</ele>
<time>2020-09-10T11:39:48Z</time>
</trkpt>
<trkpt lat="48.206907" lon="10.382812">
<ele>541</ele>
<time>2020-09-10T11:39:53Z</time>
</trkpt>
<trkpt lat="48.206567" lon="10.382935">
<ele>541</ele>
<time>2020-09-10T11:39:58Z</time>
</trkpt>
<trkpt lat="48.206215" lon="10.383048">
<ele>541</ele>
<time>2020-09-10T11:40:03Z</time>
</trkpt>
<trkpt lat="48.205858" lon="10.383142">
<ele>541</ele>
<time>2020-09-10T11:40:08Z</time>
</trkpt>
<trkpt lat="48.205503" lon="10.383242">
<ele>541</ele>
<time>2020-09-10T11:40:13Z</time>
</trkpt>
<trkpt lat="48.205147" lon="10.383365">
<ele>541</ele>
<time>2020-09-10T11:40:18Z</time>
</trkpt>
<trkpt lat="48.204793" lon="10.383488">
<ele>541</ele>
<time>2020-09-10T11:40:23Z</time>
</trkpt>
<trkpt lat="48.204425" lon="10.383593">
<ele>541</ele>
<time>2020-09-10T11:40:28Z</time>
</trkpt>
<trkpt lat="48.204045" lon="10.383678">
<ele>541</ele>
<time>2020-09-10T11:40:33Z</time>
</trkpt>
<trkpt lat="48.20365" lon="10.383735">
<ele>541</ele>
<time>2020-09-10T11:40:38Z</time>
</trkpt>
<trkpt lat="48.203285" lon="10.383767">
<ele>541</ele>
<time>2020-09-10T11:40:43Z</time>
</trkpt>
<trkpt lat="48.202933" lon="10.383767">
<ele>541</ele>
<time>2020-09-10T11:40:48Z</time>
</trkpt>
<trkpt lat="48.202588" lon="10.383698">
<ele>541</ele>
<time>2020-09-10T11:40:53Z</time>
</trkpt>
<trkpt lat="48.202282" lon="10.383663">
<ele>541</ele>
<time>2020-09-10T11:40:58Z</time>
</trkpt>
<trkpt lat="48.202087" lon="10.383878">
<ele>541</ele>
<time>2020-09-10T11:41:03Z</time>
</trkpt>
<trkpt lat="48.201943" lon="10.384265">
<ele>541</ele>
<time>2020-09-10T11:41:08Z</time>
</trkpt>
<trkpt lat="48.201623" lon="10.384395">
<ele>540</ele>
<time>2020-09-10T11:41:13Z</time>
</trkpt>
<trkpt lat="48.201337" lon="10.38447">
<ele>539</ele>
<time>2020-09-10T11:41:18Z</time>
</trkpt>
<trkpt lat="48.2012" lon="10.384883">
<ele>539</ele>
<time>2020-09-10T11:41:23Z</time>
</trkpt>
<trkpt lat="48.201057" lon="10.38535">
<ele>539</ele>
<time>2020-09-10T11:41:28Z</time>
</trkpt>
<trkpt lat="48.200843" lon="10.38576">
<ele>539</ele>
<time>2020-09-10T11:41:33Z</time>
</trkpt>
<trkpt lat="48.200658" lon="10.38622">
<ele>539</ele>
<time>2020-09-10T11:41:38Z</time>
</trkpt>
<trkpt lat="48.20047" lon="10.386667">
<ele>539</ele>
<time>2020-09-10T11:41:43Z</time>
</trkpt>
<trkpt lat="48.200298" lon="10.387067">
<ele>539</ele>
<time>2020-09-10T11:41:48Z</time>
</trkpt>
<trkpt lat="48.200102" lon="10.387188">
<ele>539</ele>
<time>2020-09-10T11:41:53Z</time>
</trkpt>
<trkpt lat="48.199848" lon="10.386957">
<ele>539</ele>
<time>2020-09-10T11:41:58Z</time>
</trkpt>
<trkpt lat="48.199558" lon="10.386752">
<ele>539</ele>
<time>2020-09-10T11:42:03Z</time>
</trkpt>
<trkpt lat="48.199252" lon="10.386563">
<ele>539</ele>
<time>2020-09-10T11:42:08Z</time>
</trkpt>
<trkpt lat="48.198923" lon="10.386465">
<ele>539</ele>
<time>2020-09-10T11:42:13Z</time>
</trkpt>
<trkpt lat="48.198615" lon="10.386348">
<ele>539</ele>
<time>2020-09-10T11:42:18Z</time>
</trkpt>
<trkpt lat="48.198313" lon="10.386332">
<ele>539</ele>
<time>2020-09-10T11:42:23Z</time>
</trkpt>
<trkpt lat="48.198052" lon="10.386443">
<ele>539</ele>
<time>2020-09-10T11:42:28Z</time>
</trkpt>
<trkpt lat="48.19779" lon="10.386563">
<ele>539</ele>
<time>2020-09-10T11:42:33Z</time>
</trkpt>
<trkpt lat="48.197543" lon="10.386847">
<ele>539</ele>
<time>2020-09-10T11:42:38Z</time>
</trkpt>
<trkpt lat="48.197265" lon="10.387085">
<ele>540</ele>
<time>2020-09-10T11:42:43Z</time>
</trkpt>
<trkpt lat="48.197008" lon="10.387292">
<ele>541</ele>
<time>2020-09-10T11:42:48Z</time>
</trkpt>
<trkpt lat="48.197008" lon="10.387632">
<ele>541</ele>
<time>2020-09-10T11:42:53Z</time>
</trkpt>
<trkpt lat="48.197087" lon="10.38803">
<ele>541</ele>
<time>2020-09-10T11:42:58Z</time>
</trkpt>
<trkpt lat="48.197145" lon="10.388462">
<ele>542</ele>
<time>2020-09-10T11:43:03Z</time>
</trkpt>
<trkpt lat="48.1972" lon="10.388912">
<ele>543</ele>
<time>2020-09-10T11:43:08Z</time>
</trkpt>
<trkpt lat="48.197202" lon="10.389303">
<ele>543</ele>
<time>2020-09-10T11:43:13Z</time>
</trkpt>
<trkpt lat="48.197117" lon="10.389565">
<ele>543</ele>
<time>2020-09-10T11:43:18Z</time>
</trkpt>
<trkpt lat="48.196903" lon="10.389667">
<ele>543</ele>
<time>2020-09-10T11:43:23Z</time>
</trkpt>
<trkpt lat="48.196838" lon="10.390007">
<ele>544</ele>
<time>2020-09-10T11:43:28Z</time>
</trkpt>
<trkpt lat="48.196787" lon="10.390443">
<ele>544</ele>
<time>2020-09-10T11:43:33Z</time>
</trkpt>
<trkpt lat="48.19671" lon="10.390903">
<ele>544</ele>
<time>2020-09-10T11:43:38Z</time>
</trkpt>
<trkpt lat="48.196637" lon="10.391393">
<ele>544</ele>
<time>2020-09-10T11:43:43Z</time>
</trkpt>
<trkpt lat="48.196567" lon="10.391862">
<ele>545</ele>
<time>2020-09-10T11:43:48Z</time>
</trkpt>
<trkpt lat="48.196493" lon="10.392298">
<ele>546</ele>
<time>2020-09-10T11:43:53Z</time>
</trkpt>
<trkpt lat="48.196418" lon="10.39273">
<ele>547</ele>
<time>2020-09-10T11:43:58Z</time>
</trkpt>
<trkpt lat="48.196343" lon="10.393125">
<ele>548</ele>
<time>2020-09-10T11:44:03Z</time>
</trkpt>
<trkpt lat="48.196225" lon="10.393447">
<ele>549</ele>
<time>2020-09-10T11:44:08Z</time>
</trkpt>
<trkpt lat="48.196" lon="10.393592">
<ele>550</ele>
<time>2020-09-10T11:44:13Z</time>
</trkpt>
<trkpt lat="48.195797" lon="10.393717">
<ele>551</ele>
<time>2020-09-10T11:44:18Z</time>
</trkpt>
<trkpt lat="48.19557" lon="10.393835">
<ele>552</ele>
<time>2020-09-10T11:44:23Z</time>
</trkpt>
<trkpt lat="48.195328" lon="10.393953">
<ele>553</ele>
<time>2020-09-10T11:44:28Z</time>
</trkpt>
<trkpt lat="48.195092" lon="10.394068">
<ele>554</ele>
<time>2020-09-10T11:44:33Z</time>
</trkpt>
<trkpt lat="48.194855" lon="10.394185">
<ele>555</ele>
<time>2020-09-10T11:44:38Z</time>
</trkpt>
<trkpt lat="48.194615" lon="10.394297">
<ele>556</ele>
<time>2020-09-10T11:44:43Z</time>
</trkpt>
<trkpt lat="48.194373" lon="10.394423">
<ele>556</ele>
<time>2020-09-10T11:44:48Z</time>
</trkpt>
<trkpt lat="48.194132" lon="10.39457">
<ele>557</ele>
<time>2020-09-10T11:44:53Z</time>
</trkpt>
<trkpt lat="48.193887" lon="10.394705">
<ele>558</ele>
<time>2020-09-10T11:44:58Z</time>
</trkpt>
<trkpt lat="48.19364" lon="10.394843">
<ele>558</ele>
<time>2020-09-10T11:45:03Z</time>
</trkpt>
<trkpt lat="48.1934" lon="10.394977">
<ele>559</ele>
<time>2020-09-10T11:45:08Z</time>
</trkpt>
<trkpt lat="48.193165" lon="10.395098">
<ele>560</ele>
<time>2020-09-10T11:45:13Z</time>
</trkpt>
<trkpt lat="48.19293" lon="10.39523">
<ele>561</ele>
<time>2020-09-10T11:45:18Z</time>
</trkpt>
<trkpt lat="48.192693" lon="10.395355">
<ele>562</ele>
<time>2020-09-10T11:45:23Z</time>
</trkpt>
<trkpt lat="48.192455" lon="10.395478">
<ele>562</ele>
<time>2020-09-10T11:45:28Z</time>
</trkpt>
<trkpt lat="48.192228" lon="10.395605">
<ele>563</ele>
<time>2020-09-10T11:45:33Z</time>
</trkpt>
<trkpt lat="48.19202" lon="10.395652">
<ele>564</ele>
<time>2020-09-10T11:45:38Z</time>
</trkpt>
<trkpt lat="48.19187" lon="10.395638">
<ele>565</ele>
<time>2020-09-10T11:45:43Z</time>
</trkpt>
<trkpt lat="48.191765" lon="10.395817">
<ele>566</ele>
<time>2020-09-10T11:45:48Z</time>
</trkpt>
<trkpt lat="48.191647" lon="10.395983">
<ele>568</ele>
<time>2020-09-10T11:45:53Z</time>
</trkpt>
<trkpt lat="48.191517" lon="10.396142">
<ele>569</ele>
<time>2020-09-10T11:45:58Z</time>
</trkpt>
<trkpt lat="48.191392" lon="10.396263">
<ele>571</ele>
<time>2020-09-10T11:46:03Z</time>
</trkpt>
<trkpt lat="48.191265" lon="10.396385">
<ele>573</ele>
<time>2020-09-10T11:46:08Z</time>
</trkpt>
<trkpt lat="48.191142" lon="10.396502">
<ele>574</ele>
<time>2020-09-10T11:46:13Z</time>
</trkpt>
<trkpt lat="48.191025" lon="10.396618">
<ele>576</ele>
<time>2020-09-10T11:46:18Z</time>
</trkpt>
<trkpt lat="48.190903" lon="10.396752">
<ele>577</ele>
<time>2020-09-10T11:46:23Z</time>
</trkpt>
<trkpt lat="48.190777" lon="10.39688">
<ele>579</ele>
<time>2020-09-10T11:46:28Z</time>
</trkpt>
<trkpt lat="48.190643" lon="10.397005">
<ele>580</ele>
<time>2020-09-10T11:46:33Z</time>
</trkpt>
<trkpt lat="48.190522" lon="10.39713">
<ele>582</ele>
<time>2020-09-10T11:46:38Z</time>
</trkpt>
<trkpt lat="48.190393" lon="10.397253">
<ele>583</ele>
<time>2020-09-10T11:46:43Z</time>
</trkpt>
<trkpt lat="48.190258" lon="10.397387">
<ele>583</ele>
<time>2020-09-10T11:46:48Z</time>
</trkpt>
<trkpt lat="48.190112" lon="10.397535">
<ele>583</ele>
<time>2020-09-10T11:46:53Z</time>
</trkpt>
<trkpt lat="48.189957" lon="10.397688">
<ele>584</ele>
<time>2020-09-10T11:46:58Z</time>
</trkpt>
<trkpt lat="48.189788" lon="10.397847">
<ele>584</ele>
<time>2020-09-10T11:47:03Z</time>
</trkpt>
<trkpt lat="48.189613" lon="10.398013">
<ele>585</ele>
<time>2020-09-10T11:47:08Z</time>
</trkpt>
<trkpt lat="48.189427" lon="10.398193">
<ele>585</ele>
<time>2020-09-10T11:47:13Z</time>
</trkpt>
<trkpt lat="48.189222" lon="10.398403">
<ele>586</ele>
<time>2020-09-10T11:47:18Z</time>
</trkpt>
<trkpt lat="48.188975" lon="10.39863">
<ele>585</ele>
<time>2020-09-10T11:47:23Z</time>
</trkpt>
<trkpt lat="48.188652" lon="10.398943">
<ele>583</ele>
<time>2020-09-10T11:47:28Z</time>
</trkpt>
<trkpt lat="48.188292" lon="10.399315">
<ele>582</ele>
<time>2020-09-10T11:47:33Z</time>
</trkpt>
<trkpt lat="48.188035" lon="10.399783">
<ele>579</ele>
<time>2020-09-10T11:47:38Z</time>
</trkpt>
<trkpt lat="48.187822" lon="10.400357">
<ele>577</ele>
<time>2020-09-10T11:47:43Z</time>
</trkpt>
<trkpt lat="48.1876" lon="10.400928">
<ele>577</ele>
<time>2020-09-10T11:47:48Z</time>
</trkpt>
<trkpt lat="48.187462" lon="10.40144">
<ele>577</ele>
<time>2020-09-10T11:47:53Z</time>
</trkpt>
<trkpt lat="48.187405" lon="10.401823">
<ele>578</ele>
<time>2020-09-10T11:47:58Z</time>
</trkpt>
<trkpt lat="48.187353" lon="10.402063">
<ele>579</ele>
<time>2020-09-10T11:48:03Z</time>
</trkpt>
<trkpt lat="48.187283" lon="10.402277">
<ele>580</ele>
<time>2020-09-10T11:48:08Z</time>
</trkpt>
<trkpt lat="48.187203" lon="10.402487">
<ele>581</ele>
<time>2020-09-10T11:48:13Z</time>
</trkpt>
<trkpt lat="48.187118" lon="10.402695">
<ele>583</ele>
<time>2020-09-10T11:48:18Z</time>
</trkpt>
<trkpt lat="48.187043" lon="10.402885">
<ele>585</ele>
<time>2020-09-10T11:48:23Z</time>
</trkpt>
<trkpt lat="48.186968" lon="10.403088">
<ele>586</ele>
<time>2020-09-10T11:48:28Z</time>
</trkpt>
<trkpt lat="48.1869" lon="10.403293">
<ele>588</ele>
<time>2020-09-10T11:48:33Z</time>
</trkpt>
<trkpt lat="48.186838" lon="10.403497">
<ele>589</ele>
<time>2020-09-10T11:48:38Z</time>
</trkpt>
<trkpt lat="48.186787" lon="10.403695">
<ele>590</ele>
<time>2020-09-10T11:48:43Z</time>
</trkpt>
<trkpt lat="48.186747" lon="10.403887">
<ele>591</ele>
<time>2020-09-10T11:48:48Z</time>
</trkpt>
<trkpt lat="48.1867" lon="10.40408">
<ele>592</ele>
<time>2020-09-10T11:48:53Z</time>
</trkpt>
<trkpt lat="48.186618" lon="10.404275">
<ele>594</ele>
<time>2020-09-10T11:48:58Z</time>
</trkpt>
<trkpt lat="48.186492" lon="10.404378">
<ele>595</ele>
<time>2020-09-10T11:49:03Z</time>
</trkpt>
<trkpt lat="48.18635" lon="10.404452">
<ele>596</ele>
<time>2020-09-10T11:49:08Z</time>
</trkpt>
<trkpt lat="48.186237" lon="10.404572">
<ele>598</ele>
<time>2020-09-10T11:49:13Z</time>
</trkpt>
<trkpt lat="48.186163" lon="10.404742">
<ele>599</ele>
<time>2020-09-10T11:49:18Z</time>
</trkpt>
<trkpt lat="48.18614" lon="10.404955">
<ele>601</ele>
<time>2020-09-10T11:49:23Z</time>
</trkpt>
<trkpt lat="48.186127" lon="10.405198">
<ele>602</ele>
<time>2020-09-10T11:49:28Z</time>
</trkpt>
<trkpt lat="48.186118" lon="10.405417">
<ele>604</ele>
<time>2020-09-10T11:49:33Z</time>
</trkpt>
<trkpt lat="48.186122" lon="10.405633">
<ele>604</ele>
<time>2020-09-10T11:49:38Z</time>
</trkpt>
<trkpt lat="48.1861" lon="10.405865">
<ele>605</ele>
<time>2020-09-10T11:49:43Z</time>
</trkpt>
<trkpt lat="48.186055" lon="10.406082">
<ele>606</ele>
<time>2020-09-10T11:49:48Z</time>
</trkpt>
<trkpt lat="48.185985" lon="10.406292">
<ele>607</ele>
<time>2020-09-10T11:49:53Z</time>
</trkpt>
<trkpt lat="48.185893" lon="10.406497">
<ele>607</ele>
<time>2020-09-10T11:49:58Z</time>
</trkpt>
<trkpt lat="48.185768" lon="10.406708">
<ele>608</ele>
<time>2020-09-10T11:50:03Z</time>
</trkpt>
<trkpt lat="48.185637" lon="10.4069">
<ele>608</ele>
<time>2020-09-10T11:50:08Z</time>
</trkpt>
<trkpt lat="48.185505" lon="10.407108">
<ele>608</ele>
<time>2020-09-10T11:50:13Z</time>
</trkpt>
<trkpt lat="48.185353" lon="10.407313">
<ele>609</ele>
<time>2020-09-10T11:50:18Z</time>
</trkpt>
<trkpt lat="48.185205" lon="10.407523">
<ele>609</ele>
<time>2020-09-10T11:50:23Z</time>
</trkpt>
<trkpt lat="48.185062" lon="10.407688">
<ele>609</ele>
<time>2020-09-10T11:50:28Z</time>
</trkpt>
<trkpt lat="48.184913" lon="10.407868">
<ele>609</ele>
<time>2020-09-10T11:50:33Z</time>
</trkpt>
<trkpt lat="48.184767" lon="10.40804">
<ele>609</ele>
<time>2020-09-10T11:50:38Z</time>
</trkpt>
<trkpt lat="48.184608" lon="10.408223">
<ele>609</ele>
<time>2020-09-10T11:50:43Z</time>
</trkpt>
<trkpt lat="48.184468" lon="10.408392">
<ele>609</ele>
<time>2020-09-10T11:50:48Z</time>
</trkpt>
<trkpt lat="48.184315" lon="10.408598">
<ele>609</ele>
<time>2020-09-10T11:50:53Z</time>
</trkpt>
<trkpt lat="48.184212" lon="10.408847">
<ele>609</ele>
<time>2020-09-10T11:50:58Z</time>
</trkpt>
<trkpt lat="48.184175" lon="10.409115">
<ele>609</ele>
<time>2020-09-10T11:51:03Z</time>
</trkpt>
<trkpt lat="48.184167" lon="10.409307">
<ele>609</ele>
<time>2020-09-10T11:51:08Z</time>
</trkpt>
<trkpt lat="48.184167" lon="10.409427">
<ele>609</ele>
<time>2020-09-10T11:51:13Z</time>
</trkpt>
<trkpt lat="48.184163" lon="10.40949">
<ele>609</ele>
<time>2020-09-10T11:51:18Z</time>
</trkpt>
<trkpt lat="48.184165" lon="10.409493">
<ele>609</ele>
<time>2020-09-10T11:51:20Z</time>
</trkpt>
<trkpt lat="48.184162" lon="10.409665">
<ele>609</ele>
<time>2020-09-10T11:51:25Z</time>
</trkpt>
<trkpt lat="48.184153" lon="10.409873">
<ele>609</ele>
<time>2020-09-10T11:51:30Z</time>
</trkpt>
<trkpt lat="48.184133" lon="10.41016">
<ele>609</ele>
<time>2020-09-10T11:51:35Z</time>
</trkpt>
<trkpt lat="48.184107" lon="10.410533">
<ele>609</ele>
<time>2020-09-10T11:51:40Z</time>
</trkpt>
<trkpt lat="48.184075" lon="10.410948">
<ele>608</ele>
<time>2020-09-10T11:51:45Z</time>
</trkpt>
<trkpt lat="48.184038" lon="10.411353">
<ele>608</ele>
<time>2020-09-10T11:51:50Z</time>
</trkpt>
<trkpt lat="48.183997" lon="10.411753">
<ele>607</ele>
<time>2020-09-10T11:51:55Z</time>
</trkpt>
<trkpt lat="48.183952" lon="10.412163">
<ele>607</ele>
<time>2020-09-10T11:52:00Z</time>
</trkpt>
<trkpt lat="48.183878" lon="10.412642">
<ele>607</ele>
<time>2020-09-10T11:52:05Z</time>
</trkpt>
<trkpt lat="48.183687" lon="10.413118">
<ele>605</ele>
<time>2020-09-10T11:52:10Z</time>
</trkpt>
<trkpt lat="48.183417" lon="10.413713">
<ele>602</ele>
<time>2020-09-10T11:52:15Z</time>
</trkpt>
<trkpt lat="48.183272" lon="10.414448">
<ele>597</ele>
<time>2020-09-10T11:52:20Z</time>
</trkpt>
<trkpt lat="48.18335" lon="10.41535">
<ele>592</ele>
<time>2020-09-10T11:52:25Z</time>
</trkpt>
<trkpt lat="48.18345" lon="10.416268">
<ele>586</ele>
<time>2020-09-10T11:52:30Z</time>
</trkpt>
<trkpt lat="48.183545" lon="10.41715">
<ele>582</ele>
<time>2020-09-10T11:52:35Z</time>
</trkpt>
<trkpt lat="48.18364" lon="10.417948">
<ele>576</ele>
<time>2020-09-10T11:52:40Z</time>
</trkpt>
<trkpt lat="48.183588" lon="10.418768">
<ele>572</ele>
<time>2020-09-10T11:52:45Z</time>
</trkpt>
<trkpt lat="48.18343" lon="10.419455">
<ele>566</ele>
<time>2020-09-10T11:52:50Z</time>
</trkpt>
<trkpt lat="48.18329" lon="10.4201">
<ele>562</ele>
<time>2020-09-10T11:52:55Z</time>
</trkpt>
<trkpt lat="48.1833" lon="10.420757">
<ele>560</ele>
<time>2020-09-10T11:53:00Z</time>
</trkpt>
<trkpt lat="48.183288" lon="10.421285">
<ele>557</ele>
<time>2020-09-10T11:53:05Z</time>
</trkpt>
<trkpt lat="48.183292" lon="10.421608">
<ele>556</ele>
<time>2020-09-10T11:53:10Z</time>
</trkpt>
<trkpt lat="48.18318" lon="10.421795">
<ele>554</ele>
<time>2020-09-10T11:53:15Z</time>
</trkpt>
<trkpt lat="48.182942" lon="10.421738">
<ele>554</ele>
<time>2020-09-10T11:53:20Z</time>
</trkpt>
<trkpt lat="48.182717" lon="10.421632">
<ele>554</ele>
<time>2020-09-10T11:53:25Z</time>
</trkpt>
<trkpt lat="48.182472" lon="10.421543">
<ele>554</ele>
<time>2020-09-10T11:53:30Z</time>
</trkpt>
<trkpt lat="48.182193" lon="10.421602">
<ele>554</ele>
<time>2020-09-10T11:53:35Z</time>
</trkpt>
<trkpt lat="48.18194" lon="10.421783">
<ele>554</ele>
<time>2020-09-10T11:53:40Z</time>
</trkpt>
<trkpt lat="48.18166" lon="10.42196">
<ele>554</ele>
<time>2020-09-10T11:53:45Z</time>
</trkpt>
<trkpt lat="48.181343" lon="10.422088">
<ele>554</ele>
<time>2020-09-10T11:53:50Z</time>
</trkpt>
<trkpt lat="48.181" lon="10.422148">
<ele>554</ele>
<time>2020-09-10T11:53:55Z</time>
</trkpt>
<trkpt lat="48.180628" lon="10.422177">
<ele>554</ele>
<time>2020-09-10T11:54:00Z</time>
</trkpt>
<trkpt lat="48.18025" lon="10.422238">
<ele>554</ele>
<time>2020-09-10T11:54:05Z</time>
</trkpt>
<trkpt lat="48.179928" lon="10.422408">
<ele>552</ele>
<time>2020-09-10T11:54:10Z</time>
</trkpt>
<trkpt lat="48.179722" lon="10.422602">
<ele>552</ele>
<time>2020-09-10T11:54:15Z</time>
</trkpt>
<trkpt lat="48.17974" lon="10.423037">
<ele>552</ele>
<time>2020-09-10T11:54:20Z</time>
</trkpt>
<trkpt lat="48.179747" lon="10.423612">
<ele>552</ele>
<time>2020-09-10T11:54:25Z</time>
</trkpt>
<trkpt lat="48.179748" lon="10.4242">
<ele>552</ele>
<time>2020-09-10T11:54:30Z</time>
</trkpt>
<trkpt lat="48.179748" lon="10.424828">
<ele>551</ele>
<time>2020-09-10T11:54:35Z</time>
</trkpt>
<trkpt lat="48.179742" lon="10.425423">
<ele>550</ele>
<time>2020-09-10T11:54:40Z</time>
</trkpt>
<trkpt lat="48.179742" lon="10.425948">
<ele>548</ele>
<time>2020-09-10T11:54:45Z</time>
</trkpt>
<trkpt lat="48.179728" lon="10.426512">
<ele>548</ele>
<time>2020-09-10T11:54:50Z</time>
</trkpt>
<trkpt lat="48.179702" lon="10.427113">
<ele>548</ele>
<time>2020-09-10T11:54:55Z</time>
</trkpt>
<trkpt lat="48.179673" lon="10.427752">
<ele>548</ele>
<time>2020-09-10T11:55:00Z</time>
</trkpt>
<trkpt lat="48.179645" lon="10.428388">
<ele>548</ele>
<time>2020-09-10T11:55:05Z</time>
</trkpt>
<trkpt lat="48.17962" lon="10.429008">
<ele>548</ele>
<time>2020-09-10T11:55:10Z</time>
</trkpt>
<trkpt lat="48.1796" lon="10.42961">
<ele>548</ele>
<time>2020-09-10T11:55:15Z</time>
</trkpt>
<trkpt lat="48.179582" lon="10.430223">
<ele>548</ele>
<time>2020-09-10T11:55:20Z</time>
</trkpt>
<trkpt lat="48.179562" lon="10.430827">
<ele>548</ele>
<time>2020-09-10T11:55:25Z</time>
</trkpt>
<trkpt lat="48.179543" lon="10.431418">
<ele>548</ele>
<time>2020-09-10T11:55:30Z</time>
</trkpt>
<trkpt lat="48.179525" lon="10.432">
<ele>548</ele>
<time>2020-09-10T11:55:35Z</time>
</trkpt>
<trkpt lat="48.179508" lon="10.432578">
<ele>548</ele>
<time>2020-09-10T11:55:40Z</time>
</trkpt>
<trkpt lat="48.179488" lon="10.433162">
<ele>548</ele>
<time>2020-09-10T11:55:45Z</time>
</trkpt>
<trkpt lat="48.179468" lon="10.433738">
<ele>548</ele>
<time>2020-09-10T11:55:50Z</time>
</trkpt>
<trkpt lat="48.179448" lon="10.434315">
<ele>548</ele>
<time>2020-09-10T11:55:55Z</time>
</trkpt>
<trkpt lat="48.17943" lon="10.434875">
<ele>548</ele>
<time>2020-09-10T11:56:00Z</time>
</trkpt>
<trkpt lat="48.17941" lon="10.435413">
<ele>548</ele>
<time>2020-09-10T11:56:05Z</time>
</trkpt>
<trkpt lat="48.179392" lon="10.435935">
<ele>548</ele>
<time>2020-09-10T11:56:10Z</time>
</trkpt>
<trkpt lat="48.179367" lon="10.436408">
<ele>548</ele>
<time>2020-09-10T11:56:15Z</time>
</trkpt>
<trkpt lat="48.179088" lon="10.436625">
<ele>548</ele>
<time>2020-09-10T11:56:20Z</time>
</trkpt>
<trkpt lat="48.178725" lon="10.436838">
<ele>548</ele>
<time>2020-09-10T11:56:25Z</time>
</trkpt>
<trkpt lat="48.178335" lon="10.437062">
<ele>548</ele>
<time>2020-09-10T11:56:30Z</time>
</trkpt>
<trkpt lat="48.177965" lon="10.437295">
<ele>548</ele>
<time>2020-09-10T11:56:35Z</time>
</trkpt>
<trkpt lat="48.17761" lon="10.437522">
<ele>548</ele>
<time>2020-09-10T11:56:40Z</time>
</trkpt>
<trkpt lat="48.177285" lon="10.43776">
<ele>548</ele>
<time>2020-09-10T11:56:45Z</time>
</trkpt>
<trkpt lat="48.176983" lon="10.437997">
<ele>548</ele>
<time>2020-09-10T11:56:50Z</time>
</trkpt>
<trkpt lat="48.17671" lon="10.438205">
<ele>548</ele>
<time>2020-09-10T11:56:55Z</time>
</trkpt>
<trkpt lat="48.176427" lon="10.43842">
<ele>548</ele>
<time>2020-09-10T11:57:00Z</time>
</trkpt>
<trkpt lat="48.176122" lon="10.438638">
<ele>548</ele>
<time>2020-09-10T11:57:05Z</time>
</trkpt>
<trkpt lat="48.175813" lon="10.438863">
<ele>548</ele>
<time>2020-09-10T11:57:10Z</time>
</trkpt>
<trkpt lat="48.175505" lon="10.43908">
<ele>548</ele>
<time>2020-09-10T11:57:15Z</time>
</trkpt>
<trkpt lat="48.175192" lon="10.439288">
<ele>549</ele>
<time>2020-09-10T11:57:20Z</time>
</trkpt>
<trkpt lat="48.174878" lon="10.439522">
<ele>549</ele>
<time>2020-09-10T11:57:25Z</time>
</trkpt>
<trkpt lat="48.174557" lon="10.439753">
<ele>549</ele>
<time>2020-09-10T11:57:30Z</time>
</trkpt>
<trkpt lat="48.174237" lon="10.439977">
<ele>549</ele>
<time>2020-09-10T11:57:35Z</time>
</trkpt>
<trkpt lat="48.173918" lon="10.440192">
<ele>550</ele>
<time>2020-09-10T11:57:40Z</time>
</trkpt>
<trkpt lat="48.173598" lon="10.440413">
<ele>550</ele>
<time>2020-09-10T11:57:45Z</time>
</trkpt>
<trkpt lat="48.173273" lon="10.440642">
<ele>550</ele>
<time>2020-09-10T11:57:50Z</time>
</trkpt>
<trkpt lat="48.172943" lon="10.44087">
<ele>550</ele>
<time>2020-09-10T11:57:55Z</time>
</trkpt>
<trkpt lat="48.172608" lon="10.441093">
<ele>550</ele>
<time>2020-09-10T11:58:00Z</time>
</trkpt>
<trkpt lat="48.17228" lon="10.441325">
<ele>550</ele>
<time>2020-09-10T11:58:05Z</time>
</trkpt>
<trkpt lat="48.171957" lon="10.44155">
<ele>550</ele>
<time>2020-09-10T11:58:10Z</time>
</trkpt>
<trkpt lat="48.171628" lon="10.441772">
<ele>550</ele>
<time>2020-09-10T11:58:15Z</time>
</trkpt>
<trkpt lat="48.1713" lon="10.441998">
<ele>551</ele>
<time>2020-09-10T11:58:20Z</time>
</trkpt>
<trkpt lat="48.171008" lon="10.442202">
<ele>551</ele>
<time>2020-09-10T11:58:25Z</time>
</trkpt>
<trkpt lat="48.170973" lon="10.442592">
<ele>551</ele>
<time>2020-09-10T11:58:30Z</time>
</trkpt>
<trkpt lat="48.17107" lon="10.443082">
<ele>551</ele>
<time>2020-09-10T11:58:35Z</time>
</trkpt>
<trkpt lat="48.171162" lon="10.443567">
<ele>551</ele>
<time>2020-09-10T11:58:40Z</time>
</trkpt>
<trkpt lat="48.171248" lon="10.444047">
<ele>551</ele>
<time>2020-09-10T11:58:45Z</time>
</trkpt>
<trkpt lat="48.171338" lon="10.444545">
<ele>551</ele>
<time>2020-09-10T11:58:50Z</time>
</trkpt>
<trkpt lat="48.171423" lon="10.445053">
<ele>551</ele>
<time>2020-09-10T11:58:55Z</time>
</trkpt>
<trkpt lat="48.171298" lon="10.445523">
<ele>551</ele>
<time>2020-09-10T11:59:00Z</time>
</trkpt>
<trkpt lat="48.171088" lon="10.445948">
<ele>551</ele>
<time>2020-09-10T11:59:05Z</time>
</trkpt>
<trkpt lat="48.170933" lon="10.446435">
<ele>551</ele>
<time>2020-09-10T11:59:10Z</time>
</trkpt>
<trkpt lat="48.17083" lon="10.446955">
<ele>551</ele>
<time>2020-09-10T11:59:15Z</time>
</trkpt>
<trkpt lat="48.170742" lon="10.447482">
<ele>551</ele>
<time>2020-09-10T11:59:20Z</time>
</trkpt>
<trkpt lat="48.170643" lon="10.447963">
<ele>551</ele>
<time>2020-09-10T11:59:25Z</time>
</trkpt>
<trkpt lat="48.17072" lon="10.448287">
<ele>551</ele>
<time>2020-09-10T11:59:30Z</time>
</trkpt>
<trkpt lat="48.170848" lon="10.448665">
<ele>551</ele>
<time>2020-09-10T11:59:35Z</time>
</trkpt>
<trkpt lat="48.170767" lon="10.44912">
<ele>551</ele>
<time>2020-09-10T11:59:40Z</time>
</trkpt>
<trkpt lat="48.170683" lon="10.449593">
<ele>551</ele>
<time>2020-09-10T11:59:45Z</time>
</trkpt>
<trkpt lat="48.170603" lon="10.450077">
<ele>551</ele>
<time>2020-09-10T11:59:50Z</time>
</trkpt>
<trkpt lat="48.17052" lon="10.45057">
<ele>552</ele>
<time>2020-09-10T11:59:55Z</time>
</trkpt>
<trkpt lat="48.170435" lon="10.451077">
<ele>552</ele>
<time>2020-09-10T12:00:00Z</time>
</trkpt>
<trkpt lat="48.170352" lon="10.451582">
<ele>552</ele>
<time>2020-09-10T12:00:05Z</time>
</trkpt>
<trkpt lat="48.170265" lon="10.452088">
<ele>552</ele>
<time>2020-09-10T12:00:10Z</time>
</trkpt>
<trkpt lat="48.170203" lon="10.452598">
<ele>552</ele>
<time>2020-09-10T12:00:15Z</time>
</trkpt>
<trkpt lat="48.170177" lon="10.45312">
<ele>552</ele>
<time>2020-09-10T12:00:20Z</time>
</trkpt>
<trkpt lat="48.17006" lon="10.453598">
<ele>552</ele>
<time>2020-09-10T12:00:25Z</time>
</trkpt>
<trkpt lat="48.169915" lon="10.454077">
<ele>552</ele>
<time>2020-09-10T12:00:30Z</time>
</trkpt>
<trkpt lat="48.16983" lon="10.45459">
<ele>553</ele>
<time>2020-09-10T12:00:35Z</time>
</trkpt>
<trkpt lat="48.169743" lon="10.455113">
<ele>553</ele>
<time>2020-09-10T12:00:40Z</time>
</trkpt>
<trkpt lat="48.169658" lon="10.455633">
<ele>553</ele>
<time>2020-09-10T12:00:45Z</time>
</trkpt>
<trkpt lat="48.169577" lon="10.456152">
<ele>553</ele>
<time>2020-09-10T12:00:50Z</time>
</trkpt>
<trkpt lat="48.169502" lon="10.456627">
<ele>553</ele>
<time>2020-09-10T12:00:55Z</time>
</trkpt>
<trkpt lat="48.169628" lon="10.45709">
<ele>553</ele>
<time>2020-09-10T12:01:00Z</time>
</trkpt>
<trkpt lat="48.169805" lon="10.457527">
<ele>553</ele>
<time>2020-09-10T12:01:05Z</time>
</trkpt>
<trkpt lat="48.169967" lon="10.457983">
<ele>553</ele>
<time>2020-09-10T12:01:10Z</time>
</trkpt>
<trkpt lat="48.170107" lon="10.45845">
<ele>553</ele>
<time>2020-09-10T12:01:15Z</time>
</trkpt>
<trkpt lat="48.170232" lon="10.458927">
<ele>553</ele>
<time>2020-09-10T12:01:20Z</time>
</trkpt>
<trkpt lat="48.170368" lon="10.4594">
<ele>553</ele>
<time>2020-09-10T12:01:25Z</time>
</trkpt>
<trkpt lat="48.17049" lon="10.459873">
<ele>553</ele>
<time>2020-09-10T12:01:30Z</time>
</trkpt>
<trkpt lat="48.170615" lon="10.460352">
<ele>554</ele>
<time>2020-09-10T12:01:35Z</time>
</trkpt>
<trkpt lat="48.170717" lon="10.460785">
<ele>554</ele>
<time>2020-09-10T12:01:40Z</time>
</trkpt>
<trkpt lat="48.170823" lon="10.461202">
<ele>554</ele>
<time>2020-09-10T12:01:45Z</time>
</trkpt>
<trkpt lat="48.1709" lon="10.461365">
<ele>554</ele>
<time>2020-09-10T12:01:50Z</time>
</trkpt>
<trkpt lat="48.170998" lon="10.46157">
<ele>554</ele>
<time>2020-09-10T12:01:55Z</time>
</trkpt>
<trkpt lat="48.171147" lon="10.461913">
<ele>553</ele>
<time>2020-09-10T12:02:00Z</time>
</trkpt>
<trkpt lat="48.171325" lon="10.462293">
<ele>553</ele>
<time>2020-09-10T12:02:05Z</time>
</trkpt>
<trkpt lat="48.171512" lon="10.46271">
<ele>553</ele>
<time>2020-09-10T12:02:10Z</time>
</trkpt>
<trkpt lat="48.171712" lon="10.46311">
<ele>553</ele>
<time>2020-09-10T12:02:15Z</time>
</trkpt>
<trkpt lat="48.171902" lon="10.463503">
<ele>553</ele>
<time>2020-09-10T12:02:20Z</time>
</trkpt>
<trkpt lat="48.172087" lon="10.463893">
<ele>553</ele>
<time>2020-09-10T12:02:25Z</time>
</trkpt>
<trkpt lat="48.172268" lon="10.464293">
<ele>554</ele>
<time>2020-09-10T12:02:30Z</time>
</trkpt>
<trkpt lat="48.172413" lon="10.464663">
<ele>554</ele>
<time>2020-09-10T12:02:35Z</time>
</trkpt>
<trkpt lat="48.172472" lon="10.464918">
<ele>554</ele>
<time>2020-09-10T12:02:40Z</time>
</trkpt>
<trkpt lat="48.172547" lon="10.465117">
<ele>554</ele>
<time>2020-09-10T12:02:45Z</time>
</trkpt>
<trkpt lat="48.17268" lon="10.465448">
<ele>554</ele>
<time>2020-09-10T12:02:50Z</time>
</trkpt>
<trkpt lat="48.172812" lon="10.465853">
<ele>554</ele>
<time>2020-09-10T12:02:55Z</time>
</trkpt>
<trkpt lat="48.172942" lon="10.466282">
<ele>554</ele>
<time>2020-09-10T12:03:00Z</time>
</trkpt>
<trkpt lat="48.173063" lon="10.466682">
<ele>554</ele>
<time>2020-09-10T12:03:05Z</time>
</trkpt>
<trkpt lat="48.17317" lon="10.467113">
<ele>554</ele>
<time>2020-09-10T12:03:10Z</time>
</trkpt>
<trkpt lat="48.17327" lon="10.467555">
<ele>555</ele>
<time>2020-09-10T12:03:15Z</time>
</trkpt>
<trkpt lat="48.173367" lon="10.467975">
<ele>556</ele>
<time>2020-09-10T12:03:20Z</time>
</trkpt>
<trkpt lat="48.173445" lon="10.468387">
<ele>557</ele>
<time>2020-09-10T12:03:25Z</time>
</trkpt>
<trkpt lat="48.173498" lon="10.46879">
<ele>558</ele>
<time>2020-09-10T12:03:30Z</time>
</trkpt>
<trkpt lat="48.173532" lon="10.469162">
<ele>559</ele>
<time>2020-09-10T12:03:35Z</time>
</trkpt>
<trkpt lat="48.173548" lon="10.469493">
<ele>560</ele>
<time>2020-09-10T12:03:40Z</time>
</trkpt>
<trkpt lat="48.173552" lon="10.46979">
<ele>561</ele>
<time>2020-09-10T12:03:45Z</time>
</trkpt>
<trkpt lat="48.173555" lon="10.470045">
<ele>563</ele>
<time>2020-09-10T12:03:50Z</time>
</trkpt>
<trkpt lat="48.173543" lon="10.47032">
<ele>564</ele>
<time>2020-09-10T12:03:56Z</time>
</trkpt>
<trkpt lat="48.173532" lon="10.470585">
<ele>566</ele>
<time>2020-09-10T12:04:02Z</time>
</trkpt>
<trkpt lat="48.173525" lon="10.470835">
<ele>569</ele>
<time>2020-09-10T12:04:08Z</time>
</trkpt>
<trkpt lat="48.173522" lon="10.471042">
<ele>570</ele>
<time>2020-09-10T12:04:13Z</time>
</trkpt>
<trkpt lat="48.173532" lon="10.471277">
<ele>571</ele>
<time>2020-09-10T12:04:18Z</time>
</trkpt>
<trkpt lat="48.173547" lon="10.471565">
<ele>572</ele>
<time>2020-09-10T12:04:24Z</time>
</trkpt>
<trkpt lat="48.173555" lon="10.471822">
<ele>573</ele>
<time>2020-09-10T12:04:29Z</time>
</trkpt>
<trkpt lat="48.173565" lon="10.47209">
<ele>573</ele>
<time>2020-09-10T12:04:34Z</time>
</trkpt>
<trkpt lat="48.173572" lon="10.472342">
<ele>574</ele>
<time>2020-09-10T12:04:39Z</time>
</trkpt>
<trkpt lat="48.17359" lon="10.472632">
<ele>575</ele>
<time>2020-09-10T12:04:45Z</time>
</trkpt>
<trkpt lat="48.173573" lon="10.47289">
<ele>577</ele>
<time>2020-09-10T12:04:51Z</time>
</trkpt>
<trkpt lat="48.173458" lon="10.473033">
<ele>577</ele>
<time>2020-09-10T12:04:56Z</time>
</trkpt>
<trkpt lat="48.173327" lon="10.473203">
<ele>578</ele>
<time>2020-09-10T12:05:02Z</time>
</trkpt>
<trkpt lat="48.173223" lon="10.473348">
<ele>579</ele>
<time>2020-09-10T12:05:07Z</time>
</trkpt>
<trkpt lat="48.173127" lon="10.473483">
<ele>580</ele>
<time>2020-09-10T12:05:12Z</time>
</trkpt>
<trkpt lat="48.173042" lon="10.473595">
<ele>582</ele>
<time>2020-09-10T12:05:17Z</time>
</trkpt>
<trkpt lat="48.17293" lon="10.473703">
<ele>583</ele>
<time>2020-09-10T12:05:23Z</time>
</trkpt>
<trkpt lat="48.17283" lon="10.473793">
<ele>584</ele>
<time>2020-09-10T12:05:28Z</time>
</trkpt>
<trkpt lat="48.172657" lon="10.473865">
<ele>586</ele>
<time>2020-09-10T12:05:34Z</time>
</trkpt>
<trkpt lat="48.17257" lon="10.474043">
<ele>587</ele>
<time>2020-09-10T12:05:39Z</time>
</trkpt>
<trkpt lat="48.172575" lon="10.47424">
<ele>589</ele>
<time>2020-09-10T12:05:44Z</time>
</trkpt>
<trkpt lat="48.172582" lon="10.474473">
<ele>591</ele>
<time>2020-09-10T12:05:49Z</time>
</trkpt>
<trkpt lat="48.17257" lon="10.474732">
<ele>592</ele>
<time>2020-09-10T12:05:55Z</time>
</trkpt>
<trkpt lat="48.17258" lon="10.474938">
<ele>594</ele>
<time>2020-09-10T12:06:00Z</time>
</trkpt>
<trkpt lat="48.172593" lon="10.475188">
<ele>594</ele>
<time>2020-09-10T12:06:06Z</time>
</trkpt>
<trkpt lat="48.172582" lon="10.47547">
<ele>596</ele>
<time>2020-09-10T12:06:12Z</time>
</trkpt>
<trkpt lat="48.172565" lon="10.475745">
<ele>596</ele>
<time>2020-09-10T12:06:17Z</time>
</trkpt>
<trkpt lat="48.172555" lon="10.476035">
<ele>596</ele>
<time>2020-09-10T12:06:22Z</time>
</trkpt>
<trkpt lat="48.172533" lon="10.476393">
<ele>597</ele>
<time>2020-09-10T12:06:28Z</time>
</trkpt>
<trkpt lat="48.172508" lon="10.476727">
<ele>597</ele>
<time>2020-09-10T12:06:33Z</time>
</trkpt>
<trkpt lat="48.172485" lon="10.477105">
<ele>597</ele>
<time>2020-09-10T12:06:39Z</time>
</trkpt>
<trkpt lat="48.17245" lon="10.477508">
<ele>598</ele>
<time>2020-09-10T12:06:45Z</time>
</trkpt>
<trkpt lat="48.172425" lon="10.477853">
<ele>598</ele>
<time>2020-09-10T12:06:50Z</time>
</trkpt>
<trkpt lat="48.172402" lon="10.478248">
<ele>598</ele>
<time>2020-09-10T12:06:55Z</time>
</trkpt>
<trkpt lat="48.172405" lon="10.478683">
<ele>599</ele>
<time>2020-09-10T12:07:00Z</time>
</trkpt>
<trkpt lat="48.172407" lon="10.479253">
<ele>599</ele>
<time>2020-09-10T12:07:06Z</time>
</trkpt>
<trkpt lat="48.172383" lon="10.479748">
<ele>599</ele>
<time>2020-09-10T12:07:11Z</time>
</trkpt>
<trkpt lat="48.172335" lon="10.48022">
<ele>599</ele>
<time>2020-09-10T12:07:16Z</time>
</trkpt>
<trkpt lat="48.172265" lon="10.48066">
<ele>599</ele>
<time>2020-09-10T12:07:21Z</time>
</trkpt>
<trkpt lat="48.172152" lon="10.481177">
<ele>599</ele>
<time>2020-09-10T12:07:27Z</time>
</trkpt>
<trkpt lat="48.172027" lon="10.481583">
<ele>599</ele>
<time>2020-09-10T12:07:32Z</time>
</trkpt>
<trkpt lat="48.171892" lon="10.48198">
<ele>599</ele>
<time>2020-09-10T12:07:37Z</time>
</trkpt>
<trkpt lat="48.17171" lon="10.482333">
<ele>600</ele>
<time>2020-09-10T12:07:42Z</time>
</trkpt>
<trkpt lat="48.1715" lon="10.482792">
<ele>600</ele>
<time>2020-09-10T12:07:48Z</time>
</trkpt>
<trkpt lat="48.17129" lon="10.483248">
<ele>600</ele>
<time>2020-09-10T12:07:54Z</time>
</trkpt>
<trkpt lat="48.17112" lon="10.483603">
<ele>600</ele>
<time>2020-09-10T12:07:59Z</time>
</trkpt>
<trkpt lat="48.17095" lon="10.483967">
<ele>600</ele>
<time>2020-09-10T12:08:04Z</time>
</trkpt>
<trkpt lat="48.170797" lon="10.484298">
<ele>600</ele>
<time>2020-09-10T12:08:09Z</time>
</trkpt>
<trkpt lat="48.17062" lon="10.484608">
<ele>600</ele>
<time>2020-09-10T12:08:14Z</time>
</trkpt>
<trkpt lat="48.170387" lon="10.48498">
<ele>600</ele>
<time>2020-09-10T12:08:20Z</time>
</trkpt>
<trkpt lat="48.17017" lon="10.485263">
<ele>600</ele>
<time>2020-09-10T12:08:25Z</time>
</trkpt>
<trkpt lat="48.169902" lon="10.485568">
<ele>602</ele>
<time>2020-09-10T12:08:30Z</time>
</trkpt>
<trkpt lat="48.16958" lon="10.485957">
<ele>602</ele>
<time>2020-09-10T12:08:36Z</time>
</trkpt>
<trkpt lat="48.169308" lon="10.4864">
<ele>602</ele>
<time>2020-09-10T12:08:42Z</time>
</trkpt>
<trkpt lat="48.169043" lon="10.486858">
<ele>603</ele>
<time>2020-09-10T12:08:48Z</time>
</trkpt>
<trkpt lat="48.168818" lon="10.487188">
<ele>604</ele>
<time>2020-09-10T12:08:53Z</time>
</trkpt>
<trkpt lat="48.168475" lon="10.487445">
<ele>605</ele>
<time>2020-09-10T12:08:59Z</time>
</trkpt>
<trkpt lat="48.168157" lon="10.487603">
<ele>606</ele>
<time>2020-09-10T12:09:04Z</time>
</trkpt>
<trkpt lat="48.167745" lon="10.48782">
<ele>606</ele>
<time>2020-09-10T12:09:10Z</time>
</trkpt>
<trkpt lat="48.167352" lon="10.488155">
<ele>605</ele>
<time>2020-09-10T12:09:16Z</time>
</trkpt>
<trkpt lat="48.166987" lon="10.48854">
<ele>605</ele>
<time>2020-09-10T12:09:22Z</time>
</trkpt>
<trkpt lat="48.166725" lon="10.488885">
<ele>605</ele>
<time>2020-09-10T12:09:27Z</time>
</trkpt>
<trkpt lat="48.166448" lon="10.489337">
<ele>605</ele>
<time>2020-09-10T12:09:33Z</time>
</trkpt>
<trkpt lat="48.166217" lon="10.489733">
<ele>605</ele>
<time>2020-09-10T12:09:38Z</time>
</trkpt>
<trkpt lat="48.165933" lon="10.490258">
<ele>605</ele>
<time>2020-09-10T12:09:44Z</time>
</trkpt>
<trkpt lat="48.165712" lon="10.490708">
<ele>605</ele>
<time>2020-09-10T12:09:49Z</time>
</trkpt>
<trkpt lat="48.165498" lon="10.491135">
<ele>605</ele>
<time>2020-09-10T12:09:54Z</time>
</trkpt>
<trkpt lat="48.16528" lon="10.491572">
<ele>605</ele>
<time>2020-09-10T12:09:59Z</time>
</trkpt>
<trkpt lat="48.164933" lon="10.492027">
<ele>605</ele>
<time>2020-09-10T12:10:05Z</time>
</trkpt>
<trkpt lat="48.16461" lon="10.492187">
<ele>605</ele>
<time>2020-09-10T12:10:10Z</time>
</trkpt>
<trkpt lat="48.164222" lon="10.49226">
<ele>606</ele>
<time>2020-09-10T12:10:16Z</time>
</trkpt>
<trkpt lat="48.163862" lon="10.49233">
<ele>606</ele>
<time>2020-09-10T12:10:21Z</time>
</trkpt>
<trkpt lat="48.163472" lon="10.492448">
<ele>606</ele>
<time>2020-09-10T12:10:26Z</time>
</trkpt>
<trkpt lat="48.162997" lon="10.49265">
<ele>606</ele>
<time>2020-09-10T12:10:32Z</time>
</trkpt>
<trkpt lat="48.162575" lon="10.492868">
<ele>606</ele>
<time>2020-09-10T12:10:37Z</time>
</trkpt>
<trkpt lat="48.162118" lon="10.493117">
<ele>605</ele>
<time>2020-09-10T12:10:42Z</time>
</trkpt>
<trkpt lat="48.161587" lon="10.493398">
<ele>604</ele>
<time>2020-09-10T12:10:48Z</time>
</trkpt>
<trkpt lat="48.161083" lon="10.493632">
<ele>604</ele>
<time>2020-09-10T12:10:54Z</time>
</trkpt>
<trkpt lat="48.16058" lon="10.493837">
<ele>604</ele>
<time>2020-09-10T12:11:00Z</time>
</trkpt>
<trkpt lat="48.160175" lon="10.493993">
<ele>604</ele>
<time>2020-09-10T12:11:05Z</time>
</trkpt>
<trkpt lat="48.15976" lon="10.494152">
<ele>604</ele>
<time>2020-09-10T12:11:10Z</time>
</trkpt>
<trkpt lat="48.159347" lon="10.494318">
<ele>604</ele>
<time>2020-09-10T12:11:15Z</time>
</trkpt>
<trkpt lat="48.15885" lon="10.494507">
<ele>604</ele>
<time>2020-09-10T12:11:21Z</time>
</trkpt>
<trkpt lat="48.158432" lon="10.494672">
<ele>604</ele>
<time>2020-09-10T12:11:26Z</time>
</trkpt>
<trkpt lat="48.158022" lon="10.494817">
<ele>605</ele>
<time>2020-09-10T12:11:31Z</time>
</trkpt>
<trkpt lat="48.157568" lon="10.494963">
<ele>605</ele>
<time>2020-09-10T12:11:36Z</time>
</trkpt>
<trkpt lat="48.157042" lon="10.4952">
<ele>605</ele>
<time>2020-09-10T12:11:42Z</time>
</trkpt>
<trkpt lat="48.156555" lon="10.49557">
<ele>605</ele>
<time>2020-09-10T12:11:48Z</time>
</trkpt>
<trkpt lat="48.156132" lon="10.495975">
<ele>605</ele>
<time>2020-09-10T12:11:54Z</time>
</trkpt>
<trkpt lat="48.15582" lon="10.49628">
<ele>606</ele>
<time>2020-09-10T12:11:59Z</time>
</trkpt>
<trkpt lat="48.155482" lon="10.496582">
<ele>606</ele>
<time>2020-09-10T12:12:04Z</time>
</trkpt>
<trkpt lat="48.155072" lon="10.496848">
<ele>605</ele>
<time>2020-09-10T12:12:09Z</time>
</trkpt>
<trkpt lat="48.154672" lon="10.497163">
<ele>604</ele>
<time>2020-09-10T12:12:14Z</time>
</trkpt>
<trkpt lat="48.154303" lon="10.497592">
<ele>602</ele>
<time>2020-09-10T12:12:19Z</time>
</trkpt>
<trkpt lat="48.153912" lon="10.497985">
<ele>602</ele>
<time>2020-09-10T12:12:24Z</time>
</trkpt>
<trkpt lat="48.153515" lon="10.498328">
<ele>602</ele>
<time>2020-09-10T12:12:29Z</time>
</trkpt>
<trkpt lat="48.153137" lon="10.49872">
<ele>602</ele>
<time>2020-09-10T12:12:34Z</time>
</trkpt>
<trkpt lat="48.152767" lon="10.499143">
<ele>601</ele>
<time>2020-09-10T12:12:39Z</time>
</trkpt>
<trkpt lat="48.152402" lon="10.499673">
<ele>598</ele>
<time>2020-09-10T12:12:44Z</time>
</trkpt>
<trkpt lat="48.152017" lon="10.500248">
<ele>596</ele>
<time>2020-09-10T12:12:49Z</time>
</trkpt>
<trkpt lat="48.151652" lon="10.500933">
<ele>593</ele>
<time>2020-09-10T12:12:54Z</time>
</trkpt>
<trkpt lat="48.151307" lon="10.501748">
<ele>590</ele>
<time>2020-09-10T12:13:00Z</time>
</trkpt>
<trkpt lat="48.151023" lon="10.502383">
<ele>586</ele>
<time>2020-09-10T12:13:05Z</time>
</trkpt>
<trkpt lat="48.151148" lon="10.503023">
<ele>586</ele>
<time>2020-09-10T12:13:10Z</time>
</trkpt>
<trkpt lat="48.150907" lon="10.503513">
<ele>586</ele>
<time>2020-09-10T12:13:15Z</time>
</trkpt>
<trkpt lat="48.150495" lon="10.50389">
<ele>586</ele>
<time>2020-09-10T12:13:21Z</time>
</trkpt>
<trkpt lat="48.150195" lon="10.50416">
<ele>587</ele>
<time>2020-09-10T12:13:26Z</time>
</trkpt>
<trkpt lat="48.149885" lon="10.504487">
<ele>587</ele>
<time>2020-09-10T12:13:31Z</time>
</trkpt>
<trkpt lat="48.149468" lon="10.504633">
<ele>587</ele>
<time>2020-09-10T12:13:36Z</time>
</trkpt>
<trkpt lat="48.148908" lon="10.504643">
<ele>585</ele>
<time>2020-09-10T12:13:42Z</time>
</trkpt>
<trkpt lat="48.14838" lon="10.504653">
<ele>583</ele>
<time>2020-09-10T12:13:48Z</time>
</trkpt>
<trkpt lat="48.14783" lon="10.504687">
<ele>580</ele>
<time>2020-09-10T12:13:54Z</time>
</trkpt>
<trkpt lat="48.147315" lon="10.504847">
<ele>580</ele>
<time>2020-09-10T12:13:59Z</time>
</trkpt>
<trkpt lat="48.146768" lon="10.504903">
<ele>578</ele>
<time>2020-09-10T12:14:04Z</time>
</trkpt>
<trkpt lat="48.146238" lon="10.504885">
<ele>576</ele>
<time>2020-09-10T12:14:09Z</time>
</trkpt>
<trkpt lat="48.145782" lon="10.505127">
<ele>576</ele>
<time>2020-09-10T12:14:14Z</time>
</trkpt>
<trkpt lat="48.145348" lon="10.505447">
<ele>575</ele>
<time>2020-09-10T12:14:19Z</time>
</trkpt>
<trkpt lat="48.144867" lon="10.505615">
<ele>575</ele>
<time>2020-09-10T12:14:24Z</time>
</trkpt>
<trkpt lat="48.144297" lon="10.505647">
<ele>574</ele>
<time>2020-09-10T12:14:30Z</time>
</trkpt>
<trkpt lat="48.14385" lon="10.505777">
<ele>573</ele>
<time>2020-09-10T12:14:35Z</time>
</trkpt>
<trkpt lat="48.14343" lon="10.506078">
<ele>573</ele>
<time>2020-09-10T12:14:40Z</time>
</trkpt>
<trkpt lat="48.143005" lon="10.506387">
<ele>572</ele>
<time>2020-09-10T12:14:45Z</time>
</trkpt>
<trkpt lat="48.14256" lon="10.506517">
<ele>571</ele>
<time>2020-09-10T12:14:50Z</time>
</trkpt>
<trkpt lat="48.142118" lon="10.506612">
<ele>571</ele>
<time>2020-09-10T12:14:55Z</time>
</trkpt>
<trkpt lat="48.14171" lon="10.506762">
<ele>571</ele>
<time>2020-09-10T12:15:00Z</time>
</trkpt>
<trkpt lat="48.14143" lon="10.507197">
<ele>571</ele>
<time>2020-09-10T12:15:05Z</time>
</trkpt>
<trkpt lat="48.141157" lon="10.507655">
<ele>572</ele>
<time>2020-09-10T12:15:10Z</time>
</trkpt>
<trkpt lat="48.140817" lon="10.507928">
<ele>573</ele>
<time>2020-09-10T12:15:15Z</time>
</trkpt>
<trkpt lat="48.140452" lon="10.508017">
<ele>573</ele>
<time>2020-09-10T12:15:20Z</time>
</trkpt>
<trkpt lat="48.140088" lon="10.508057">
<ele>574</ele>
<time>2020-09-10T12:15:25Z</time>
</trkpt>
<trkpt lat="48.139708" lon="10.50799">
<ele>575</ele>
<time>2020-09-10T12:15:30Z</time>
</trkpt>
<trkpt lat="48.13921" lon="10.50788">
<ele>575</ele>
<time>2020-09-10T12:15:36Z</time>
</trkpt>
<trkpt lat="48.1388" lon="10.507935">
<ele>575</ele>
<time>2020-09-10T12:15:41Z</time>
</trkpt>
<trkpt lat="48.138402" lon="10.508102">
<ele>575</ele>
<time>2020-09-10T12:15:46Z</time>
</trkpt>
<trkpt lat="48.138042" lon="10.508495">
<ele>575</ele>
<time>2020-09-10T12:15:51Z</time>
</trkpt>
<trkpt lat="48.137678" lon="10.508887">
<ele>575</ele>
<time>2020-09-10T12:15:56Z</time>
</trkpt>
<trkpt lat="48.137318" lon="10.50929">
<ele>574</ele>
<time>2020-09-10T12:16:01Z</time>
</trkpt>
<trkpt lat="48.136977" lon="10.509708">
<ele>574</ele>
<time>2020-09-10T12:16:06Z</time>
</trkpt>
<trkpt lat="48.136577" lon="10.510117">
<ele>574</ele>
<time>2020-09-10T12:16:12Z</time>
</trkpt>
<trkpt lat="48.136175" lon="10.510502">
<ele>575</ele>
<time>2020-09-10T12:16:18Z</time>
</trkpt>
<trkpt lat="48.135808" lon="10.510773">
<ele>575</ele>
<time>2020-09-10T12:16:23Z</time>
</trkpt>
<trkpt lat="48.135457" lon="10.511045">
<ele>575</ele>
<time>2020-09-10T12:16:28Z</time>
</trkpt>
<trkpt lat="48.1351" lon="10.511347">
<ele>575</ele>
<time>2020-09-10T12:16:33Z</time>
</trkpt>
<trkpt lat="48.134758" lon="10.511657">
<ele>575</ele>
<time>2020-09-10T12:16:38Z</time>
</trkpt>
<trkpt lat="48.13444" lon="10.511967">
<ele>575</ele>
<time>2020-09-10T12:16:43Z</time>
</trkpt>
<trkpt lat="48.134147" lon="10.512285">
<ele>576</ele>
<time>2020-09-10T12:16:48Z</time>
</trkpt>
<trkpt lat="48.133855" lon="10.512618">
<ele>576</ele>
<time>2020-09-10T12:16:53Z</time>
</trkpt>
<trkpt lat="48.133575" lon="10.512982">
<ele>576</ele>
<time>2020-09-10T12:16:58Z</time>
</trkpt>
<trkpt lat="48.13333" lon="10.51341">
<ele>576</ele>
<time>2020-09-10T12:17:03Z</time>
</trkpt>
<trkpt lat="48.133135" lon="10.51389">
<ele>576</ele>
<time>2020-09-10T12:17:08Z</time>
</trkpt>
<trkpt lat="48.132968" lon="10.514415">
<ele>576</ele>
<time>2020-09-10T12:17:13Z</time>
</trkpt>
<trkpt lat="48.132795" lon="10.514927">
<ele>576</ele>
<time>2020-09-10T12:17:18Z</time>
</trkpt>
<trkpt lat="48.132548" lon="10.515342">
<ele>577</ele>
<time>2020-09-10T12:17:23Z</time>
</trkpt>
<trkpt lat="48.13227" lon="10.515762">
<ele>577</ele>
<time>2020-09-10T12:17:28Z</time>
</trkpt>
<trkpt lat="48.131995" lon="10.516155">
<ele>577</ele>
<time>2020-09-10T12:17:33Z</time>
</trkpt>
<trkpt lat="48.131748" lon="10.516588">
<ele>578</ele>
<time>2020-09-10T12:17:38Z</time>
</trkpt>
<trkpt lat="48.131548" lon="10.517048">
<ele>578</ele>
<time>2020-09-10T12:17:43Z</time>
</trkpt>
<trkpt lat="48.131368" lon="10.517553">
<ele>579</ele>
<time>2020-09-10T12:17:48Z</time>
</trkpt>
<trkpt lat="48.131205" lon="10.518062">
<ele>579</ele>
<time>2020-09-10T12:17:53Z</time>
</trkpt>
<trkpt lat="48.13104" lon="10.518535">
<ele>579</ele>
<time>2020-09-10T12:17:58Z</time>
</trkpt>
<trkpt lat="48.1309" lon="10.519022">
<ele>579</ele>
<time>2020-09-10T12:18:03Z</time>
</trkpt>
<trkpt lat="48.130768" lon="10.519535">
<ele>580</ele>
<time>2020-09-10T12:18:08Z</time>
</trkpt>
<trkpt lat="48.130608" lon="10.520032">
<ele>581</ele>
<time>2020-09-10T12:18:13Z</time>
</trkpt>
<trkpt lat="48.130357" lon="10.520468">
<ele>581</ele>
<time>2020-09-10T12:18:18Z</time>
</trkpt>
<trkpt lat="48.130078" lon="10.52092">
<ele>581</ele>
<time>2020-09-10T12:18:23Z</time>
</trkpt>
<trkpt lat="48.129798" lon="10.521387">
<ele>581</ele>
<time>2020-09-10T12:18:28Z</time>
</trkpt>
<trkpt lat="48.12956" lon="10.521822">
<ele>581</ele>
<time>2020-09-10T12:18:33Z</time>
</trkpt>
<trkpt lat="48.129348" lon="10.522252">
<ele>582</ele>
<time>2020-09-10T12:18:38Z</time>
</trkpt>
<trkpt lat="48.129133" lon="10.522697">
<ele>582</ele>
<time>2020-09-10T12:18:43Z</time>
</trkpt>
<trkpt lat="48.12891" lon="10.523132">
<ele>582</ele>
<time>2020-09-10T12:18:48Z</time>
</trkpt>
<trkpt lat="48.128648" lon="10.523635">
<ele>582</ele>
<time>2020-09-10T12:18:54Z</time>
</trkpt>
<trkpt lat="48.128417" lon="10.524022">
<ele>582</ele>
<time>2020-09-10T12:18:59Z</time>
</trkpt>
<trkpt lat="48.128207" lon="10.524458">
<ele>582</ele>
<time>2020-09-10T12:19:04Z</time>
</trkpt>
<trkpt lat="48.128028" lon="10.524927">
<ele>582</ele>
<time>2020-09-10T12:19:09Z</time>
</trkpt>
<trkpt lat="48.127897" lon="10.525428">
<ele>582</ele>
<time>2020-09-10T12:19:14Z</time>
</trkpt>
<trkpt lat="48.127812" lon="10.525957">
<ele>582</ele>
<time>2020-09-10T12:19:19Z</time>
</trkpt>
<trkpt lat="48.127717" lon="10.526443">
<ele>582</ele>
<time>2020-09-10T12:19:24Z</time>
</trkpt>
<trkpt lat="48.127642" lon="10.526938">
<ele>583</ele>
<time>2020-09-10T12:19:29Z</time>
</trkpt>
<trkpt lat="48.127567" lon="10.527418">
<ele>583</ele>
<time>2020-09-10T12:19:34Z</time>
</trkpt>
<trkpt lat="48.127508" lon="10.527893">
<ele>583</ele>
<time>2020-09-10T12:19:39Z</time>
</trkpt>
<trkpt lat="48.12743" lon="10.528362">
<ele>584</ele>
<time>2020-09-10T12:19:44Z</time>
</trkpt>
<trkpt lat="48.127267" lon="10.528782">
<ele>584</ele>
<time>2020-09-10T12:19:49Z</time>
</trkpt>
<trkpt lat="48.127045" lon="10.529168">
<ele>585</ele>
<time>2020-09-10T12:19:54Z</time>
</trkpt>
<trkpt lat="48.12684" lon="10.529582">
<ele>585</ele>
<time>2020-09-10T12:19:59Z</time>
</trkpt>
<trkpt lat="48.126643" lon="10.530022">
<ele>585</ele>
<time>2020-09-10T12:20:04Z</time>
</trkpt>
<trkpt lat="48.12646" lon="10.530487">
<ele>585</ele>
<time>2020-09-10T12:20:09Z</time>
</trkpt>
<trkpt lat="48.126293" lon="10.530952">
<ele>585</ele>
<time>2020-09-10T12:20:14Z</time>
</trkpt>
<trkpt lat="48.126145" lon="10.531417">
<ele>586</ele>
<time>2020-09-10T12:20:19Z</time>
</trkpt>
<trkpt lat="48.126002" lon="10.531873">
<ele>586</ele>
<time>2020-09-10T12:20:24Z</time>
</trkpt>
<trkpt lat="48.125992" lon="10.532115">
<ele>586</ele>
<time>2020-09-10T12:20:29Z</time>
</trkpt>
<trkpt lat="48.126012" lon="10.532123">
<ele>586</ele>
<time>2020-09-10T12:20:34Z</time>
</trkpt>
<trkpt lat="48.126012" lon="10.532122">
<ele>586</ele>
<time>2020-09-10T12:20:35Z</time>
</trkpt>
<trkpt lat="48.126033" lon="10.532107">
<ele>586</ele>
<time>2020-09-10T12:20:36Z</time>
</trkpt>
<trkpt lat="48.125985" lon="10.53215">
<ele>586</ele>
<time>2020-09-10T12:20:41Z</time>
</trkpt>
<trkpt lat="48.125922" lon="10.532158">
<ele>586</ele>
<time>2020-09-10T12:20:46Z</time>
</trkpt>
<trkpt lat="48.1259" lon="10.532157">
<ele>586</ele>
<time>2020-09-10T12:20:51Z</time>
</trkpt>
<trkpt lat="48.125883" lon="10.532132">
<ele>586</ele>
<time>2020-09-10T12:20:54Z</time>
</trkpt>
<trkpt lat="48.12577" lon="10.532188">
<ele>586</ele>
<time>2020-09-10T12:20:59Z</time>
</trkpt>
<trkpt lat="48.125632" lon="10.532297">
<ele>586</ele>
<time>2020-09-10T12:21:04Z</time>
</trkpt>
<trkpt lat="48.125468" lon="10.532425">
<ele>586</ele>
<time>2020-09-10T12:21:09Z</time>
</trkpt>
<trkpt lat="48.125285" lon="10.53257">
<ele>587</ele>
<time>2020-09-10T12:21:14Z</time>
</trkpt>
<trkpt lat="48.125088" lon="10.532732">
<ele>587</ele>
<time>2020-09-10T12:21:19Z</time>
</trkpt>
<trkpt lat="48.124903" lon="10.532947">
<ele>588</ele>
<time>2020-09-10T12:21:24Z</time>
</trkpt>
<trkpt lat="48.124725" lon="10.533277">
<ele>588</ele>
<time>2020-09-10T12:21:29Z</time>
</trkpt>
<trkpt lat="48.12454" lon="10.533613">
<ele>588</ele>
<time>2020-09-10T12:21:34Z</time>
</trkpt>
<trkpt lat="48.124347" lon="10.533975">
<ele>588</ele>
<time>2020-09-10T12:21:39Z</time>
</trkpt>
<trkpt lat="48.124142" lon="10.534335">
<ele>588</ele>
<time>2020-09-10T12:21:44Z</time>
</trkpt>
<trkpt lat="48.12393" lon="10.53472">
<ele>587</ele>
<time>2020-09-10T12:21:49Z</time>
</trkpt>
<trkpt lat="48.123723" lon="10.535117">
<ele>586</ele>
<time>2020-09-10T12:21:54Z</time>
</trkpt>
<trkpt lat="48.123513" lon="10.535523">
<ele>586</ele>
<time>2020-09-10T12:21:59Z</time>
</trkpt>
<trkpt lat="48.123305" lon="10.535932">
<ele>586</ele>
<time>2020-09-10T12:22:04Z</time>
</trkpt>
<trkpt lat="48.123107" lon="10.536332">
<ele>586</ele>
<time>2020-09-10T12:22:09Z</time>
</trkpt>
<trkpt lat="48.122878" lon="10.53681">
<ele>586</ele>
<time>2020-09-10T12:22:15Z</time>
</trkpt>
<trkpt lat="48.122713" lon="10.537238">
<ele>586</ele>
<time>2020-09-10T12:22:20Z</time>
</trkpt>
<trkpt lat="48.122548" lon="10.537665">
<ele>586</ele>
<time>2020-09-10T12:22:25Z</time>
</trkpt>
<trkpt lat="48.122335" lon="10.538033">
<ele>586</ele>
<time>2020-09-10T12:22:30Z</time>
</trkpt>
<trkpt lat="48.122018" lon="10.538147">
<ele>586</ele>
<time>2020-09-10T12:22:35Z</time>
</trkpt>
<trkpt lat="48.121718" lon="10.538298">
<ele>586</ele>
<time>2020-09-10T12:22:40Z</time>
</trkpt>
<trkpt lat="48.121597" lon="10.538762">
<ele>586</ele>
<time>2020-09-10T12:22:45Z</time>
</trkpt>
<trkpt lat="48.121498" lon="10.539225">
<ele>586</ele>
<time>2020-09-10T12:22:50Z</time>
</trkpt>
<trkpt lat="48.121418" lon="10.539708">
<ele>587</ele>
<time>2020-09-10T12:22:55Z</time>
</trkpt>
<trkpt lat="48.121252" lon="10.540107">
<ele>587</ele>
<time>2020-09-10T12:23:00Z</time>
</trkpt>
<trkpt lat="48.120987" lon="10.540315">
<ele>587</ele>
<time>2020-09-10T12:23:05Z</time>
</trkpt>
<trkpt lat="48.120672" lon="10.540327">
<ele>588</ele>
<time>2020-09-10T12:23:10Z</time>
</trkpt>
<trkpt lat="48.120377" lon="10.540465">
<ele>588</ele>
<time>2020-09-10T12:23:15Z</time>
</trkpt>
<trkpt lat="48.12012" lon="10.540712">
<ele>588</ele>
<time>2020-09-10T12:23:20Z</time>
</trkpt>
<trkpt lat="48.119853" lon="10.54086">
<ele>588</ele>
<time>2020-09-10T12:23:25Z</time>
</trkpt>
<trkpt lat="48.119562" lon="10.540613">
<ele>588</ele>
<time>2020-09-10T12:23:30Z</time>
</trkpt>
<trkpt lat="48.119215" lon="10.540538">
<ele>588</ele>
<time>2020-09-10T12:23:35Z</time>
</trkpt>
<trkpt lat="48.11886" lon="10.540638">
<ele>588</ele>
<time>2020-09-10T12:23:40Z</time>
</trkpt>
<trkpt lat="48.11852" lon="10.540813">
<ele>588</ele>
<time>2020-09-10T12:23:45Z</time>
</trkpt>
<trkpt lat="48.118213" lon="10.541067">
<ele>588</ele>
<time>2020-09-10T12:23:50Z</time>
</trkpt>
<trkpt lat="48.11792" lon="10.541365">
<ele>588</ele>
<time>2020-09-10T12:23:55Z</time>
</trkpt>
<trkpt lat="48.11765" lon="10.541695">
<ele>588</ele>
<time>2020-09-10T12:24:00Z</time>
</trkpt>
<trkpt lat="48.11738" lon="10.542043">
<ele>588</ele>
<time>2020-09-10T12:24:05Z</time>
</trkpt>
<trkpt lat="48.117088" lon="10.542342">
<ele>588</ele>
<time>2020-09-10T12:24:10Z</time>
</trkpt>
<trkpt lat="48.116778" lon="10.542593">
<ele>589</ele>
<time>2020-09-10T12:24:15Z</time>
</trkpt>
<trkpt lat="48.116468" lon="10.542847">
<ele>590</ele>
<time>2020-09-10T12:24:20Z</time>
</trkpt>
<trkpt lat="48.116142" lon="10.543058">
<ele>590</ele>
<time>2020-09-10T12:24:25Z</time>
</trkpt>
<trkpt lat="48.115797" lon="10.543213">
<ele>591</ele>
<time>2020-09-10T12:24:30Z</time>
</trkpt>
<trkpt lat="48.115458" lon="10.543398">
<ele>591</ele>
<time>2020-09-10T12:24:35Z</time>
</trkpt>
<trkpt lat="48.115137" lon="10.54363">
<ele>591</ele>
<time>2020-09-10T12:24:40Z</time>
</trkpt>
<trkpt lat="48.114825" lon="10.54387">
<ele>591</ele>
<time>2020-09-10T12:24:45Z</time>
</trkpt>
<trkpt lat="48.114502" lon="10.544085">
<ele>591</ele>
<time>2020-09-10T12:24:50Z</time>
</trkpt>
<trkpt lat="48.11419" lon="10.544317">
<ele>591</ele>
<time>2020-09-10T12:24:55Z</time>
</trkpt>
<trkpt lat="48.1139" lon="10.544603">
<ele>591</ele>
<time>2020-09-10T12:25:00Z</time>
</trkpt>
<trkpt lat="48.113608" lon="10.544905">
<ele>592</ele>
<time>2020-09-10T12:25:05Z</time>
</trkpt>
<trkpt lat="48.113312" lon="10.545187">
<ele>592</ele>
<time>2020-09-10T12:25:10Z</time>
</trkpt>
<trkpt lat="48.11301" lon="10.545437">
<ele>592</ele>
<time>2020-09-10T12:25:15Z</time>
</trkpt>
<trkpt lat="48.112713" lon="10.545653">
<ele>592</ele>
<time>2020-09-10T12:25:20Z</time>
</trkpt>
<trkpt lat="48.112408" lon="10.54587">
<ele>593</ele>
<time>2020-09-10T12:25:25Z</time>
</trkpt>
<trkpt lat="48.1121" lon="10.546138">
<ele>593</ele>
<time>2020-09-10T12:25:30Z</time>
</trkpt>
<trkpt lat="48.11179" lon="10.546467">
<ele>593</ele>
<time>2020-09-10T12:25:35Z</time>
</trkpt>
<trkpt lat="48.111505" lon="10.546827">
<ele>593</ele>
<time>2020-09-10T12:25:40Z</time>
</trkpt>
<trkpt lat="48.111252" lon="10.547227">
<ele>593</ele>
<time>2020-09-10T12:25:45Z</time>
</trkpt>
<trkpt lat="48.111005" lon="10.547645">
<ele>593</ele>
<time>2020-09-10T12:25:50Z</time>
</trkpt>
<trkpt lat="48.11075" lon="10.548048">
<ele>593</ele>
<time>2020-09-10T12:25:55Z</time>
</trkpt>
<trkpt lat="48.110502" lon="10.548438">
<ele>593</ele>
<time>2020-09-10T12:26:00Z</time>
</trkpt>
<trkpt lat="48.110232" lon="10.548795">
<ele>593</ele>
<time>2020-09-10T12:26:05Z</time>
</trkpt>
<trkpt lat="48.109945" lon="10.549108">
<ele>593</ele>
<time>2020-09-10T12:26:10Z</time>
</trkpt>
<trkpt lat="48.109678" lon="10.549458">
<ele>593</ele>
<time>2020-09-10T12:26:15Z</time>
</trkpt>
<trkpt lat="48.109383" lon="10.549777">
<ele>593</ele>
<time>2020-09-10T12:26:20Z</time>
</trkpt>
<trkpt lat="48.109052" lon="10.550013">
<ele>593</ele>
<time>2020-09-10T12:26:25Z</time>
</trkpt>
<trkpt lat="48.1087" lon="10.550203">
<ele>593</ele>
<time>2020-09-10T12:26:30Z</time>
</trkpt>
<trkpt lat="48.10835" lon="10.550363">
<ele>593</ele>
<time>2020-09-10T12:26:35Z</time>
</trkpt>
<trkpt lat="48.108015" lon="10.550567">
<ele>593</ele>
<time>2020-09-10T12:26:40Z</time>
</trkpt>
<trkpt lat="48.10772" lon="10.550872">
<ele>593</ele>
<time>2020-09-10T12:26:45Z</time>
</trkpt>
<trkpt lat="48.107483" lon="10.551273">
<ele>593</ele>
<time>2020-09-10T12:26:50Z</time>
</trkpt>
<trkpt lat="48.1073" lon="10.551738">
<ele>593</ele>
<time>2020-09-10T12:26:55Z</time>
</trkpt>
<trkpt lat="48.107115" lon="10.55221">
<ele>593</ele>
<time>2020-09-10T12:27:00Z</time>
</trkpt>
<trkpt lat="48.106917" lon="10.55266">
<ele>593</ele>
<time>2020-09-10T12:27:05Z</time>
</trkpt>
<trkpt lat="48.106695" lon="10.553088">
<ele>593</ele>
<time>2020-09-10T12:27:10Z</time>
</trkpt>
<trkpt lat="48.106465" lon="10.553495">
<ele>593</ele>
<time>2020-09-10T12:27:15Z</time>
</trkpt>
<trkpt lat="48.106232" lon="10.55389">
<ele>593</ele>
<time>2020-09-10T12:27:20Z</time>
</trkpt>
<trkpt lat="48.105983" lon="10.554267">
<ele>593</ele>
<time>2020-09-10T12:27:25Z</time>
</trkpt>
<trkpt lat="48.105733" lon="10.554633">
<ele>594</ele>
<time>2020-09-10T12:27:30Z</time>
</trkpt>
<trkpt lat="48.10549" lon="10.555028">
<ele>594</ele>
<time>2020-09-10T12:27:35Z</time>
</trkpt>
<trkpt lat="48.10529" lon="10.555482">
<ele>594</ele>
<time>2020-09-10T12:27:40Z</time>
</trkpt>
<trkpt lat="48.10511" lon="10.555953">
<ele>594</ele>
<time>2020-09-10T12:27:45Z</time>
</trkpt>
<trkpt lat="48.104903" lon="10.556388">
<ele>594</ele>
<time>2020-09-10T12:27:50Z</time>
</trkpt>
<trkpt lat="48.104688" lon="10.556735">
<ele>594</ele>
<time>2020-09-10T12:27:55Z</time>
</trkpt>
<trkpt lat="48.10449" lon="10.557007">
<ele>594</ele>
<time>2020-09-10T12:28:00Z</time>
</trkpt>
<trkpt lat="48.104333" lon="10.557165">
<ele>594</ele>
<time>2020-09-10T12:28:05Z</time>
</trkpt>
<trkpt lat="48.10431" lon="10.557133">
<ele>593</ele>
<time>2020-09-10T12:28:10Z</time>
</trkpt>
<trkpt lat="48.104333" lon="10.557133">
<ele>592</ele>
<time>2020-09-10T12:28:16Z</time>
</trkpt>
<trkpt lat="48.104333" lon="10.557157">
<ele>592</ele>
<time>2020-09-10T12:28:18Z</time>
</trkpt>
<trkpt lat="48.104253" lon="10.557325">
<ele>592</ele>
<time>2020-09-10T12:28:23Z</time>
</trkpt>
<trkpt lat="48.104105" lon="10.557548">
<ele>592</ele>
<time>2020-09-10T12:28:28Z</time>
</trkpt>
<trkpt lat="48.103945" lon="10.557807">
<ele>592</ele>
<time>2020-09-10T12:28:33Z</time>
</trkpt>
<trkpt lat="48.103783" lon="10.558095">
<ele>592</ele>
<time>2020-09-10T12:28:38Z</time>
</trkpt>
<trkpt lat="48.103597" lon="10.558403">
<ele>592</ele>
<time>2020-09-10T12:28:43Z</time>
</trkpt>
<trkpt lat="48.103405" lon="10.558717">
<ele>592</ele>
<time>2020-09-10T12:28:48Z</time>
</trkpt>
<trkpt lat="48.103163" lon="10.559012">
<ele>592</ele>
<time>2020-09-10T12:28:53Z</time>
</trkpt>
<trkpt lat="48.102935" lon="10.559343">
<ele>592</ele>
<time>2020-09-10T12:28:58Z</time>
</trkpt>
<trkpt lat="48.102745" lon="10.55975">
<ele>592</ele>
<time>2020-09-10T12:29:03Z</time>
</trkpt>
<trkpt lat="48.102605" lon="10.560198">
<ele>592</ele>
<time>2020-09-10T12:29:08Z</time>
</trkpt>
<trkpt lat="48.102488" lon="10.560637">
<ele>591</ele>
<time>2020-09-10T12:29:13Z</time>
</trkpt>
<trkpt lat="48.102357" lon="10.560983">
<ele>591</ele>
<time>2020-09-10T12:29:18Z</time>
</trkpt>
<trkpt lat="48.102073" lon="10.561148">
<ele>591</ele>
<time>2020-09-10T12:29:23Z</time>
</trkpt>
<trkpt lat="48.101802" lon="10.5613">
<ele>591</ele>
<time>2020-09-10T12:29:28Z</time>
</trkpt>
<trkpt lat="48.101518" lon="10.561165">
<ele>591</ele>
<time>2020-09-10T12:29:33Z</time>
</trkpt>
<trkpt lat="48.101333" lon="10.561015">
<ele>591</ele>
<time>2020-09-10T12:29:38Z</time>
</trkpt>
<trkpt lat="48.101313" lon="10.560922">
<ele>591</ele>
<time>2020-09-10T12:29:43Z</time>
</trkpt>
<trkpt lat="48.101297" lon="10.56089">
<ele>591</ele>
<time>2020-09-10T12:29:45Z</time>
</trkpt>
<trkpt lat="48.101157" lon="10.561057">
<ele>591</ele>
<time>2020-09-10T12:29:50Z</time>
</trkpt>
<trkpt lat="48.100967" lon="10.561322">
<ele>591</ele>
<time>2020-09-10T12:29:55Z</time>
</trkpt>
<trkpt lat="48.100743" lon="10.561572">
<ele>591</ele>
<time>2020-09-10T12:30:00Z</time>
</trkpt>
<trkpt lat="48.100467" lon="10.561642">
<ele>591</ele>
<time>2020-09-10T12:30:05Z</time>
</trkpt>
<trkpt lat="48.100162" lon="10.561667">
<ele>591</ele>
<time>2020-09-10T12:30:10Z</time>
</trkpt>
<trkpt lat="48.099857" lon="10.56171">
<ele>591</ele>
<time>2020-09-10T12:30:15Z</time>
</trkpt>
<trkpt lat="48.099537" lon="10.561783">
<ele>591</ele>
<time>2020-09-10T12:30:20Z</time>
</trkpt>
<trkpt lat="48.099217" lon="10.561903">
<ele>591</ele>
<time>2020-09-10T12:30:25Z</time>
</trkpt>
<trkpt lat="48.098905" lon="10.562038">
<ele>592</ele>
<time>2020-09-10T12:30:30Z</time>
</trkpt>
<trkpt lat="48.098597" lon="10.562165">
<ele>592</ele>
<time>2020-09-10T12:30:35Z</time>
</trkpt>
<trkpt lat="48.09829" lon="10.562308">
<ele>592</ele>
<time>2020-09-10T12:30:40Z</time>
</trkpt>
<trkpt lat="48.097972" lon="10.562457">
<ele>593</ele>
<time>2020-09-10T12:30:45Z</time>
</trkpt>
<trkpt lat="48.09765" lon="10.562602">
<ele>593</ele>
<time>2020-09-10T12:30:50Z</time>
</trkpt>
<trkpt lat="48.097327" lon="10.562743">
<ele>593</ele>
<time>2020-09-10T12:30:55Z</time>
</trkpt>
<trkpt lat="48.096993" lon="10.562888">
<ele>593</ele>
<time>2020-09-10T12:31:00Z</time>
</trkpt>
<trkpt lat="48.096662" lon="10.563042">
<ele>593</ele>
<time>2020-09-10T12:31:05Z</time>
</trkpt>
<trkpt lat="48.096323" lon="10.563182">
<ele>593</ele>
<time>2020-09-10T12:31:10Z</time>
</trkpt>
<trkpt lat="48.095987" lon="10.563332">
<ele>593</ele>
<time>2020-09-10T12:31:15Z</time>
</trkpt>
<trkpt lat="48.09565" lon="10.563477">
<ele>593</ele>
<time>2020-09-10T12:31:20Z</time>
</trkpt>
<trkpt lat="48.095312" lon="10.563622">
<ele>594</ele>
<time>2020-09-10T12:31:25Z</time>
</trkpt>
<trkpt lat="48.094972" lon="10.563777">
<ele>594</ele>
<time>2020-09-10T12:31:30Z</time>
</trkpt>
<trkpt lat="48.094628" lon="10.563927">
<ele>594</ele>
<time>2020-09-10T12:31:35Z</time>
</trkpt>
<trkpt lat="48.094285" lon="10.564073">
<ele>594</ele>
<time>2020-09-10T12:31:40Z</time>
</trkpt>
<trkpt lat="48.093942" lon="10.564223">
<ele>595</ele>
<time>2020-09-10T12:31:45Z</time>
</trkpt>
<trkpt lat="48.0936" lon="10.564368">
<ele>595</ele>
<time>2020-09-10T12:31:50Z</time>
</trkpt>
<trkpt lat="48.093262" lon="10.564517">
<ele>595</ele>
<time>2020-09-10T12:31:55Z</time>
</trkpt>
<trkpt lat="48.09292" lon="10.564668">
<ele>595</ele>
<time>2020-09-10T12:32:00Z</time>
</trkpt>
<trkpt lat="48.092572" lon="10.564815">
<ele>595</ele>
<time>2020-09-10T12:32:05Z</time>
</trkpt>
<trkpt lat="48.09222" lon="10.564967">
<ele>595</ele>
<time>2020-09-10T12:32:10Z</time>
</trkpt>
<trkpt lat="48.091868" lon="10.565108">
<ele>595</ele>
<time>2020-09-10T12:32:15Z</time>
</trkpt>
<trkpt lat="48.091523" lon="10.565235">
<ele>595</ele>
<time>2020-09-10T12:32:20Z</time>
</trkpt>
<trkpt lat="48.091177" lon="10.565367">
<ele>595</ele>
<time>2020-09-10T12:32:25Z</time>
</trkpt>
<trkpt lat="48.090822" lon="10.565505">
<ele>595</ele>
<time>2020-09-10T12:32:30Z</time>
</trkpt>
<trkpt lat="48.090462" lon="10.565647">
<ele>596</ele>
<time>2020-09-10T12:32:35Z</time>
</trkpt>
<trkpt lat="48.090095" lon="10.565785">
<ele>596</ele>
<time>2020-09-10T12:32:40Z</time>
</trkpt>
<trkpt lat="48.089733" lon="10.565917">
<ele>596</ele>
<time>2020-09-10T12:32:45Z</time>
</trkpt>
<trkpt lat="48.089372" lon="10.566055">
<ele>596</ele>
<time>2020-09-10T12:32:50Z</time>
</trkpt>
<trkpt lat="48.089007" lon="10.566192">
<ele>596</ele>
<time>2020-09-10T12:32:55Z</time>
</trkpt>
<trkpt lat="48.088652" lon="10.566337">
<ele>596</ele>
<time>2020-09-10T12:33:00Z</time>
</trkpt>
<trkpt lat="48.088307" lon="10.566488">
<ele>596</ele>
<time>2020-09-10T12:33:05Z</time>
</trkpt>
<trkpt lat="48.087957" lon="10.56663">
<ele>596</ele>
<time>2020-09-10T12:33:10Z</time>
</trkpt>
<trkpt lat="48.087595" lon="10.56668">
<ele>597</ele>
<time>2020-09-10T12:33:15Z</time>
</trkpt>
<trkpt lat="48.087222" lon="10.566717">
<ele>597</ele>
<time>2020-09-10T12:33:20Z</time>
</trkpt>
<trkpt lat="48.086862" lon="10.566748">
<ele>597</ele>
<time>2020-09-10T12:33:25Z</time>
</trkpt>
<trkpt lat="48.08649" lon="10.566777">
<ele>597</ele>
<time>2020-09-10T12:33:30Z</time>
</trkpt>
<trkpt lat="48.086125" lon="10.566795">
<ele>597</ele>
<time>2020-09-10T12:33:35Z</time>
</trkpt>
<trkpt lat="48.085758" lon="10.56681">
<ele>597</ele>
<time>2020-09-10T12:33:40Z</time>
</trkpt>
<trkpt lat="48.085403" lon="10.566823">
<ele>597</ele>
<time>2020-09-10T12:33:45Z</time>
</trkpt>
<trkpt lat="48.085053" lon="10.566827">
<ele>597</ele>
<time>2020-09-10T12:33:50Z</time>
</trkpt>
<trkpt lat="48.084708" lon="10.566793">
<ele>597</ele>
<time>2020-09-10T12:33:55Z</time>
</trkpt>
<trkpt lat="48.084545" lon="10.566408">
<ele>598</ele>
<time>2020-09-10T12:34:00Z</time>
</trkpt>
<trkpt lat="48.08433" lon="10.566342">
<ele>599</ele>
<time>2020-09-10T12:34:05Z</time>
</trkpt>
<trkpt lat="48.084028" lon="10.566405">
<ele>599</ele>
<time>2020-09-10T12:34:10Z</time>
</trkpt>
<trkpt lat="48.08369" lon="10.566348">
<ele>599</ele>
<time>2020-09-10T12:34:15Z</time>
</trkpt>
<trkpt lat="48.083365" lon="10.56642">
<ele>599</ele>
<time>2020-09-10T12:34:20Z</time>
</trkpt>
<trkpt lat="48.083082" lon="10.566635">
<ele>600</ele>
<time>2020-09-10T12:34:25Z</time>
</trkpt>
<trkpt lat="48.082783" lon="10.566865">
<ele>600</ele>
<time>2020-09-10T12:34:30Z</time>
</trkpt>
<trkpt lat="48.082467" lon="10.567072">
<ele>601</ele>
<time>2020-09-10T12:34:35Z</time>
</trkpt>
<trkpt lat="48.082137" lon="10.567263">
<ele>601</ele>
<time>2020-09-10T12:34:40Z</time>
</trkpt>
<trkpt lat="48.081798" lon="10.567437">
<ele>601</ele>
<time>2020-09-10T12:34:45Z</time>
</trkpt>
<trkpt lat="48.081453" lon="10.56759">
<ele>601</ele>
<time>2020-09-10T12:34:50Z</time>
</trkpt>
<trkpt lat="48.08111" lon="10.567762">
<ele>601</ele>
<time>2020-09-10T12:34:55Z</time>
</trkpt>
<trkpt lat="48.080778" lon="10.567957">
<ele>602</ele>
<time>2020-09-10T12:35:00Z</time>
</trkpt>
<trkpt lat="48.080458" lon="10.568185">
<ele>602</ele>
<time>2020-09-10T12:35:05Z</time>
</trkpt>
<trkpt lat="48.080157" lon="10.568465">
<ele>602</ele>
<time>2020-09-10T12:35:10Z</time>
</trkpt>
<trkpt lat="48.079882" lon="10.568788">
<ele>602</ele>
<time>2020-09-10T12:35:15Z</time>
</trkpt>
<trkpt lat="48.079642" lon="10.569195">
<ele>602</ele>
<time>2020-09-10T12:35:20Z</time>
</trkpt>
<trkpt lat="48.07944" lon="10.569657">
<ele>602</ele>
<time>2020-09-10T12:35:25Z</time>
</trkpt>
<trkpt lat="48.079232" lon="10.57011">
<ele>602</ele>
<time>2020-09-10T12:35:30Z</time>
</trkpt>
<trkpt lat="48.078995" lon="10.57051">
<ele>602</ele>
<time>2020-09-10T12:35:35Z</time>
</trkpt>
<trkpt lat="48.078732" lon="10.570868">
<ele>602</ele>
<time>2020-09-10T12:35:40Z</time>
</trkpt>
<trkpt lat="48.078445" lon="10.571177">
<ele>602</ele>
<time>2020-09-10T12:35:45Z</time>
</trkpt>
<trkpt lat="48.078155" lon="10.571465">
<ele>603</ele>
<time>2020-09-10T12:35:50Z</time>
</trkpt>
<trkpt lat="48.077843" lon="10.57171">
<ele>603</ele>
<time>2020-09-10T12:35:55Z</time>
</trkpt>
<trkpt lat="48.07751" lon="10.571933">
<ele>603</ele>
<time>2020-09-10T12:36:00Z</time>
</trkpt>
<trkpt lat="48.077175" lon="10.57213">
<ele>603</ele>
<time>2020-09-10T12:36:05Z</time>
</trkpt>
<trkpt lat="48.076837" lon="10.572298">
<ele>603</ele>
<time>2020-09-10T12:36:10Z</time>
</trkpt>
<trkpt lat="48.076497" lon="10.572478">
<ele>603</ele>
<time>2020-09-10T12:36:15Z</time>
</trkpt>
<trkpt lat="48.076162" lon="10.572685">
<ele>603</ele>
<time>2020-09-10T12:36:20Z</time>
</trkpt>
<trkpt lat="48.075835" lon="10.572923">
<ele>603</ele>
<time>2020-09-10T12:36:25Z</time>
</trkpt>
<trkpt lat="48.075518" lon="10.573183">
<ele>604</ele>
<time>2020-09-10T12:36:30Z</time>
</trkpt>
<trkpt lat="48.075187" lon="10.573405">
<ele>604</ele>
<time>2020-09-10T12:36:35Z</time>
</trkpt>
<trkpt lat="48.074858" lon="10.57362">
<ele>604</ele>
<time>2020-09-10T12:36:40Z</time>
</trkpt>
<trkpt lat="48.074557" lon="10.5738">
<ele>604</ele>
<time>2020-09-10T12:36:45Z</time>
</trkpt>
<trkpt lat="48.074273" lon="10.574037">
<ele>604</ele>
<time>2020-09-10T12:36:50Z</time>
</trkpt>
<trkpt lat="48.074037" lon="10.574375">
<ele>604</ele>
<time>2020-09-10T12:36:55Z</time>
</trkpt>
<trkpt lat="48.073823" lon="10.574745">
<ele>605</ele>
<time>2020-09-10T12:37:00Z</time>
</trkpt>
<trkpt lat="48.073642" lon="10.575088">
<ele>605</ele>
<time>2020-09-10T12:37:05Z</time>
</trkpt>
<trkpt lat="48.073513" lon="10.575387">
<ele>606</ele>
<time>2020-09-10T12:37:10Z</time>
</trkpt>
<trkpt lat="48.073343" lon="10.575613">
<ele>606</ele>
<time>2020-09-10T12:37:15Z</time>
</trkpt>
<trkpt lat="48.073262" lon="10.575827">
<ele>606</ele>
<time>2020-09-10T12:37:20Z</time>
</trkpt>
<trkpt lat="48.073107" lon="10.575792">
<ele>606</ele>
<time>2020-09-10T12:37:25Z</time>
</trkpt>
<trkpt lat="48.07284" lon="10.575798">
<ele>606</ele>
<time>2020-09-10T12:37:30Z</time>
</trkpt>
<trkpt lat="48.072647" lon="10.575975">
<ele>606</ele>
<time>2020-09-10T12:37:35Z</time>
</trkpt>
<trkpt lat="48.072402" lon="10.575982">
<ele>606</ele>
<time>2020-09-10T12:37:40Z</time>
</trkpt>
<trkpt lat="48.072097" lon="10.57616">
<ele>606</ele>
<time>2020-09-10T12:37:45Z</time>
</trkpt>
<trkpt lat="48.071812" lon="10.576425">
<ele>606</ele>
<time>2020-09-10T12:37:50Z</time>
</trkpt>
<trkpt lat="48.07157" lon="10.576715">
<ele>606</ele>
<time>2020-09-10T12:37:55Z</time>
</trkpt>
<trkpt lat="48.071313" lon="10.577023">
<ele>607</ele>
<time>2020-09-10T12:38:00Z</time>
</trkpt>
<trkpt lat="48.071065" lon="10.57732">
<ele>607</ele>
<time>2020-09-10T12:38:05Z</time>
</trkpt>
<trkpt lat="48.070822" lon="10.577612">
<ele>607</ele>
<time>2020-09-10T12:38:10Z</time>
</trkpt>
<trkpt lat="48.070593" lon="10.577885">
<ele>607</ele>
<time>2020-09-10T12:38:15Z</time>
</trkpt>
<trkpt lat="48.070358" lon="10.578132">
<ele>607</ele>
<time>2020-09-10T12:38:20Z</time>
</trkpt>
<trkpt lat="48.070083" lon="10.578353">
<ele>607</ele>
<time>2020-09-10T12:38:25Z</time>
</trkpt>
<trkpt lat="48.069837" lon="10.578513">
<ele>607</ele>
<time>2020-09-10T12:38:30Z</time>
</trkpt>
<trkpt lat="48.069542" lon="10.578577">
<ele>608</ele>
<time>2020-09-10T12:38:35Z</time>
</trkpt>
<trkpt lat="48.069187" lon="10.578658">
<ele>608</ele>
<time>2020-09-10T12:38:40Z</time>
</trkpt>
<trkpt lat="48.06886" lon="10.578732">
<ele>608</ele>
<time>2020-09-10T12:38:45Z</time>
</trkpt>
<trkpt lat="48.068565" lon="10.578785">
<ele>608</ele>
<time>2020-09-10T12:38:50Z</time>
</trkpt>
<trkpt lat="48.068268" lon="10.578845">
<ele>608</ele>
<time>2020-09-10T12:38:55Z</time>
</trkpt>
<trkpt lat="48.067938" lon="10.578908">
<ele>608</ele>
<time>2020-09-10T12:39:00Z</time>
</trkpt>
<trkpt lat="48.067652" lon="10.57896">
<ele>608</ele>
<time>2020-09-10T12:39:05Z</time>
</trkpt>
<trkpt lat="48.067343" lon="10.57901">
<ele>608</ele>
<time>2020-09-10T12:39:10Z</time>
</trkpt>
<trkpt lat="48.066963" lon="10.579087">
<ele>608</ele>
<time>2020-09-10T12:39:16Z</time>
</trkpt>
<trkpt lat="48.066712" lon="10.57914">
<ele>609</ele>
<time>2020-09-10T12:39:21Z</time>
</trkpt>
<trkpt lat="48.066625" lon="10.579143">
<ele>609</ele>
<time>2020-09-10T12:39:26Z</time>
</trkpt>
<trkpt lat="48.066623" lon="10.579147">
<ele>609</ele>
<time>2020-09-10T12:39:29Z</time>
</trkpt>
<trkpt lat="48.066647" lon="10.579503">
<ele>609</ele>
<time>2020-09-10T12:39:34Z</time>
</trkpt>
<trkpt lat="48.066695" lon="10.5799">
<ele>609</ele>
<time>2020-09-10T12:39:39Z</time>
</trkpt>
<trkpt lat="48.06675" lon="10.580322">
<ele>609</ele>
<time>2020-09-10T12:39:44Z</time>
</trkpt>
<trkpt lat="48.066743" lon="10.580668">
<ele>609</ele>
<time>2020-09-10T12:39:49Z</time>
</trkpt>
<trkpt lat="48.066652" lon="10.580818">
<ele>609</ele>
<time>2020-09-10T12:39:54Z</time>
</trkpt>
<trkpt lat="48.066445" lon="10.580782">
<ele>609</ele>
<time>2020-09-10T12:39:59Z</time>
</trkpt>
<trkpt lat="48.066162" lon="10.580767">
<ele>609</ele>
<time>2020-09-10T12:40:04Z</time>
</trkpt>
<trkpt lat="48.065888" lon="10.580852">
<ele>609</ele>
<time>2020-09-10T12:40:09Z</time>
</trkpt>
<trkpt lat="48.065602" lon="10.581038">
<ele>610</ele>
<time>2020-09-10T12:40:14Z</time>
</trkpt>
<trkpt lat="48.065327" lon="10.581242">
<ele>610</ele>
<time>2020-09-10T12:40:19Z</time>
</trkpt>
<trkpt lat="48.065038" lon="10.581448">
<ele>610</ele>
<time>2020-09-10T12:40:24Z</time>
</trkpt>
<trkpt lat="48.064752" lon="10.58165">
<ele>610</ele>
<time>2020-09-10T12:40:29Z</time>
</trkpt>
<trkpt lat="48.064452" lon="10.581847">
<ele>611</ele>
<time>2020-09-10T12:40:34Z</time>
</trkpt>
<trkpt lat="48.064152" lon="10.58206">
<ele>611</ele>
<time>2020-09-10T12:40:39Z</time>
</trkpt>
<trkpt lat="48.063875" lon="10.582282">
<ele>612</ele>
<time>2020-09-10T12:40:44Z</time>
</trkpt>
<trkpt lat="48.063562" lon="10.582578">
<ele>612</ele>
<time>2020-09-10T12:40:50Z</time>
</trkpt>
<trkpt lat="48.063275" lon="10.582807">
<ele>612</ele>
<time>2020-09-10T12:40:55Z</time>
</trkpt>
<trkpt lat="48.062977" lon="10.583022">
<ele>612</ele>
<time>2020-09-10T12:41:00Z</time>
</trkpt>
<trkpt lat="48.062613" lon="10.583282">
<ele>612</ele>
<time>2020-09-10T12:41:06Z</time>
</trkpt>
<trkpt lat="48.06225" lon="10.583528">
<ele>612</ele>
<time>2020-09-10T12:41:12Z</time>
</trkpt>
<trkpt lat="48.061945" lon="10.583752">
<ele>612</ele>
<time>2020-09-10T12:41:17Z</time>
</trkpt>
<trkpt lat="48.061643" lon="10.583947">
<ele>612</ele>
<time>2020-09-10T12:41:22Z</time>
</trkpt>
<trkpt lat="48.061322" lon="10.584158">
<ele>612</ele>
<time>2020-09-10T12:41:27Z</time>
</trkpt>
<trkpt lat="48.061007" lon="10.584387">
<ele>613</ele>
<time>2020-09-10T12:41:32Z</time>
</trkpt>
<trkpt lat="48.060648" lon="10.584708">
<ele>613</ele>
<time>2020-09-10T12:41:38Z</time>
</trkpt>
<trkpt lat="48.060345" lon="10.585012">
<ele>613</ele>
<time>2020-09-10T12:41:43Z</time>
</trkpt>
<trkpt lat="48.060038" lon="10.585258">
<ele>613</ele>
<time>2020-09-10T12:41:48Z</time>
</trkpt>
<trkpt lat="48.059723" lon="10.58548">
<ele>613</ele>
<time>2020-09-10T12:41:53Z</time>
</trkpt>
<trkpt lat="48.05936" lon="10.585773">
<ele>614</ele>
<time>2020-09-10T12:41:59Z</time>
</trkpt>
<trkpt lat="48.059023" lon="10.586128">
<ele>614</ele>
<time>2020-09-10T12:42:05Z</time>
</trkpt>
<trkpt lat="48.058672" lon="10.586412">
<ele>614</ele>
<time>2020-09-10T12:42:11Z</time>
</trkpt>
<trkpt lat="48.05835" lon="10.58656">
<ele>614</ele>
<time>2020-09-10T12:42:16Z</time>
</trkpt>
<trkpt lat="48.058035" lon="10.586685">
<ele>614</ele>
<time>2020-09-10T12:42:21Z</time>
</trkpt>
<trkpt lat="48.057625" lon="10.586872">
<ele>614</ele>
<time>2020-09-10T12:42:27Z</time>
</trkpt>
<trkpt lat="48.057263" lon="10.586997">
<ele>614</ele>
<time>2020-09-10T12:42:32Z</time>
</trkpt>
<trkpt lat="48.056928" lon="10.587132">
<ele>615</ele>
<time>2020-09-10T12:42:37Z</time>
</trkpt>
<trkpt lat="48.056512" lon="10.58728">
<ele>615</ele>
<time>2020-09-10T12:42:43Z</time>
</trkpt>
<trkpt lat="48.056098" lon="10.587388">
<ele>616</ele>
<time>2020-09-10T12:42:49Z</time>
</trkpt>
<trkpt lat="48.055742" lon="10.587435">
<ele>616</ele>
<time>2020-09-10T12:42:54Z</time>
</trkpt>
<trkpt lat="48.055373" lon="10.587438">
<ele>616</ele>
<time>2020-09-10T12:42:59Z</time>
</trkpt>
<trkpt lat="48.055017" lon="10.587408">
<ele>616</ele>
<time>2020-09-10T12:43:04Z</time>
</trkpt>
<trkpt lat="48.054587" lon="10.587393">
<ele>616</ele>
<time>2020-09-10T12:43:10Z</time>
</trkpt>
<trkpt lat="48.054237" lon="10.587428">
<ele>616</ele>
<time>2020-09-10T12:43:15Z</time>
</trkpt>
<trkpt lat="48.05393" lon="10.587482">
<ele>616</ele>
<time>2020-09-10T12:43:20Z</time>
</trkpt>
<trkpt lat="48.053682" lon="10.5873">
<ele>617</ele>
<time>2020-09-10T12:43:25Z</time>
</trkpt>
<trkpt lat="48.053463" lon="10.58715">
<ele>617</ele>
<time>2020-09-10T12:43:31Z</time>
</trkpt>
<trkpt lat="48.053342" lon="10.587077">
<ele>619</ele>
<time>2020-09-10T12:43:37Z</time>
</trkpt>
<trkpt lat="48.053253" lon="10.587022">
<ele>619</ele>
<time>2020-09-10T12:43:42Z</time>
</trkpt>
<trkpt lat="48.05312" lon="10.586958">
<ele>620</ele>
<time>2020-09-10T12:43:47Z</time>
</trkpt>
<trkpt lat="48.052927" lon="10.586858">
<ele>620</ele>
<time>2020-09-10T12:43:52Z</time>
</trkpt>
<trkpt lat="48.05264" lon="10.586692">
<ele>620</ele>
<time>2020-09-10T12:43:57Z</time>
</trkpt>
<trkpt lat="48.05232" lon="10.586513">
<ele>619</ele>
<time>2020-09-10T12:44:02Z</time>
</trkpt>
<trkpt lat="48.052022" lon="10.586342">
<ele>619</ele>
<time>2020-09-10T12:44:07Z</time>
</trkpt>
<trkpt lat="48.051698" lon="10.586193">
<ele>619</ele>
<time>2020-09-10T12:44:12Z</time>
</trkpt>
<trkpt lat="48.051373" lon="10.586072">
<ele>619</ele>
<time>2020-09-10T12:44:17Z</time>
</trkpt>
<trkpt lat="48.05105" lon="10.585965">
<ele>619</ele>
<time>2020-09-10T12:44:22Z</time>
</trkpt>
<trkpt lat="48.050732" lon="10.585862">
<ele>619</ele>
<time>2020-09-10T12:44:27Z</time>
</trkpt>
<trkpt lat="48.05039" lon="10.58577">
<ele>619</ele>
<time>2020-09-10T12:44:32Z</time>
</trkpt>
<trkpt lat="48.049975" lon="10.58565">
<ele>619</ele>
<time>2020-09-10T12:44:38Z</time>
</trkpt>
<trkpt lat="48.049652" lon="10.585547">
<ele>619</ele>
<time>2020-09-10T12:44:43Z</time>
</trkpt>
<trkpt lat="48.04932" lon="10.58545">
<ele>619</ele>
<time>2020-09-10T12:44:48Z</time>
</trkpt>
<trkpt lat="48.048973" lon="10.585353">
<ele>619</ele>
<time>2020-09-10T12:44:53Z</time>
</trkpt>
<trkpt lat="48.04862" lon="10.585252">
<ele>619</ele>
<time>2020-09-10T12:44:58Z</time>
</trkpt>
<trkpt lat="48.048275" lon="10.585153">
<ele>619</ele>
<time>2020-09-10T12:45:03Z</time>
</trkpt>
<trkpt lat="48.047937" lon="10.58504">
<ele>619</ele>
<time>2020-09-10T12:45:08Z</time>
</trkpt>
<trkpt lat="48.047595" lon="10.584943">
<ele>619</ele>
<time>2020-09-10T12:45:13Z</time>
</trkpt>
<trkpt lat="48.04725" lon="10.58485">
<ele>620</ele>
<time>2020-09-10T12:45:18Z</time>
</trkpt>
<trkpt lat="48.046908" lon="10.584745">
<ele>620</ele>
<time>2020-09-10T12:45:23Z</time>
</trkpt>
<trkpt lat="48.046555" lon="10.584643">
<ele>620</ele>
<time>2020-09-10T12:45:28Z</time>
</trkpt>
<trkpt lat="48.046205" lon="10.584547">
<ele>621</ele>
<time>2020-09-10T12:45:33Z</time>
</trkpt>
<trkpt lat="48.045848" lon="10.584453">
<ele>621</ele>
<time>2020-09-10T12:45:38Z</time>
</trkpt>
<trkpt lat="48.045495" lon="10.584318">
<ele>621</ele>
<time>2020-09-10T12:45:43Z</time>
</trkpt>
<trkpt lat="48.045107" lon="10.584032">
<ele>621</ele>
<time>2020-09-10T12:45:49Z</time>
</trkpt>
<trkpt lat="48.044788" lon="10.583793">
<ele>621</ele>
<time>2020-09-10T12:45:54Z</time>
</trkpt>
<trkpt lat="48.044485" lon="10.583577">
<ele>621</ele>
<time>2020-09-10T12:45:59Z</time>
</trkpt>
<trkpt lat="48.044113" lon="10.583338">
<ele>621</ele>
<time>2020-09-10T12:46:05Z</time>
</trkpt>
<trkpt lat="48.043792" lon="10.583147">
<ele>622</ele>
<time>2020-09-10T12:46:10Z</time>
</trkpt>
<trkpt lat="48.043485" lon="10.582975">
<ele>622</ele>
<time>2020-09-10T12:46:15Z</time>
</trkpt>
<trkpt lat="48.04323" lon="10.58283">
<ele>622</ele>
<time>2020-09-10T12:46:20Z</time>
</trkpt>
<trkpt lat="48.043042" lon="10.582725">
<ele>622</ele>
<time>2020-09-10T12:46:25Z</time>
</trkpt>
<trkpt lat="48.042952" lon="10.582675">
<ele>623</ele>
<time>2020-09-10T12:46:30Z</time>
</trkpt>
<trkpt lat="48.042925" lon="10.582655">
<ele>623</ele>
<time>2020-09-10T12:46:35Z</time>
</trkpt>
<trkpt lat="48.042923" lon="10.582657">
<ele>623</ele>
<time>2020-09-10T12:46:37Z</time>
</trkpt>
<trkpt lat="48.042795" lon="10.582583">
<ele>624</ele>
<time>2020-09-10T12:46:42Z</time>
</trkpt>
<trkpt lat="48.042567" lon="10.582553">
<ele>624</ele>
<time>2020-09-10T12:46:47Z</time>
</trkpt>
<trkpt lat="48.042288" lon="10.58252">
<ele>624</ele>
<time>2020-09-10T12:46:52Z</time>
</trkpt>
<trkpt lat="48.042013" lon="10.582398">
<ele>624</ele>
<time>2020-09-10T12:46:57Z</time>
</trkpt>
<trkpt lat="48.041715" lon="10.582107">
<ele>624</ele>
<time>2020-09-10T12:47:02Z</time>
</trkpt>
<trkpt lat="48.041538" lon="10.581663">
<ele>624</ele>
<time>2020-09-10T12:47:07Z</time>
</trkpt>
<trkpt lat="48.041363" lon="10.58122">
<ele>624</ele>
<time>2020-09-10T12:47:12Z</time>
</trkpt>
<trkpt lat="48.041118" lon="10.580868">
<ele>624</ele>
<time>2020-09-10T12:47:17Z</time>
</trkpt>
<trkpt lat="48.040818" lon="10.58063">
<ele>625</ele>
<time>2020-09-10T12:47:22Z</time>
</trkpt>
<trkpt lat="48.040515" lon="10.580428">
<ele>626</ele>
<time>2020-09-10T12:47:27Z</time>
</trkpt>
<trkpt lat="48.040227" lon="10.580188">
<ele>626</ele>
<time>2020-09-10T12:47:32Z</time>
</trkpt>
<trkpt lat="48.03998" lon="10.579872">
<ele>626</ele>
<time>2020-09-10T12:47:37Z</time>
</trkpt>
<trkpt lat="48.039798" lon="10.579468">
<ele>627</ele>
<time>2020-09-10T12:47:42Z</time>
</trkpt>
<trkpt lat="48.039667" lon="10.579028">
<ele>627</ele>
<time>2020-09-10T12:47:47Z</time>
</trkpt>
<trkpt lat="48.039602" lon="10.578722">
<ele>627</ele>
<time>2020-09-10T12:47:52Z</time>
</trkpt>
<trkpt lat="48.039465" lon="10.578643">
<ele>627</ele>
<time>2020-09-10T12:47:57Z</time>
</trkpt>
<trkpt lat="48.039218" lon="10.578712">
<ele>627</ele>
<time>2020-09-10T12:48:02Z</time>
</trkpt>
<trkpt lat="48.03901" lon="10.578992">
<ele>627</ele>
<time>2020-09-10T12:48:07Z</time>
</trkpt>
<trkpt lat="48.03884" lon="10.579417">
<ele>628</ele>
<time>2020-09-10T12:48:12Z</time>
</trkpt>
<trkpt lat="48.038605" lon="10.579778">
<ele>628</ele>
<time>2020-09-10T12:48:17Z</time>
</trkpt>
<trkpt lat="48.038347" lon="10.580083">
<ele>628</ele>
<time>2020-09-10T12:48:22Z</time>
</trkpt>
<trkpt lat="48.038107" lon="10.580312">
<ele>628</ele>
<time>2020-09-10T12:48:27Z</time>
</trkpt>
<trkpt lat="48.037947" lon="10.580203">
<ele>628</ele>
<time>2020-09-10T12:48:32Z</time>
</trkpt>
<trkpt lat="48.037877" lon="10.579828">
<ele>628</ele>
<time>2020-09-10T12:48:37Z</time>
</trkpt>
<trkpt lat="48.037602" lon="10.579758">
<ele>628</ele>
<time>2020-09-10T12:48:42Z</time>
</trkpt>
<trkpt lat="48.037308" lon="10.579668">
<ele>628</ele>
<time>2020-09-10T12:48:47Z</time>
</trkpt>
<trkpt lat="48.037003" lon="10.579518">
<ele>628</ele>
<time>2020-09-10T12:48:52Z</time>
</trkpt>
<trkpt lat="48.036708" lon="10.579437">
<ele>629</ele>
<time>2020-09-10T12:48:57Z</time>
</trkpt>
<trkpt lat="48.036475" lon="10.579322">
<ele>630</ele>
<time>2020-09-10T12:49:02Z</time>
</trkpt>
<trkpt lat="48.036287" lon="10.579263">
<ele>630</ele>
<time>2020-09-10T12:49:07Z</time>
</trkpt>
<trkpt lat="48.036062" lon="10.579547">
<ele>631</ele>
<time>2020-09-10T12:49:12Z</time>
</trkpt>
<trkpt lat="48.035848" lon="10.57991">
<ele>631</ele>
<time>2020-09-10T12:49:17Z</time>
</trkpt>
<trkpt lat="48.035622" lon="10.580332">
<ele>631</ele>
<time>2020-09-10T12:49:22Z</time>
</trkpt>
<trkpt lat="48.035405" lon="10.580748">
<ele>631</ele>
<time>2020-09-10T12:49:27Z</time>
</trkpt>
<trkpt lat="48.035208" lon="10.58111">
<ele>630</ele>
<time>2020-09-10T12:49:32Z</time>
</trkpt>
<trkpt lat="48.035053" lon="10.581525">
<ele>630</ele>
<time>2020-09-10T12:49:37Z</time>
</trkpt>
<trkpt lat="48.034925" lon="10.581988">
<ele>630</ele>
<time>2020-09-10T12:49:42Z</time>
</trkpt>
<trkpt lat="48.0348" lon="10.582433">
<ele>630</ele>
<time>2020-09-10T12:49:47Z</time>
</trkpt>
<trkpt lat="48.03446" lon="10.582752">
<ele>630</ele>
<time>2020-09-10T12:49:53Z</time>
</trkpt>
<trkpt lat="48.03413" lon="10.582997">
<ele>630</ele>
<time>2020-09-10T12:49:58Z</time>
</trkpt>
<trkpt lat="48.03381" lon="10.583275">
<ele>630</ele>
<time>2020-09-10T12:50:03Z</time>
</trkpt>
<trkpt lat="48.033493" lon="10.583512">
<ele>630</ele>
<time>2020-09-10T12:50:08Z</time>
</trkpt>
<trkpt lat="48.03316" lon="10.583715">
<ele>629</ele>
<time>2020-09-10T12:50:13Z</time>
</trkpt>
<trkpt lat="48.032808" lon="10.583783">
<ele>629</ele>
<time>2020-09-10T12:50:18Z</time>
</trkpt>
<trkpt lat="48.03246" lon="10.583803">
<ele>629</ele>
<time>2020-09-10T12:50:23Z</time>
</trkpt>
<trkpt lat="48.032103" lon="10.583815">
<ele>629</ele>
<time>2020-09-10T12:50:28Z</time>
</trkpt>
<trkpt lat="48.031745" lon="10.583852">
<ele>629</ele>
<time>2020-09-10T12:50:33Z</time>
</trkpt>
<trkpt lat="48.031383" lon="10.583893">
<ele>629</ele>
<time>2020-09-10T12:50:38Z</time>
</trkpt>
<trkpt lat="48.031027" lon="10.58393">
<ele>629</ele>
<time>2020-09-10T12:50:43Z</time>
</trkpt>
<trkpt lat="48.030678" lon="10.583968">
<ele>631</ele>
<time>2020-09-10T12:50:48Z</time>
</trkpt>
<trkpt lat="48.030338" lon="10.58401">
<ele>631</ele>
<time>2020-09-10T12:50:53Z</time>
</trkpt>
<trkpt lat="48.030003" lon="10.584087">
<ele>631</ele>
<time>2020-09-10T12:50:58Z</time>
</trkpt>
<trkpt lat="48.029668" lon="10.584183">
<ele>631</ele>
<time>2020-09-10T12:51:03Z</time>
</trkpt>
<trkpt lat="48.029318" lon="10.584292">
<ele>631</ele>
<time>2020-09-10T12:51:08Z</time>
</trkpt>
<trkpt lat="48.028947" lon="10.584398">
<ele>631</ele>
<time>2020-09-10T12:51:13Z</time>
</trkpt>
<trkpt lat="48.028568" lon="10.584508">
<ele>631</ele>
<time>2020-09-10T12:51:18Z</time>
</trkpt>
<trkpt lat="48.028187" lon="10.584615">
<ele>631</ele>
<time>2020-09-10T12:51:23Z</time>
</trkpt>
<trkpt lat="48.027807" lon="10.584728">
<ele>631</ele>
<time>2020-09-10T12:51:28Z</time>
</trkpt>
<trkpt lat="48.02742" lon="10.584847">
<ele>632</ele>
<time>2020-09-10T12:51:33Z</time>
</trkpt>
<trkpt lat="48.027067" lon="10.584955">
<ele>632</ele>
<time>2020-09-10T12:51:38Z</time>
</trkpt>
<trkpt lat="48.026753" lon="10.585048">
<ele>632</ele>
<time>2020-09-10T12:51:43Z</time>
</trkpt>
<trkpt lat="48.026413" lon="10.585153">
<ele>632</ele>
<time>2020-09-10T12:51:48Z</time>
</trkpt>
<trkpt lat="48.026057" lon="10.585263">
<ele>632</ele>
<time>2020-09-10T12:51:53Z</time>
</trkpt>
<trkpt lat="48.025692" lon="10.58537">
<ele>632</ele>
<time>2020-09-10T12:51:58Z</time>
</trkpt>
<trkpt lat="48.025308" lon="10.585488">
<ele>632</ele>
<time>2020-09-10T12:52:03Z</time>
</trkpt>
<trkpt lat="48.024927" lon="10.585597">
<ele>632</ele>
<time>2020-09-10T12:52:08Z</time>
</trkpt>
<trkpt lat="48.024553" lon="10.585705">
<ele>632</ele>
<time>2020-09-10T12:52:13Z</time>
</trkpt>
<trkpt lat="48.024173" lon="10.585817">
<ele>632</ele>
<time>2020-09-10T12:52:18Z</time>
</trkpt>
<trkpt lat="48.023793" lon="10.585925">
<ele>632</ele>
<time>2020-09-10T12:52:23Z</time>
</trkpt>
<trkpt lat="48.023413" lon="10.586045">
<ele>632</ele>
<time>2020-09-10T12:52:28Z</time>
</trkpt>
<trkpt lat="48.023047" lon="10.586275">
<ele>632</ele>
<time>2020-09-10T12:52:33Z</time>
</trkpt>
<trkpt lat="48.02271" lon="10.586595">
<ele>632</ele>
<time>2020-09-10T12:52:38Z</time>
</trkpt>
<trkpt lat="48.022377" lon="10.586903">
<ele>632</ele>
<time>2020-09-10T12:52:43Z</time>
</trkpt>
<trkpt lat="48.022083" lon="10.587237">
<ele>632</ele>
<time>2020-09-10T12:52:48Z</time>
</trkpt>
<trkpt lat="48.021825" lon="10.587688">
<ele>633</ele>
<time>2020-09-10T12:52:53Z</time>
</trkpt>
<trkpt lat="48.021508" lon="10.58804">
<ele>633</ele>
<time>2020-09-10T12:52:58Z</time>
</trkpt>
<trkpt lat="48.021198" lon="10.588383">
<ele>633</ele>
<time>2020-09-10T12:53:03Z</time>
</trkpt>
<trkpt lat="48.020877" lon="10.588652">
<ele>633</ele>
<time>2020-09-10T12:53:08Z</time>
</trkpt>
<trkpt lat="48.020552" lon="10.588758">
<ele>633</ele>
<time>2020-09-10T12:53:13Z</time>
</trkpt>
<trkpt lat="48.020223" lon="10.588825">
<ele>633</ele>
<time>2020-09-10T12:53:18Z</time>
</trkpt>
<trkpt lat="48.01992" lon="10.588877">
<ele>633</ele>
<time>2020-09-10T12:53:23Z</time>
</trkpt>
<trkpt lat="48.019642" lon="10.589107">
<ele>633</ele>
<time>2020-09-10T12:53:28Z</time>
</trkpt>
<trkpt lat="48.019287" lon="10.589287">
<ele>633</ele>
<time>2020-09-10T12:53:33Z</time>
</trkpt>
<trkpt lat="48.01892" lon="10.589488">
<ele>634</ele>
<time>2020-09-10T12:53:38Z</time>
</trkpt>
<trkpt lat="48.018548" lon="10.58969">
<ele>635</ele>
<time>2020-09-10T12:53:43Z</time>
</trkpt>
<trkpt lat="48.018173" lon="10.589777">
<ele>635</ele>
<time>2020-09-10T12:53:48Z</time>
</trkpt>
<trkpt lat="48.0178" lon="10.589807">
<ele>635</ele>
<time>2020-09-10T12:53:53Z</time>
</trkpt>
<trkpt lat="48.017438" lon="10.5899">
<ele>635</ele>
<time>2020-09-10T12:53:58Z</time>
</trkpt>
<trkpt lat="48.017082" lon="10.590013">
<ele>636</ele>
<time>2020-09-10T12:54:03Z</time>
</trkpt>
<trkpt lat="48.016713" lon="10.590133">
<ele>636</ele>
<time>2020-09-10T12:54:08Z</time>
</trkpt>
<trkpt lat="48.01639" lon="10.59025">
<ele>636</ele>
<time>2020-09-10T12:54:13Z</time>
</trkpt>
<trkpt lat="48.01613" lon="10.590347">
<ele>636</ele>
<time>2020-09-10T12:54:18Z</time>
</trkpt>
<trkpt lat="48.015848" lon="10.590458">
<ele>636</ele>
<time>2020-09-10T12:54:23Z</time>
</trkpt>
<trkpt lat="48.015552" lon="10.590573">
<ele>636</ele>
<time>2020-09-10T12:54:28Z</time>
</trkpt>
<trkpt lat="48.015253" lon="10.59068">
<ele>637</ele>
<time>2020-09-10T12:54:33Z</time>
</trkpt>
<trkpt lat="48.014943" lon="10.590783">
<ele>637</ele>
<time>2020-09-10T12:54:38Z</time>
</trkpt>
<trkpt lat="48.01463" lon="10.59091">
<ele>637</ele>
<time>2020-09-10T12:54:43Z</time>
</trkpt>
<trkpt lat="48.014332" lon="10.59105">
<ele>638</ele>
<time>2020-09-10T12:54:48Z</time>
</trkpt>
<trkpt lat="48.014015" lon="10.59121">
<ele>639</ele>
<time>2020-09-10T12:54:53Z</time>
</trkpt>
<trkpt lat="48.01371" lon="10.59133">
<ele>639</ele>
<time>2020-09-10T12:54:58Z</time>
</trkpt>
<trkpt lat="48.013373" lon="10.591273">
<ele>639</ele>
<time>2020-09-10T12:55:03Z</time>
</trkpt>
<trkpt lat="48.01306" lon="10.591158">
<ele>639</ele>
<time>2020-09-10T12:55:08Z</time>
</trkpt>
<trkpt lat="48.012783" lon="10.591103">
<ele>639</ele>
<time>2020-09-10T12:55:13Z</time>
</trkpt>
<trkpt lat="48.0125" lon="10.591108">
<ele>639</ele>
<time>2020-09-10T12:55:18Z</time>
</trkpt>
<trkpt lat="48.012222" lon="10.591187">
<ele>640</ele>
<time>2020-09-10T12:55:23Z</time>
</trkpt>
<trkpt lat="48.01193" lon="10.59129">
<ele>641</ele>
<time>2020-09-10T12:55:28Z</time>
</trkpt>
<trkpt lat="48.011612" lon="10.591407">
<ele>641</ele>
<time>2020-09-10T12:55:33Z</time>
</trkpt>
<trkpt lat="48.011292" lon="10.591545">
<ele>641</ele>
<time>2020-09-10T12:55:38Z</time>
</trkpt>
<trkpt lat="48.010958" lon="10.591677">
<ele>641</ele>
<time>2020-09-10T12:55:43Z</time>
</trkpt>
<trkpt lat="48.010632" lon="10.591712">
<ele>641</ele>
<time>2020-09-10T12:55:48Z</time>
</trkpt>
<trkpt lat="48.010303" lon="10.591717">
<ele>641</ele>
<time>2020-09-10T12:55:53Z</time>
</trkpt>
<trkpt lat="48.00998" lon="10.5918">
<ele>641</ele>
<time>2020-09-10T12:55:58Z</time>
</trkpt>
<trkpt lat="48.00966" lon="10.591902">
<ele>641</ele>
<time>2020-09-10T12:56:03Z</time>
</trkpt>
<trkpt lat="48.009363" lon="10.592035">
<ele>641</ele>
<time>2020-09-10T12:56:08Z</time>
</trkpt>
<trkpt lat="48.00905" lon="10.592143">
<ele>641</ele>
<time>2020-09-10T12:56:13Z</time>
</trkpt>
<trkpt lat="48.008748" lon="10.592235">
<ele>642</ele>
<time>2020-09-10T12:56:18Z</time>
</trkpt>
<trkpt lat="48.00843" lon="10.592278">
<ele>643</ele>
<time>2020-09-10T12:56:23Z</time>
</trkpt>
<trkpt lat="48.008137" lon="10.592425">
<ele>643</ele>
<time>2020-09-10T12:56:28Z</time>
</trkpt>
<trkpt lat="48.007847" lon="10.592467">
<ele>643</ele>
<time>2020-09-10T12:56:33Z</time>
</trkpt>
<trkpt lat="48.007722" lon="10.592458">
<ele>643</ele>
<time>2020-09-10T12:56:38Z</time>
</trkpt>
<trkpt lat="48.007643" lon="10.59244">
<ele>643</ele>
<time>2020-09-10T12:56:43Z</time>
</trkpt>
<trkpt lat="48.007418" lon="10.592423">
<ele>643</ele>
<time>2020-09-10T12:56:48Z</time>
</trkpt>
<trkpt lat="48.007202" lon="10.59235">
<ele>643</ele>
<time>2020-09-10T12:56:53Z</time>
</trkpt>
<trkpt lat="48.007025" lon="10.59229">
<ele>643</ele>
<time>2020-09-10T12:56:58Z</time>
</trkpt>
<trkpt lat="48.006918" lon="10.592132">
<ele>643</ele>
<time>2020-09-10T12:57:03Z</time>
</trkpt>
<trkpt lat="48.006725" lon="10.592053">
<ele>643</ele>
<time>2020-09-10T12:57:08Z</time>
</trkpt>
<trkpt lat="48.006505" lon="10.59186">
<ele>643</ele>
<time>2020-09-10T12:57:13Z</time>
</trkpt>
<trkpt lat="48.00628" lon="10.591695">
<ele>643</ele>
<time>2020-09-10T12:57:18Z</time>
</trkpt>
<trkpt lat="48.006045" lon="10.591505">
<ele>643</ele>
<time>2020-09-10T12:57:23Z</time>
</trkpt>
<trkpt lat="48.005803" lon="10.591312">
<ele>643</ele>
<time>2020-09-10T12:57:28Z</time>
</trkpt>
<trkpt lat="48.005563" lon="10.59113">
<ele>643</ele>
<time>2020-09-10T12:57:33Z</time>
</trkpt>
<trkpt lat="48.005365" lon="10.590942">
<ele>643</ele>
<time>2020-09-10T12:57:38Z</time>
</trkpt>
<trkpt lat="48.005137" lon="10.590805">
<ele>643</ele>
<time>2020-09-10T12:57:43Z</time>
</trkpt>
<trkpt lat="48.004862" lon="10.590692">
<ele>643</ele>
<time>2020-09-10T12:57:48Z</time>
</trkpt>
<trkpt lat="48.004607" lon="10.590585">
<ele>643</ele>
<time>2020-09-10T12:57:53Z</time>
</trkpt>
<trkpt lat="48.00438" lon="10.590465">
<ele>643</ele>
<time>2020-09-10T12:57:58Z</time>
</trkpt>
<trkpt lat="48.004182" lon="10.59034">
<ele>643</ele>
<time>2020-09-10T12:58:03Z</time>
</trkpt>
<trkpt lat="48.003962" lon="10.59019">
<ele>643</ele>
<time>2020-09-10T12:58:08Z</time>
</trkpt>
<trkpt lat="48.00381" lon="10.5901">
<ele>643</ele>
<time>2020-09-10T12:58:13Z</time>
</trkpt>
<trkpt lat="48.003633" lon="10.590017">
<ele>643</ele>
<time>2020-09-10T12:58:18Z</time>
</trkpt>
<trkpt lat="48.003357" lon="10.590075">
<ele>643</ele>
<time>2020-09-10T12:58:23Z</time>
</trkpt>
<trkpt lat="48.003198" lon="10.590257">
<ele>643</ele>
<time>2020-09-10T12:58:28Z</time>
</trkpt>
<trkpt lat="48.003047" lon="10.590198">
<ele>643</ele>
<time>2020-09-10T12:58:33Z</time>
</trkpt>
<trkpt lat="48.002953" lon="10.5899">
<ele>643</ele>
<time>2020-09-10T12:58:38Z</time>
</trkpt>
<trkpt lat="48.002903" lon="10.589493">
<ele>643</ele>
<time>2020-09-10T12:58:43Z</time>
</trkpt>
<trkpt lat="48.002842" lon="10.58914">
<ele>645</ele>
<time>2020-09-10T12:58:48Z</time>
</trkpt>
<trkpt lat="48.002773" lon="10.588793">
<ele>646</ele>
<time>2020-09-10T12:58:53Z</time>
</trkpt>
<trkpt lat="48.002702" lon="10.58846">
<ele>648</ele>
<time>2020-09-10T12:58:58Z</time>
</trkpt>
<trkpt lat="48.002632" lon="10.588125">
<ele>649</ele>
<time>2020-09-10T12:59:03Z</time>
</trkpt>
<trkpt lat="48.002552" lon="10.587787">
<ele>650</ele>
<time>2020-09-10T12:59:08Z</time>
</trkpt>
<trkpt lat="48.002453" lon="10.587455">
<ele>651</ele>
<time>2020-09-10T12:59:13Z</time>
</trkpt>
<trkpt lat="48.00237" lon="10.587102">
<ele>652</ele>
<time>2020-09-10T12:59:18Z</time>
</trkpt>
<trkpt lat="48.002295" lon="10.586758">
<ele>653</ele>
<time>2020-09-10T12:59:23Z</time>
</trkpt>
<trkpt lat="48.002207" lon="10.58643">
<ele>653</ele>
<time>2020-09-10T12:59:28Z</time>
</trkpt>
<trkpt lat="48.002035" lon="10.58616">
<ele>654</ele>
<time>2020-09-10T12:59:33Z</time>
</trkpt>
<trkpt lat="48.00184" lon="10.585883">
<ele>654</ele>
<time>2020-09-10T12:59:38Z</time>
</trkpt>
<trkpt lat="48.001612" lon="10.585607">
<ele>655</ele>
<time>2020-09-10T12:59:43Z</time>
</trkpt>
<trkpt lat="48.001387" lon="10.585308">
<ele>655</ele>
<time>2020-09-10T12:59:48Z</time>
</trkpt>
<trkpt lat="48.001178" lon="10.585047">
<ele>655</ele>
<time>2020-09-10T12:59:53Z</time>
</trkpt>
<trkpt lat="48.000977" lon="10.584742">
<ele>656</ele>
<time>2020-09-10T12:59:58Z</time>
</trkpt>
<trkpt lat="48.0008" lon="10.584402">
<ele>656</ele>
<time>2020-09-10T13:00:03Z</time>
</trkpt>
<trkpt lat="48.00064" lon="10.584062">
<ele>657</ele>
<time>2020-09-10T13:00:08Z</time>
</trkpt>
<trkpt lat="48.000445" lon="10.583728">
<ele>657</ele>
<time>2020-09-10T13:00:13Z</time>
</trkpt>
<trkpt lat="48.000238" lon="10.583433">
<ele>658</ele>
<time>2020-09-10T13:00:18Z</time>
</trkpt>
<trkpt lat="48.000018" lon="10.583135">
<ele>658</ele>
<time>2020-09-10T13:00:23Z</time>
</trkpt>
<trkpt lat="47.99981" lon="10.582852">
<ele>659</ele>
<time>2020-09-10T13:00:28Z</time>
</trkpt>
<trkpt lat="47.999605" lon="10.582587">
<ele>659</ele>
<time>2020-09-10T13:00:33Z</time>
</trkpt>
<trkpt lat="47.999393" lon="10.582367">
<ele>659</ele>
<time>2020-09-10T13:00:38Z</time>
</trkpt>
<trkpt lat="47.999267" lon="10.582262">
<ele>659</ele>
<time>2020-09-10T13:00:43Z</time>
</trkpt>
<trkpt lat="47.999185" lon="10.58235">
<ele>659</ele>
<time>2020-09-10T13:00:48Z</time>
</trkpt>
<trkpt lat="47.999177" lon="10.582445">
<ele>659</ele>
<time>2020-09-10T13:00:53Z</time>
</trkpt>
<trkpt lat="47.99918" lon="10.582445">
<ele>659</ele>
<time>2020-09-10T13:00:54Z</time>
</trkpt>
<trkpt lat="47.999145" lon="10.582565">
<ele>659</ele>
<time>2020-09-10T13:00:59Z</time>
</trkpt>
<trkpt lat="47.999107" lon="10.58263">
<ele>659</ele>
<time>2020-09-10T13:01:04Z</time>
</trkpt>
<trkpt lat="47.999098" lon="10.582673">
<ele>659</ele>
<time>2020-09-10T13:01:09Z</time>
</trkpt>
<trkpt lat="47.999098" lon="10.58268">
<ele>659</ele>
<time>2020-09-10T13:01:11Z</time>
</trkpt>
<trkpt lat="47.999083" lon="10.582803">
<ele>659</ele>
<time>2020-09-10T13:01:16Z</time>
</trkpt>
<trkpt lat="47.998982" lon="10.583092">
<ele>657</ele>
<time>2020-09-10T13:01:21Z</time>
</trkpt>
<trkpt lat="47.998928" lon="10.583257">
<ele>657</ele>
<time>2020-09-10T13:01:26Z</time>
</trkpt>
<trkpt lat="47.9989" lon="10.583253">
<ele>657</ele>
<time>2020-09-10T13:01:31Z</time>
</trkpt>
<trkpt lat="47.998902" lon="10.583253">
<ele>657</ele>
<time>2020-09-10T13:01:32Z</time>
</trkpt>
<trkpt lat="47.99888" lon="10.583237">
<ele>657</ele>
<time>2020-09-10T13:01:36Z</time>
</trkpt>
<trkpt lat="47.998872" lon="10.58324">
<ele>657</ele>
<time>2020-09-10T13:01:38Z</time>
</trkpt>
<trkpt lat="47.998872" lon="10.58324">
<ele>657</ele>
</trkpt>
</trkseg>
</trk>
</gpx>